GEFSSGP_prec_meanprecacc_006.txt.gz
Total_Precipitation_Accumulation
0.00 0.00 0.00 0.00 0.00 0.00 0.00 0.00 0.00 0.00 0.00 0.01 0.02 0.02 0.01 0.00 0.00 0.00 0.00 0.00 0.00 0.00 0.00 0.00 0.00 0.00 0.00 0.00 0.00 0.00 0.00 0.00 0.00 0.00 0.00 0.00 0.00 0.00 0.00 0.01 0.01 0.02 0.03 0.02 0.01 0.01 0.01 0.01 0.01
0.00 0.00 0.00 0.00 0.00 0.00 0.00 0.00 0.00 0.00 0.01 0.02 0.02 0.00 0.00 0.00 0.00 0.00 0.00 0.00 0.00 0.00 0.00 0.00 0.00 0.00 0.00 0.00 0.00 0.00 0.00 0.00 0.00 0.01 0.01 0.01 0.01 0.01 0.02 0.03 0.05 0.07 0.09 0.08 0.04 0.03 0.03 0.02 0.01
0.00 0.00 0.00 0.00 0.00 0.00 0.00 0.00 0.00 0.00 0.00 0.01 0.01 0.00 0.00 0.00 0.00 0.00 0.00 0.00 0.00 0.00 0.00 0.00 0.00 0.00 0.00 0.00 0.00 0.00 0.00 0.01 0.01 0.02 0.02 0.02 0.02 0.02 0.03 0.06 0.10 0.14 0.15 0.14 0.14 0.12 0.11 0.05 0.01
0.00 0.00 0.00 0.00 0.00 0.00 0.00 0.00 0.00 0.00 0.00 0.00 0.00 0.00 0.00 0.00 0.00 0.00 0.00 0.00 0.00 0.00 0.00 0.00 0.00 0.00 0.00 0.00 0.00 0.00 0.01 0.02 0.04 0.06 0.06 0.04 0.03 0.03 0.05 0.12 0.16 0.15 0.16 0.17 0.19 0.18 0.14 0.07 0.03
0.00 0.00 0.00 0.00 0.00 0.00 0.00 0.00 0.00 0.00 0.00 0.00 0.00 0.00 0.00 0.00 0.00 0.00 0.00 0.00 0.00 0.00 0.00 0.00 0.00 0.00 0.00 0.00 0.01 0.01 0.03 0.05 0.09 0.12 0.11 0.09 0.07 0.07 0.10 0.17 0.19 0.18 0.21 0.21 0.18 0.12 0.07 0.03 0.01
0.00 0.00 0.00 0.00 0.00 0.00 0.00 0.00 0.00 0.00 0.00 0.00 0.00 0.00 0.00 0.00 0.00 0.00 0.00 0.00 0.01 0.01 0.00 0.01 0.02 0.02 0.01 0.01 0.01 0.02 0.04 0.06 0.08 0.09 0.08 0.07 0.07 0.09 0.14 0.16 0.16 0.17 0.16 0.12 0.07 0.03 0.01 0.01 0.01
0.00 0.00 0.00 0.00 0.00 0.00 0.00 0.00 0.00 0.00 0.00 0.00 0.00 0.00 0.00 0.00 0.00 0.00 0.00 0.01 0.04 0.04 0.05 0.05 0.06 0.04 0.01 0.01 0.00 0.01 0.01 0.01 0.02 0.03 0.03 0.04 0.05 0.06 0.08 0.08 0.08 0.09 0.06 0.04 0.03 0.01 0.01 0.01 0.01
0.00 0.00 0.00 0.00 0.00 0.00 0.00 0.00 0.00 0.00 0.00 0.00 0.00 0.00 0.00 0.00 0.00 0.00 0.02 0.07 0.11 0.16 0.15 0.04 0.02 0.01 0.00 0.00 0.00 0.00 0.00 0.00 0.00 0.01 0.02 0.03 0.04 0.05 0.05 0.04 0.05 0.06 0.06 0.03 0.01 0.00 0.00 0.00 0.00
0.00 0.00 0.00 0.00 0.00 0.00 0.00 0.00 0.00 0.00 0.00 0.00 0.00 0.00 0.00 0.00 0.00 0.01 0.04 0.09 0.10 0.09 0.05 0.02 0.01 0.00 0.00 0.00 0.00 0.00 0.00 0.00 0.00 0.01 0.02 0.03 0.02 0.03 0.03 0.02 0.04 0.05 0.04 0.01 0.00 0.00 0.00 0.00 0.00
0.00 0.00 0.00 0.00 0.00 0.00 0.00 0.00 0.00 0.00 0.00 0.00 0.00 0.00 0.00 0.00 0.00 0.04 0.09 0.13 0.09 0.05 0.03 0.01 0.00 0.00 0.00 0.00 0.00 0.00 0.00 0.00 0.00 0.00 0.01 0.01 0.02 0.02 0.03 0.02 0.02 0.02 0.01 0.00 0.00 0.00 0.00 0.00 0.00
0.00 0.00 0.00 0.00 0.00 0.00 0.00 0.00 0.00 0.00 0.00 0.00 0.00 0.00 0.00 0.00 0.01 0.04 0.07 0.13 0.19 0.18 0.04 0.01 0.00 0.00 0.00 0.00 0.00 0.00 0.00 0.00 0.00 0.00 0.00 0.00 0.01 0.02 0.02 0.01 0.00 0.00 0.00 0.00 0.00 0.00 0.00 0.00 0.00
0.00 0.00 0.00 0.00 0.00 0.00 0.00 0.00 0.00 0.00 0.00 0.00 0.00 0.00 0.00 0.00 0.00 0.01 0.02 0.02 0.05 0.04 0.01 0.00 0.00 0.00 0.00 0.00 0.00 0.00 0.00 0.00 0.00 0.00 0.00 0.00 0.00 0.01 0.00 0.00 0.00 0.00 0.00 0.00 0.00 0.00 0.00 0.00 0.00
0.00 0.00 0.00 0.00 0.00 0.00 0.00 0.00 0.00 0.00 0.00 0.00 0.00 0.00 0.00 0.00 0.00 0.00 0.00 0.00 0.00 0.00 0.00 0.00 0.00 0.00 0.00 0.00 0.00 0.00 0.00 0.00 0.00 0.01 0.01 0.01 0.01 0.01 0.01 0.01 0.00 0.00 0.00 0.00 0.00 0.00 0.00 0.00 0.00
0.00 0.00 0.00 0.00 0.00 0.00 0.00 0.00 0.00 0.00 0.00 0.00 0.00 0.00 0.00 0.00 0.00 0.00 0.00 0.01 0.00 0.00 0.00 0.00 0.00 0.00 0.00 0.00 0.00 0.00 0.00 0.01 0.01 0.02 0.01 0.01 0.01 0.02 0.01 0.00 0.00 0.00 0.00 0.00 0.00 0.00 0.00 0.00 0.00
0.00 0.00 0.00 0.00 0.00 0.00 0.00 0.00 0.00 0.00 0.00 0.00 0.00 0.00 0.00 0.00 0.00 0.00 0.02 0.01 0.00 0.00 0.00 0.00 0.00 0.00 0.00 0.00 0.00 0.00 0.01 0.03 0.03 0.02 0.01 0.01 0.01 0.00 0.00 0.00 0.00 0.00 0.00 0.00 0.00 0.00 0.00 0.00 0.00
0.00 0.00 0.00 0.00 0.00 0.00 0.00 0.00 0.00 0.00 0.00 0.00 0.00 0.00 0.00 0.00 0.00 0.02 0.05 0.03 0.01 0.00 0.00 0.00 0.00 0.00 0.00 0.01 0.01 0.01 0.01 0.02 0.02 0.01 0.00 0.00 0.00 0.00 0.00 0.00 0.00 0.00 0.00 0.00 0.00 0.00 0.00 0.00 0.00
0.00 0.00 0.00 0.00 0.00 0.00 0.00 0.00 0.00 0.00 0.00 0.00 0.00 0.00 0.00 0.00 0.00 0.03 0.06 0.05 0.01 0.00 0.00 0.00 0.00 0.00 0.02 0.03 0.02 0.02 0.01 0.01 0.00 0.00 0.00 0.00 0.00 0.00 0.00 0.00 0.00 0.00 0.00 0.00 0.00 0.01 0.01 0.01 0.01
0.00 0.00 0.00 0.00 0.00 0.00 0.00 0.00 0.00 0.00 0.00 0.00 0.00 0.00 0.00 0.00 0.01 0.03 0.06 0.06 0.02 0.00 0.00 0.00 0.00 0.01 0.03 0.03 0.02 0.01 0.01 0.00 0.00 0.00 0.00 0.00 0.00 0.01 0.01 0.01 0.01 0.01 0.01 0.01 0.00 0.00 0.00 0.00 0.00
0.00 0.00 0.00 0.00 0.00 0.00 0.00 0.00 0.00 0.00 0.00 0.00 0.00 0.00 0.00 0.00 0.01 0.03 0.08 0.06 0.02 0.00 0.00 0.00 0.00 0.02 0.04 0.03 0.01 0.01 0.00 0.00 0.00 0.00 0.00 0.00 0.01 0.01 0.02 0.01 0.01 0.01 0.01 0.01 0.00 0.00 0.00 0.00 0.00
0.00 0.00 0.00 0.00 0.00 0.00 0.00 0.00 0.00 0.00 0.00 0.00 0.00 0.00 0.00 0.00 0.01 0.03 0.05 0.04 0.02 0.00 0.00 0.01 0.01 0.02 0.02 0.01 0.01 0.01 0.00 0.00 0.00 0.00 0.01 0.01 0.01 0.01 0.01 0.01 0.01 0.01 0.01 0.01 0.00 0.00 0.00 0.00 0.00
0.00 0.00 0.00 0.00 0.00 0.00 0.00 0.00 0.00 0.00 0.00 0.00 0.00 0.00 0.00 0.00 0.00 0.01 0.02 0.02 0.02 0.00 0.00 0.00 0.01 0.01 0.01 0.01 0.01 0.01 0.00 0.00 0.00 0.01 0.01 0.01 0.01 0.02 0.02 0.02 0.02 0.01 0.01 0.00 0.00 0.00 0.00 0.00 0.00
0.00 0.00 0.00 0.00 0.00 0.00 0.00 0.00 0.00 0.00 0.00 0.00 0.00 0.00 0.00 0.00 0.00 0.01 0.01 0.01 0.01 0.00 0.00 0.00 0.00 0.00 0.00 0.00 0.00 0.00 0.00 0.00 0.00 0.01 0.01 0.01 0.01 0.00 0.00 0.00 0.00 0.00 0.00 0.00 0.00 0.00 0.00 0.00 0.00
0.00 0.00 0.00 0.00 0.00 0.00 0.00 0.00 0.00 0.00 0.00 0.00 0.00 0.00 0.00 0.00 0.01 0.01 0.01 0.01 0.01 0.00 0.00 0.00 0.00 0.00 0.00 0.00 0.00 0.00 0.00 0.00 0.00 0.00 0.00 0.00 0.00 0.00 0.00 0.00 0.00 0.00 0.00 0.00 0.00 0.00 0.00 0.00 0.00
0.00 0.00 0.00 0.00 0.00 0.00 0.00 0.00 0.00 0.00 0.00 0.00 0.00 0.01 0.01 0.01 0.01 0.02 0.02 0.01 0.01 0.00 0.00 0.00 0.00 0.00 0.00 0.00 0.00 0.00 0.00 0.00 0.00 0.00 0.00 0.00 0.00 0.00 0.00 0.00 0.00 0.00 0.00 0.00 0.00 0.00 0.00 0.00 0.00
0.00 0.00 0.00 0.00 0.00 0.00 0.00 0.00 0.00 0.00 0.00 0.00 0.00 0.01 0.01 0.01 0.01 0.01 0.02 0.01 0.00 0.00 0.00 0.00 0.00 0.00 0.00 0.00 0.00 0.00 0.00 0.00 0.00 0.00 0.00 0.00 0.00 0.00 0.00 0.00 0.00 0.00 0.00 0.00 0.00 0.00 0.00 0.00 0.00
0.00 0.00 0.00 0.00 0.00 0.00 0.00 0.00 0.00 0.00 0.00 0.00 0.00 0.00 0.01 0.01 0.01 0.01 0.01 0.00 0.00 0.00 0.00 0.00 0.00 0.00 0.00 0.00 0.00 0.00 0.00 0.00 0.00 0.00 0.00 0.00 0.00 0.00 0.00 0.00 0.00 0.00 0.00 0.00 0.00 0.00 0.00 0.00 0.00
0.00 0.00 0.00 0.00 0.00 0.00 0.00 0.00 0.00 0.00 0.00 0.00 0.00 0.00 0.01 0.02 0.03 0.02 0.01 0.00 0.00 0.00 0.00 0.00 0.00 0.00 0.00 0.00 0.00 0.00 0.00 0.00 0.00 0.00 0.00 0.00 0.00 0.00 0.00 0.00 0.00 0.00 0.00 0.00 0.00 0.00 0.00 0.00 0.00
0.00 0.00 0.00 0.00 0.00 0.00 0.00 0.00 0.00 0.00 0.00 0.00 0.00 0.01 0.02 0.04 0.05 0.04 0.02 0.01 0.00 0.00 0.00 0.00 0.00 0.00 0.00 0.00 0.00 0.00 0.00 0.00 0.00 0.00 0.00 0.00 0.00 0.00 0.00 0.00 0.00 0.00 0.00 0.00 0.00 0.00 0.00 0.00 0.00
0.00 0.00 0.00 0.00 0.00 0.00 0.00 0.00 0.00 0.00 0.00 0.00 0.00 0.01 0.05 0.08 0.08 0.07 0.05 0.01 0.00 0.00 0.00 0.01 0.01 0.00 0.00 0.00 0.00 0.00 0.00 0.00 0.00 0.00 0.00 0.00 0.00 0.00 0.00 0.00 0.00 0.00 0.00 0.00 0.00 0.00 0.00 0.00 0.00
0.00 0.00 0.00 0.00 0.00 0.00 0.00 0.00 0.00 0.00 0.00 0.00 0.02 0.05 0.09 0.09 0.08 0.07 0.06 0.03 0.04 0.04 0.04 0.02 0.01 0.00 0.00 0.00 0.00 0.00 0.00 0.00 0.00 0.00 0.00 0.00 0.00 0.00 0.00 0.00 0.00 0.00 0.00 0.00 0.00 0.00 0.00 0.00 0.00

GEFSSGP_prec_meanprecacc_012.txt.gz
Total_Precipitation_Accumulation
0.00 0.00 0.00 0.00 0.00 0.00 0.00 0.00 0.00 0.00 0.00 0.01 0.02 0.02 0.01 0.00 0.00 0.00 0.00 0.00 0.00 0.00 0.00 0.00 0.00 0.00 0.00 0.00 0.00 0.00 0.00 0.00 0.00 0.00 0.00 0.00 0.00 0.00 0.01 0.02 0.05 0.07 0.08 0.07 0.05 0.05 0.05 0.04 0.02
0.00 0.00 0.00 0.00 0.00 0.00 0.00 0.00 0.00 0.00 0.01 0.02 0.02 0.00 0.00 0.00 0.00 0.00 0.00 0.00 0.00 0.00 0.00 0.00 0.00 0.00 0.00 0.00 0.00 0.00 0.00 0.00 0.00 0.01 0.01 0.01 0.02 0.02 0.03 0.05 0.08 0.13 0.16 0.17 0.15 0.12 0.10 0.07 0.03
0.00 0.00 0.00 0.00 0.00 0.00 0.00 0.00 0.00 0.00 0.00 0.01 0.01 0.00 0.00 0.00 0.00 0.00 0.00 0.00 0.00 0.00 0.00 0.00 0.00 0.01 0.00 0.00 0.00 0.00 0.00 0.01 0.02 0.02 0.03 0.03 0.03 0.04 0.06 0.08 0.13 0.18 0.20 0.20 0.18 0.17 0.15 0.08 0.02
0.00 0.00 0.00 0.00 0.00 0.00 0.00 0.00 0.00 0.00 0.00 0.00 0.00 0.00 0.00 0.00 0.00 0.00 0.00 0.00 0.00 0.00 0.00 0.00 0.00 0.01 0.01 0.00 0.00 0.00 0.01 0.03 0.05 0.07 0.07 0.06 0.07 0.07 0.10 0.17 0.22 0.22 0.22 0.22 0.24 0.23 0.18 0.10 0.04
0.00 0.00 0.00 0.00 0.00 0.00 0.00 0.00 0.00 0.00 0.00 0.00 0.00 0.00 0.00 0.00 0.00 0.00 0.00 0.00 0.00 0.00 0.00 0.00 0.01 0.01 0.01 0.00 0.01 0.02 0.04 0.07 0.11 0.15 0.14 0.11 0.11 0.11 0.15 0.21 0.24 0.24 0.27 0.27 0.26 0.20 0.13 0.05 0.02
0.00 0.00 0.00 0.00 0.00 0.00 0.00 0.00 0.00 0.00 0.00 0.00 0.00 0.00 0.00 0.00 0.00 0.00 0.00 0.00 0.02 0.01 0.00 0.01 0.03 0.02 0.02 0.01 0.02 0.05 0.08 0.10 0.12 0.13 0.12 0.12 0.11 0.11 0.16 0.18 0.19 0.21 0.22 0.17 0.10 0.05 0.03 0.02 0.02
0.00 0.00 0.00 0.00 0.00 0.00 0.00 0.00 0.00 0.00 0.00 0.00 0.00 0.00 0.00 0.00 0.00 0.00 0.00 0.01 0.04 0.04 0.06 0.05 0.06 0.04 0.02 0.02 0.03 0.04 0.05 0.05 0.07 0.09 0.09 0.09 0.08 0.08 0.10 0.10 0.11 0.12 0.08 0.05 0.04 0.01 0.01 0.02 0.01
0.00 0.00 0.00 0.00 0.00 0.00 0.00 0.00 0.00 0.00 0.00 0.00 0.00 0.00 0.00 0.00 0.00 0.00 0.02 0.07 0.11 0.17 0.16 0.04 0.02 0.01 0.01 0.01 0.01 0.02 0.02 0.03 0.04 0.06 0.06 0.06 0.06 0.07 0.07 0.06 0.06 0.08 0.07 0.05 0.02 0.01 0.00 0.01 0.00
0.00 0.00 0.00 0.00 0.00 0.00 0.00 0.00 0.00 0.00 0.00 0.00 0.00 0.00 0.00 0.00 0.00 0.01 0.04 0.09 0.10 0.09 0.06 0.02 0.01 0.00 0.00 0.00 0.00 0.00 0.00 0.01 0.02 0.04 0.05 0.05 0.03 0.04 0.04 0.03 0.04 0.07 0.06 0.02 0.00 0.00 0.00 0.00 0.00
0.00 0.00 0.00 0.00 0.00 0.00 0.00 0.00 0.00 0.00 0.00 0.00 0.00 0.00 0.00 0.00 0.00 0.04 0.09 0.13 0.09 0.05 0.03 0.02 0.00 0.00 0.00 0.00 0.00 0.01 0.00 0.01 0.02 0.03 0.02 0.02 0.03 0.04 0.04 0.02 0.04 0.03 0.02 0.00 0.00 0.00 0.00 0.00 0.00
0.00 0.00 0.00 0.00 0.00 0.00 0.00 0.00 0.00 0.00 0.00 0.00 0.00 0.00 0.00 0.00 0.01 0.04 0.07 0.13 0.19 0.18 0.04 0.01 0.01 0.00 0.00 0.00 0.00 0.00 0.00 0.01 0.01 0.01 0.01 0.01 0.02 0.03 0.02 0.01 0.00 0.00 0.00 0.00 0.00 0.00 0.00 0.00 0.00
0.00 0.00 0.00 0.00 0.00 0.00 0.00 0.00 0.00 0.00 0.00 0.00 0.00 0.00 0.00 0.00 0.00 0.01 0.02 0.02 0.05 0.04 0.01 0.01 0.00 0.00 0.00 0.00 0.00 0.00 0.00 0.00 0.00 0.00 0.01 0.01 0.01 0.01 0.01 0.00 0.00 0.00 0.00 0.00 0.00 0.00 0.00 0.00 0.00
0.00 0.00 0.00 0.00 0.00 0.00 0.00 0.00 0.00 0.00 0.00 0.00 0.00 0.00 0.00 0.00 0.00 0.00 0.00 0.00 0.00 0.00 0.00 0.00 0.00 0.00 0.00 0.00 0.00 0.00 0.00 0.01 0.01 0.01 0.01 0.01 0.01 0.02 0.01 0.01 0.00 0.00 0.00 0.00 0.00 0.00 0.00 0.00 0.00
0.00 0.00 0.00 0.00 0.00 0.00 0.00 0.00 0.00 0.00 0.00 0.00 0.00 0.00 0.00 0.00 0.00 0.00 0.00 0.01 0.00 0.00 0.00 0.00 0.00 0.00 0.00 0.00 0.00 0.00 0.01 0.02 0.02 0.02 0.01 0.01 0.01 0.02 0.01 0.01 0.01 0.00 0.00 0.00 0.00 0.00 0.00 0.00 0.00
0.00 0.00 0.00 0.00 0.00 0.00 0.00 0.00 0.00 0.00 0.00 0.00 0.00 0.00 0.00 0.00 0.00 0.00 0.02 0.01 0.00 0.00 0.00 0.00 0.00 0.00 0.00 0.00 0.00 0.00 0.01 0.03 0.04 0.03 0.02 0.01 0.01 0.00 0.00 0.00 0.00 0.00 0.00 0.00 0.00 0.00 0.00 0.00 0.00
0.00 0.00 0.00 0.00 0.00 0.00 0.00 0.00 0.00 0.00 0.00 0.00 0.00 0.00 0.00 0.00 0.00 0.02 0.05 0.03 0.01 0.00 0.00 0.00 0.00 0.00 0.00 0.01 0.01 0.01 0.02 0.03 0.03 0.02 0.01 0.01 0.00 0.00 0.00 0.00 0.00 0.00 0.00 0.00 0.00 0.00 0.01 0.01 0.01
0.00 0.00 0.00 0.00 0.00 0.00 0.00 0.00 0.00 0.00 0.00 0.00 0.00 0.00 0.00 0.00 0.01 0.03 0.06 0.05 0.02 0.00 0.00 0.00 0.00 0.00 0.02 0.03 0.02 0.02 0.02 0.02 0.02 0.02 0.01 0.01 0.00 0.00 0.00 0.00 0.00 0.00 0.00 0.00 0.00 0.01 0.02 0.02 0.01
0.00 0.00 0.00 0.00 0.00 0.00 0.00 0.00 0.00 0.00 0.00 0.00 0.00 0.00 0.00 0.00 0.01 0.03 0.07 0.06 0.02 0.00 0.00 0.00 0.00 0.01 0.03 0.03 0.02 0.01 0.01 0.01 0.01 0.01 0.00 0.00 0.00 0.01 0.01 0.01 0.01 0.01 0.01 0.01 0.01 0.00 0.00 0.00 0.00
0.00 0.00 0.00 0.00 0.00 0.00 0.00 0.00 0.00 0.00 0.00 0.00 0.00 0.00 0.00 0.01 0.02 0.04 0.09 0.07 0.02 0.00 0.00 0.00 0.00 0.02 0.05 0.03 0.01 0.01 0.01 0.00 0.00 0.00 0.00 0.00 0.01 0.01 0.02 0.01 0.01 0.01 0.01 0.01 0.00 0.00 0.00 0.00 0.00
0.00 0.00 0.00 0.00 0.00 0.00 0.00 0.00 0.00 0.00 0.00 0.00 0.00 0.00 0.01 0.02 0.03 0.06 0.09 0.07 0.06 0.03 0.02 0.01 0.01 0.03 0.03 0.02 0.02 0.01 0.01 0.00 0.00 0.00 0.01 0.01 0.01 0.01 0.01 0.01 0.01 0.01 0.01 0.01 0.00 0.00 0.00 0.00 0.00
0.00 0.00 0.00 0.00 0.00 0.00 0.00 0.00 0.00 0.00 0.00 0.00 0.00 0.00 0.01 0.02 0.04 0.07 0.10 0.12 0.13 0.10 0.08 0.04 0.02 0.01 0.02 0.02 0.02 0.01 0.01 0.00 0.00 0.01 0.01 0.01 0.01 0.02 0.02 0.02 0.02 0.01 0.01 0.00 0.00 0.00 0.00 0.00 0.00
0.00 0.00 0.00 0.00 0.00 0.00 0.00 0.00 0.00 0.00 0.00 0.00 0.00 0.00 0.00 0.01 0.03 0.08 0.10 0.14 0.17 0.15 0.11 0.06 0.04 0.02 0.01 0.01 0.01 0.01 0.00 0.00 0.00 0.01 0.01 0.01 0.01 0.00 0.00 0.00 0.00 0.00 0.00 0.00 0.00 0.00 0.00 0.00 0.00
0.00 0.00 0.00 0.00 0.00 0.00 0.00 0.00 0.00 0.00 0.00 0.00 0.00 0.00 0.00 0.01 0.02 0.05 0.08 0.14 0.17 0.15 0.11 0.08 0.05 0.04 0.03 0.02 0.01 0.01 0.01 0.01 0.00 0.00 0.00 0.00 0.00 0.00 0.00 0.00 0.00 0.00 0.00 0.00 0.00 0.00 0.00 0.00 0.00
0.00 0.00 0.00 0.00 0.00 0.00 0.00 0.00 0.00 0.00 0.00 0.00 0.00 0.01 0.01 0.01 0.02 0.03 0.05 0.08 0.11 0.14 0.12 0.09 0.07 0.06 0.05 0.02 0.01 0.01 0.01 0.00 0.00 0.00 0.00 0.00 0.00 0.00 0.00 0.00 0.00 0.00 0.00 0.00 0.00 0.00 0.00 0.00 0.00
0.00 0.00 0.00 0.00 0.00 0.00 0.00 0.00 0.00 0.00 0.00 0.00 0.00 0.01 0.01 0.01 0.02 0.02 0.03 0.04 0.06 0.10 0.12 0.11 0.09 0.06 0.04 0.02 0.01 0.00 0.00 0.00 0.00 0.00 0.00 0.00 0.00 0.00 0.00 0.00 0.00 0.00 0.00 0.00 0.00 0.00 0.00 0.00 0.00
0.00 0.00 0.00 0.00 0.00 0.00 0.00 0.00 0.00 0.00 0.00 0.00 0.00 0.00 0.01 0.02 0.02 0.02 0.03 0.04 0.05 0.07 0.09 0.09 0.07 0.04 0.02 0.01 0.01 0.00 0.00 0.00 0.00 0.00 0.00 0.00 0.00 0.00 0.00 0.00 0.00 0.00 0.00 0.00 0.00 0.00 0.00 0.00 0.00
0.00 0.00 0.00 0.00 0.00 0.00 0.00 0.00 0.00 0.00 0.00 0.00 0.00 0.01 0.02 0.03 0.04 0.03 0.03 0.03 0.04 0.06 0.07 0.06 0.04 0.02 0.01 0.01 0.00 0.00 0.00 0.00 0.00 0.00 0.00 0.00 0.00 0.00 0.00 0.00 0.00 0.00 0.00 0.00 0.00 0.00 0.00 0.00 0.00
0.00 0.00 0.00 0.00 0.00 0.00 0.00 0.00 0.00 0.00 0.00 0.00 0.00 0.01 0.03 0.05 0.06 0.05 0.03 0.02 0.03 0.04 0.03 0.02 0.02 0.01 0.01 0.00 0.00 0.00 0.00 0.00 0.00 0.00 0.00 0.00 0.00 0.00 0.00 0.00 0.00 0.00 0.00 0.00 0.00 0.00 0.00 0.00 0.00
0.00 0.00 0.00 0.00 0.00 0.00 0.00 0.00 0.00 0.00 0.00 0.00 0.00 0.02 0.06 0.09 0.08 0.07 0.06 0.03 0.03 0.03 0.02 0.02 0.02 0.01 0.01 0.00 0.00 0.00 0.00 0.00 0.00 0.00 0.00 0.00 0.00 0.00 0.00 0.00 0.00 0.00 0.00 0.00 0.00 0.00 0.00 0.00 0.00
0.00 0.00 0.00 0.00 0.00 0.00 0.00 0.00 0.00 0.00 0.00 0.00 0.02 0.06 0.10 0.09 0.08 0.07 0.07 0.05 0.07 0.07 0.07 0.05 0.03 0.02 0.01 0.00 0.00 0.00 0.00 0.00 0.00 0.00 0.00 0.00 0.00 0.00 0.00 0.00 0.00 0.00 0.00 0.00 0.00 0.00 0.00 0.00 0.00

GEFSSGP_prec_meanprecacc_018.txt.gz
Total_Precipitation_Accumulation
0.00 0.00 0.00 0.00 0.00 0.00 0.00 0.00 0.00 0.00 0.01 0.01 0.02 0.02 0.01 0.00 0.01 0.07 0.02 0.00 0.00 0.00 0.00 0.00 0.00 0.00 0.00 0.00 0.00 0.01 0.02 0.02 0.03 0.03 0.03 0.02 0.02 0.02 0.01 0.02 0.05 0.07 0.09 0.07 0.06 0.06 0.06 0.04 0.02
0.00 0.00 0.00 0.00 0.00 0.00 0.00 0.00 0.00 0.01 0.02 0.02 0.02 0.00 0.00 0.00 0.00 0.00 0.00 0.00 0.00 0.00 0.00 0.00 0.00 0.00 0.00 0.00 0.00 0.01 0.02 0.02 0.02 0.03 0.03 0.02 0.03 0.03 0.03 0.05 0.09 0.13 0.17 0.18 0.15 0.12 0.10 0.07 0.03
0.00 0.00 0.00 0.00 0.00 0.00 0.00 0.00 0.00 0.00 0.01 0.01 0.01 0.00 0.00 0.00 0.00 0.00 0.00 0.00 0.00 0.00 0.00 0.00 0.00 0.01 0.00 0.00 0.00 0.01 0.03 0.03 0.03 0.04 0.04 0.04 0.04 0.04 0.06 0.09 0.13 0.18 0.20 0.20 0.18 0.17 0.15 0.08 0.02
0.00 0.00 0.00 0.00 0.00 0.00 0.01 0.01 0.00 0.00 0.00 0.00 0.00 0.00 0.00 0.00 0.00 0.00 0.00 0.00 0.00 0.00 0.00 0.00 0.00 0.01 0.01 0.00 0.00 0.02 0.03 0.05 0.06 0.08 0.08 0.07 0.07 0.07 0.11 0.17 0.22 0.22 0.22 0.22 0.24 0.23 0.18 0.10 0.04
0.00 0.00 0.00 0.00 0.00 0.00 0.00 0.00 0.00 0.00 0.00 0.00 0.00 0.00 0.00 0.00 0.00 0.00 0.00 0.00 0.00 0.01 0.00 0.00 0.01 0.01 0.01 0.01 0.02 0.04 0.06 0.09 0.13 0.16 0.15 0.11 0.11 0.11 0.15 0.22 0.25 0.24 0.28 0.28 0.26 0.20 0.14 0.06 0.04
0.00 0.00 0.00 0.00 0.00 0.00 0.00 0.00 0.00 0.01 0.00 0.00 0.00 0.01 0.00 0.00 0.00 0.00 0.00 0.01 0.02 0.01 0.00 0.01 0.03 0.03 0.02 0.02 0.03 0.06 0.09 0.12 0.14 0.15 0.14 0.12 0.11 0.12 0.16 0.18 0.19 0.21 0.22 0.17 0.11 0.07 0.05 0.05 0.05
0.00 0.00 0.00 0.00 0.00 0.00 0.00 0.00 0.00 0.00 0.00 0.00 0.00 0.00 0.00 0.00 0.00 0.00 0.00 0.01 0.04 0.04 0.06 0.05 0.06 0.04 0.02 0.03 0.03 0.05 0.06 0.06 0.09 0.11 0.11 0.10 0.09 0.09 0.10 0.10 0.12 0.13 0.09 0.05 0.04 0.03 0.03 0.03 0.02
0.00 0.00 0.00 0.00 0.00 0.00 0.00 0.00 0.00 0.00 0.01 0.00 0.00 0.00 0.00 0.00 0.00 0.00 0.02 0.07 0.11 0.17 0.16 0.04 0.02 0.02 0.01 0.01 0.01 0.02 0.03 0.03 0.05 0.06 0.07 0.07 0.07 0.07 0.07 0.06 0.06 0.08 0.07 0.05 0.02 0.01 0.01 0.01 0.00
0.00 0.00 0.00 0.00 0.00 0.00 0.00 0.00 0.00 0.00 0.00 0.00 0.00 0.00 0.00 0.00 0.00 0.01 0.04 0.09 0.10 0.09 0.06 0.02 0.01 0.01 0.00 0.01 0.00 0.00 0.01 0.01 0.03 0.04 0.05 0.06 0.07 0.07 0.06 0.04 0.05 0.07 0.06 0.02 0.00 0.00 0.00 0.00 0.00
0.00 0.00 0.00 0.00 0.00 0.00 0.00 0.00 0.00 0.00 0.00 0.00 0.00 0.00 0.00 0.00 0.00 0.04 0.09 0.13 0.09 0.05 0.03 0.02 0.00 0.00 0.00 0.00 0.01 0.01 0.01 0.01 0.03 0.06 0.03 0.07 0.10 0.09 0.07 0.03 0.04 0.03 0.02 0.00 0.00 0.00 0.00 0.00 0.00
0.00 0.00 0.00 0.00 0.00 0.00 0.00 0.00 0.00 0.00 0.00 0.01 0.01 0.01 0.01 0.00 0.01 0.04 0.07 0.13 0.19 0.18 0.04 0.01 0.01 0.00 0.01 0.00 0.00 0.00 0.01 0.01 0.03 0.05 0.03 0.07 0.04 0.05 0.03 0.01 0.01 0.00 0.00 0.00 0.00 0.00 0.00 0.00 0.00
0.00 0.00 0.00 0.00 0.00 0.00 0.00 0.00 0.00 0.00 0.00 0.01 0.02 0.02 0.02 0.01 0.00 0.01 0.02 0.02 0.05 0.04 0.01 0.01 0.00 0.00 0.00 0.00 0.00 0.00 0.00 0.00 0.01 0.01 0.02 0.03 0.03 0.02 0.03 0.02 0.00 0.00 0.00 0.00 0.00 0.00 0.00 0.00 0.00
0.00 0.00 0.00 0.00 0.00 0.00 0.00 0.00 0.00 0.00 0.00 0.01 0.01 0.01 0.01 0.00 0.00 0.00 0.00 0.01 0.00 0.00 0.00 0.00 0.00 0.00 0.00 0.00 0.00 0.00 0.00 0.01 0.01 0.01 0.01 0.02 0.02 0.03 0.02 0.01 0.01 0.00 0.00 0.00 0.00 0.00 0.00 0.00 0.00
0.00 0.00 0.00 0.00 0.00 0.00 0.00 0.00 0.00 0.00 0.00 0.00 0.00 0.00 0.00 0.01 0.01 0.04 0.02 0.01 0.00 0.00 0.00 0.00 0.00 0.00 0.00 0.00 0.00 0.00 0.01 0.02 0.02 0.02 0.01 0.01 0.02 0.04 0.02 0.02 0.01 0.00 0.00 0.00 0.00 0.00 0.00 0.00 0.00
0.00 0.00 0.00 0.00 0.00 0.00 0.00 0.00 0.00 0.00 0.00 0.00 0.00 0.00 0.00 0.02 0.03 0.04 0.03 0.02 0.00 0.00 0.00 0.00 0.00 0.00 0.00 0.00 0.00 0.00 0.01 0.04 0.05 0.04 0.02 0.01 0.01 0.01 0.01 0.01 0.01 0.00 0.00 0.00 0.00 0.00 0.00 0.00 0.00
0.00 0.00 0.00 0.00 0.00 0.00 0.00 0.00 0.00 0.00 0.00 0.00 0.00 0.00 0.00 0.00 0.01 0.03 0.06 0.05 0.01 0.00 0.00 0.00 0.00 0.00 0.00 0.01 0.01 0.02 0.02 0.04 0.04 0.03 0.02 0.01 0.00 0.00 0.00 0.00 0.01 0.00 0.00 0.00 0.00 0.01 0.01 0.01 0.01
0.00 0.00 0.00 0.00 0.00 0.00 0.00 0.00 0.00 0.00 0.00 0.00 0.00 0.00 0.00 0.00 0.01 0.03 0.07 0.06 0.02 0.00 0.00 0.00 0.00 0.00 0.02 0.03 0.03 0.03 0.03 0.03 0.02 0.02 0.02 0.01 0.01 0.00 0.00 0.01 0.01 0.00 0.00 0.00 0.00 0.02 0.02 0.02 0.02
0.00 0.00 0.00 0.00 0.00 0.00 0.00 0.00 0.00 0.00 0.00 0.00 0.00 0.00 0.00 0.00 0.01 0.04 0.08 0.09 0.02 0.00 0.01 0.01 0.00 0.01 0.03 0.04 0.03 0.03 0.02 0.02 0.02 0.02 0.01 0.01 0.01 0.01 0.01 0.01 0.01 0.01 0.01 0.01 0.01 0.01 0.00 0.00 0.00
0.00 0.00 0.00 0.00 0.00 0.00 0.00 0.00 0.00 0.00 0.00 0.00 0.00 0.00 0.00 0.01 0.02 0.06 0.14 0.16 0.06 0.01 0.01 0.01 0.01 0.02 0.05 0.05 0.03 0.02 0.02 0.01 0.01 0.01 0.00 0.01 0.01 0.01 0.02 0.01 0.01 0.01 0.01 0.01 0.00 0.00 0.00 0.00 0.00
0.00 0.00 0.00 0.00 0.00 0.00 0.00 0.00 0.00 0.00 0.00 0.00 0.00 0.00 0.01 0.02 0.03 0.09 0.16 0.18 0.13 0.06 0.03 0.02 0.03 0.04 0.05 0.04 0.03 0.02 0.01 0.01 0.01 0.01 0.01 0.01 0.01 0.02 0.02 0.01 0.01 0.01 0.01 0.01 0.00 0.00 0.00 0.00 0.00
0.00 0.00 0.00 0.00 0.00 0.00 0.00 0.00 0.00 0.00 0.00 0.00 0.00 0.00 0.01 0.02 0.04 0.08 0.13 0.18 0.21 0.15 0.10 0.06 0.06 0.06 0.05 0.04 0.02 0.02 0.01 0.01 0.01 0.02 0.02 0.02 0.01 0.02 0.02 0.02 0.02 0.01 0.01 0.00 0.00 0.00 0.00 0.00 0.00
0.00 0.00 0.00 0.00 0.00 0.00 0.00 0.00 0.00 0.00 0.00 0.00 0.00 0.00 0.00 0.01 0.03 0.08 0.12 0.17 0.22 0.20 0.14 0.11 0.10 0.08 0.05 0.04 0.03 0.03 0.03 0.03 0.03 0.03 0.03 0.02 0.01 0.01 0.00 0.00 0.00 0.00 0.00 0.00 0.00 0.00 0.00 0.00 0.00
0.00 0.00 0.00 0.00 0.00 0.00 0.00 0.00 0.00 0.00 0.00 0.00 0.00 0.00 0.00 0.01 0.02 0.06 0.10 0.16 0.21 0.19 0.17 0.15 0.14 0.12 0.10 0.08 0.07 0.06 0.07 0.07 0.06 0.04 0.02 0.01 0.00 0.00 0.00 0.00 0.00 0.00 0.00 0.00 0.00 0.00 0.00 0.00 0.00
0.00 0.00 0.00 0.00 0.00 0.00 0.00 0.00 0.00 0.00 0.00 0.00 0.00 0.01 0.01 0.01 0.02 0.04 0.07 0.12 0.16 0.20 0.21 0.20 0.20 0.22 0.17 0.12 0.11 0.09 0.08 0.07 0.05 0.03 0.01 0.00 0.00 0.00 0.00 0.00 0.00 0.00 0.00 0.00 0.00 0.00 0.00 0.00 0.00
0.00 0.00 0.00 0.00 0.00 0.00 0.00 0.00 0.00 0.00 0.00 0.00 0.00 0.01 0.01 0.01 0.02 0.05 0.07 0.09 0.13 0.17 0.21 0.25 0.23 0.19 0.15 0.12 0.10 0.08 0.06 0.04 0.02 0.01 0.01 0.00 0.00 0.00 0.00 0.00 0.00 0.00 0.00 0.00 0.00 0.00 0.00 0.00 0.00
0.00 0.00 0.00 0.00 0.00 0.00 0.00 0.00 0.00 0.00 0.00 0.00 0.00 0.00 0.01 0.02 0.04 0.05 0.07 0.08 0.08 0.10 0.16 0.18 0.15 0.11 0.09 0.07 0.06 0.05 0.03 0.02 0.02 0.01 0.00 0.00 0.00 0.00 0.00 0.00 0.00 0.00 0.00 0.00 0.00 0.00 0.00 0.00 0.00
0.00 0.00 0.00 0.00 0.00 0.00 0.00 0.00 0.00 0.00 0.00 0.00 0.00 0.01 0.02 0.03 0.04 0.04 0.05 0.06 0.06 0.07 0.09 0.10 0.08 0.07 0.06 0.05 0.04 0.03 0.02 0.01 0.01 0.00 0.00 0.00 0.00 0.00 0.00 0.00 0.00 0.00 0.00 0.00 0.00 0.00 0.00 0.00 0.00
0.00 0.00 0.00 0.00 0.00 0.00 0.00 0.00 0.00 0.00 0.00 0.00 0.00 0.01 0.03 0.06 0.07 0.06 0.05 0.04 0.04 0.05 0.05 0.05 0.05 0.05 0.05 0.04 0.03 0.03 0.02 0.01 0.00 0.00 0.00 0.00 0.00 0.00 0.00 0.00 0.00 0.00 0.00 0.00 0.00 0.00 0.00 0.00 0.00
0.00 0.00 0.00 0.00 0.00 0.00 0.00 0.00 0.00 0.00 0.00 0.00 0.00 0.02 0.06 0.10 0.09 0.09 0.07 0.04 0.03 0.04 0.05 0.06 0.06 0.06 0.05 0.04 0.03 0.02 0.01 0.00 0.00 0.00 0.00 0.00 0.00 0.00 0.00 0.00 0.00 0.00 0.00 0.00 0.00 0.00 0.00 0.01 0.01
0.00 0.00 0.00 0.00 0.00 0.00 0.00 0.00 0.00 0.00 0.00 0.00 0.02 0.06 0.11 0.11 0.10 0.09 0.08 0.06 0.07 0.09 0.10 0.10 0.08 0.06 0.05 0.03 0.02 0.01 0.01 0.00 0.00 0.00 0.00 0.00 0.00 0.00 0.00 0.00 0.00 0.00 0.00 0.00 0.00 0.01 0.01 0.02 0.03

GEFSSGP_prec_meanprecacc_024.txt.gz
Total_Precipitation_Accumulation
0.00 0.00 0.00 0.00 0.00 0.00 0.00 0.00 0.00 0.01 0.01 0.02 0.03 0.03 0.02 0.01 0.02 0.10 0.04 0.01 0.01 0.00 0.00 0.00 0.00 0.00 0.00 0.00 0.00 0.01 0.02 0.02 0.03 0.03 0.03 0.03 0.02 0.02 0.01 0.02 0.05 0.07 0.09 0.07 0.06 0.06 0.06 0.04 0.02
0.00 0.00 0.00 0.00 0.00 0.00 0.00 0.00 0.01 0.01 0.02 0.03 0.02 0.01 0.00 0.00 0.00 0.00 0.01 0.01 0.00 0.00 0.00 0.00 0.00 0.00 0.00 0.00 0.00 0.01 0.02 0.02 0.02 0.03 0.03 0.02 0.03 0.03 0.03 0.05 0.09 0.13 0.17 0.18 0.15 0.12 0.10 0.07 0.03
0.00 0.00 0.00 0.00 0.00 0.00 0.00 0.01 0.02 0.01 0.01 0.02 0.02 0.00 0.00 0.00 0.00 0.00 0.00 0.00 0.00 0.00 0.00 0.00 0.00 0.01 0.00 0.00 0.00 0.01 0.03 0.03 0.03 0.04 0.04 0.04 0.04 0.04 0.06 0.09 0.13 0.18 0.20 0.20 0.18 0.17 0.15 0.08 0.02
0.00 0.00 0.00 0.00 0.00 0.00 0.01 0.02 0.03 0.02 0.01 0.01 0.01 0.00 0.00 0.00 0.00 0.00 0.01 0.01 0.00 0.00 0.00 0.00 0.00 0.01 0.01 0.00 0.00 0.02 0.03 0.05 0.06 0.08 0.08 0.07 0.07 0.07 0.11 0.17 0.22 0.22 0.22 0.22 0.24 0.23 0.18 0.10 0.04
0.00 0.00 0.00 0.00 0.00 0.00 0.01 0.02 0.03 0.02 0.01 0.01 0.00 0.00 0.00 0.00 0.00 0.00 0.01 0.01 0.01 0.01 0.00 0.00 0.01 0.01 0.01 0.01 0.02 0.04 0.06 0.09 0.13 0.16 0.15 0.12 0.11 0.11 0.15 0.22 0.25 0.24 0.28 0.28 0.26 0.20 0.14 0.06 0.04
0.00 0.00 0.00 0.00 0.00 0.00 0.00 0.01 0.02 0.02 0.02 0.01 0.00 0.01 0.01 0.00 0.00 0.00 0.00 0.01 0.02 0.01 0.01 0.01 0.03 0.03 0.02 0.02 0.03 0.06 0.09 0.12 0.14 0.15 0.14 0.12 0.11 0.12 0.16 0.18 0.19 0.21 0.23 0.17 0.11 0.08 0.05 0.05 0.05
0.00 0.00 0.00 0.00 0.00 0.00 0.00 0.01 0.01 0.01 0.02 0.02 0.01 0.01 0.01 0.00 0.00 0.00 0.00 0.02 0.04 0.05 0.06 0.05 0.06 0.04 0.02 0.03 0.03 0.05 0.06 0.06 0.09 0.11 0.11 0.10 0.09 0.09 0.10 0.11 0.12 0.13 0.09 0.06 0.04 0.03 0.03 0.03 0.02
0.00 0.00 0.00 0.00 0.00 0.00 0.00 0.01 0.01 0.01 0.02 0.02 0.01 0.01 0.01 0.00 0.00 0.00 0.02 0.07 0.12 0.18 0.16 0.04 0.02 0.02 0.01 0.01 0.01 0.02 0.03 0.03 0.05 0.07 0.07 0.07 0.07 0.07 0.07 0.06 0.07 0.08 0.07 0.05 0.02 0.01 0.01 0.01 0.00
0.00 0.00 0.00 0.00 0.00 0.00 0.00 0.01 0.01 0.01 0.01 0.01 0.01 0.01 0.01 0.01 0.00 0.01 0.04 0.09 0.11 0.09 0.06 0.02 0.01 0.01 0.00 0.01 0.00 0.00 0.01 0.01 0.03 0.04 0.05 0.06 0.07 0.07 0.06 0.04 0.05 0.07 0.06 0.02 0.00 0.00 0.00 0.00 0.00
0.00 0.00 0.00 0.00 0.00 0.00 0.00 0.01 0.01 0.01 0.01 0.01 0.01 0.02 0.02 0.01 0.01 0.04 0.10 0.14 0.10 0.05 0.03 0.02 0.01 0.00 0.00 0.00 0.01 0.01 0.01 0.01 0.03 0.06 0.03 0.07 0.10 0.10 0.07 0.04 0.04 0.03 0.02 0.00 0.00 0.00 0.00 0.00 0.00
0.00 0.00 0.00 0.00 0.00 0.00 0.00 0.00 0.01 0.01 0.01 0.02 0.04 0.06 0.04 0.01 0.02 0.05 0.09 0.14 0.20 0.18 0.04 0.02 0.01 0.01 0.01 0.00 0.00 0.00 0.01 0.01 0.03 0.05 0.03 0.07 0.05 0.06 0.06 0.03 0.01 0.01 0.00 0.00 0.00 0.00 0.00 0.00 0.00
0.00 0.00 0.00 0.00 0.00 0.00 0.00 0.00 0.00 0.01 0.01 0.04 0.06 0.10 0.08 0.03 0.03 0.06 0.08 0.06 0.07 0.05 0.01 0.01 0.01 0.01 0.01 0.00 0.00 0.01 0.01 0.01 0.02 0.02 0.02 0.03 0.05 0.06 0.10 0.06 0.02 0.02 0.01 0.01 0.00 0.00 0.00 0.00 0.00
0.00 0.00 0.00 0.00 0.00 0.00 0.00 0.00 0.00 0.00 0.01 0.03 0.03 0.03 0.03 0.01 0.02 0.04 0.05 0.06 0.04 0.02 0.01 0.01 0.01 0.00 0.00 0.00 0.00 0.01 0.01 0.01 0.01 0.02 0.01 0.02 0.03 0.06 0.07 0.04 0.02 0.02 0.01 0.01 0.00 0.00 0.00 0.00 0.00
0.00 0.00 0.00 0.00 0.00 0.00 0.00 0.00 0.00 0.00 0.00 0.01 0.01 0.02 0.02 0.02 0.03 0.08 0.11 0.10 0.09 0.04 0.01 0.01 0.00 0.00 0.00 0.00 0.00 0.00 0.01 0.02 0.02 0.02 0.01 0.01 0.03 0.06 0.06 0.03 0.02 0.01 0.00 0.01 0.00 0.00 0.00 0.00 0.00
0.00 0.00 0.00 0.00 0.00 0.00 0.00 0.00 0.00 0.00 0.00 0.00 0.00 0.01 0.02 0.03 0.04 0.08 0.11 0.09 0.12 0.05 0.01 0.01 0.01 0.01 0.00 0.00 0.00 0.00 0.01 0.04 0.05 0.04 0.02 0.01 0.01 0.01 0.01 0.01 0.01 0.00 0.00 0.00 0.00 0.00 0.00 0.00 0.00
0.00 0.00 0.00 0.00 0.00 0.00 0.00 0.00 0.00 0.00 0.00 0.00 0.00 0.00 0.01 0.02 0.03 0.05 0.08 0.09 0.11 0.07 0.03 0.01 0.01 0.01 0.01 0.02 0.01 0.02 0.02 0.04 0.04 0.03 0.02 0.01 0.00 0.00 0.00 0.01 0.01 0.00 0.00 0.00 0.00 0.01 0.01 0.01 0.01
0.00 0.00 0.00 0.00 0.00 0.00 0.00 0.00 0.00 0.00 0.00 0.00 0.00 0.00 0.00 0.01 0.02 0.05 0.08 0.11 0.16 0.12 0.07 0.03 0.02 0.02 0.04 0.04 0.03 0.04 0.03 0.03 0.02 0.03 0.02 0.01 0.01 0.00 0.00 0.01 0.01 0.00 0.00 0.00 0.01 0.02 0.02 0.02 0.02
0.00 0.00 0.00 0.00 0.00 0.00 0.00 0.00 0.00 0.00 0.00 0.00 0.00 0.00 0.00 0.00 0.02 0.05 0.11 0.21 0.27 0.21 0.13 0.07 0.06 0.05 0.05 0.05 0.03 0.03 0.02 0.02 0.02 0.03 0.03 0.02 0.02 0.02 0.02 0.02 0.01 0.01 0.01 0.01 0.01 0.01 0.01 0.00 0.00
0.00 0.00 0.00 0.00 0.00 0.00 0.00 0.00 0.00 0.00 0.00 0.00 0.00 0.00 0.00 0.01 0.02 0.07 0.18 0.23 0.23 0.19 0.13 0.11 0.16 0.13 0.08 0.06 0.04 0.03 0.03 0.02 0.03 0.04 0.04 0.04 0.04 0.03 0.03 0.02 0.02 0.02 0.02 0.01 0.01 0.01 0.00 0.00 0.00
0.00 0.00 0.00 0.00 0.00 0.00 0.00 0.00 0.00 0.00 0.00 0.00 0.00 0.00 0.01 0.02 0.03 0.09 0.18 0.25 0.24 0.23 0.16 0.11 0.11 0.12 0.10 0.10 0.08 0.05 0.04 0.04 0.05 0.07 0.09 0.07 0.06 0.06 0.05 0.04 0.04 0.03 0.02 0.02 0.01 0.00 0.00 0.00 0.00
0.00 0.00 0.00 0.00 0.00 0.00 0.00 0.00 0.00 0.00 0.00 0.00 0.00 0.00 0.01 0.02 0.04 0.08 0.15 0.22 0.26 0.23 0.19 0.17 0.18 0.23 0.24 0.20 0.13 0.10 0.10 0.10 0.12 0.14 0.15 0.14 0.12 0.10 0.08 0.06 0.04 0.03 0.01 0.00 0.00 0.00 0.00 0.00 0.00
0.00 0.00 0.00 0.00 0.00 0.00 0.00 0.00 0.00 0.00 0.00 0.00 0.00 0.00 0.00 0.01 0.03 0.08 0.13 0.21 0.26 0.26 0.27 0.30 0.36 0.43 0.43 0.38 0.30 0.26 0.26 0.22 0.22 0.21 0.21 0.19 0.14 0.09 0.06 0.04 0.02 0.00 0.00 0.00 0.00 0.00 0.00 0.00 0.00
0.00 0.00 0.00 0.00 0.00 0.00 0.00 0.00 0.00 0.00 0.00 0.00 0.00 0.00 0.00 0.01 0.02 0.07 0.12 0.20 0.28 0.30 0.32 0.37 0.46 0.60 0.68 0.68 0.58 0.49 0.42 0.36 0.32 0.28 0.24 0.17 0.10 0.05 0.03 0.01 0.01 0.00 0.00 0.00 0.00 0.00 0.00 0.00 0.00
0.00 0.00 0.00 0.00 0.00 0.00 0.00 0.00 0.00 0.00 0.00 0.00 0.00 0.01 0.01 0.01 0.02 0.07 0.12 0.20 0.30 0.42 0.45 0.47 0.56 0.72 0.75 0.64 0.55 0.48 0.43 0.38 0.30 0.22 0.16 0.08 0.04 0.02 0.01 0.01 0.00 0.00 0.00 0.00 0.00 0.00 0.00 0.00 0.00
0.00 0.00 0.00 0.00 0.00 0.00 0.00 0.00 0.00 0.00 0.00 0.00 0.00 0.01 0.01 0.01 0.03 0.07 0.12 0.19 0.30 0.40 0.46 0.49 0.48 0.45 0.42 0.35 0.31 0.30 0.26 0.21 0.16 0.10 0.06 0.03 0.02 0.01 0.01 0.00 0.00 0.00 0.00 0.00 0.00 0.00 0.00 0.00 0.00
0.00 0.00 0.00 0.00 0.00 0.00 0.00 0.00 0.00 0.00 0.00 0.00 0.00 0.00 0.01 0.03 0.05 0.09 0.15 0.21 0.27 0.32 0.35 0.32 0.26 0.22 0.17 0.15 0.16 0.14 0.11 0.08 0.07 0.05 0.03 0.02 0.01 0.01 0.00 0.00 0.00 0.00 0.00 0.00 0.00 0.00 0.00 0.00 0.00
0.00 0.00 0.00 0.00 0.00 0.00 0.00 0.00 0.00 0.00 0.00 0.00 0.01 0.01 0.03 0.06 0.09 0.12 0.17 0.21 0.22 0.21 0.20 0.17 0.14 0.12 0.10 0.08 0.07 0.07 0.06 0.06 0.05 0.03 0.02 0.02 0.01 0.00 0.00 0.00 0.00 0.00 0.00 0.00 0.00 0.00 0.00 0.00 0.00
0.00 0.00 0.00 0.00 0.00 0.00 0.00 0.00 0.00 0.00 0.00 0.01 0.01 0.03 0.06 0.10 0.13 0.16 0.18 0.19 0.19 0.17 0.15 0.12 0.09 0.08 0.08 0.07 0.06 0.06 0.06 0.05 0.04 0.02 0.01 0.01 0.00 0.00 0.00 0.00 0.00 0.00 0.00 0.00 0.00 0.00 0.00 0.00 0.00
0.00 0.00 0.00 0.00 0.00 0.00 0.00 0.00 0.00 0.00 0.00 0.00 0.01 0.04 0.10 0.15 0.18 0.21 0.23 0.18 0.15 0.13 0.12 0.12 0.10 0.09 0.08 0.07 0.06 0.06 0.04 0.03 0.02 0.01 0.01 0.00 0.00 0.00 0.00 0.00 0.00 0.00 0.00 0.00 0.00 0.00 0.00 0.01 0.01
0.00 0.00 0.00 0.00 0.00 0.00 0.00 0.00 0.01 0.01 0.01 0.01 0.03 0.10 0.18 0.20 0.22 0.24 0.22 0.16 0.16 0.15 0.14 0.13 0.10 0.08 0.07 0.06 0.04 0.03 0.03 0.02 0.01 0.01 0.01 0.00 0.00 0.00 0.00 0.00 0.00 0.00 0.00 0.00 0.01 0.01 0.02 0.03 0.03

GEFSSGP_prec_meanprecacc_030.txt.gz
Total_Precipitation_Accumulation
0.00 0.00 0.00 0.00 0.00 0.00 0.00 0.00 0.00 0.01 0.01 0.02 0.04 0.04 0.02 0.02 0.03 0.10 0.04 0.02 0.01 0.00 0.00 0.00 0.01 0.02 0.01 0.00 0.00 0.01 0.02 0.02 0.03 0.03 0.03 0.03 0.02 0.02 0.02 0.03 0.05 0.08 0.09 0.08 0.06 0.06 0.06 0.04 0.02
0.00 0.00 0.00 0.00 0.00 0.00 0.00 0.00 0.01 0.01 0.03 0.04 0.03 0.01 0.00 0.00 0.00 0.00 0.01 0.01 0.00 0.00 0.00 0.00 0.00 0.01 0.01 0.00 0.00 0.01 0.02 0.02 0.02 0.03 0.03 0.02 0.03 0.03 0.03 0.05 0.09 0.14 0.17 0.18 0.15 0.12 0.10 0.07 0.03
0.00 0.00 0.00 0.00 0.00 0.00 0.00 0.01 0.02 0.01 0.02 0.03 0.02 0.00 0.00 0.00 0.00 0.00 0.00 0.00 0.00 0.00 0.00 0.00 0.00 0.01 0.01 0.00 0.00 0.01 0.03 0.03 0.03 0.04 0.04 0.04 0.04 0.04 0.06 0.09 0.13 0.19 0.21 0.20 0.18 0.17 0.15 0.08 0.02
0.00 0.00 0.00 0.00 0.00 0.00 0.01 0.02 0.03 0.02 0.02 0.02 0.01 0.00 0.00 0.00 0.00 0.00 0.01 0.01 0.00 0.00 0.00 0.00 0.01 0.01 0.01 0.00 0.00 0.02 0.03 0.05 0.06 0.08 0.08 0.07 0.07 0.07 0.11 0.17 0.22 0.22 0.22 0.23 0.24 0.23 0.18 0.10 0.04
0.00 0.00 0.00 0.00 0.00 0.00 0.01 0.02 0.03 0.03 0.02 0.01 0.00 0.00 0.00 0.00 0.00 0.00 0.01 0.01 0.01 0.01 0.00 0.00 0.01 0.01 0.01 0.01 0.02 0.04 0.06 0.09 0.13 0.16 0.15 0.12 0.11 0.11 0.15 0.22 0.25 0.24 0.28 0.28 0.27 0.21 0.14 0.06 0.04
0.00 0.00 0.00 0.00 0.00 0.00 0.00 0.01 0.02 0.02 0.02 0.01 0.01 0.01 0.01 0.00 0.00 0.00 0.01 0.01 0.02 0.01 0.01 0.01 0.03 0.03 0.02 0.02 0.03 0.06 0.09 0.12 0.14 0.15 0.14 0.12 0.11 0.12 0.16 0.18 0.19 0.22 0.23 0.18 0.12 0.08 0.06 0.05 0.05
0.00 0.00 0.00 0.00 0.00 0.00 0.00 0.01 0.01 0.02 0.02 0.02 0.01 0.01 0.01 0.00 0.00 0.00 0.00 0.02 0.04 0.05 0.06 0.05 0.06 0.04 0.02 0.03 0.03 0.05 0.06 0.06 0.09 0.11 0.11 0.10 0.09 0.09 0.10 0.11 0.12 0.13 0.09 0.06 0.05 0.03 0.03 0.03 0.02
0.00 0.00 0.00 0.00 0.00 0.00 0.01 0.01 0.02 0.02 0.03 0.02 0.01 0.01 0.01 0.00 0.00 0.00 0.02 0.07 0.12 0.18 0.16 0.04 0.02 0.02 0.01 0.01 0.01 0.02 0.03 0.03 0.05 0.07 0.07 0.07 0.07 0.07 0.07 0.06 0.07 0.08 0.07 0.05 0.03 0.01 0.01 0.01 0.00
0.00 0.00 0.00 0.00 0.00 0.00 0.00 0.01 0.02 0.03 0.02 0.01 0.01 0.01 0.01 0.01 0.00 0.01 0.04 0.09 0.11 0.09 0.06 0.02 0.01 0.01 0.00 0.01 0.00 0.00 0.01 0.01 0.03 0.04 0.05 0.06 0.07 0.07 0.06 0.04 0.05 0.07 0.06 0.02 0.00 0.00 0.00 0.00 0.00
0.00 0.00 0.00 0.00 0.00 0.00 0.00 0.01 0.02 0.02 0.01 0.01 0.01 0.02 0.02 0.01 0.01 0.04 0.10 0.14 0.10 0.05 0.03 0.02 0.01 0.00 0.00 0.00 0.01 0.01 0.01 0.01 0.03 0.06 0.03 0.07 0.10 0.10 0.07 0.04 0.04 0.03 0.02 0.00 0.00 0.00 0.00 0.00 0.00
0.00 0.00 0.00 0.00 0.00 0.00 0.00 0.01 0.02 0.02 0.02 0.02 0.04 0.06 0.04 0.02 0.02 0.05 0.09 0.14 0.20 0.18 0.04 0.02 0.01 0.01 0.01 0.00 0.00 0.00 0.01 0.01 0.03 0.05 0.03 0.07 0.05 0.06 0.06 0.03 0.01 0.01 0.00 0.00 0.00 0.00 0.00 0.00 0.00
0.00 0.00 0.00 0.00 0.00 0.00 0.00 0.00 0.01 0.01 0.01 0.04 0.06 0.10 0.08 0.03 0.03 0.06 0.08 0.06 0.07 0.05 0.01 0.01 0.01 0.01 0.01 0.00 0.00 0.01 0.01 0.01 0.02 0.02 0.02 0.03 0.05 0.06 0.10 0.06 0.02 0.02 0.01 0.01 0.00 0.00 0.00 0.00 0.00
0.00 0.00 0.00 0.00 0.00 0.00 0.00 0.00 0.00 0.00 0.01 0.03 0.03 0.03 0.03 0.01 0.02 0.04 0.05 0.06 0.04 0.02 0.01 0.01 0.01 0.00 0.00 0.00 0.00 0.01 0.01 0.01 0.01 0.02 0.01 0.02 0.03 0.06 0.07 0.04 0.02 0.02 0.01 0.01 0.00 0.00 0.00 0.00 0.00
0.00 0.00 0.00 0.00 0.00 0.00 0.00 0.00 0.00 0.00 0.00 0.01 0.01 0.02 0.02 0.02 0.03 0.08 0.11 0.10 0.09 0.04 0.01 0.01 0.00 0.00 0.00 0.00 0.00 0.00 0.01 0.02 0.02 0.02 0.01 0.01 0.03 0.06 0.06 0.03 0.02 0.01 0.01 0.01 0.00 0.00 0.00 0.00 0.00
0.00 0.00 0.00 0.00 0.00 0.00 0.00 0.00 0.00 0.00 0.00 0.00 0.00 0.01 0.02 0.03 0.04 0.08 0.11 0.09 0.12 0.05 0.01 0.01 0.01 0.01 0.00 0.00 0.00 0.00 0.01 0.04 0.05 0.04 0.02 0.01 0.01 0.02 0.01 0.01 0.01 0.01 0.00 0.01 0.01 0.00 0.00 0.00 0.00
0.00 0.00 0.00 0.00 0.00 0.00 0.00 0.00 0.00 0.00 0.00 0.00 0.00 0.00 0.01 0.02 0.03 0.05 0.08 0.09 0.11 0.07 0.03 0.02 0.01 0.02 0.01 0.02 0.02 0.02 0.03 0.04 0.04 0.03 0.02 0.01 0.01 0.01 0.01 0.02 0.02 0.02 0.02 0.02 0.02 0.02 0.02 0.02 0.02
0.00 0.00 0.00 0.00 0.00 0.00 0.00 0.00 0.00 0.00 0.00 0.00 0.00 0.00 0.00 0.01 0.02 0.05 0.08 0.11 0.16 0.12 0.07 0.03 0.02 0.02 0.04 0.04 0.04 0.04 0.04 0.04 0.04 0.04 0.04 0.03 0.03 0.03 0.05 0.06 0.07 0.06 0.06 0.06 0.05 0.06 0.06 0.05 0.04
0.00 0.00 0.00 0.00 0.00 0.00 0.00 0.00 0.00 0.00 0.00 0.00 0.00 0.00 0.00 0.00 0.02 0.05 0.11 0.21 0.27 0.21 0.13 0.07 0.07 0.05 0.07 0.06 0.06 0.07 0.08 0.10 0.11 0.12 0.12 0.11 0.11 0.12 0.13 0.12 0.12 0.11 0.10 0.09 0.08 0.06 0.05 0.03 0.03
0.00 0.00 0.00 0.00 0.00 0.00 0.00 0.00 0.00 0.00 0.00 0.00 0.00 0.00 0.00 0.01 0.02 0.07 0.18 0.23 0.23 0.19 0.14 0.12 0.17 0.15 0.12 0.13 0.13 0.18 0.22 0.26 0.29 0.30 0.29 0.27 0.26 0.26 0.23 0.21 0.20 0.17 0.14 0.11 0.09 0.06 0.04 0.03 0.02
0.00 0.00 0.00 0.00 0.00 0.00 0.00 0.00 0.00 0.00 0.00 0.00 0.00 0.00 0.01 0.02 0.03 0.09 0.18 0.25 0.24 0.24 0.18 0.14 0.15 0.20 0.25 0.30 0.38 0.46 0.53 0.59 0.58 0.55 0.51 0.47 0.43 0.39 0.37 0.33 0.29 0.24 0.17 0.11 0.08 0.05 0.02 0.01 0.00
0.00 0.00 0.00 0.00 0.00 0.00 0.00 0.00 0.00 0.00 0.00 0.00 0.00 0.00 0.01 0.02 0.04 0.08 0.15 0.22 0.26 0.24 0.23 0.23 0.28 0.41 0.52 0.61 0.70 0.73 0.78 0.83 0.83 0.78 0.74 0.70 0.63 0.57 0.49 0.41 0.31 0.22 0.15 0.10 0.05 0.02 0.01 0.00 0.00
0.00 0.00 0.00 0.00 0.00 0.00 0.00 0.00 0.00 0.00 0.00 0.00 0.00 0.00 0.00 0.01 0.03 0.08 0.13 0.21 0.26 0.28 0.31 0.37 0.50 0.71 0.84 0.96 1.07 1.15 1.22 1.18 1.06 0.95 0.87 0.81 0.72 0.61 0.48 0.37 0.26 0.17 0.10 0.05 0.02 0.01 0.00 0.00 0.00
0.00 0.00 0.00 0.00 0.00 0.00 0.00 0.00 0.00 0.00 0.00 0.00 0.00 0.00 0.00 0.01 0.02 0.07 0.12 0.20 0.29 0.32 0.38 0.48 0.69 0.99 1.27 1.53 1.66 1.62 1.44 1.19 1.00 0.87 0.77 0.70 0.63 0.51 0.38 0.25 0.14 0.07 0.03 0.01 0.01 0.00 0.00 0.00 0.00
0.00 0.00 0.00 0.00 0.00 0.00 0.00 0.00 0.00 0.00 0.00 0.00 0.00 0.01 0.01 0.01 0.02 0.07 0.12 0.20 0.32 0.47 0.56 0.67 0.90 1.24 1.49 1.61 1.60 1.37 1.11 0.94 0.78 0.65 0.56 0.47 0.39 0.30 0.19 0.10 0.05 0.03 0.02 0.01 0.00 0.00 0.00 0.00 0.00
0.00 0.00 0.00 0.00 0.00 0.00 0.00 0.00 0.00 0.00 0.00 0.00 0.00 0.01 0.01 0.02 0.03 0.08 0.13 0.21 0.37 0.53 0.67 0.80 0.93 1.06 1.14 1.15 1.10 0.92 0.72 0.57 0.49 0.40 0.32 0.25 0.17 0.12 0.08 0.05 0.02 0.01 0.01 0.01 0.00 0.00 0.00 0.00 0.00
0.00 0.00 0.00 0.00 0.00 0.00 0.00 0.00 0.00 0.00 0.01 0.00 0.01 0.01 0.02 0.04 0.06 0.11 0.18 0.27 0.40 0.54 0.64 0.68 0.73 0.76 0.70 0.61 0.53 0.43 0.35 0.29 0.26 0.22 0.17 0.12 0.09 0.06 0.04 0.02 0.01 0.01 0.01 0.00 0.00 0.00 0.00 0.00 0.00
0.00 0.00 0.00 0.00 0.00 0.00 0.00 0.00 0.00 0.00 0.01 0.01 0.01 0.02 0.04 0.08 0.11 0.15 0.21 0.29 0.35 0.40 0.43 0.43 0.42 0.40 0.36 0.30 0.25 0.22 0.21 0.19 0.16 0.12 0.09 0.07 0.05 0.03 0.02 0.01 0.01 0.01 0.00 0.00 0.00 0.00 0.00 0.00 0.00
0.00 0.00 0.00 0.00 0.00 0.00 0.00 0.00 0.00 0.00 0.01 0.02 0.02 0.04 0.07 0.12 0.17 0.20 0.23 0.26 0.27 0.27 0.27 0.27 0.23 0.22 0.21 0.19 0.17 0.15 0.13 0.11 0.08 0.06 0.05 0.04 0.03 0.02 0.01 0.01 0.00 0.00 0.00 0.00 0.00 0.00 0.00 0.00 0.00
0.00 0.00 0.00 0.00 0.00 0.00 0.00 0.00 0.00 0.00 0.01 0.01 0.03 0.05 0.12 0.18 0.21 0.25 0.27 0.22 0.20 0.18 0.18 0.18 0.16 0.15 0.13 0.12 0.10 0.08 0.07 0.06 0.04 0.03 0.03 0.02 0.01 0.01 0.00 0.00 0.00 0.00 0.00 0.00 0.00 0.00 0.00 0.01 0.01
0.00 0.00 0.00 0.00 0.00 0.00 0.00 0.00 0.01 0.01 0.01 0.01 0.04 0.12 0.20 0.21 0.24 0.26 0.24 0.19 0.18 0.18 0.17 0.16 0.13 0.10 0.09 0.07 0.05 0.05 0.04 0.03 0.03 0.02 0.02 0.01 0.01 0.01 0.00 0.00 0.00 0.00 0.00 0.00 0.01 0.01 0.02 0.03 0.03

GEFSSGP_prec_meanprecacc_036.txt.gz
Total_Precipitation_Accumulation
0.00 0.00 0.00 0.00 0.00 0.00 0.00 0.00 0.00 0.01 0.01 0.02 0.04 0.04 0.02 0.02 0.03 0.11 0.04 0.02 0.01 0.00 0.00 0.00 0.01 0.02 0.02 0.01 0.02 0.03 0.04 0.04 0.04 0.04 0.03 0.03 0.03 0.02 0.02 0.03 0.06 0.09 0.10 0.08 0.07 0.06 0.06 0.04 0.02
0.00 0.00 0.00 0.00 0.00 0.00 0.00 0.00 0.01 0.01 0.03 0.04 0.03 0.01 0.00 0.00 0.00 0.00 0.01 0.01 0.00 0.00 0.00 0.00 0.00 0.02 0.02 0.01 0.01 0.02 0.03 0.03 0.03 0.03 0.03 0.03 0.03 0.03 0.04 0.06 0.10 0.15 0.18 0.19 0.15 0.12 0.10 0.07 0.03
0.00 0.00 0.00 0.00 0.00 0.00 0.00 0.01 0.02 0.01 0.02 0.03 0.02 0.00 0.00 0.00 0.00 0.00 0.00 0.00 0.00 0.00 0.00 0.00 0.00 0.01 0.01 0.01 0.01 0.02 0.03 0.03 0.04 0.04 0.04 0.04 0.04 0.04 0.06 0.10 0.14 0.20 0.22 0.21 0.19 0.17 0.15 0.08 0.02
0.00 0.00 0.00 0.00 0.00 0.00 0.01 0.02 0.03 0.02 0.02 0.02 0.01 0.00 0.00 0.00 0.00 0.00 0.01 0.01 0.00 0.00 0.00 0.00 0.01 0.01 0.01 0.01 0.00 0.02 0.03 0.05 0.06 0.08 0.08 0.07 0.07 0.07 0.11 0.18 0.23 0.22 0.22 0.23 0.24 0.23 0.18 0.10 0.04
0.00 0.00 0.00 0.00 0.00 0.00 0.01 0.02 0.03 0.03 0.02 0.01 0.00 0.00 0.00 0.00 0.00 0.00 0.01 0.01 0.01 0.01 0.00 0.00 0.01 0.01 0.01 0.01 0.02 0.04 0.06 0.09 0.13 0.16 0.15 0.12 0.11 0.11 0.15 0.22 0.25 0.25 0.29 0.29 0.27 0.21 0.14 0.06 0.04
0.00 0.00 0.00 0.00 0.00 0.00 0.00 0.01 0.02 0.02 0.02 0.01 0.01 0.01 0.01 0.00 0.00 0.00 0.01 0.01 0.02 0.01 0.01 0.01 0.03 0.03 0.02 0.02 0.03 0.06 0.09 0.12 0.14 0.15 0.14 0.12 0.11 0.12 0.16 0.19 0.20 0.23 0.24 0.19 0.12 0.08 0.06 0.05 0.05
0.00 0.00 0.00 0.00 0.00 0.00 0.00 0.01 0.01 0.02 0.02 0.02 0.01 0.01 0.01 0.00 0.00 0.00 0.00 0.02 0.04 0.05 0.06 0.05 0.06 0.04 0.02 0.03 0.04 0.05 0.06 0.06 0.09 0.11 0.11 0.10 0.09 0.09 0.11 0.11 0.13 0.14 0.10 0.06 0.05 0.03 0.03 0.03 0.02
0.00 0.00 0.00 0.00 0.00 0.00 0.01 0.01 0.02 0.02 0.03 0.02 0.01 0.01 0.01 0.00 0.00 0.00 0.02 0.07 0.12 0.18 0.16 0.04 0.02 0.02 0.01 0.01 0.01 0.02 0.03 0.03 0.05 0.07 0.07 0.07 0.07 0.07 0.07 0.07 0.07 0.09 0.08 0.05 0.03 0.01 0.01 0.01 0.00
0.00 0.00 0.00 0.00 0.00 0.00 0.00 0.01 0.02 0.03 0.02 0.01 0.01 0.01 0.01 0.01 0.00 0.01 0.04 0.09 0.11 0.09 0.06 0.02 0.01 0.01 0.00 0.01 0.00 0.00 0.01 0.01 0.03 0.04 0.05 0.06 0.07 0.07 0.06 0.04 0.05 0.07 0.06 0.02 0.01 0.00 0.00 0.00 0.00
0.00 0.00 0.00 0.00 0.00 0.00 0.00 0.01 0.02 0.02 0.01 0.01 0.01 0.02 0.02 0.01 0.01 0.04 0.10 0.14 0.10 0.05 0.03 0.02 0.01 0.00 0.00 0.00 0.01 0.01 0.01 0.01 0.03 0.06 0.03 0.07 0.10 0.10 0.07 0.04 0.04 0.04 0.02 0.01 0.00 0.00 0.00 0.00 0.00
0.00 0.00 0.00 0.00 0.00 0.00 0.00 0.01 0.03 0.02 0.02 0.02 0.04 0.06 0.04 0.02 0.02 0.05 0.09 0.14 0.20 0.18 0.04 0.02 0.01 0.01 0.01 0.00 0.00 0.00 0.01 0.01 0.03 0.05 0.04 0.07 0.06 0.06 0.06 0.04 0.01 0.01 0.01 0.00 0.00 0.00 0.00 0.00 0.00
0.00 0.00 0.00 0.00 0.00 0.00 0.00 0.00 0.01 0.01 0.02 0.04 0.07 0.10 0.08 0.03 0.03 0.06 0.08 0.06 0.07 0.05 0.01 0.01 0.01 0.01 0.01 0.00 0.00 0.01 0.01 0.01 0.02 0.02 0.02 0.04 0.06 0.07 0.11 0.07 0.03 0.02 0.02 0.01 0.01 0.00 0.00 0.00 0.00
0.00 0.00 0.00 0.00 0.00 0.00 0.00 0.00 0.00 0.01 0.01 0.03 0.03 0.03 0.03 0.01 0.02 0.04 0.05 0.06 0.04 0.02 0.01 0.01 0.01 0.00 0.00 0.00 0.00 0.01 0.01 0.01 0.01 0.02 0.02 0.03 0.05 0.07 0.08 0.04 0.03 0.02 0.02 0.01 0.01 0.00 0.00 0.00 0.00
0.00 0.00 0.00 0.00 0.00 0.00 0.00 0.00 0.00 0.00 0.00 0.01 0.01 0.02 0.02 0.02 0.03 0.08 0.11 0.10 0.09 0.04 0.01 0.01 0.00 0.00 0.00 0.00 0.00 0.00 0.01 0.02 0.02 0.03 0.02 0.02 0.04 0.08 0.07 0.04 0.04 0.02 0.02 0.01 0.01 0.00 0.00 0.00 0.00
0.00 0.00 0.00 0.00 0.00 0.00 0.00 0.00 0.00 0.00 0.00 0.00 0.00 0.01 0.02 0.03 0.04 0.08 0.11 0.09 0.12 0.05 0.01 0.01 0.01 0.01 0.00 0.00 0.01 0.01 0.02 0.04 0.06 0.06 0.04 0.03 0.03 0.04 0.04 0.04 0.05 0.03 0.03 0.03 0.03 0.02 0.02 0.01 0.01
0.00 0.00 0.00 0.00 0.00 0.00 0.00 0.00 0.00 0.00 0.00 0.00 0.00 0.00 0.01 0.02 0.03 0.05 0.08 0.09 0.11 0.07 0.03 0.02 0.01 0.02 0.01 0.02 0.02 0.02 0.03 0.05 0.05 0.05 0.04 0.03 0.03 0.04 0.06 0.08 0.09 0.09 0.09 0.09 0.08 0.07 0.06 0.07 0.06
0.00 0.00 0.00 0.00 0.00 0.00 0.00 0.00 0.00 0.00 0.00 0.00 0.00 0.00 0.00 0.01 0.02 0.05 0.08 0.11 0.16 0.12 0.07 0.03 0.02 0.02 0.04 0.05 0.04 0.05 0.05 0.05 0.06 0.07 0.07 0.08 0.09 0.11 0.15 0.18 0.20 0.21 0.19 0.18 0.17 0.16 0.14 0.12 0.10
0.00 0.00 0.00 0.00 0.00 0.00 0.00 0.00 0.00 0.00 0.00 0.00 0.00 0.00 0.00 0.00 0.02 0.05 0.11 0.21 0.27 0.21 0.13 0.08 0.07 0.06 0.07 0.07 0.07 0.10 0.11 0.14 0.19 0.22 0.25 0.26 0.28 0.30 0.33 0.32 0.33 0.32 0.28 0.26 0.22 0.18 0.15 0.12 0.10
0.00 0.00 0.00 0.00 0.00 0.00 0.00 0.00 0.00 0.00 0.00 0.00 0.00 0.00 0.00 0.01 0.02 0.07 0.18 0.23 0.23 0.19 0.14 0.13 0.18 0.16 0.15 0.17 0.21 0.32 0.41 0.52 0.61 0.68 0.70 0.65 0.59 0.58 0.55 0.51 0.49 0.44 0.39 0.35 0.29 0.22 0.17 0.14 0.11
0.00 0.00 0.00 0.00 0.00 0.00 0.00 0.00 0.00 0.00 0.00 0.00 0.00 0.00 0.01 0.02 0.03 0.09 0.18 0.25 0.24 0.24 0.18 0.15 0.17 0.24 0.33 0.45 0.66 0.84 0.98 1.16 1.29 1.31 1.16 1.02 0.95 0.88 0.82 0.77 0.72 0.63 0.55 0.46 0.37 0.29 0.21 0.14 0.09
0.00 0.00 0.00 0.00 0.00 0.00 0.00 0.00 0.00 0.00 0.00 0.00 0.00 0.00 0.01 0.02 0.04 0.08 0.15 0.22 0.26 0.24 0.24 0.25 0.32 0.48 0.66 0.85 1.08 1.24 1.44 1.59 1.62 1.51 1.35 1.25 1.20 1.15 1.05 0.94 0.84 0.73 0.63 0.53 0.41 0.28 0.17 0.10 0.04
0.00 0.00 0.00 0.00 0.00 0.00 0.00 0.00 0.00 0.00 0.00 0.00 0.00 0.00 0.00 0.01 0.03 0.08 0.13 0.21 0.26 0.28 0.32 0.39 0.53 0.78 0.99 1.20 1.44 1.72 1.94 1.96 1.87 1.66 1.46 1.36 1.26 1.08 0.94 0.90 0.84 0.72 0.56 0.41 0.27 0.16 0.08 0.04 0.02
0.00 0.00 0.00 0.00 0.00 0.00 0.00 0.00 0.00 0.00 0.00 0.00 0.00 0.00 0.01 0.01 0.02 0.07 0.12 0.20 0.29 0.33 0.38 0.49 0.71 1.06 1.38 1.75 2.01 2.15 2.07 1.90 1.69 1.45 1.26 1.10 0.97 0.86 0.78 0.73 0.64 0.50 0.34 0.20 0.11 0.06 0.03 0.01 0.01
0.00 0.00 0.00 0.00 0.00 0.00 0.00 0.00 0.00 0.00 0.00 0.00 0.01 0.01 0.02 0.02 0.03 0.07 0.12 0.21 0.33 0.47 0.57 0.69 0.93 1.30 1.60 1.81 1.91 1.76 1.54 1.40 1.20 0.98 0.82 0.67 0.57 0.50 0.43 0.34 0.26 0.19 0.12 0.06 0.03 0.02 0.01 0.01 0.01
0.00 0.00 0.00 0.00 0.00 0.00 0.00 0.00 0.00 0.00 0.00 0.01 0.01 0.02 0.02 0.03 0.04 0.09 0.14 0.22 0.38 0.55 0.69 0.83 0.96 1.12 1.25 1.32 1.32 1.17 1.00 0.83 0.67 0.54 0.45 0.36 0.28 0.23 0.18 0.12 0.08 0.05 0.03 0.02 0.01 0.01 0.00 0.00 0.00
0.00 0.00 0.00 0.00 0.00 0.00 0.00 0.00 0.00 0.01 0.01 0.01 0.02 0.02 0.03 0.05 0.08 0.12 0.20 0.28 0.42 0.56 0.67 0.71 0.77 0.82 0.79 0.71 0.65 0.57 0.47 0.41 0.36 0.30 0.25 0.19 0.15 0.11 0.07 0.05 0.03 0.02 0.02 0.01 0.01 0.00 0.00 0.00 0.00
0.00 0.00 0.00 0.00 0.00 0.00 0.00 0.00 0.00 0.01 0.02 0.02 0.02 0.03 0.06 0.09 0.13 0.16 0.23 0.30 0.37 0.42 0.46 0.46 0.45 0.44 0.41 0.35 0.30 0.26 0.24 0.23 0.19 0.14 0.11 0.08 0.06 0.05 0.03 0.02 0.02 0.01 0.01 0.00 0.00 0.00 0.00 0.00 0.00
0.00 0.00 0.00 0.00 0.00 0.00 0.00 0.00 0.00 0.01 0.02 0.03 0.04 0.05 0.09 0.15 0.19 0.21 0.24 0.27 0.29 0.29 0.29 0.29 0.26 0.25 0.23 0.21 0.19 0.16 0.14 0.12 0.09 0.07 0.06 0.05 0.03 0.03 0.02 0.02 0.01 0.01 0.00 0.00 0.00 0.00 0.00 0.00 0.00
0.00 0.00 0.00 0.00 0.00 0.00 0.00 0.00 0.00 0.01 0.02 0.03 0.04 0.07 0.14 0.20 0.23 0.28 0.29 0.24 0.22 0.20 0.20 0.20 0.19 0.17 0.14 0.12 0.10 0.09 0.08 0.06 0.05 0.04 0.03 0.02 0.02 0.01 0.01 0.00 0.00 0.00 0.00 0.00 0.00 0.00 0.00 0.01 0.01
0.00 0.00 0.00 0.00 0.00 0.00 0.00 0.01 0.01 0.02 0.03 0.03 0.06 0.14 0.22 0.24 0.26 0.29 0.27 0.21 0.20 0.19 0.19 0.17 0.13 0.11 0.09 0.07 0.05 0.05 0.04 0.03 0.03 0.02 0.02 0.01 0.01 0.01 0.00 0.00 0.00 0.00 0.00 0.01 0.01 0.01 0.02 0.03 0.03

GEFSSGP_prec_meanprecacc_042.txt.gz
Total_Precipitation_Accumulation
0.00 0.00 0.00 0.00 0.00 0.00 0.00 0.00 0.00 0.01 0.01 0.02 0.04 0.04 0.02 0.02 0.04 0.17 0.06 0.02 0.01 0.00 0.00 0.00 0.01 0.02 0.02 0.02 0.04 0.06 0.08 0.09 0.09 0.09 0.08 0.08 0.07 0.06 0.06 0.06 0.09 0.12 0.14 0.12 0.09 0.08 0.07 0.05 0.02
0.00 0.00 0.00 0.00 0.00 0.00 0.00 0.00 0.01 0.01 0.03 0.04 0.03 0.01 0.00 0.00 0.00 0.00 0.01 0.01 0.00 0.00 0.00 0.00 0.00 0.02 0.02 0.01 0.02 0.05 0.07 0.08 0.08 0.08 0.07 0.07 0.07 0.07 0.07 0.09 0.13 0.19 0.22 0.22 0.17 0.13 0.10 0.07 0.03
0.00 0.00 0.00 0.00 0.00 0.00 0.00 0.01 0.02 0.01 0.02 0.03 0.02 0.01 0.00 0.00 0.00 0.00 0.00 0.00 0.00 0.00 0.00 0.00 0.00 0.01 0.01 0.01 0.01 0.03 0.06 0.06 0.07 0.07 0.07 0.07 0.07 0.07 0.10 0.13 0.17 0.23 0.24 0.22 0.19 0.17 0.15 0.08 0.02
0.00 0.00 0.00 0.00 0.00 0.00 0.01 0.03 0.04 0.02 0.02 0.02 0.01 0.01 0.00 0.00 0.00 0.00 0.01 0.01 0.00 0.00 0.00 0.00 0.01 0.01 0.01 0.01 0.01 0.03 0.05 0.07 0.08 0.10 0.10 0.09 0.09 0.09 0.13 0.20 0.25 0.25 0.24 0.23 0.24 0.23 0.18 0.10 0.04
0.00 0.00 0.00 0.00 0.00 0.00 0.01 0.02 0.03 0.03 0.02 0.01 0.01 0.01 0.01 0.00 0.00 0.00 0.01 0.01 0.01 0.01 0.00 0.00 0.01 0.01 0.01 0.01 0.02 0.04 0.07 0.10 0.14 0.18 0.16 0.12 0.12 0.13 0.17 0.24 0.27 0.26 0.29 0.29 0.27 0.21 0.14 0.06 0.04
0.00 0.00 0.00 0.00 0.00 0.00 0.00 0.01 0.02 0.02 0.02 0.02 0.01 0.03 0.03 0.00 0.00 0.00 0.01 0.01 0.02 0.01 0.01 0.01 0.03 0.03 0.02 0.02 0.04 0.07 0.10 0.13 0.15 0.16 0.14 0.13 0.12 0.12 0.18 0.21 0.21 0.24 0.25 0.19 0.12 0.09 0.06 0.05 0.05
0.00 0.00 0.00 0.00 0.00 0.00 0.00 0.01 0.01 0.02 0.02 0.02 0.02 0.02 0.02 0.00 0.00 0.00 0.00 0.02 0.04 0.05 0.06 0.05 0.06 0.04 0.02 0.03 0.04 0.05 0.06 0.07 0.10 0.12 0.11 0.10 0.09 0.09 0.11 0.12 0.14 0.15 0.11 0.07 0.05 0.03 0.03 0.03 0.02
0.00 0.00 0.00 0.00 0.00 0.00 0.01 0.01 0.02 0.02 0.03 0.02 0.01 0.02 0.05 0.01 0.00 0.00 0.02 0.07 0.12 0.18 0.16 0.04 0.02 0.02 0.01 0.01 0.01 0.02 0.03 0.04 0.05 0.07 0.07 0.07 0.07 0.07 0.07 0.07 0.08 0.09 0.08 0.05 0.03 0.01 0.01 0.01 0.00
0.00 0.00 0.00 0.00 0.00 0.00 0.00 0.01 0.02 0.03 0.02 0.01 0.01 0.02 0.09 0.02 0.00 0.01 0.04 0.09 0.11 0.09 0.06 0.02 0.01 0.01 0.00 0.01 0.00 0.00 0.01 0.01 0.03 0.05 0.05 0.06 0.07 0.07 0.07 0.05 0.06 0.07 0.07 0.02 0.01 0.00 0.00 0.00 0.00
0.00 0.00 0.00 0.00 0.00 0.00 0.00 0.01 0.02 0.02 0.02 0.01 0.01 0.03 0.06 0.02 0.01 0.04 0.10 0.14 0.10 0.05 0.03 0.02 0.01 0.00 0.00 0.00 0.01 0.01 0.01 0.01 0.03 0.06 0.03 0.07 0.12 0.14 0.12 0.10 0.07 0.04 0.03 0.01 0.00 0.00 0.00 0.00 0.00
0.00 0.00 0.00 0.00 0.00 0.00 0.00 0.01 0.03 0.02 0.02 0.02 0.04 0.07 0.05 0.02 0.02 0.05 0.09 0.14 0.20 0.18 0.04 0.02 0.01 0.01 0.01 0.00 0.00 0.00 0.01 0.01 0.03 0.05 0.05 0.10 0.10 0.10 0.11 0.12 0.06 0.03 0.02 0.02 0.02 0.00 0.00 0.00 0.00
0.00 0.00 0.00 0.00 0.00 0.00 0.00 0.00 0.01 0.01 0.02 0.04 0.07 0.11 0.08 0.03 0.03 0.06 0.08 0.06 0.07 0.05 0.01 0.01 0.01 0.01 0.01 0.00 0.00 0.01 0.01 0.01 0.02 0.03 0.04 0.09 0.12 0.13 0.18 0.15 0.11 0.07 0.06 0.05 0.03 0.01 0.01 0.01 0.00
0.00 0.00 0.00 0.00 0.00 0.00 0.00 0.00 0.00 0.01 0.02 0.04 0.05 0.06 0.05 0.02 0.02 0.04 0.05 0.06 0.04 0.02 0.01 0.01 0.01 0.00 0.00 0.00 0.00 0.01 0.01 0.01 0.02 0.04 0.04 0.07 0.10 0.13 0.15 0.11 0.09 0.06 0.06 0.05 0.03 0.01 0.02 0.04 0.03
0.00 0.00 0.00 0.00 0.00 0.00 0.00 0.00 0.00 0.00 0.01 0.02 0.04 0.04 0.04 0.03 0.03 0.09 0.12 0.10 0.09 0.04 0.01 0.01 0.00 0.00 0.00 0.00 0.00 0.00 0.01 0.03 0.03 0.05 0.05 0.05 0.08 0.16 0.15 0.12 0.11 0.07 0.05 0.04 0.03 0.01 0.01 0.02 0.02
0.00 0.00 0.00 0.00 0.00 0.00 0.00 0.00 0.00 0.00 0.00 0.01 0.01 0.01 0.02 0.03 0.04 0.08 0.12 0.10 0.12 0.05 0.01 0.01 0.01 0.01 0.00 0.00 0.01 0.01 0.02 0.05 0.08 0.09 0.08 0.06 0.08 0.12 0.12 0.14 0.13 0.10 0.07 0.06 0.04 0.03 0.02 0.02 0.02
0.00 0.00 0.00 0.00 0.00 0.00 0.00 0.00 0.00 0.00 0.00 0.00 0.01 0.01 0.02 0.02 0.03 0.05 0.08 0.09 0.11 0.07 0.03 0.02 0.01 0.02 0.01 0.02 0.02 0.02 0.03 0.06 0.07 0.08 0.08 0.08 0.08 0.11 0.15 0.18 0.18 0.16 0.15 0.14 0.13 0.11 0.10 0.11 0.10
0.00 0.00 0.00 0.00 0.00 0.00 0.00 0.00 0.00 0.00 0.00 0.00 0.00 0.00 0.01 0.02 0.02 0.05 0.09 0.14 0.17 0.12 0.07 0.03 0.02 0.03 0.04 0.05 0.04 0.05 0.07 0.08 0.09 0.10 0.12 0.13 0.14 0.17 0.24 0.28 0.29 0.29 0.27 0.27 0.24 0.22 0.20 0.19 0.18
0.00 0.00 0.00 0.00 0.00 0.00 0.00 0.00 0.00 0.00 0.00 0.00 0.00 0.00 0.01 0.01 0.02 0.06 0.11 0.23 0.32 0.22 0.13 0.08 0.07 0.06 0.07 0.07 0.08 0.12 0.14 0.17 0.22 0.26 0.30 0.32 0.33 0.36 0.41 0.41 0.43 0.42 0.38 0.36 0.30 0.26 0.22 0.18 0.16
0.00 0.00 0.00 0.00 0.00 0.00 0.00 0.00 0.00 0.00 0.00 0.00 0.00 0.00 0.00 0.01 0.03 0.07 0.19 0.25 0.28 0.21 0.14 0.13 0.18 0.17 0.16 0.19 0.24 0.36 0.47 0.56 0.67 0.76 0.78 0.72 0.66 0.65 0.63 0.60 0.58 0.53 0.49 0.45 0.39 0.32 0.26 0.22 0.18
0.00 0.00 0.00 0.00 0.00 0.00 0.00 0.00 0.00 0.00 0.00 0.00 0.00 0.00 0.01 0.02 0.04 0.10 0.19 0.27 0.27 0.26 0.19 0.17 0.20 0.29 0.38 0.52 0.73 0.95 1.12 1.30 1.43 1.45 1.26 1.09 1.01 0.94 0.89 0.85 0.80 0.73 0.67 0.58 0.48 0.40 0.33 0.25 0.19
0.00 0.00 0.00 0.00 0.00 0.00 0.00 0.00 0.00 0.00 0.00 0.00 0.00 0.00 0.01 0.02 0.04 0.09 0.16 0.23 0.28 0.27 0.27 0.28 0.37 0.56 0.76 0.95 1.18 1.42 1.63 1.76 1.76 1.64 1.45 1.34 1.27 1.20 1.10 1.00 0.92 0.83 0.74 0.65 0.55 0.45 0.34 0.24 0.16
0.00 0.00 0.00 0.00 0.00 0.00 0.00 0.00 0.00 0.00 0.00 0.00 0.00 0.00 0.00 0.01 0.03 0.09 0.14 0.23 0.29 0.32 0.36 0.43 0.60 0.88 1.09 1.31 1.55 1.86 2.09 2.09 2.00 1.78 1.57 1.45 1.32 1.14 0.99 0.94 0.90 0.80 0.67 0.53 0.40 0.30 0.22 0.15 0.09
0.00 0.00 0.00 0.00 0.00 0.00 0.00 0.00 0.00 0.00 0.00 0.00 0.00 0.00 0.01 0.01 0.02 0.08 0.12 0.21 0.31 0.35 0.43 0.55 0.79 1.16 1.50 1.86 2.13 2.27 2.20 2.01 1.81 1.57 1.35 1.16 1.01 0.89 0.80 0.75 0.68 0.55 0.41 0.27 0.18 0.13 0.09 0.06 0.03
0.00 0.00 0.00 0.00 0.00 0.00 0.00 0.00 0.00 0.00 0.00 0.00 0.01 0.01 0.02 0.02 0.03 0.08 0.13 0.22 0.34 0.49 0.59 0.74 1.00 1.39 1.70 1.93 2.06 1.92 1.69 1.54 1.33 1.08 0.88 0.71 0.59 0.52 0.44 0.35 0.28 0.21 0.14 0.08 0.05 0.04 0.03 0.02 0.02
0.00 0.00 0.00 0.00 0.00 0.00 0.00 0.00 0.00 0.00 0.00 0.01 0.01 0.02 0.03 0.03 0.04 0.09 0.15 0.23 0.39 0.56 0.71 0.86 1.01 1.19 1.34 1.44 1.47 1.34 1.16 0.95 0.80 0.62 0.49 0.39 0.31 0.25 0.20 0.14 0.09 0.06 0.04 0.03 0.02 0.02 0.01 0.01 0.01
0.00 0.00 0.00 0.00 0.00 0.00 0.00 0.00 0.01 0.01 0.01 0.02 0.02 0.03 0.04 0.06 0.08 0.13 0.21 0.30 0.43 0.58 0.69 0.74 0.80 0.87 0.86 0.81 0.77 0.71 0.63 0.54 0.45 0.35 0.27 0.21 0.16 0.11 0.08 0.05 0.03 0.03 0.02 0.01 0.01 0.01 0.01 0.01 0.01
0.00 0.00 0.00 0.00 0.00 0.00 0.00 0.01 0.02 0.02 0.02 0.02 0.03 0.04 0.06 0.10 0.14 0.18 0.24 0.32 0.39 0.45 0.48 0.49 0.48 0.49 0.47 0.41 0.39 0.36 0.32 0.29 0.24 0.17 0.12 0.09 0.07 0.05 0.03 0.02 0.02 0.01 0.01 0.01 0.00 0.00 0.00 0.01 0.01
0.00 0.00 0.00 0.00 0.00 0.00 0.00 0.00 0.01 0.02 0.03 0.04 0.04 0.06 0.10 0.16 0.20 0.23 0.26 0.29 0.31 0.31 0.32 0.32 0.29 0.29 0.28 0.25 0.24 0.21 0.18 0.15 0.11 0.08 0.06 0.05 0.04 0.03 0.02 0.02 0.01 0.01 0.01 0.00 0.01 0.01 0.00 0.00 0.01
0.00 0.00 0.00 0.00 0.00 0.00 0.00 0.04 0.04 0.07 0.06 0.04 0.05 0.08 0.15 0.21 0.25 0.29 0.31 0.27 0.25 0.23 0.23 0.23 0.22 0.20 0.17 0.15 0.13 0.11 0.09 0.07 0.05 0.04 0.03 0.03 0.02 0.01 0.01 0.01 0.00 0.00 0.00 0.00 0.00 0.01 0.01 0.01 0.01
0.00 0.00 0.00 0.00 0.00 0.00 0.01 0.08 0.05 0.12 0.14 0.11 0.11 0.17 0.23 0.25 0.27 0.31 0.29 0.23 0.23 0.23 0.22 0.20 0.16 0.13 0.11 0.09 0.06 0.05 0.05 0.04 0.03 0.03 0.02 0.01 0.01 0.01 0.00 0.00 0.00 0.01 0.01 0.01 0.01 0.01 0.02 0.03 0.03

GEFSSGP_prec_meanprecacc_048.txt.gz
Total_Precipitation_Accumulation
0.00 0.00 0.00 0.00 0.00 0.00 0.00 0.00 0.01 0.03 0.04 0.03 0.04 0.04 0.02 0.02 0.04 0.19 0.07 0.02 0.01 0.00 0.00 0.00 0.01 0.02 0.02 0.02 0.04 0.06 0.08 0.09 0.09 0.09 0.08 0.08 0.08 0.07 0.07 0.07 0.09 0.12 0.15 0.12 0.10 0.08 0.07 0.05 0.02
0.00 0.00 0.00 0.00 0.00 0.00 0.00 0.01 0.02 0.03 0.04 0.05 0.04 0.01 0.00 0.00 0.00 0.01 0.01 0.01 0.00 0.00 0.00 0.00 0.00 0.02 0.02 0.01 0.02 0.05 0.07 0.08 0.08 0.08 0.07 0.07 0.07 0.08 0.08 0.09 0.14 0.19 0.22 0.22 0.17 0.13 0.10 0.07 0.03
0.00 0.00 0.00 0.00 0.00 0.00 0.00 0.01 0.02 0.02 0.03 0.04 0.03 0.01 0.01 0.00 0.00 0.00 0.00 0.00 0.00 0.00 0.00 0.00 0.00 0.01 0.01 0.01 0.01 0.03 0.06 0.07 0.07 0.07 0.07 0.07 0.08 0.08 0.10 0.13 0.18 0.23 0.24 0.22 0.19 0.17 0.15 0.08 0.02
0.00 0.00 0.00 0.00 0.00 0.00 0.01 0.03 0.04 0.03 0.03 0.02 0.02 0.01 0.01 0.00 0.00 0.00 0.01 0.01 0.00 0.00 0.00 0.00 0.01 0.01 0.01 0.01 0.01 0.03 0.05 0.07 0.09 0.11 0.10 0.09 0.09 0.10 0.14 0.20 0.25 0.25 0.24 0.23 0.24 0.23 0.18 0.10 0.04
0.00 0.00 0.00 0.00 0.00 0.00 0.01 0.02 0.04 0.03 0.02 0.02 0.01 0.02 0.03 0.00 0.00 0.00 0.01 0.01 0.01 0.01 0.00 0.00 0.01 0.01 0.01 0.01 0.02 0.04 0.07 0.10 0.14 0.18 0.16 0.13 0.12 0.13 0.17 0.25 0.27 0.27 0.30 0.29 0.27 0.21 0.14 0.06 0.04
0.00 0.00 0.00 0.00 0.00 0.00 0.00 0.01 0.02 0.02 0.02 0.02 0.02 0.05 0.05 0.00 0.00 0.00 0.01 0.02 0.02 0.01 0.01 0.01 0.03 0.03 0.02 0.02 0.04 0.07 0.10 0.13 0.15 0.16 0.14 0.13 0.12 0.13 0.18 0.21 0.21 0.24 0.25 0.19 0.12 0.09 0.06 0.05 0.05
0.00 0.00 0.00 0.00 0.00 0.00 0.00 0.01 0.01 0.02 0.02 0.03 0.02 0.04 0.04 0.01 0.00 0.00 0.01 0.02 0.05 0.05 0.06 0.05 0.06 0.04 0.02 0.03 0.04 0.05 0.06 0.07 0.10 0.12 0.11 0.10 0.09 0.09 0.11 0.12 0.14 0.15 0.11 0.07 0.05 0.03 0.03 0.03 0.02
0.00 0.00 0.00 0.00 0.00 0.00 0.01 0.01 0.02 0.02 0.03 0.03 0.02 0.06 0.12 0.03 0.00 0.01 0.02 0.08 0.12 0.18 0.16 0.04 0.02 0.02 0.01 0.01 0.01 0.02 0.03 0.04 0.05 0.07 0.07 0.07 0.07 0.07 0.08 0.07 0.08 0.09 0.08 0.05 0.03 0.01 0.01 0.01 0.00
0.00 0.00 0.00 0.00 0.00 0.00 0.00 0.01 0.02 0.03 0.02 0.02 0.02 0.06 0.13 0.03 0.01 0.02 0.05 0.10 0.11 0.09 0.06 0.02 0.01 0.01 0.00 0.01 0.00 0.00 0.01 0.01 0.03 0.05 0.05 0.06 0.07 0.07 0.07 0.05 0.06 0.07 0.07 0.03 0.01 0.01 0.00 0.00 0.00
0.00 0.00 0.00 0.00 0.00 0.00 0.00 0.01 0.02 0.02 0.02 0.01 0.02 0.05 0.08 0.03 0.02 0.05 0.12 0.15 0.10 0.05 0.03 0.02 0.01 0.00 0.00 0.00 0.01 0.01 0.01 0.01 0.03 0.06 0.03 0.07 0.12 0.14 0.12 0.11 0.08 0.05 0.03 0.01 0.01 0.01 0.00 0.00 0.00
0.00 0.00 0.00 0.00 0.00 0.00 0.00 0.01 0.03 0.02 0.02 0.02 0.05 0.09 0.07 0.03 0.03 0.07 0.10 0.15 0.21 0.19 0.04 0.02 0.01 0.01 0.01 0.00 0.00 0.00 0.01 0.01 0.03 0.05 0.05 0.10 0.11 0.11 0.12 0.12 0.07 0.04 0.03 0.02 0.03 0.01 0.01 0.00 0.01
0.00 0.00 0.00 0.00 0.00 0.00 0.00 0.00 0.01 0.01 0.02 0.05 0.09 0.16 0.14 0.06 0.05 0.07 0.09 0.07 0.08 0.06 0.02 0.01 0.01 0.01 0.01 0.00 0.00 0.01 0.01 0.01 0.02 0.03 0.04 0.09 0.13 0.15 0.19 0.17 0.12 0.08 0.06 0.05 0.04 0.02 0.02 0.03 0.02
0.00 0.00 0.00 0.00 0.00 0.00 0.00 0.00 0.00 0.01 0.02 0.05 0.06 0.13 0.14 0.06 0.04 0.08 0.08 0.09 0.06 0.04 0.02 0.01 0.01 0.00 0.00 0.00 0.00 0.01 0.01 0.01 0.02 0.04 0.04 0.07 0.10 0.14 0.17 0.14 0.11 0.08 0.08 0.08 0.05 0.03 0.04 0.08 0.07
0.00 0.00 0.00 0.00 0.00 0.00 0.00 0.00 0.00 0.00 0.01 0.02 0.06 0.11 0.12 0.09 0.09 0.16 0.21 0.19 0.12 0.06 0.03 0.02 0.01 0.01 0.00 0.00 0.00 0.00 0.01 0.03 0.04 0.05 0.05 0.05 0.09 0.16 0.16 0.13 0.12 0.08 0.08 0.09 0.11 0.08 0.04 0.04 0.04
0.00 0.00 0.00 0.00 0.00 0.00 0.00 0.00 0.00 0.00 0.00 0.01 0.04 0.06 0.09 0.11 0.13 0.18 0.25 0.23 0.18 0.08 0.03 0.03 0.02 0.02 0.01 0.01 0.01 0.01 0.02 0.05 0.08 0.09 0.09 0.07 0.09 0.12 0.12 0.14 0.15 0.12 0.11 0.10 0.09 0.09 0.07 0.05 0.05
0.00 0.00 0.00 0.00 0.00 0.00 0.00 0.00 0.00 0.00 0.00 0.00 0.02 0.03 0.06 0.09 0.14 0.15 0.16 0.17 0.22 0.16 0.10 0.06 0.03 0.03 0.03 0.03 0.03 0.03 0.04 0.07 0.08 0.09 0.10 0.10 0.09 0.12 0.17 0.20 0.20 0.18 0.17 0.18 0.18 0.17 0.15 0.14 0.13
0.00 0.00 0.00 0.00 0.00 0.00 0.00 0.00 0.00 0.00 0.00 0.00 0.02 0.04 0.05 0.07 0.11 0.15 0.19 0.25 0.34 0.27 0.20 0.13 0.07 0.06 0.06 0.07 0.06 0.07 0.08 0.10 0.11 0.14 0.16 0.17 0.18 0.22 0.28 0.32 0.32 0.31 0.29 0.29 0.27 0.26 0.24 0.23 0.21
0.00 0.00 0.00 0.00 0.00 0.00 0.00 0.00 0.00 0.00 0.00 0.00 0.01 0.01 0.04 0.06 0.08 0.14 0.23 0.36 0.44 0.34 0.22 0.15 0.12 0.11 0.14 0.12 0.11 0.15 0.17 0.21 0.27 0.34 0.39 0.39 0.41 0.42 0.46 0.45 0.47 0.44 0.40 0.38 0.32 0.29 0.25 0.21 0.19
0.00 0.00 0.00 0.00 0.00 0.00 0.00 0.00 0.00 0.00 0.00 0.00 0.00 0.01 0.01 0.04 0.06 0.13 0.27 0.38 0.49 0.38 0.25 0.22 0.29 0.29 0.30 0.30 0.31 0.41 0.53 0.64 0.77 0.89 0.91 0.83 0.74 0.71 0.67 0.63 0.60 0.55 0.51 0.47 0.41 0.34 0.29 0.25 0.20
0.00 0.00 0.00 0.00 0.00 0.00 0.00 0.00 0.00 0.00 0.00 0.00 0.00 0.00 0.01 0.04 0.06 0.14 0.27 0.40 0.53 0.54 0.46 0.41 0.44 0.53 0.60 0.69 0.89 1.09 1.25 1.44 1.60 1.63 1.41 1.22 1.10 1.01 0.94 0.88 0.82 0.74 0.68 0.60 0.50 0.42 0.35 0.27 0.20
0.00 0.00 0.00 0.00 0.00 0.00 0.00 0.00 0.00 0.00 0.00 0.00 0.00 0.00 0.01 0.03 0.06 0.11 0.21 0.36 0.48 0.51 0.52 0.49 0.54 0.70 0.89 1.07 1.34 1.61 1.83 1.96 1.96 1.81 1.61 1.47 1.37 1.28 1.17 1.05 0.96 0.86 0.76 0.67 0.57 0.46 0.36 0.26 0.17
0.00 0.00 0.00 0.00 0.00 0.00 0.00 0.00 0.00 0.00 0.00 0.00 0.00 0.00 0.01 0.02 0.05 0.11 0.17 0.32 0.45 0.49 0.54 0.61 0.76 1.04 1.28 1.51 1.77 2.11 2.34 2.33 2.21 1.99 1.75 1.61 1.47 1.27 1.09 1.02 0.96 0.84 0.70 0.55 0.42 0.31 0.22 0.15 0.10
0.00 0.00 0.00 0.00 0.00 0.00 0.00 0.00 0.00 0.00 0.00 0.01 0.01 0.01 0.01 0.02 0.04 0.10 0.15 0.27 0.42 0.47 0.57 0.74 1.00 1.40 1.76 2.13 2.41 2.58 2.48 2.29 2.09 1.82 1.57 1.35 1.18 1.02 0.92 0.84 0.73 0.58 0.43 0.28 0.19 0.13 0.09 0.06 0.04
0.00 0.00 0.00 0.00 0.00 0.00 0.00 0.00 0.00 0.01 0.00 0.01 0.01 0.02 0.03 0.04 0.06 0.11 0.17 0.26 0.40 0.56 0.70 0.89 1.22 1.66 2.00 2.22 2.36 2.23 1.98 1.82 1.61 1.34 1.10 0.90 0.77 0.66 0.54 0.41 0.31 0.23 0.15 0.09 0.06 0.04 0.03 0.03 0.02
0.00 0.00 0.00 0.00 0.00 0.00 0.00 0.00 0.01 0.01 0.01 0.01 0.02 0.04 0.05 0.05 0.07 0.13 0.19 0.28 0.45 0.62 0.79 0.96 1.13 1.36 1.56 1.66 1.69 1.61 1.44 1.22 1.06 0.87 0.72 0.59 0.48 0.38 0.28 0.19 0.13 0.09 0.05 0.03 0.02 0.02 0.01 0.01 0.01
0.00 0.00 0.00 0.00 0.00 0.00 0.00 0.01 0.05 0.04 0.03 0.03 0.04 0.05 0.06 0.08 0.11 0.17 0.25 0.34 0.48 0.63 0.75 0.80 0.87 0.96 0.98 0.95 0.96 0.95 0.87 0.78 0.70 0.58 0.50 0.41 0.32 0.22 0.15 0.10 0.07 0.05 0.03 0.02 0.02 0.01 0.01 0.01 0.01
0.00 0.00 0.00 0.00 0.00 0.00 0.01 0.06 0.08 0.08 0.07 0.05 0.06 0.07 0.10 0.14 0.17 0.22 0.29 0.36 0.43 0.50 0.53 0.54 0.54 0.57 0.57 0.54 0.54 0.54 0.51 0.48 0.42 0.33 0.26 0.21 0.16 0.10 0.07 0.05 0.03 0.03 0.02 0.02 0.01 0.01 0.00 0.01 0.01
0.00 0.00 0.00 0.00 0.00 0.00 0.01 0.06 0.10 0.11 0.11 0.10 0.10 0.10 0.14 0.20 0.23 0.27 0.30 0.33 0.35 0.35 0.36 0.36 0.33 0.35 0.36 0.35 0.34 0.33 0.31 0.27 0.21 0.16 0.14 0.10 0.06 0.04 0.04 0.03 0.02 0.01 0.01 0.01 0.01 0.01 0.00 0.00 0.01
0.00 0.00 0.00 0.00 0.00 0.00 0.01 0.10 0.15 0.23 0.23 0.19 0.16 0.16 0.20 0.25 0.28 0.32 0.34 0.30 0.27 0.25 0.25 0.26 0.27 0.26 0.24 0.22 0.20 0.19 0.15 0.12 0.10 0.08 0.06 0.04 0.03 0.02 0.01 0.01 0.00 0.00 0.00 0.00 0.00 0.01 0.01 0.01 0.01
0.00 0.00 0.00 0.00 0.00 0.00 0.03 0.19 0.22 0.35 0.42 0.33 0.26 0.28 0.32 0.32 0.33 0.35 0.32 0.26 0.25 0.25 0.24 0.24 0.20 0.18 0.16 0.14 0.11 0.09 0.07 0.06 0.06 0.05 0.03 0.02 0.01 0.01 0.01 0.00 0.00 0.01 0.01 0.01 0.01 0.01 0.02 0.03 0.03

GEFSSGP_prec_meanprecacc_054.txt.gz
Total_Precipitation_Accumulation
0.00 0.00 0.00 0.00 0.00 0.00 0.00 0.00 0.01 0.04 0.04 0.04 0.05 0.04 0.03 0.02 0.04 0.19 0.07 0.02 0.01 0.00 0.00 0.00 0.01 0.02 0.02 0.02 0.04 0.06 0.08 0.09 0.09 0.09 0.08 0.08 0.08 0.07 0.07 0.07 0.09 0.13 0.15 0.13 0.10 0.08 0.07 0.05 0.02
0.00 0.00 0.00 0.00 0.00 0.00 0.00 0.01 0.02 0.04 0.05 0.05 0.04 0.02 0.01 0.00 0.00 0.01 0.01 0.01 0.00 0.00 0.00 0.00 0.00 0.02 0.02 0.01 0.02 0.05 0.07 0.08 0.08 0.08 0.07 0.07 0.07 0.08 0.08 0.09 0.14 0.19 0.23 0.22 0.17 0.13 0.10 0.07 0.03
0.00 0.00 0.00 0.00 0.00 0.00 0.00 0.01 0.02 0.03 0.03 0.05 0.04 0.02 0.01 0.00 0.00 0.00 0.00 0.00 0.00 0.00 0.00 0.00 0.01 0.01 0.01 0.01 0.01 0.03 0.06 0.07 0.07 0.07 0.07 0.07 0.08 0.08 0.10 0.13 0.18 0.23 0.25 0.22 0.19 0.17 0.15 0.08 0.02
0.00 0.00 0.00 0.00 0.00 0.00 0.01 0.03 0.04 0.03 0.04 0.03 0.02 0.02 0.01 0.01 0.00 0.00 0.01 0.01 0.00 0.00 0.00 0.00 0.01 0.01 0.01 0.01 0.01 0.03 0.05 0.07 0.09 0.11 0.10 0.09 0.09 0.10 0.14 0.20 0.25 0.25 0.24 0.23 0.24 0.23 0.18 0.10 0.04
0.00 0.00 0.00 0.00 0.00 0.00 0.01 0.02 0.04 0.03 0.03 0.02 0.02 0.03 0.03 0.00 0.00 0.00 0.01 0.01 0.01 0.01 0.00 0.00 0.01 0.01 0.01 0.01 0.02 0.04 0.07 0.10 0.14 0.18 0.16 0.13 0.12 0.13 0.17 0.25 0.27 0.27 0.30 0.29 0.27 0.21 0.14 0.06 0.04
0.00 0.00 0.00 0.00 0.00 0.00 0.00 0.01 0.02 0.02 0.02 0.03 0.02 0.05 0.05 0.00 0.00 0.00 0.01 0.02 0.02 0.01 0.01 0.01 0.03 0.03 0.02 0.02 0.04 0.07 0.10 0.13 0.15 0.16 0.14 0.13 0.12 0.13 0.18 0.21 0.21 0.24 0.25 0.19 0.12 0.09 0.06 0.05 0.05
0.00 0.00 0.00 0.00 0.00 0.00 0.00 0.01 0.01 0.02 0.02 0.03 0.03 0.04 0.04 0.01 0.00 0.00 0.01 0.02 0.05 0.05 0.06 0.05 0.06 0.05 0.02 0.03 0.04 0.05 0.06 0.07 0.10 0.12 0.11 0.10 0.09 0.09 0.11 0.12 0.14 0.15 0.11 0.07 0.05 0.04 0.03 0.03 0.02
0.00 0.00 0.00 0.00 0.00 0.00 0.01 0.01 0.02 0.03 0.03 0.03 0.02 0.06 0.12 0.03 0.00 0.01 0.02 0.08 0.12 0.18 0.16 0.04 0.02 0.02 0.01 0.01 0.01 0.02 0.03 0.04 0.05 0.07 0.07 0.07 0.07 0.07 0.08 0.07 0.08 0.09 0.08 0.06 0.03 0.01 0.01 0.01 0.01
0.00 0.00 0.00 0.00 0.00 0.00 0.01 0.01 0.02 0.03 0.02 0.02 0.02 0.06 0.13 0.03 0.01 0.02 0.05 0.10 0.11 0.09 0.06 0.02 0.01 0.01 0.00 0.01 0.00 0.00 0.01 0.01 0.03 0.05 0.05 0.06 0.07 0.07 0.07 0.05 0.06 0.07 0.07 0.03 0.01 0.01 0.01 0.00 0.01
0.00 0.00 0.00 0.00 0.00 0.00 0.01 0.01 0.02 0.02 0.02 0.01 0.02 0.05 0.08 0.03 0.02 0.05 0.12 0.15 0.10 0.05 0.03 0.02 0.01 0.00 0.00 0.00 0.01 0.01 0.01 0.01 0.03 0.06 0.03 0.07 0.12 0.14 0.12 0.11 0.08 0.05 0.03 0.01 0.01 0.02 0.01 0.01 0.00
0.00 0.00 0.00 0.00 0.00 0.00 0.00 0.01 0.03 0.02 0.02 0.02 0.05 0.09 0.07 0.03 0.03 0.07 0.10 0.15 0.21 0.19 0.04 0.02 0.01 0.01 0.01 0.00 0.00 0.01 0.01 0.01 0.03 0.05 0.05 0.10 0.11 0.11 0.12 0.12 0.07 0.04 0.03 0.02 0.03 0.02 0.01 0.01 0.01
0.00 0.00 0.00 0.00 0.00 0.00 0.00 0.00 0.01 0.01 0.02 0.05 0.09 0.16 0.14 0.06 0.05 0.07 0.09 0.08 0.08 0.06 0.02 0.01 0.01 0.01 0.01 0.00 0.00 0.01 0.01 0.01 0.02 0.03 0.04 0.09 0.13 0.15 0.19 0.17 0.12 0.09 0.07 0.06 0.04 0.02 0.02 0.03 0.03
0.00 0.00 0.00 0.00 0.00 0.00 0.00 0.00 0.00 0.01 0.02 0.05 0.06 0.13 0.14 0.06 0.04 0.08 0.08 0.09 0.06 0.04 0.02 0.01 0.01 0.00 0.00 0.00 0.00 0.01 0.01 0.01 0.02 0.04 0.04 0.07 0.10 0.14 0.17 0.14 0.12 0.09 0.09 0.09 0.06 0.03 0.05 0.09 0.08
0.00 0.00 0.00 0.00 0.00 0.00 0.00 0.00 0.00 0.00 0.01 0.02 0.06 0.11 0.12 0.09 0.09 0.16 0.21 0.19 0.13 0.07 0.04 0.03 0.01 0.01 0.00 0.00 0.01 0.00 0.01 0.03 0.04 0.05 0.05 0.05 0.09 0.16 0.16 0.14 0.13 0.11 0.10 0.11 0.12 0.09 0.05 0.05 0.05
0.00 0.00 0.00 0.00 0.00 0.00 0.00 0.00 0.00 0.00 0.00 0.01 0.04 0.06 0.09 0.11 0.13 0.19 0.26 0.23 0.19 0.10 0.05 0.04 0.03 0.02 0.01 0.01 0.01 0.01 0.02 0.05 0.08 0.10 0.09 0.07 0.10 0.13 0.14 0.17 0.19 0.16 0.15 0.13 0.13 0.12 0.09 0.06 0.05
0.00 0.00 0.00 0.00 0.00 0.00 0.00 0.00 0.00 0.00 0.00 0.00 0.02 0.03 0.06 0.09 0.14 0.15 0.17 0.19 0.24 0.19 0.12 0.08 0.04 0.04 0.04 0.03 0.03 0.04 0.06 0.09 0.10 0.11 0.12 0.12 0.14 0.17 0.22 0.25 0.26 0.26 0.23 0.23 0.22 0.20 0.17 0.16 0.15
0.00 0.00 0.00 0.00 0.00 0.00 0.00 0.00 0.00 0.00 0.00 0.00 0.02 0.04 0.05 0.07 0.11 0.15 0.20 0.26 0.36 0.30 0.23 0.16 0.10 0.08 0.08 0.09 0.09 0.11 0.14 0.18 0.21 0.23 0.24 0.24 0.26 0.29 0.35 0.38 0.40 0.40 0.38 0.37 0.33 0.30 0.28 0.26 0.23
0.00 0.00 0.00 0.00 0.00 0.00 0.00 0.00 0.00 0.00 0.00 0.00 0.01 0.02 0.04 0.06 0.09 0.14 0.24 0.37 0.45 0.36 0.25 0.18 0.15 0.14 0.18 0.19 0.19 0.24 0.30 0.37 0.45 0.56 0.61 0.58 0.56 0.55 0.58 0.59 0.60 0.56 0.52 0.47 0.40 0.35 0.30 0.25 0.22
0.00 0.00 0.00 0.00 0.00 0.00 0.00 0.00 0.00 0.00 0.00 0.00 0.00 0.01 0.02 0.04 0.06 0.15 0.29 0.39 0.51 0.40 0.26 0.24 0.31 0.32 0.38 0.49 0.52 0.62 0.76 0.88 1.00 1.10 1.13 1.06 0.97 0.92 0.89 0.84 0.80 0.72 0.66 0.58 0.50 0.42 0.35 0.30 0.25
0.00 0.00 0.00 0.00 0.00 0.00 0.00 0.00 0.00 0.00 0.00 0.00 0.00 0.00 0.01 0.04 0.06 0.14 0.28 0.41 0.54 0.57 0.48 0.44 0.47 0.61 0.76 0.94 1.18 1.41 1.59 1.78 1.97 1.99 1.76 1.56 1.43 1.33 1.26 1.15 1.08 0.96 0.86 0.74 0.61 0.52 0.44 0.34 0.26
0.00 0.00 0.00 0.00 0.00 0.00 0.00 0.00 0.00 0.01 0.00 0.00 0.00 0.01 0.02 0.04 0.07 0.12 0.23 0.38 0.51 0.55 0.56 0.54 0.61 0.84 1.15 1.40 1.72 2.01 2.23 2.36 2.34 2.20 2.01 1.89 1.81 1.71 1.56 1.40 1.25 1.10 0.95 0.83 0.71 0.58 0.45 0.33 0.24
0.00 0.00 0.00 0.00 0.00 0.00 0.00 0.00 0.01 0.01 0.01 0.01 0.01 0.01 0.02 0.03 0.07 0.14 0.20 0.37 0.50 0.55 0.60 0.66 0.83 1.16 1.48 1.83 2.21 2.60 2.83 2.84 2.72 2.48 2.25 2.11 1.93 1.67 1.46 1.34 1.25 1.09 0.90 0.70 0.55 0.42 0.30 0.22 0.16
0.00 0.00 0.00 0.00 0.00 0.00 0.00 0.00 0.02 0.03 0.02 0.03 0.03 0.03 0.04 0.05 0.07 0.14 0.20 0.32 0.47 0.54 0.65 0.83 1.10 1.54 1.96 2.41 2.82 3.10 3.07 2.91 2.68 2.36 2.08 1.86 1.59 1.35 1.20 1.09 0.96 0.79 0.60 0.42 0.30 0.22 0.17 0.14 0.12
0.00 0.00 0.00 0.00 0.00 0.00 0.00 0.00 0.02 0.03 0.02 0.03 0.04 0.05 0.06 0.08 0.11 0.17 0.22 0.32 0.47 0.64 0.80 1.01 1.39 1.89 2.27 2.57 2.82 2.74 2.52 2.36 2.11 1.80 1.50 1.27 1.08 0.93 0.78 0.62 0.48 0.37 0.28 0.21 0.16 0.14 0.13 0.11 0.08
0.00 0.00 0.00 0.00 0.00 0.00 0.00 0.01 0.04 0.05 0.03 0.03 0.04 0.07 0.09 0.10 0.13 0.19 0.27 0.39 0.58 0.75 0.94 1.14 1.36 1.66 1.91 2.06 2.15 2.06 1.89 1.66 1.48 1.30 1.11 0.91 0.74 0.59 0.47 0.35 0.25 0.18 0.14 0.11 0.09 0.07 0.05 0.04 0.04
0.00 0.00 0.00 0.00 0.00 0.00 0.01 0.04 0.09 0.07 0.05 0.05 0.05 0.08 0.10 0.13 0.17 0.24 0.35 0.47 0.63 0.80 0.94 1.04 1.16 1.31 1.35 1.31 1.35 1.33 1.22 1.13 1.06 0.93 0.80 0.66 0.54 0.40 0.28 0.19 0.13 0.09 0.07 0.05 0.04 0.03 0.04 0.04 0.04
0.00 0.00 0.00 0.00 0.00 0.00 0.02 0.09 0.14 0.13 0.10 0.08 0.08 0.10 0.13 0.18 0.24 0.29 0.38 0.46 0.56 0.66 0.73 0.77 0.81 0.90 0.89 0.83 0.80 0.81 0.79 0.76 0.68 0.57 0.46 0.38 0.29 0.19 0.13 0.08 0.05 0.04 0.04 0.04 0.04 0.04 0.03 0.03 0.03
0.00 0.00 0.00 0.00 0.00 0.00 0.02 0.09 0.15 0.17 0.15 0.14 0.13 0.13 0.17 0.23 0.27 0.31 0.37 0.42 0.46 0.47 0.49 0.52 0.52 0.57 0.60 0.59 0.55 0.52 0.51 0.45 0.37 0.30 0.26 0.20 0.15 0.10 0.07 0.06 0.04 0.03 0.02 0.02 0.01 0.01 0.01 0.01 0.01
0.00 0.00 0.00 0.00 0.00 0.00 0.02 0.13 0.22 0.32 0.29 0.22 0.20 0.19 0.23 0.28 0.31 0.36 0.38 0.35 0.33 0.32 0.33 0.36 0.38 0.38 0.37 0.36 0.35 0.32 0.29 0.25 0.22 0.18 0.14 0.11 0.08 0.06 0.04 0.02 0.02 0.01 0.01 0.01 0.01 0.01 0.01 0.01 0.02
0.00 0.00 0.00 0.00 0.00 0.00 0.03 0.23 0.29 0.44 0.49 0.38 0.31 0.34 0.38 0.38 0.40 0.42 0.39 0.33 0.30 0.30 0.31 0.31 0.29 0.28 0.26 0.22 0.19 0.18 0.15 0.13 0.12 0.10 0.08 0.05 0.04 0.03 0.02 0.02 0.01 0.01 0.01 0.01 0.01 0.01 0.02 0.03 0.03

GEFSSGP_prec_meanprecacc_060.txt.gz
Total_Precipitation_Accumulation
0.00 0.00 0.00 0.00 0.00 0.00 0.00 0.00 0.01 0.04 0.04 0.04 0.05 0.04 0.03 0.02 0.04 0.19 0.07 0.02 0.01 0.00 0.00 0.01 0.01 0.03 0.04 0.04 0.05 0.07 0.09 0.09 0.09 0.09 0.08 0.08 0.08 0.08 0.07 0.07 0.10 0.13 0.15 0.13 0.10 0.09 0.07 0.05 0.02
0.00 0.00 0.00 0.00 0.00 0.00 0.00 0.01 0.02 0.04 0.05 0.05 0.04 0.02 0.01 0.00 0.00 0.01 0.01 0.01 0.00 0.00 0.00 0.00 0.01 0.02 0.03 0.03 0.03 0.06 0.08 0.09 0.08 0.08 0.07 0.07 0.08 0.08 0.08 0.10 0.14 0.20 0.23 0.22 0.17 0.13 0.10 0.07 0.03
0.00 0.00 0.00 0.00 0.00 0.00 0.00 0.01 0.02 0.03 0.04 0.05 0.04 0.02 0.01 0.00 0.00 0.00 0.00 0.00 0.00 0.00 0.00 0.00 0.01 0.02 0.02 0.02 0.02 0.04 0.07 0.07 0.07 0.07 0.07 0.07 0.08 0.09 0.11 0.14 0.19 0.24 0.25 0.23 0.19 0.17 0.15 0.08 0.03
0.00 0.00 0.00 0.00 0.00 0.00 0.01 0.03 0.04 0.04 0.04 0.03 0.02 0.02 0.01 0.01 0.00 0.00 0.01 0.01 0.00 0.00 0.00 0.00 0.01 0.02 0.02 0.02 0.01 0.03 0.05 0.07 0.09 0.11 0.10 0.09 0.10 0.10 0.15 0.22 0.26 0.25 0.24 0.24 0.25 0.23 0.18 0.10 0.04
0.00 0.00 0.00 0.00 0.00 0.00 0.01 0.02 0.04 0.03 0.03 0.03 0.02 0.03 0.03 0.00 0.00 0.00 0.01 0.01 0.01 0.01 0.01 0.00 0.01 0.02 0.02 0.02 0.02 0.05 0.07 0.11 0.15 0.18 0.16 0.13 0.13 0.14 0.19 0.26 0.29 0.27 0.30 0.29 0.27 0.21 0.14 0.06 0.04
0.00 0.00 0.00 0.00 0.00 0.00 0.00 0.01 0.02 0.02 0.02 0.03 0.02 0.05 0.05 0.00 0.00 0.00 0.01 0.02 0.02 0.01 0.01 0.01 0.03 0.03 0.03 0.03 0.04 0.07 0.11 0.13 0.16 0.17 0.15 0.13 0.13 0.14 0.19 0.22 0.22 0.24 0.26 0.20 0.12 0.09 0.06 0.05 0.05
0.00 0.00 0.00 0.00 0.00 0.00 0.01 0.01 0.01 0.02 0.02 0.03 0.03 0.04 0.04 0.01 0.00 0.00 0.01 0.02 0.05 0.05 0.06 0.05 0.06 0.05 0.03 0.04 0.05 0.06 0.07 0.08 0.10 0.12 0.12 0.11 0.10 0.10 0.12 0.13 0.14 0.15 0.11 0.07 0.05 0.04 0.03 0.03 0.02
0.00 0.00 0.00 0.00 0.00 0.01 0.01 0.02 0.02 0.03 0.03 0.03 0.02 0.06 0.12 0.03 0.00 0.01 0.02 0.08 0.12 0.18 0.16 0.04 0.02 0.02 0.01 0.01 0.02 0.04 0.05 0.05 0.06 0.08 0.08 0.07 0.07 0.08 0.08 0.07 0.08 0.09 0.09 0.06 0.03 0.02 0.01 0.01 0.01
0.00 0.00 0.00 0.00 0.01 0.01 0.01 0.02 0.03 0.03 0.02 0.02 0.02 0.06 0.13 0.03 0.01 0.02 0.05 0.10 0.12 0.10 0.06 0.02 0.02 0.02 0.01 0.01 0.01 0.01 0.02 0.03 0.04 0.05 0.05 0.06 0.07 0.08 0.07 0.05 0.06 0.07 0.07 0.03 0.02 0.01 0.01 0.00 0.01
0.00 0.00 0.00 0.00 0.00 0.01 0.01 0.02 0.03 0.02 0.02 0.01 0.02 0.05 0.08 0.03 0.02 0.05 0.12 0.15 0.10 0.05 0.03 0.02 0.01 0.01 0.01 0.01 0.01 0.02 0.02 0.02 0.04 0.06 0.03 0.07 0.13 0.15 0.12 0.11 0.08 0.05 0.03 0.01 0.02 0.02 0.01 0.01 0.01
0.00 0.00 0.00 0.00 0.00 0.00 0.00 0.01 0.03 0.02 0.02 0.02 0.05 0.09 0.07 0.03 0.03 0.07 0.10 0.15 0.21 0.19 0.04 0.02 0.01 0.01 0.02 0.02 0.02 0.03 0.03 0.03 0.04 0.06 0.05 0.11 0.11 0.11 0.12 0.13 0.08 0.05 0.03 0.03 0.04 0.02 0.02 0.01 0.02
0.00 0.00 0.00 0.00 0.00 0.00 0.00 0.00 0.01 0.01 0.02 0.05 0.09 0.16 0.14 0.06 0.05 0.07 0.09 0.08 0.08 0.06 0.02 0.01 0.01 0.01 0.02 0.01 0.02 0.02 0.02 0.02 0.03 0.04 0.05 0.09 0.13 0.15 0.19 0.17 0.12 0.09 0.08 0.08 0.06 0.04 0.03 0.04 0.04
0.00 0.00 0.00 0.00 0.00 0.00 0.00 0.00 0.00 0.01 0.02 0.05 0.06 0.13 0.14 0.06 0.04 0.08 0.08 0.09 0.06 0.04 0.03 0.01 0.01 0.01 0.01 0.02 0.02 0.01 0.02 0.02 0.03 0.04 0.05 0.07 0.10 0.14 0.17 0.14 0.12 0.10 0.12 0.13 0.09 0.05 0.06 0.10 0.08
0.00 0.00 0.00 0.00 0.00 0.00 0.00 0.00 0.00 0.00 0.01 0.02 0.06 0.11 0.12 0.09 0.09 0.16 0.21 0.19 0.13 0.07 0.04 0.03 0.02 0.01 0.01 0.01 0.02 0.01 0.02 0.04 0.04 0.06 0.05 0.05 0.09 0.17 0.16 0.14 0.15 0.14 0.15 0.16 0.16 0.13 0.07 0.06 0.06
0.00 0.00 0.00 0.00 0.00 0.00 0.00 0.00 0.00 0.00 0.00 0.01 0.04 0.06 0.09 0.11 0.13 0.19 0.26 0.23 0.19 0.10 0.05 0.04 0.03 0.02 0.02 0.02 0.02 0.02 0.03 0.06 0.09 0.10 0.09 0.08 0.10 0.14 0.16 0.19 0.22 0.20 0.19 0.17 0.17 0.16 0.11 0.08 0.07
0.00 0.00 0.00 0.00 0.00 0.00 0.00 0.00 0.00 0.00 0.00 0.00 0.02 0.03 0.06 0.09 0.14 0.15 0.17 0.19 0.24 0.19 0.12 0.09 0.05 0.05 0.05 0.05 0.05 0.05 0.07 0.10 0.11 0.12 0.13 0.13 0.15 0.19 0.25 0.29 0.31 0.31 0.29 0.28 0.27 0.24 0.21 0.19 0.17
0.00 0.00 0.00 0.00 0.00 0.00 0.00 0.00 0.00 0.00 0.00 0.00 0.02 0.04 0.05 0.07 0.11 0.15 0.20 0.27 0.37 0.30 0.24 0.17 0.10 0.08 0.09 0.10 0.10 0.13 0.15 0.19 0.22 0.24 0.26 0.27 0.28 0.33 0.41 0.46 0.48 0.49 0.48 0.47 0.42 0.38 0.34 0.32 0.30
0.00 0.00 0.00 0.00 0.00 0.00 0.00 0.00 0.00 0.00 0.00 0.00 0.01 0.02 0.04 0.06 0.09 0.15 0.24 0.38 0.46 0.37 0.27 0.20 0.16 0.15 0.20 0.21 0.21 0.26 0.31 0.38 0.48 0.60 0.67 0.65 0.64 0.67 0.73 0.73 0.75 0.73 0.69 0.63 0.53 0.48 0.42 0.35 0.31
0.00 0.00 0.00 0.00 0.00 0.00 0.00 0.00 0.00 0.00 0.00 0.00 0.00 0.01 0.02 0.04 0.07 0.16 0.30 0.40 0.52 0.42 0.29 0.26 0.32 0.34 0.41 0.51 0.55 0.64 0.79 0.93 1.05 1.18 1.24 1.21 1.18 1.15 1.13 1.06 1.03 0.96 0.92 0.85 0.77 0.63 0.52 0.44 0.36
0.00 0.00 0.00 0.00 0.00 0.00 0.00 0.00 0.00 0.00 0.00 0.00 0.00 0.01 0.02 0.04 0.07 0.15 0.30 0.43 0.55 0.59 0.51 0.46 0.49 0.63 0.80 0.99 1.24 1.49 1.69 1.90 2.10 2.13 1.95 1.80 1.72 1.64 1.57 1.46 1.40 1.29 1.17 1.02 0.88 0.76 0.64 0.52 0.41
0.00 0.00 0.00 0.00 0.00 0.00 0.00 0.01 0.01 0.01 0.00 0.00 0.01 0.01 0.02 0.04 0.08 0.13 0.24 0.39 0.52 0.58 0.59 0.56 0.63 0.87 1.21 1.50 1.85 2.18 2.42 2.58 2.60 2.47 2.33 2.23 2.15 2.07 1.94 1.77 1.62 1.48 1.30 1.16 0.99 0.81 0.67 0.53 0.41
0.00 0.00 0.00 0.00 0.00 0.00 0.00 0.01 0.02 0.02 0.02 0.02 0.02 0.02 0.02 0.04 0.08 0.15 0.21 0.38 0.53 0.58 0.63 0.71 0.88 1.22 1.56 1.97 2.37 2.82 3.11 3.15 3.10 2.89 2.65 2.50 2.30 2.07 1.87 1.77 1.72 1.55 1.28 1.01 0.79 0.62 0.49 0.39 0.31
0.00 0.00 0.00 0.00 0.00 0.00 0.00 0.01 0.04 0.04 0.03 0.05 0.05 0.05 0.05 0.07 0.09 0.16 0.22 0.34 0.50 0.57 0.69 0.86 1.14 1.59 2.02 2.51 2.98 3.32 3.37 3.29 3.14 2.84 2.55 2.32 2.09 1.86 1.64 1.50 1.35 1.11 0.83 0.59 0.43 0.33 0.27 0.23 0.20
0.00 0.00 0.00 0.00 0.00 0.00 0.00 0.02 0.05 0.07 0.05 0.05 0.07 0.08 0.09 0.10 0.13 0.20 0.25 0.35 0.50 0.67 0.85 1.07 1.46 1.97 2.35 2.71 3.00 3.00 2.85 2.79 2.60 2.30 1.99 1.80 1.61 1.37 1.10 0.88 0.67 0.52 0.40 0.29 0.24 0.20 0.18 0.16 0.14
0.00 0.00 0.00 0.00 0.00 0.01 0.01 0.03 0.08 0.09 0.06 0.06 0.07 0.10 0.13 0.14 0.17 0.24 0.31 0.43 0.63 0.80 1.00 1.22 1.46 1.78 2.04 2.23 2.39 2.38 2.27 2.12 1.97 1.77 1.56 1.35 1.10 0.87 0.69 0.53 0.41 0.31 0.24 0.18 0.14 0.11 0.09 0.07 0.06
0.00 0.00 0.00 0.00 0.00 0.01 0.03 0.06 0.14 0.11 0.08 0.07 0.08 0.11 0.13 0.18 0.22 0.29 0.40 0.53 0.69 0.87 1.03 1.14 1.29 1.48 1.53 1.52 1.61 1.66 1.57 1.49 1.41 1.29 1.16 0.99 0.82 0.63 0.47 0.34 0.25 0.20 0.16 0.13 0.10 0.08 0.06 0.06 0.05
0.00 0.00 0.00 0.00 0.00 0.02 0.05 0.12 0.19 0.17 0.13 0.10 0.11 0.12 0.17 0.22 0.27 0.33 0.42 0.50 0.60 0.71 0.79 0.84 0.91 1.03 1.05 1.03 1.00 1.01 0.99 0.97 0.90 0.78 0.66 0.56 0.45 0.33 0.26 0.21 0.17 0.13 0.11 0.10 0.09 0.08 0.06 0.05 0.04
0.00 0.00 0.00 0.00 0.00 0.02 0.05 0.13 0.19 0.21 0.18 0.16 0.14 0.15 0.20 0.25 0.29 0.33 0.40 0.45 0.49 0.50 0.53 0.57 0.58 0.65 0.70 0.71 0.69 0.65 0.63 0.59 0.50 0.43 0.39 0.33 0.28 0.24 0.20 0.17 0.13 0.10 0.07 0.05 0.04 0.04 0.03 0.02 0.02
0.00 0.00 0.00 0.00 0.00 0.01 0.04 0.18 0.26 0.37 0.33 0.24 0.21 0.20 0.24 0.29 0.33 0.37 0.40 0.36 0.34 0.34 0.35 0.39 0.42 0.43 0.42 0.41 0.40 0.39 0.36 0.33 0.30 0.28 0.24 0.22 0.19 0.16 0.13 0.11 0.09 0.08 0.06 0.05 0.04 0.03 0.03 0.02 0.03
0.00 0.00 0.00 0.00 0.00 0.00 0.06 0.27 0.32 0.49 0.53 0.40 0.32 0.35 0.40 0.39 0.41 0.43 0.40 0.34 0.31 0.31 0.32 0.33 0.31 0.30 0.29 0.26 0.23 0.22 0.20 0.18 0.17 0.16 0.14 0.12 0.10 0.09 0.08 0.07 0.07 0.07 0.07 0.06 0.05 0.05 0.05 0.05 0.05

GEFSSGP_prec_meanprecacc_066.txt.gz
Total_Precipitation_Accumulation
0.00 0.00 0.00 0.00 0.00 0.00 0.01 0.01 0.02 0.08 0.10 0.05 0.05 0.05 0.04 0.05 0.10 0.35 0.15 0.02 0.01 0.00 0.00 0.01 0.01 0.03 0.05 0.04 0.05 0.07 0.09 0.10 0.10 0.09 0.09 0.08 0.08 0.08 0.07 0.08 0.10 0.13 0.15 0.13 0.10 0.09 0.07 0.05 0.02
0.00 0.00 0.00 0.00 0.00 0.00 0.01 0.02 0.03 0.06 0.06 0.05 0.04 0.02 0.01 0.01 0.03 0.03 0.01 0.01 0.00 0.00 0.00 0.00 0.01 0.02 0.04 0.04 0.04 0.07 0.10 0.09 0.08 0.08 0.08 0.08 0.08 0.08 0.08 0.10 0.15 0.20 0.23 0.22 0.17 0.13 0.10 0.08 0.03
0.00 0.00 0.00 0.00 0.00 0.00 0.02 0.04 0.04 0.04 0.04 0.05 0.04 0.02 0.01 0.01 0.02 0.00 0.01 0.00 0.00 0.00 0.00 0.00 0.01 0.02 0.02 0.03 0.03 0.06 0.08 0.08 0.08 0.08 0.08 0.08 0.09 0.09 0.11 0.15 0.19 0.24 0.25 0.23 0.19 0.17 0.15 0.09 0.03
0.00 0.00 0.00 0.00 0.00 0.00 0.02 0.05 0.06 0.05 0.04 0.03 0.02 0.02 0.01 0.01 0.00 0.00 0.01 0.01 0.00 0.00 0.00 0.00 0.01 0.02 0.02 0.03 0.03 0.05 0.07 0.08 0.10 0.12 0.11 0.11 0.11 0.12 0.16 0.23 0.27 0.26 0.25 0.24 0.25 0.23 0.18 0.10 0.04
0.00 0.00 0.00 0.00 0.00 0.00 0.01 0.03 0.05 0.05 0.04 0.03 0.02 0.03 0.03 0.01 0.00 0.00 0.01 0.01 0.01 0.01 0.01 0.00 0.01 0.02 0.04 0.03 0.04 0.06 0.09 0.12 0.16 0.20 0.19 0.15 0.14 0.15 0.20 0.27 0.29 0.28 0.31 0.29 0.27 0.21 0.14 0.06 0.04
0.00 0.00 0.00 0.00 0.00 0.00 0.00 0.01 0.02 0.03 0.03 0.03 0.02 0.06 0.07 0.01 0.00 0.00 0.01 0.02 0.02 0.01 0.01 0.01 0.03 0.04 0.05 0.05 0.06 0.09 0.13 0.16 0.18 0.20 0.18 0.16 0.14 0.15 0.19 0.22 0.22 0.25 0.26 0.20 0.12 0.09 0.06 0.05 0.05
0.00 0.00 0.00 0.00 0.00 0.00 0.01 0.02 0.02 0.03 0.03 0.03 0.03 0.05 0.07 0.07 0.01 0.00 0.01 0.02 0.05 0.05 0.06 0.05 0.06 0.05 0.04 0.07 0.08 0.09 0.10 0.12 0.16 0.17 0.15 0.13 0.11 0.11 0.13 0.13 0.15 0.15 0.11 0.07 0.05 0.04 0.03 0.03 0.02
0.00 0.00 0.00 0.00 0.00 0.01 0.02 0.03 0.04 0.03 0.03 0.03 0.02 0.07 0.21 0.14 0.02 0.01 0.02 0.08 0.12 0.18 0.16 0.04 0.02 0.02 0.01 0.02 0.04 0.08 0.10 0.11 0.12 0.12 0.10 0.09 0.08 0.08 0.08 0.08 0.08 0.09 0.09 0.06 0.03 0.02 0.01 0.01 0.01
0.00 0.00 0.00 0.00 0.01 0.01 0.02 0.03 0.05 0.03 0.02 0.02 0.02 0.07 0.21 0.11 0.04 0.02 0.05 0.10 0.12 0.10 0.06 0.02 0.02 0.02 0.01 0.01 0.01 0.02 0.04 0.06 0.06 0.06 0.06 0.06 0.07 0.08 0.07 0.05 0.06 0.07 0.07 0.03 0.02 0.01 0.01 0.00 0.01
0.00 0.00 0.00 0.00 0.00 0.01 0.01 0.02 0.03 0.03 0.02 0.01 0.02 0.06 0.11 0.07 0.03 0.05 0.12 0.15 0.10 0.05 0.03 0.02 0.01 0.01 0.01 0.02 0.02 0.03 0.02 0.03 0.04 0.08 0.04 0.08 0.15 0.17 0.14 0.12 0.08 0.05 0.03 0.02 0.02 0.02 0.02 0.01 0.01
0.00 0.00 0.00 0.00 0.00 0.00 0.00 0.01 0.03 0.03 0.03 0.02 0.06 0.09 0.07 0.03 0.03 0.07 0.10 0.15 0.21 0.19 0.04 0.02 0.01 0.01 0.02 0.03 0.04 0.05 0.06 0.05 0.08 0.14 0.09 0.13 0.14 0.12 0.13 0.14 0.08 0.05 0.03 0.04 0.06 0.03 0.02 0.02 0.03
0.00 0.00 0.00 0.00 0.00 0.00 0.00 0.00 0.01 0.02 0.02 0.05 0.09 0.16 0.14 0.06 0.05 0.08 0.09 0.08 0.08 0.06 0.02 0.02 0.01 0.02 0.02 0.03 0.04 0.05 0.05 0.05 0.06 0.10 0.08 0.12 0.17 0.17 0.20 0.19 0.13 0.10 0.10 0.12 0.10 0.07 0.05 0.05 0.04
0.00 0.00 0.00 0.00 0.00 0.00 0.00 0.00 0.00 0.01 0.02 0.05 0.06 0.13 0.14 0.06 0.04 0.08 0.09 0.09 0.06 0.04 0.03 0.02 0.01 0.02 0.03 0.07 0.05 0.03 0.05 0.05 0.07 0.10 0.07 0.10 0.12 0.15 0.18 0.15 0.13 0.11 0.14 0.16 0.11 0.07 0.09 0.13 0.09
0.00 0.00 0.00 0.00 0.00 0.00 0.00 0.00 0.00 0.00 0.01 0.02 0.06 0.11 0.12 0.09 0.09 0.17 0.21 0.19 0.13 0.07 0.04 0.03 0.02 0.02 0.03 0.06 0.06 0.06 0.05 0.08 0.08 0.08 0.08 0.07 0.10 0.18 0.18 0.16 0.17 0.17 0.17 0.19 0.20 0.16 0.12 0.12 0.11
0.00 0.00 0.00 0.00 0.00 0.00 0.00 0.00 0.00 0.00 0.00 0.01 0.04 0.06 0.09 0.11 0.13 0.20 0.28 0.24 0.19 0.10 0.05 0.05 0.03 0.04 0.04 0.06 0.07 0.07 0.08 0.11 0.12 0.16 0.16 0.11 0.12 0.17 0.18 0.23 0.27 0.26 0.24 0.23 0.22 0.21 0.17 0.14 0.13
0.00 0.00 0.00 0.00 0.00 0.00 0.00 0.00 0.00 0.00 0.00 0.00 0.02 0.03 0.06 0.09 0.14 0.17 0.20 0.25 0.26 0.19 0.12 0.09 0.05 0.06 0.06 0.08 0.09 0.09 0.10 0.17 0.16 0.17 0.19 0.18 0.17 0.22 0.29 0.36 0.38 0.38 0.36 0.37 0.38 0.34 0.32 0.29 0.26
0.00 0.00 0.00 0.00 0.00 0.00 0.00 0.01 0.00 0.00 0.00 0.01 0.02 0.05 0.06 0.08 0.13 0.22 0.30 0.37 0.40 0.31 0.25 0.17 0.11 0.10 0.12 0.15 0.15 0.18 0.20 0.27 0.29 0.31 0.35 0.34 0.33 0.38 0.49 0.55 0.58 0.59 0.60 0.59 0.52 0.50 0.46 0.45 0.41
0.00 0.00 0.00 0.00 0.00 0.00 0.01 0.03 0.01 0.01 0.01 0.04 0.04 0.04 0.07 0.11 0.15 0.20 0.31 0.45 0.50 0.40 0.29 0.23 0.19 0.19 0.26 0.27 0.27 0.32 0.38 0.46 0.57 0.69 0.76 0.73 0.72 0.74 0.83 0.85 0.87 0.85 0.83 0.76 0.68 0.64 0.56 0.49 0.45
0.00 0.00 0.00 0.00 0.00 0.00 0.00 0.01 0.01 0.01 0.01 0.04 0.04 0.03 0.05 0.09 0.15 0.23 0.37 0.48 0.57 0.46 0.34 0.33 0.40 0.43 0.50 0.59 0.62 0.71 0.88 1.03 1.14 1.26 1.33 1.31 1.26 1.26 1.27 1.21 1.18 1.11 1.07 1.02 0.96 0.82 0.72 0.63 0.54
0.00 0.00 0.00 0.00 0.00 0.00 0.00 0.01 0.01 0.01 0.01 0.02 0.05 0.08 0.10 0.14 0.29 0.40 0.52 0.64 0.66 0.65 0.58 0.55 0.59 0.74 0.91 1.09 1.35 1.62 1.84 2.05 2.23 2.26 2.07 1.91 1.84 1.78 1.73 1.66 1.58 1.45 1.32 1.17 1.04 0.93 0.84 0.71 0.58
0.00 0.00 0.00 0.00 0.00 0.00 0.01 0.02 0.02 0.02 0.02 0.04 0.08 0.16 0.31 0.36 0.51 0.54 0.61 0.72 0.71 0.70 0.71 0.67 0.76 1.01 1.35 1.66 1.99 2.34 2.60 2.79 2.83 2.71 2.55 2.43 2.35 2.24 2.11 1.95 1.80 1.66 1.51 1.38 1.19 1.01 0.88 0.73 0.59
0.00 0.00 0.00 0.00 0.00 0.00 0.00 0.04 0.07 0.05 0.04 0.09 0.13 0.13 0.21 0.37 0.53 0.59 0.67 0.73 0.79 0.77 0.79 0.87 1.05 1.40 1.75 2.16 2.59 3.06 3.35 3.41 3.38 3.19 2.98 2.80 2.56 2.26 2.06 1.96 1.92 1.75 1.49 1.22 0.99 0.79 0.65 0.56 0.47
0.00 0.00 0.00 0.00 0.00 0.00 0.00 0.04 0.15 0.14 0.11 0.10 0.12 0.12 0.12 0.19 0.34 0.46 0.59 0.64 0.74 0.76 0.84 1.01 1.30 1.78 2.25 2.77 3.34 3.64 3.67 3.60 3.48 3.17 2.85 2.58 2.31 2.06 1.86 1.72 1.56 1.32 1.04 0.78 0.59 0.46 0.38 0.34 0.32
0.00 0.00 0.00 0.00 0.00 0.00 0.00 0.04 0.21 0.32 0.26 0.22 0.13 0.11 0.13 0.16 0.22 0.28 0.39 0.54 0.62 0.80 0.98 1.20 1.59 2.12 2.56 2.96 3.33 3.36 3.26 3.20 2.97 2.61 2.26 2.07 1.92 1.68 1.37 1.10 0.85 0.68 0.56 0.44 0.37 0.31 0.27 0.24 0.21
0.00 0.00 0.00 0.00 0.00 0.01 0.01 0.08 0.27 0.41 0.41 0.25 0.14 0.12 0.15 0.17 0.20 0.26 0.35 0.51 0.71 0.89 1.11 1.34 1.58 1.92 2.21 2.44 2.62 2.68 2.63 2.50 2.34 2.08 1.83 1.61 1.34 1.08 0.86 0.67 0.53 0.42 0.34 0.28 0.23 0.20 0.17 0.14 0.13
0.00 0.00 0.00 0.00 0.00 0.02 0.04 0.13 0.27 0.30 0.28 0.17 0.12 0.12 0.15 0.20 0.24 0.31 0.42 0.55 0.72 0.91 1.09 1.20 1.37 1.57 1.64 1.65 1.76 1.84 1.76 1.71 1.63 1.48 1.34 1.16 0.95 0.75 0.57 0.43 0.33 0.28 0.24 0.21 0.18 0.15 0.14 0.13 0.12
0.00 0.00 0.00 0.00 0.01 0.05 0.13 0.23 0.31 0.26 0.18 0.16 0.15 0.15 0.19 0.24 0.29 0.35 0.44 0.52 0.62 0.73 0.83 0.88 0.95 1.07 1.10 1.10 1.08 1.10 1.08 1.07 1.01 0.89 0.75 0.63 0.51 0.40 0.33 0.28 0.23 0.20 0.18 0.17 0.17 0.17 0.15 0.13 0.12
0.00 0.00 0.00 0.00 0.02 0.09 0.21 0.28 0.32 0.31 0.22 0.19 0.17 0.17 0.23 0.28 0.32 0.36 0.42 0.47 0.51 0.52 0.56 0.60 0.61 0.68 0.73 0.76 0.74 0.71 0.69 0.65 0.56 0.48 0.43 0.38 0.33 0.29 0.27 0.24 0.20 0.17 0.14 0.11 0.10 0.10 0.10 0.09 0.09
0.00 0.00 0.00 0.00 0.01 0.07 0.23 0.49 0.53 0.55 0.41 0.27 0.23 0.22 0.26 0.31 0.34 0.39 0.41 0.37 0.36 0.35 0.37 0.41 0.44 0.45 0.44 0.43 0.43 0.41 0.38 0.35 0.33 0.31 0.28 0.24 0.21 0.19 0.18 0.16 0.15 0.13 0.11 0.11 0.10 0.10 0.10 0.11 0.11
0.01 0.00 0.00 0.01 0.02 0.03 0.19 0.70 0.86 0.80 0.63 0.44 0.35 0.36 0.41 0.40 0.42 0.44 0.41 0.35 0.32 0.32 0.33 0.34 0.32 0.31 0.31 0.27 0.24 0.23 0.20 0.19 0.18 0.18 0.16 0.14 0.13 0.12 0.11 0.11 0.11 0.11 0.11 0.10 0.10 0.10 0.09 0.10 0.09

GEFSSGP_prec_meanprecacc_072.txt.gz
Total_Precipitation_Accumulation
0.00 0.00 0.00 0.00 0.00 0.00 0.01 0.02 0.04 0.11 0.17 0.14 0.16 0.19 0.17 0.16 0.17 0.44 0.26 0.08 0.04 0.01 0.00 0.01 0.01 0.03 0.05 0.04 0.05 0.07 0.09 0.10 0.10 0.09 0.09 0.08 0.08 0.08 0.08 0.08 0.10 0.13 0.15 0.13 0.10 0.09 0.07 0.05 0.02
0.00 0.00 0.00 0.00 0.00 0.00 0.01 0.02 0.05 0.09 0.13 0.11 0.14 0.17 0.14 0.12 0.11 0.07 0.08 0.05 0.03 0.01 0.00 0.00 0.01 0.02 0.04 0.04 0.04 0.07 0.10 0.09 0.09 0.08 0.08 0.08 0.08 0.08 0.08 0.10 0.15 0.20 0.23 0.23 0.17 0.13 0.10 0.08 0.03
0.00 0.00 0.00 0.00 0.00 0.00 0.02 0.04 0.06 0.07 0.09 0.12 0.16 0.25 0.21 0.10 0.08 0.04 0.03 0.02 0.03 0.01 0.00 0.00 0.01 0.02 0.02 0.03 0.03 0.06 0.08 0.08 0.08 0.08 0.08 0.08 0.09 0.10 0.12 0.15 0.19 0.24 0.25 0.23 0.20 0.17 0.15 0.09 0.03
0.00 0.00 0.00 0.00 0.00 0.00 0.02 0.06 0.08 0.07 0.06 0.09 0.11 0.22 0.21 0.09 0.04 0.03 0.02 0.03 0.02 0.01 0.00 0.00 0.01 0.02 0.02 0.03 0.03 0.05 0.07 0.08 0.10 0.12 0.12 0.12 0.12 0.12 0.16 0.23 0.27 0.26 0.25 0.24 0.25 0.23 0.18 0.10 0.04
0.00 0.00 0.00 0.00 0.00 0.00 0.01 0.03 0.06 0.06 0.05 0.04 0.07 0.19 0.21 0.11 0.08 0.05 0.03 0.04 0.03 0.01 0.01 0.00 0.01 0.02 0.04 0.03 0.04 0.06 0.09 0.12 0.17 0.21 0.20 0.16 0.15 0.15 0.20 0.27 0.29 0.28 0.31 0.30 0.27 0.21 0.14 0.06 0.04
0.00 0.00 0.00 0.00 0.00 0.00 0.01 0.02 0.03 0.04 0.04 0.05 0.10 0.26 0.33 0.21 0.15 0.11 0.10 0.08 0.05 0.02 0.01 0.01 0.03 0.04 0.05 0.05 0.06 0.09 0.13 0.16 0.20 0.22 0.20 0.17 0.15 0.15 0.20 0.23 0.23 0.25 0.26 0.20 0.12 0.09 0.06 0.05 0.05
0.00 0.00 0.00 0.00 0.00 0.00 0.01 0.03 0.04 0.04 0.05 0.06 0.11 0.27 0.36 0.34 0.21 0.14 0.12 0.12 0.09 0.06 0.06 0.05 0.06 0.05 0.04 0.07 0.09 0.10 0.11 0.13 0.17 0.19 0.16 0.13 0.12 0.12 0.13 0.13 0.15 0.15 0.11 0.07 0.05 0.04 0.03 0.03 0.02
0.00 0.00 0.00 0.00 0.00 0.01 0.02 0.05 0.07 0.07 0.08 0.06 0.07 0.27 0.55 0.46 0.23 0.19 0.17 0.19 0.17 0.19 0.16 0.04 0.02 0.02 0.01 0.02 0.04 0.08 0.10 0.12 0.13 0.12 0.11 0.09 0.09 0.09 0.08 0.08 0.08 0.09 0.09 0.06 0.03 0.02 0.01 0.01 0.01
0.00 0.00 0.00 0.00 0.01 0.01 0.02 0.04 0.06 0.06 0.05 0.05 0.05 0.17 0.42 0.39 0.26 0.19 0.20 0.27 0.19 0.12 0.07 0.02 0.02 0.02 0.01 0.01 0.01 0.02 0.04 0.06 0.06 0.07 0.07 0.07 0.08 0.08 0.08 0.06 0.06 0.07 0.07 0.03 0.02 0.01 0.01 0.01 0.01
0.00 0.00 0.00 0.00 0.00 0.01 0.01 0.02 0.05 0.05 0.04 0.03 0.06 0.14 0.26 0.26 0.24 0.21 0.25 0.29 0.15 0.08 0.04 0.02 0.01 0.01 0.01 0.02 0.02 0.03 0.02 0.03 0.04 0.08 0.04 0.08 0.15 0.17 0.14 0.13 0.09 0.06 0.03 0.02 0.02 0.02 0.02 0.01 0.02
0.00 0.00 0.00 0.00 0.00 0.00 0.00 0.01 0.04 0.05 0.05 0.05 0.11 0.18 0.22 0.21 0.21 0.22 0.22 0.25 0.25 0.21 0.05 0.03 0.01 0.01 0.02 0.03 0.04 0.05 0.06 0.05 0.08 0.14 0.09 0.14 0.14 0.14 0.14 0.14 0.09 0.06 0.04 0.04 0.06 0.03 0.02 0.03 0.05
0.00 0.00 0.00 0.00 0.00 0.00 0.00 0.00 0.02 0.02 0.03 0.07 0.12 0.22 0.25 0.20 0.21 0.24 0.26 0.22 0.17 0.12 0.04 0.03 0.01 0.02 0.02 0.03 0.04 0.05 0.05 0.05 0.06 0.10 0.08 0.12 0.19 0.22 0.24 0.21 0.14 0.11 0.10 0.12 0.11 0.07 0.07 0.08 0.08
0.00 0.00 0.00 0.00 0.00 0.00 0.00 0.00 0.00 0.01 0.02 0.05 0.08 0.16 0.20 0.16 0.13 0.20 0.26 0.27 0.21 0.14 0.09 0.06 0.03 0.03 0.04 0.10 0.08 0.04 0.05 0.05 0.07 0.10 0.08 0.11 0.14 0.20 0.23 0.20 0.17 0.13 0.16 0.18 0.13 0.09 0.13 0.17 0.13
0.00 0.00 0.00 0.00 0.00 0.00 0.00 0.00 0.00 0.00 0.01 0.03 0.06 0.12 0.16 0.19 0.20 0.28 0.34 0.36 0.32 0.22 0.18 0.13 0.09 0.07 0.07 0.13 0.15 0.09 0.07 0.11 0.11 0.11 0.11 0.10 0.14 0.22 0.21 0.21 0.20 0.19 0.20 0.22 0.23 0.18 0.15 0.15 0.18
0.00 0.00 0.00 0.00 0.00 0.00 0.00 0.00 0.00 0.00 0.00 0.01 0.04 0.08 0.12 0.16 0.24 0.31 0.42 0.41 0.41 0.29 0.21 0.17 0.13 0.12 0.11 0.13 0.16 0.12 0.14 0.22 0.24 0.28 0.26 0.21 0.19 0.22 0.22 0.26 0.30 0.28 0.27 0.26 0.25 0.24 0.21 0.18 0.17
0.00 0.00 0.00 0.00 0.00 0.00 0.00 0.00 0.00 0.00 0.00 0.01 0.03 0.05 0.09 0.13 0.23 0.31 0.38 0.46 0.52 0.49 0.37 0.31 0.28 0.22 0.19 0.17 0.15 0.14 0.17 0.33 0.34 0.41 0.40 0.35 0.27 0.29 0.35 0.41 0.42 0.41 0.39 0.42 0.43 0.39 0.37 0.34 0.31
0.00 0.00 0.00 0.00 0.00 0.00 0.00 0.01 0.01 0.00 0.01 0.02 0.05 0.10 0.13 0.19 0.27 0.38 0.53 0.62 0.66 0.57 0.56 0.50 0.44 0.36 0.35 0.33 0.28 0.29 0.34 0.43 0.48 0.53 0.54 0.48 0.45 0.49 0.57 0.62 0.62 0.62 0.64 0.63 0.57 0.55 0.51 0.50 0.48
0.00 0.00 0.00 0.00 0.00 0.00 0.01 0.04 0.02 0.02 0.02 0.06 0.15 0.16 0.19 0.26 0.35 0.39 0.59 0.87 0.89 0.77 0.60 0.53 0.48 0.46 0.53 0.60 0.51 0.52 0.59 0.68 0.81 1.02 1.07 0.99 0.92 0.91 0.96 0.95 0.94 0.91 0.88 0.81 0.73 0.70 0.63 0.57 0.52
0.00 0.00 0.00 0.00 0.00 0.00 0.01 0.03 0.03 0.04 0.04 0.09 0.14 0.12 0.13 0.20 0.35 0.53 0.75 1.04 1.29 1.08 0.88 0.80 0.73 0.71 0.75 0.86 0.90 0.96 1.16 1.33 1.47 1.63 1.67 1.65 1.56 1.52 1.48 1.38 1.30 1.21 1.16 1.10 1.04 0.91 0.81 0.71 0.61
0.00 0.00 0.01 0.01 0.01 0.01 0.01 0.02 0.04 0.06 0.05 0.09 0.13 0.16 0.18 0.24 0.46 0.71 0.97 1.34 1.56 1.51 1.38 1.30 1.19 1.17 1.28 1.41 1.62 1.91 2.16 2.40 2.59 2.60 2.39 2.21 2.11 2.04 1.99 1.90 1.80 1.61 1.46 1.29 1.15 1.03 0.94 0.79 0.65
0.00 0.00 0.01 0.04 0.03 0.02 0.02 0.06 0.08 0.09 0.08 0.11 0.18 0.27 0.44 0.50 0.75 0.99 1.20 1.50 1.71 1.71 1.59 1.49 1.52 1.60 1.83 2.10 2.38 2.72 2.97 3.15 3.16 3.04 2.88 2.75 2.65 2.54 2.40 2.23 2.03 1.83 1.65 1.51 1.33 1.14 0.99 0.83 0.68
0.00 0.00 0.00 0.01 0.02 0.02 0.02 0.09 0.20 0.14 0.11 0.19 0.27 0.26 0.39 0.57 0.84 1.09 1.32 1.53 1.71 1.73 1.66 1.69 1.82 2.12 2.34 2.67 3.05 3.45 3.72 3.77 3.71 3.52 3.32 3.12 2.85 2.55 2.32 2.22 2.10 1.90 1.60 1.33 1.09 0.90 0.74 0.62 0.53
0.00 0.00 0.00 0.01 0.01 0.01 0.01 0.07 0.27 0.26 0.20 0.25 0.38 0.32 0.33 0.38 0.61 0.90 1.13 1.31 1.53 1.58 1.65 1.85 2.08 2.47 2.89 3.37 3.88 4.14 4.13 4.01 3.84 3.49 3.16 2.85 2.55 2.28 2.05 1.91 1.74 1.45 1.12 0.84 0.65 0.51 0.43 0.39 0.36
0.00 0.00 0.00 0.00 0.00 0.00 0.01 0.06 0.30 0.45 0.41 0.37 0.34 0.32 0.32 0.34 0.40 0.53 0.69 0.92 1.12 1.36 1.60 1.89 2.30 2.74 3.10 3.46 3.82 3.86 3.74 3.66 3.39 2.96 2.54 2.33 2.15 1.87 1.53 1.24 0.96 0.75 0.61 0.50 0.42 0.35 0.30 0.27 0.25
0.00 0.00 0.00 0.00 0.00 0.01 0.02 0.11 0.36 0.57 0.62 0.44 0.33 0.28 0.25 0.29 0.32 0.38 0.47 0.71 0.96 1.17 1.43 1.77 2.07 2.39 2.59 2.79 3.00 3.08 3.01 2.89 2.74 2.43 2.12 1.84 1.52 1.22 0.96 0.73 0.57 0.44 0.35 0.29 0.25 0.21 0.18 0.17 0.16
0.00 0.00 0.00 0.00 0.00 0.02 0.07 0.21 0.39 0.44 0.44 0.32 0.25 0.21 0.21 0.26 0.31 0.38 0.49 0.63 0.86 1.07 1.27 1.42 1.62 1.86 1.90 1.85 1.95 2.04 1.98 1.93 1.83 1.65 1.48 1.28 1.04 0.80 0.61 0.46 0.35 0.29 0.25 0.22 0.19 0.16 0.16 0.15 0.14
0.00 0.00 0.00 0.00 0.01 0.06 0.21 0.36 0.47 0.41 0.29 0.24 0.22 0.20 0.23 0.28 0.33 0.40 0.48 0.57 0.67 0.80 0.90 0.96 1.03 1.16 1.18 1.17 1.16 1.19 1.18 1.17 1.10 0.96 0.81 0.68 0.55 0.43 0.35 0.30 0.25 0.21 0.19 0.18 0.18 0.18 0.16 0.15 0.14
0.00 0.01 0.01 0.01 0.03 0.11 0.27 0.43 0.54 0.60 0.42 0.28 0.23 0.22 0.26 0.31 0.34 0.39 0.45 0.49 0.54 0.56 0.60 0.65 0.65 0.71 0.76 0.79 0.77 0.75 0.73 0.68 0.59 0.51 0.47 0.41 0.36 0.31 0.28 0.25 0.21 0.18 0.15 0.13 0.12 0.12 0.11 0.11 0.11
0.01 0.01 0.02 0.03 0.03 0.12 0.32 0.64 0.80 0.95 0.82 0.52 0.35 0.28 0.29 0.33 0.37 0.42 0.44 0.40 0.38 0.38 0.40 0.43 0.46 0.48 0.48 0.46 0.45 0.44 0.41 0.37 0.35 0.32 0.29 0.25 0.22 0.20 0.18 0.16 0.15 0.13 0.12 0.11 0.11 0.11 0.11 0.12 0.12
0.02 0.03 0.06 0.11 0.12 0.11 0.31 0.93 1.30 1.34 1.12 0.78 0.54 0.45 0.45 0.43 0.45 0.47 0.44 0.37 0.34 0.34 0.35 0.35 0.33 0.33 0.33 0.29 0.25 0.23 0.21 0.19 0.19 0.18 0.16 0.14 0.13 0.12 0.11 0.11 0.11 0.11 0.11 0.11 0.10 0.10 0.10 0.10 0.10

GEFSSGP_prec_meanprecacc_078.txt.gz
Total_Precipitation_Accumulation
0.00 0.00 0.00 0.00 0.00 0.00 0.01 0.02 0.04 0.11 0.17 0.14 0.17 0.20 0.21 0.24 0.29 0.53 0.28 0.10 0.04 0.01 0.00 0.01 0.01 0.03 0.05 0.04 0.05 0.07 0.09 0.10 0.10 0.09 0.09 0.08 0.08 0.08 0.08 0.08 0.10 0.13 0.15 0.13 0.11 0.09 0.08 0.05 0.03
0.00 0.00 0.00 0.00 0.00 0.00 0.01 0.02 0.05 0.09 0.13 0.12 0.14 0.19 0.18 0.16 0.15 0.09 0.11 0.07 0.04 0.02 0.00 0.00 0.01 0.02 0.04 0.04 0.04 0.07 0.10 0.09 0.09 0.08 0.08 0.08 0.08 0.08 0.09 0.10 0.15 0.20 0.23 0.23 0.18 0.13 0.11 0.08 0.04
0.00 0.00 0.00 0.00 0.00 0.00 0.02 0.04 0.06 0.07 0.09 0.12 0.16 0.27 0.25 0.13 0.10 0.06 0.06 0.05 0.05 0.02 0.00 0.00 0.01 0.02 0.02 0.03 0.03 0.06 0.08 0.08 0.08 0.08 0.08 0.08 0.09 0.10 0.12 0.15 0.19 0.24 0.25 0.23 0.20 0.17 0.15 0.09 0.03
0.00 0.00 0.00 0.00 0.00 0.00 0.02 0.06 0.08 0.07 0.06 0.09 0.11 0.25 0.24 0.12 0.07 0.07 0.07 0.07 0.04 0.02 0.01 0.01 0.01 0.02 0.02 0.03 0.03 0.05 0.07 0.08 0.10 0.12 0.12 0.12 0.12 0.12 0.17 0.23 0.27 0.26 0.25 0.24 0.25 0.23 0.18 0.10 0.04
0.00 0.00 0.00 0.00 0.00 0.00 0.01 0.03 0.06 0.06 0.05 0.04 0.07 0.22 0.26 0.17 0.12 0.09 0.08 0.08 0.07 0.04 0.01 0.01 0.01 0.02 0.04 0.03 0.04 0.06 0.09 0.12 0.17 0.21 0.20 0.16 0.15 0.15 0.20 0.27 0.29 0.28 0.31 0.30 0.27 0.21 0.14 0.07 0.04
0.00 0.00 0.00 0.00 0.00 0.00 0.01 0.02 0.03 0.04 0.04 0.05 0.10 0.29 0.41 0.31 0.28 0.22 0.21 0.15 0.11 0.06 0.03 0.02 0.04 0.04 0.05 0.05 0.06 0.09 0.13 0.17 0.20 0.22 0.20 0.17 0.15 0.15 0.20 0.23 0.23 0.25 0.26 0.20 0.12 0.09 0.06 0.05 0.05
0.00 0.00 0.00 0.00 0.00 0.00 0.01 0.03 0.04 0.04 0.05 0.06 0.11 0.28 0.45 0.49 0.43 0.36 0.33 0.26 0.17 0.13 0.11 0.07 0.07 0.05 0.04 0.07 0.09 0.10 0.11 0.13 0.17 0.19 0.16 0.14 0.12 0.12 0.13 0.13 0.15 0.15 0.11 0.07 0.05 0.04 0.03 0.03 0.02
0.00 0.00 0.00 0.00 0.00 0.01 0.02 0.05 0.07 0.08 0.08 0.06 0.07 0.28 0.60 0.61 0.44 0.45 0.41 0.38 0.32 0.31 0.28 0.11 0.04 0.03 0.01 0.02 0.05 0.09 0.11 0.12 0.13 0.13 0.11 0.10 0.09 0.09 0.09 0.08 0.08 0.09 0.09 0.06 0.03 0.02 0.01 0.01 0.01
0.00 0.00 0.00 0.00 0.01 0.01 0.02 0.04 0.06 0.06 0.05 0.05 0.05 0.17 0.44 0.46 0.44 0.45 0.42 0.49 0.44 0.27 0.17 0.08 0.04 0.02 0.02 0.02 0.01 0.04 0.05 0.08 0.07 0.07 0.07 0.07 0.08 0.08 0.08 0.06 0.06 0.07 0.07 0.03 0.02 0.01 0.01 0.01 0.01
0.00 0.00 0.00 0.00 0.00 0.01 0.01 0.02 0.05 0.05 0.04 0.03 0.07 0.14 0.27 0.30 0.35 0.38 0.45 0.51 0.36 0.23 0.14 0.07 0.04 0.04 0.03 0.02 0.03 0.03 0.03 0.04 0.05 0.08 0.04 0.08 0.15 0.17 0.14 0.13 0.09 0.06 0.04 0.02 0.02 0.02 0.02 0.01 0.02
0.00 0.00 0.00 0.00 0.00 0.00 0.00 0.01 0.04 0.05 0.05 0.05 0.11 0.19 0.23 0.22 0.27 0.32 0.33 0.38 0.39 0.33 0.17 0.12 0.08 0.08 0.06 0.05 0.06 0.06 0.06 0.06 0.08 0.14 0.09 0.14 0.14 0.14 0.14 0.14 0.09 0.06 0.04 0.04 0.06 0.03 0.03 0.04 0.07
0.00 0.00 0.00 0.00 0.00 0.00 0.00 0.00 0.02 0.02 0.03 0.07 0.12 0.22 0.26 0.23 0.25 0.30 0.34 0.32 0.29 0.28 0.21 0.18 0.12 0.10 0.07 0.07 0.08 0.07 0.06 0.06 0.06 0.10 0.08 0.12 0.19 0.22 0.24 0.22 0.14 0.11 0.11 0.13 0.11 0.08 0.08 0.10 0.10
0.00 0.00 0.00 0.00 0.00 0.00 0.00 0.00 0.00 0.01 0.02 0.05 0.08 0.16 0.20 0.19 0.18 0.26 0.35 0.38 0.35 0.32 0.29 0.24 0.17 0.14 0.12 0.16 0.12 0.07 0.07 0.06 0.08 0.10 0.08 0.11 0.14 0.21 0.24 0.21 0.18 0.14 0.17 0.19 0.15 0.12 0.17 0.21 0.18
0.00 0.00 0.00 0.00 0.00 0.00 0.00 0.00 0.00 0.00 0.01 0.03 0.07 0.13 0.18 0.21 0.24 0.33 0.42 0.47 0.46 0.43 0.39 0.31 0.27 0.19 0.14 0.19 0.18 0.12 0.10 0.14 0.13 0.13 0.12 0.12 0.16 0.24 0.24 0.25 0.24 0.23 0.23 0.26 0.27 0.23 0.20 0.20 0.22
0.00 0.00 0.00 0.00 0.00 0.00 0.00 0.00 0.00 0.00 0.00 0.01 0.05 0.09 0.14 0.20 0.29 0.37 0.51 0.53 0.56 0.49 0.41 0.34 0.31 0.30 0.26 0.24 0.23 0.17 0.19 0.27 0.29 0.34 0.31 0.25 0.23 0.26 0.26 0.32 0.36 0.33 0.32 0.31 0.32 0.31 0.26 0.23 0.21
0.00 0.00 0.00 0.00 0.00 0.00 0.00 0.00 0.00 0.00 0.00 0.01 0.03 0.06 0.10 0.16 0.27 0.37 0.49 0.59 0.70 0.72 0.58 0.48 0.44 0.41 0.40 0.33 0.27 0.25 0.28 0.42 0.43 0.50 0.48 0.41 0.32 0.34 0.42 0.49 0.49 0.48 0.47 0.49 0.51 0.47 0.42 0.39 0.36
0.00 0.00 0.00 0.00 0.00 0.00 0.00 0.01 0.01 0.01 0.01 0.02 0.05 0.10 0.14 0.21 0.31 0.45 0.65 0.77 0.84 0.77 0.77 0.70 0.63 0.57 0.60 0.59 0.49 0.48 0.53 0.61 0.65 0.68 0.70 0.62 0.57 0.62 0.70 0.74 0.73 0.73 0.76 0.74 0.67 0.66 0.60 0.58 0.55
0.00 0.00 0.00 0.00 0.00 0.00 0.01 0.04 0.03 0.03 0.02 0.06 0.15 0.16 0.21 0.28 0.39 0.47 0.70 1.04 1.09 0.99 0.85 0.83 0.79 0.78 0.85 0.94 0.85 0.86 0.90 0.99 1.10 1.26 1.31 1.22 1.14 1.12 1.16 1.14 1.12 1.08 1.04 0.96 0.87 0.83 0.74 0.67 0.62
0.00 0.00 0.00 0.00 0.00 0.01 0.01 0.03 0.04 0.05 0.04 0.09 0.15 0.13 0.15 0.23 0.39 0.60 0.85 1.18 1.55 1.40 1.19 1.22 1.28 1.23 1.26 1.39 1.39 1.42 1.59 1.76 1.89 2.00 2.00 1.95 1.84 1.80 1.74 1.63 1.55 1.45 1.37 1.27 1.19 1.04 0.93 0.82 0.71
0.00 0.00 0.01 0.02 0.01 0.02 0.03 0.04 0.05 0.08 0.06 0.10 0.14 0.17 0.20 0.26 0.50 0.78 1.07 1.51 1.83 1.84 1.80 1.73 1.82 1.91 2.01 2.11 2.26 2.47 2.68 2.88 3.03 3.01 2.77 2.60 2.49 2.37 2.28 2.19 2.09 1.88 1.68 1.48 1.31 1.18 1.08 0.92 0.75
0.00 0.00 0.01 0.04 0.03 0.04 0.05 0.10 0.12 0.12 0.11 0.14 0.20 0.30 0.47 0.53 0.79 1.05 1.28 1.64 1.93 1.99 1.96 1.96 2.08 2.38 2.76 3.01 3.19 3.40 3.57 3.67 3.58 3.38 3.23 3.12 3.01 2.88 2.72 2.58 2.29 2.01 1.80 1.64 1.46 1.27 1.13 0.95 0.77
0.00 0.00 0.00 0.02 0.03 0.04 0.05 0.15 0.26 0.18 0.15 0.23 0.31 0.31 0.45 0.63 0.90 1.17 1.41 1.65 1.91 2.04 2.03 2.19 2.58 3.06 3.43 3.75 4.07 4.42 4.54 4.43 4.21 3.91 3.63 3.43 3.17 2.84 2.59 2.45 2.30 2.06 1.74 1.44 1.19 0.99 0.82 0.70 0.60
0.00 0.00 0.00 0.01 0.01 0.03 0.04 0.10 0.34 0.32 0.23 0.30 0.43 0.37 0.40 0.48 0.70 1.00 1.24 1.43 1.70 1.84 2.00 2.29 2.73 3.27 3.84 4.44 4.94 5.14 5.04 4.77 4.47 3.96 3.49 3.10 2.78 2.49 2.23 2.06 1.87 1.58 1.24 0.94 0.73 0.58 0.49 0.44 0.40
0.00 0.00 0.00 0.00 0.00 0.01 0.02 0.08 0.35 0.54 0.47 0.41 0.39 0.39 0.39 0.42 0.49 0.62 0.79 1.02 1.24 1.56 1.89 2.22 2.68 3.27 3.77 4.25 4.66 4.71 4.56 4.36 3.97 3.42 2.89 2.56 2.31 2.01 1.65 1.33 1.04 0.82 0.66 0.54 0.45 0.38 0.32 0.28 0.26
0.00 0.00 0.00 0.00 0.00 0.02 0.03 0.13 0.40 0.64 0.67 0.48 0.38 0.35 0.32 0.35 0.38 0.45 0.55 0.78 1.05 1.29 1.60 1.99 2.33 2.77 3.10 3.38 3.64 3.67 3.60 3.42 3.19 2.80 2.42 2.07 1.67 1.34 1.06 0.81 0.63 0.48 0.38 0.31 0.26 0.22 0.19 0.17 0.17
0.00 0.00 0.00 0.00 0.01 0.04 0.10 0.26 0.43 0.49 0.49 0.37 0.30 0.27 0.26 0.31 0.35 0.44 0.56 0.69 0.94 1.15 1.38 1.56 1.78 2.07 2.16 2.17 2.30 2.38 2.30 2.22 2.09 1.90 1.69 1.43 1.14 0.87 0.66 0.50 0.38 0.31 0.27 0.22 0.19 0.17 0.16 0.15 0.14
0.00 0.00 0.01 0.01 0.01 0.07 0.25 0.39 0.51 0.46 0.33 0.28 0.26 0.24 0.26 0.31 0.37 0.44 0.52 0.60 0.72 0.87 0.97 1.04 1.12 1.27 1.30 1.33 1.33 1.36 1.35 1.32 1.22 1.07 0.90 0.74 0.59 0.46 0.37 0.31 0.26 0.22 0.19 0.18 0.18 0.18 0.17 0.15 0.14
0.01 0.01 0.02 0.01 0.03 0.12 0.30 0.47 0.58 0.66 0.48 0.32 0.26 0.26 0.29 0.33 0.37 0.41 0.47 0.52 0.57 0.61 0.66 0.71 0.73 0.80 0.86 0.89 0.87 0.87 0.85 0.79 0.69 0.60 0.52 0.44 0.38 0.33 0.29 0.26 0.23 0.19 0.16 0.13 0.12 0.12 0.11 0.11 0.11
0.02 0.02 0.03 0.03 0.04 0.12 0.33 0.66 0.82 0.99 0.91 0.60 0.42 0.34 0.33 0.36 0.39 0.44 0.46 0.42 0.41 0.42 0.44 0.49 0.53 0.55 0.55 0.54 0.54 0.53 0.48 0.43 0.40 0.37 0.33 0.28 0.24 0.21 0.19 0.17 0.15 0.14 0.12 0.11 0.11 0.11 0.11 0.12 0.12
0.03 0.04 0.06 0.12 0.13 0.11 0.32 0.94 1.32 1.39 1.21 0.90 0.66 0.56 0.55 0.50 0.49 0.50 0.47 0.40 0.37 0.38 0.38 0.39 0.38 0.40 0.40 0.34 0.30 0.30 0.27 0.24 0.22 0.21 0.19 0.16 0.15 0.13 0.12 0.12 0.11 0.11 0.11 0.11 0.10 0.10 0.10 0.10 0.10

GEFSSGP_prec_meanprecacc_084.txt.gz
Total_Precipitation_Accumulation
0.00 0.00 0.00 0.00 0.00 0.00 0.01 0.02 0.04 0.11 0.17 0.14 0.17 0.21 0.21 0.24 0.29 0.53 0.29 0.10 0.04 0.01 0.00 0.01 0.01 0.03 0.05 0.05 0.06 0.08 0.09 0.10 0.10 0.09 0.09 0.08 0.08 0.08 0.08 0.08 0.10 0.14 0.15 0.13 0.11 0.10 0.08 0.06 0.03
0.00 0.00 0.00 0.00 0.00 0.00 0.01 0.02 0.05 0.09 0.13 0.12 0.14 0.19 0.18 0.16 0.15 0.09 0.11 0.07 0.04 0.02 0.00 0.00 0.01 0.02 0.04 0.04 0.05 0.08 0.10 0.09 0.09 0.08 0.08 0.08 0.08 0.08 0.09 0.10 0.15 0.20 0.23 0.23 0.18 0.14 0.11 0.08 0.04
0.00 0.00 0.00 0.00 0.00 0.00 0.02 0.04 0.06 0.07 0.09 0.12 0.16 0.27 0.25 0.13 0.10 0.06 0.07 0.06 0.05 0.02 0.00 0.01 0.01 0.02 0.03 0.03 0.04 0.06 0.08 0.08 0.08 0.08 0.08 0.08 0.09 0.10 0.12 0.15 0.19 0.24 0.25 0.23 0.20 0.18 0.16 0.09 0.04
0.00 0.00 0.00 0.00 0.00 0.00 0.02 0.06 0.08 0.07 0.06 0.09 0.11 0.25 0.24 0.12 0.07 0.07 0.07 0.07 0.05 0.02 0.01 0.01 0.01 0.02 0.02 0.03 0.03 0.05 0.07 0.08 0.10 0.12 0.12 0.12 0.12 0.12 0.17 0.23 0.27 0.26 0.25 0.24 0.25 0.24 0.19 0.11 0.05
0.00 0.00 0.00 0.00 0.00 0.00 0.01 0.03 0.06 0.06 0.05 0.04 0.07 0.22 0.26 0.17 0.12 0.09 0.08 0.09 0.07 0.04 0.02 0.01 0.02 0.02 0.04 0.03 0.04 0.06 0.09 0.12 0.17 0.21 0.20 0.16 0.15 0.15 0.20 0.27 0.29 0.28 0.31 0.30 0.28 0.21 0.14 0.07 0.04
0.00 0.00 0.00 0.00 0.00 0.00 0.01 0.02 0.03 0.04 0.04 0.05 0.10 0.29 0.41 0.31 0.28 0.22 0.21 0.15 0.11 0.07 0.04 0.03 0.04 0.05 0.05 0.05 0.06 0.09 0.13 0.17 0.20 0.22 0.20 0.17 0.15 0.15 0.20 0.23 0.23 0.25 0.26 0.20 0.13 0.09 0.06 0.05 0.05
0.00 0.00 0.00 0.00 0.00 0.00 0.01 0.03 0.04 0.04 0.05 0.06 0.12 0.28 0.45 0.49 0.43 0.36 0.33 0.26 0.17 0.14 0.14 0.09 0.08 0.07 0.05 0.09 0.10 0.11 0.11 0.13 0.18 0.19 0.16 0.14 0.12 0.12 0.13 0.14 0.15 0.15 0.11 0.08 0.06 0.04 0.03 0.03 0.03
0.00 0.00 0.00 0.00 0.00 0.01 0.02 0.05 0.07 0.08 0.08 0.06 0.08 0.28 0.60 0.61 0.44 0.45 0.41 0.39 0.33 0.35 0.38 0.16 0.06 0.05 0.04 0.04 0.07 0.11 0.12 0.13 0.13 0.13 0.11 0.10 0.09 0.09 0.09 0.08 0.09 0.10 0.09 0.06 0.04 0.02 0.01 0.01 0.01
0.00 0.00 0.00 0.00 0.01 0.01 0.02 0.04 0.06 0.06 0.05 0.05 0.05 0.17 0.44 0.46 0.44 0.45 0.42 0.50 0.46 0.31 0.28 0.21 0.08 0.04 0.04 0.05 0.05 0.07 0.09 0.10 0.09 0.08 0.08 0.08 0.08 0.09 0.08 0.06 0.06 0.08 0.07 0.03 0.02 0.01 0.01 0.01 0.01
0.00 0.00 0.00 0.00 0.00 0.01 0.01 0.02 0.05 0.05 0.04 0.03 0.07 0.14 0.27 0.30 0.35 0.38 0.45 0.52 0.38 0.29 0.21 0.18 0.13 0.09 0.07 0.05 0.07 0.08 0.07 0.08 0.08 0.10 0.05 0.09 0.16 0.19 0.15 0.13 0.09 0.06 0.04 0.02 0.03 0.03 0.02 0.01 0.02
0.00 0.00 0.00 0.00 0.00 0.00 0.00 0.01 0.04 0.05 0.05 0.05 0.11 0.19 0.23 0.22 0.27 0.32 0.33 0.39 0.40 0.36 0.21 0.17 0.17 0.22 0.19 0.13 0.11 0.11 0.10 0.11 0.12 0.17 0.12 0.18 0.17 0.15 0.15 0.15 0.10 0.06 0.04 0.05 0.07 0.04 0.03 0.04 0.07
0.00 0.00 0.00 0.00 0.00 0.00 0.00 0.00 0.02 0.02 0.03 0.07 0.12 0.22 0.26 0.23 0.25 0.31 0.34 0.32 0.30 0.29 0.23 0.22 0.18 0.20 0.21 0.27 0.24 0.16 0.15 0.12 0.10 0.14 0.12 0.16 0.22 0.23 0.26 0.23 0.15 0.12 0.12 0.14 0.12 0.09 0.09 0.10 0.10
0.00 0.00 0.00 0.00 0.00 0.00 0.00 0.00 0.00 0.01 0.02 0.05 0.08 0.16 0.20 0.19 0.18 0.26 0.35 0.39 0.36 0.33 0.31 0.30 0.29 0.27 0.26 0.33 0.27 0.16 0.15 0.14 0.15 0.16 0.13 0.15 0.17 0.23 0.27 0.24 0.20 0.16 0.19 0.22 0.18 0.14 0.19 0.23 0.20
0.00 0.00 0.00 0.00 0.00 0.00 0.00 0.00 0.00 0.00 0.01 0.03 0.07 0.13 0.18 0.21 0.25 0.35 0.43 0.49 0.48 0.46 0.45 0.41 0.43 0.38 0.31 0.33 0.29 0.20 0.16 0.21 0.23 0.20 0.18 0.16 0.19 0.27 0.28 0.30 0.29 0.28 0.28 0.31 0.33 0.28 0.26 0.27 0.27
0.00 0.00 0.00 0.00 0.00 0.00 0.00 0.00 0.00 0.00 0.00 0.01 0.05 0.09 0.14 0.21 0.30 0.39 0.54 0.58 0.62 0.57 0.52 0.48 0.46 0.50 0.49 0.44 0.40 0.30 0.29 0.35 0.40 0.44 0.39 0.31 0.28 0.32 0.32 0.39 0.43 0.41 0.40 0.39 0.39 0.37 0.32 0.29 0.26
0.00 0.00 0.00 0.00 0.00 0.00 0.00 0.00 0.00 0.00 0.00 0.01 0.03 0.06 0.11 0.17 0.28 0.40 0.52 0.66 0.80 0.82 0.72 0.68 0.66 0.60 0.63 0.61 0.54 0.47 0.47 0.58 0.55 0.62 0.59 0.49 0.39 0.41 0.49 0.59 0.59 0.58 0.56 0.59 0.62 0.56 0.51 0.47 0.43
0.00 0.00 0.00 0.00 0.00 0.00 0.00 0.01 0.01 0.01 0.01 0.02 0.05 0.11 0.14 0.22 0.32 0.46 0.67 0.81 0.89 0.86 0.91 0.87 0.83 0.78 0.84 0.90 0.79 0.76 0.78 0.84 0.84 0.84 0.85 0.75 0.68 0.72 0.80 0.87 0.88 0.88 0.89 0.86 0.77 0.76 0.69 0.68 0.65
0.00 0.00 0.00 0.00 0.00 0.00 0.01 0.04 0.03 0.03 0.02 0.06 0.15 0.17 0.21 0.29 0.40 0.48 0.72 1.06 1.13 1.06 0.98 1.01 1.00 1.00 1.09 1.25 1.21 1.16 1.19 1.24 1.34 1.52 1.55 1.42 1.35 1.32 1.36 1.33 1.31 1.24 1.18 1.06 0.97 0.93 0.84 0.77 0.71
0.00 0.00 0.00 0.00 0.00 0.01 0.01 0.04 0.05 0.05 0.04 0.10 0.15 0.14 0.15 0.24 0.40 0.61 0.86 1.20 1.59 1.46 1.28 1.34 1.44 1.42 1.51 1.73 1.77 1.76 1.92 2.06 2.19 2.32 2.28 2.23 2.10 2.06 2.00 1.86 1.75 1.62 1.51 1.39 1.30 1.14 1.01 0.90 0.78
0.00 0.00 0.01 0.02 0.01 0.02 0.03 0.05 0.06 0.08 0.08 0.11 0.15 0.18 0.20 0.27 0.51 0.80 1.09 1.54 1.87 1.89 1.87 1.82 1.94 2.08 2.22 2.39 2.63 2.86 3.05 3.22 3.41 3.43 3.11 2.91 2.77 2.62 2.53 2.42 2.29 2.06 1.84 1.61 1.42 1.26 1.14 0.98 0.82
0.00 0.00 0.01 0.04 0.04 0.04 0.07 0.12 0.14 0.14 0.13 0.16 0.22 0.31 0.48 0.54 0.81 1.07 1.30 1.67 1.97 2.04 2.03 2.05 2.19 2.55 2.97 3.29 3.55 3.84 4.00 4.09 3.97 3.74 3.56 3.41 3.28 3.13 2.98 2.81 2.50 2.20 1.96 1.77 1.56 1.35 1.21 1.03 0.85
0.00 0.00 0.00 0.02 0.03 0.05 0.06 0.18 0.30 0.23 0.20 0.26 0.34 0.33 0.47 0.65 0.92 1.19 1.44 1.68 1.94 2.08 2.09 2.27 2.68 3.23 3.68 4.03 4.38 4.78 4.95 4.84 4.59 4.23 3.91 3.68 3.40 3.06 2.80 2.65 2.50 2.24 1.88 1.54 1.27 1.06 0.90 0.78 0.67
0.00 0.00 0.00 0.01 0.01 0.03 0.04 0.12 0.38 0.38 0.30 0.33 0.45 0.40 0.43 0.50 0.72 1.02 1.27 1.46 1.73 1.88 2.06 2.38 2.84 3.42 4.02 4.68 5.18 5.43 5.37 5.15 4.84 4.29 3.80 3.39 3.03 2.72 2.45 2.26 2.05 1.73 1.36 1.03 0.80 0.63 0.54 0.49 0.44
0.00 0.00 0.00 0.00 0.01 0.02 0.03 0.10 0.40 0.62 0.54 0.46 0.42 0.41 0.42 0.45 0.52 0.64 0.81 1.04 1.27 1.60 1.95 2.29 2.78 3.41 3.92 4.43 4.87 4.94 4.83 4.68 4.31 3.75 3.22 2.88 2.60 2.28 1.90 1.55 1.21 0.95 0.77 0.62 0.52 0.43 0.36 0.32 0.29
0.00 0.00 0.01 0.01 0.01 0.02 0.04 0.16 0.45 0.70 0.73 0.53 0.43 0.39 0.34 0.38 0.42 0.48 0.57 0.81 1.09 1.33 1.66 2.05 2.42 2.89 3.27 3.57 3.87 3.95 3.90 3.76 3.56 3.18 2.76 2.40 1.98 1.63 1.33 1.02 0.80 0.60 0.47 0.38 0.31 0.26 0.23 0.20 0.19
0.00 0.00 0.01 0.02 0.01 0.05 0.13 0.30 0.47 0.53 0.53 0.41 0.34 0.31 0.30 0.34 0.39 0.47 0.59 0.74 0.99 1.21 1.45 1.63 1.87 2.17 2.28 2.31 2.45 2.57 2.53 2.48 2.39 2.20 1.99 1.75 1.44 1.11 0.86 0.65 0.50 0.40 0.33 0.27 0.23 0.19 0.18 0.17 0.16
0.01 0.01 0.01 0.01 0.01 0.09 0.28 0.42 0.54 0.49 0.36 0.32 0.30 0.28 0.30 0.35 0.40 0.47 0.55 0.64 0.77 0.93 1.03 1.09 1.18 1.34 1.39 1.44 1.44 1.48 1.50 1.48 1.39 1.23 1.07 0.92 0.76 0.60 0.49 0.40 0.32 0.26 0.23 0.20 0.20 0.19 0.17 0.16 0.14
0.01 0.02 0.03 0.02 0.05 0.15 0.34 0.51 0.62 0.70 0.52 0.37 0.30 0.29 0.32 0.37 0.41 0.44 0.50 0.54 0.60 0.66 0.72 0.77 0.78 0.85 0.91 0.97 0.98 0.97 0.96 0.90 0.80 0.71 0.63 0.55 0.47 0.40 0.36 0.31 0.26 0.22 0.18 0.14 0.13 0.13 0.12 0.11 0.11
0.03 0.04 0.05 0.05 0.05 0.15 0.36 0.70 0.86 1.03 0.95 0.66 0.47 0.38 0.37 0.40 0.42 0.47 0.49 0.44 0.43 0.44 0.48 0.53 0.57 0.59 0.61 0.62 0.64 0.63 0.59 0.54 0.51 0.47 0.43 0.38 0.31 0.26 0.22 0.20 0.17 0.15 0.13 0.12 0.12 0.12 0.12 0.13 0.12
0.04 0.06 0.09 0.15 0.15 0.14 0.35 0.98 1.34 1.43 1.26 0.96 0.71 0.61 0.60 0.54 0.52 0.54 0.51 0.43 0.40 0.42 0.42 0.42 0.43 0.45 0.47 0.41 0.39 0.39 0.35 0.32 0.29 0.27 0.25 0.22 0.20 0.17 0.15 0.14 0.13 0.12 0.12 0.11 0.10 0.10 0.10 0.10 0.10

GEFSSGP_prec_meanprecacc_090.txt.gz
Total_Precipitation_Accumulation
0.00 0.00 0.00 0.00 0.00 0.00 0.01 0.02 0.04 0.12 0.18 0.14 0.17 0.21 0.21 0.24 0.31 0.65 0.37 0.11 0.04 0.01 0.01 0.01 0.01 0.03 0.05 0.05 0.06 0.08 0.10 0.10 0.10 0.09 0.09 0.08 0.08 0.08 0.08 0.08 0.10 0.14 0.16 0.14 0.12 0.11 0.10 0.07 0.04
0.00 0.00 0.00 0.00 0.00 0.00 0.01 0.02 0.05 0.09 0.13 0.12 0.14 0.19 0.18 0.16 0.15 0.11 0.13 0.07 0.04 0.02 0.01 0.00 0.01 0.02 0.04 0.04 0.05 0.08 0.10 0.10 0.09 0.08 0.08 0.08 0.08 0.08 0.09 0.10 0.15 0.20 0.24 0.24 0.19 0.14 0.12 0.09 0.05
0.00 0.00 0.00 0.00 0.00 0.00 0.02 0.04 0.06 0.07 0.09 0.12 0.16 0.27 0.25 0.13 0.10 0.07 0.07 0.06 0.05 0.02 0.01 0.01 0.01 0.02 0.03 0.03 0.04 0.06 0.08 0.08 0.08 0.08 0.08 0.08 0.09 0.10 0.12 0.15 0.19 0.24 0.26 0.24 0.21 0.18 0.16 0.10 0.04
0.00 0.00 0.00 0.00 0.00 0.00 0.02 0.06 0.08 0.07 0.06 0.09 0.11 0.25 0.24 0.12 0.07 0.07 0.07 0.07 0.05 0.02 0.01 0.01 0.01 0.02 0.03 0.03 0.03 0.05 0.07 0.08 0.10 0.13 0.12 0.12 0.12 0.12 0.17 0.23 0.27 0.26 0.25 0.25 0.26 0.24 0.19 0.11 0.05
0.00 0.00 0.00 0.00 0.00 0.00 0.01 0.03 0.06 0.06 0.05 0.04 0.07 0.22 0.27 0.17 0.13 0.09 0.08 0.09 0.07 0.05 0.03 0.01 0.02 0.03 0.04 0.03 0.04 0.07 0.09 0.12 0.17 0.21 0.20 0.16 0.15 0.15 0.20 0.27 0.29 0.28 0.31 0.30 0.28 0.22 0.15 0.07 0.05
0.00 0.00 0.00 0.00 0.00 0.00 0.01 0.02 0.03 0.04 0.04 0.05 0.10 0.30 0.42 0.35 0.31 0.22 0.21 0.15 0.11 0.08 0.07 0.04 0.05 0.05 0.05 0.05 0.06 0.09 0.13 0.17 0.20 0.22 0.20 0.17 0.15 0.15 0.20 0.23 0.23 0.25 0.26 0.20 0.13 0.09 0.06 0.06 0.06
0.00 0.00 0.00 0.00 0.00 0.00 0.01 0.03 0.04 0.04 0.05 0.06 0.12 0.29 0.46 0.52 0.44 0.36 0.33 0.26 0.18 0.19 0.20 0.12 0.09 0.07 0.05 0.09 0.11 0.12 0.12 0.14 0.18 0.20 0.17 0.14 0.12 0.12 0.14 0.14 0.15 0.16 0.11 0.08 0.06 0.04 0.03 0.03 0.03
0.00 0.00 0.00 0.00 0.00 0.01 0.02 0.05 0.07 0.08 0.08 0.06 0.08 0.28 0.60 0.62 0.45 0.46 0.41 0.39 0.34 0.39 0.43 0.19 0.07 0.05 0.04 0.04 0.07 0.12 0.13 0.14 0.15 0.15 0.13 0.11 0.09 0.10 0.09 0.09 0.09 0.10 0.09 0.06 0.04 0.02 0.01 0.01 0.01
0.00 0.00 0.00 0.00 0.01 0.01 0.02 0.04 0.06 0.06 0.05 0.05 0.05 0.17 0.44 0.48 0.44 0.46 0.43 0.51 0.48 0.33 0.32 0.26 0.12 0.06 0.05 0.05 0.05 0.08 0.10 0.12 0.12 0.11 0.10 0.10 0.10 0.10 0.09 0.06 0.07 0.08 0.07 0.03 0.02 0.02 0.01 0.01 0.01
0.00 0.00 0.00 0.00 0.00 0.01 0.01 0.02 0.05 0.05 0.04 0.03 0.07 0.14 0.27 0.31 0.36 0.38 0.47 0.54 0.40 0.31 0.23 0.21 0.19 0.14 0.10 0.07 0.09 0.09 0.08 0.09 0.10 0.15 0.10 0.12 0.23 0.25 0.18 0.16 0.10 0.06 0.04 0.02 0.03 0.03 0.02 0.02 0.02
0.00 0.00 0.00 0.00 0.00 0.00 0.00 0.01 0.04 0.05 0.05 0.05 0.11 0.19 0.23 0.23 0.27 0.33 0.36 0.42 0.45 0.43 0.26 0.20 0.23 0.31 0.25 0.20 0.17 0.15 0.15 0.17 0.19 0.28 0.22 0.28 0.31 0.26 0.24 0.21 0.11 0.07 0.05 0.05 0.07 0.04 0.03 0.04 0.07
0.00 0.00 0.00 0.00 0.00 0.00 0.00 0.00 0.02 0.02 0.03 0.07 0.12 0.22 0.26 0.23 0.26 0.34 0.40 0.39 0.41 0.47 0.36 0.29 0.23 0.26 0.30 0.39 0.35 0.25 0.24 0.23 0.20 0.30 0.27 0.33 0.39 0.37 0.37 0.31 0.19 0.14 0.12 0.15 0.13 0.10 0.10 0.11 0.11
0.00 0.00 0.00 0.00 0.00 0.00 0.00 0.00 0.00 0.01 0.02 0.05 0.08 0.16 0.21 0.21 0.20 0.28 0.40 0.53 0.58 0.57 0.53 0.49 0.48 0.38 0.36 0.54 0.50 0.31 0.31 0.36 0.41 0.47 0.38 0.36 0.34 0.35 0.39 0.37 0.31 0.21 0.21 0.25 0.21 0.17 0.22 0.26 0.22
0.00 0.00 0.00 0.00 0.00 0.00 0.00 0.00 0.00 0.00 0.01 0.03 0.07 0.13 0.19 0.24 0.28 0.44 0.56 0.57 0.64 0.73 0.66 0.63 0.73 0.67 0.50 0.51 0.55 0.43 0.38 0.53 0.60 0.57 0.50 0.41 0.41 0.48 0.47 0.50 0.45 0.36 0.34 0.37 0.37 0.31 0.31 0.32 0.32
0.00 0.00 0.00 0.00 0.00 0.00 0.00 0.00 0.00 0.00 0.00 0.01 0.05 0.09 0.14 0.22 0.34 0.47 0.65 0.67 0.72 0.74 0.74 0.68 0.66 0.81 0.80 0.69 0.63 0.54 0.52 0.66 0.72 0.77 0.71 0.58 0.57 0.70 0.65 0.64 0.63 0.55 0.49 0.47 0.48 0.43 0.38 0.34 0.32
0.00 0.00 0.00 0.00 0.00 0.00 0.00 0.00 0.00 0.00 0.00 0.01 0.03 0.06 0.11 0.18 0.31 0.46 0.60 0.75 0.88 0.97 0.96 0.97 0.90 0.84 0.93 0.90 0.81 0.73 0.71 0.87 0.90 0.99 1.04 0.90 0.82 0.92 0.90 0.89 0.81 0.75 0.72 0.76 0.77 0.67 0.61 0.56 0.52
0.00 0.00 0.00 0.00 0.00 0.00 0.00 0.01 0.01 0.01 0.01 0.02 0.05 0.11 0.15 0.23 0.34 0.53 0.77 0.91 0.98 0.99 1.16 1.17 1.09 1.01 1.08 1.19 1.09 1.06 1.13 1.21 1.22 1.26 1.32 1.25 1.16 1.18 1.18 1.19 1.17 1.12 1.12 1.08 0.95 0.93 0.84 0.81 0.76
0.00 0.00 0.00 0.00 0.00 0.00 0.01 0.05 0.03 0.03 0.02 0.07 0.15 0.17 0.22 0.31 0.43 0.56 0.84 1.19 1.28 1.21 1.20 1.29 1.31 1.27 1.33 1.50 1.49 1.51 1.61 1.71 1.79 1.91 1.98 1.92 1.84 1.74 1.72 1.64 1.57 1.49 1.43 1.31 1.21 1.17 1.03 0.93 0.84
0.00 0.00 0.00 0.00 0.00 0.01 0.01 0.04 0.05 0.06 0.05 0.11 0.16 0.15 0.16 0.27 0.43 0.65 0.92 1.27 1.69 1.57 1.41 1.52 1.70 1.68 1.72 1.93 1.96 2.01 2.27 2.46 2.59 2.69 2.66 2.66 2.52 2.46 2.40 2.23 2.05 1.87 1.76 1.63 1.55 1.38 1.23 1.07 0.93
0.00 0.00 0.01 0.02 0.02 0.02 0.03 0.05 0.07 0.10 0.09 0.12 0.17 0.20 0.22 0.29 0.54 0.82 1.12 1.60 2.00 2.05 2.01 2.00 2.16 2.32 2.44 2.57 2.80 3.08 3.33 3.55 3.73 3.75 3.42 3.21 3.06 2.93 2.85 2.76 2.60 2.34 2.12 1.88 1.67 1.52 1.41 1.17 0.97
0.00 0.00 0.02 0.05 0.04 0.04 0.07 0.13 0.16 0.17 0.17 0.20 0.25 0.34 0.50 0.56 0.83 1.09 1.33 1.71 2.05 2.15 2.16 2.22 2.41 2.78 3.20 3.50 3.75 4.07 4.25 4.36 4.25 4.02 3.84 3.66 3.50 3.35 3.22 3.08 2.77 2.46 2.21 2.02 1.79 1.57 1.43 1.22 0.99
0.00 0.00 0.00 0.02 0.03 0.05 0.07 0.20 0.36 0.32 0.31 0.37 0.42 0.39 0.50 0.68 0.96 1.23 1.48 1.73 2.01 2.15 2.20 2.42 2.88 3.47 3.96 4.32 4.69 5.05 5.18 5.06 4.81 4.47 4.14 3.88 3.59 3.25 3.00 2.88 2.76 2.46 2.08 1.75 1.48 1.25 1.07 0.93 0.81
0.00 0.00 0.00 0.01 0.01 0.04 0.06 0.17 0.47 0.49 0.50 0.58 0.66 0.51 0.49 0.54 0.75 1.05 1.30 1.50 1.78 1.94 2.16 2.51 3.03 3.64 4.28 5.01 5.56 5.84 5.71 5.41 5.06 4.49 3.99 3.56 3.20 2.88 2.60 2.41 2.23 1.93 1.53 1.18 0.93 0.75 0.66 0.60 0.55
0.00 0.00 0.00 0.00 0.01 0.03 0.04 0.15 0.52 0.77 0.82 0.74 0.60 0.54 0.48 0.48 0.54 0.67 0.83 1.06 1.29 1.64 2.00 2.38 2.94 3.62 4.15 4.70 5.15 5.22 5.10 4.92 4.53 3.94 3.38 3.04 2.76 2.45 2.07 1.71 1.37 1.12 0.92 0.76 0.64 0.53 0.45 0.41 0.38
0.00 0.00 0.03 0.05 0.05 0.06 0.07 0.21 0.57 0.84 0.96 0.75 0.55 0.46 0.38 0.40 0.45 0.51 0.61 0.84 1.12 1.37 1.70 2.12 2.52 3.04 3.45 3.77 4.08 4.13 4.10 3.94 3.74 3.38 2.98 2.60 2.16 1.81 1.51 1.19 0.95 0.74 0.60 0.50 0.42 0.36 0.32 0.29 0.27
0.00 0.01 0.05 0.09 0.08 0.12 0.19 0.39 0.63 0.68 0.70 0.53 0.42 0.36 0.33 0.36 0.42 0.51 0.63 0.78 1.02 1.26 1.49 1.69 1.95 2.26 2.39 2.43 2.57 2.71 2.70 2.65 2.53 2.34 2.16 1.92 1.61 1.28 1.02 0.81 0.65 0.54 0.46 0.38 0.32 0.28 0.26 0.24 0.22
0.01 0.01 0.02 0.03 0.04 0.14 0.37 0.58 0.74 0.63 0.51 0.41 0.35 0.31 0.34 0.39 0.45 0.52 0.59 0.68 0.81 0.96 1.07 1.14 1.24 1.40 1.45 1.50 1.51 1.57 1.62 1.60 1.50 1.34 1.19 1.07 0.93 0.75 0.63 0.51 0.43 0.37 0.34 0.29 0.26 0.24 0.22 0.19 0.17
0.01 0.02 0.04 0.05 0.10 0.21 0.41 0.66 0.85 0.92 0.71 0.49 0.36 0.32 0.34 0.39 0.44 0.48 0.53 0.58 0.64 0.69 0.76 0.80 0.83 0.90 0.97 1.03 1.03 1.03 1.03 0.99 0.89 0.79 0.72 0.62 0.55 0.50 0.45 0.39 0.33 0.29 0.24 0.18 0.15 0.15 0.14 0.13 0.14
0.03 0.04 0.07 0.09 0.09 0.22 0.47 0.88 1.07 1.27 1.15 0.79 0.56 0.43 0.40 0.41 0.44 0.49 0.52 0.47 0.46 0.48 0.53 0.59 0.63 0.65 0.67 0.68 0.70 0.69 0.65 0.61 0.58 0.55 0.50 0.44 0.36 0.31 0.28 0.24 0.22 0.19 0.16 0.15 0.13 0.13 0.13 0.14 0.14
0.04 0.06 0.11 0.22 0.21 0.20 0.46 1.16 1.48 1.59 1.43 1.07 0.80 0.67 0.63 0.55 0.53 0.56 0.54 0.46 0.43 0.46 0.47 0.49 0.50 0.52 0.55 0.49 0.45 0.44 0.40 0.36 0.34 0.32 0.30 0.27 0.25 0.21 0.17 0.16 0.15 0.14 0.14 0.13 0.12 0.11 0.11 0.11 0.10

GEFSSGP_prec_meanprecacc_096.txt.gz
Total_Precipitation_Accumulation
0.00 0.00 0.00 0.00 0.00 0.00 0.01 0.02 0.04 0.12 0.18 0.15 0.17 0.21 0.22 0.25 0.32 0.67 0.40 0.14 0.06 0.02 0.01 0.01 0.01 0.03 0.05 0.05 0.06 0.08 0.10 0.10 0.10 0.09 0.09 0.08 0.08 0.08 0.08 0.08 0.10 0.14 0.16 0.14 0.12 0.11 0.10 0.07 0.05
0.00 0.00 0.00 0.00 0.00 0.00 0.01 0.02 0.05 0.09 0.13 0.12 0.15 0.19 0.18 0.17 0.16 0.11 0.14 0.09 0.06 0.03 0.01 0.00 0.01 0.02 0.04 0.04 0.05 0.08 0.10 0.10 0.09 0.08 0.08 0.08 0.08 0.08 0.09 0.10 0.15 0.20 0.24 0.24 0.19 0.15 0.12 0.09 0.05
0.00 0.00 0.00 0.00 0.00 0.00 0.02 0.04 0.06 0.07 0.09 0.13 0.17 0.27 0.26 0.14 0.11 0.08 0.10 0.07 0.06 0.03 0.01 0.01 0.01 0.02 0.03 0.03 0.04 0.06 0.08 0.08 0.08 0.08 0.08 0.08 0.09 0.10 0.12 0.15 0.19 0.24 0.26 0.24 0.21 0.18 0.16 0.10 0.04
0.00 0.00 0.00 0.00 0.00 0.00 0.02 0.06 0.08 0.07 0.07 0.09 0.11 0.25 0.25 0.13 0.08 0.09 0.09 0.08 0.06 0.04 0.01 0.01 0.01 0.02 0.03 0.03 0.03 0.05 0.07 0.08 0.10 0.13 0.12 0.12 0.12 0.12 0.17 0.23 0.27 0.26 0.25 0.25 0.26 0.24 0.20 0.11 0.06
0.00 0.00 0.00 0.00 0.00 0.00 0.01 0.03 0.06 0.06 0.05 0.04 0.08 0.22 0.27 0.19 0.16 0.12 0.10 0.10 0.08 0.06 0.04 0.02 0.02 0.03 0.04 0.03 0.04 0.07 0.09 0.12 0.17 0.21 0.20 0.17 0.15 0.16 0.20 0.27 0.30 0.28 0.31 0.30 0.28 0.22 0.15 0.07 0.05
0.00 0.00 0.00 0.00 0.00 0.00 0.01 0.02 0.03 0.04 0.05 0.05 0.10 0.30 0.43 0.37 0.34 0.24 0.22 0.17 0.13 0.10 0.11 0.07 0.05 0.05 0.05 0.05 0.06 0.09 0.14 0.17 0.20 0.22 0.20 0.17 0.16 0.16 0.20 0.23 0.23 0.25 0.26 0.20 0.13 0.09 0.06 0.06 0.06
0.00 0.00 0.00 0.00 0.00 0.00 0.01 0.03 0.04 0.04 0.06 0.06 0.12 0.29 0.46 0.53 0.46 0.38 0.36 0.29 0.23 0.24 0.31 0.23 0.11 0.08 0.06 0.09 0.11 0.12 0.12 0.14 0.19 0.20 0.17 0.14 0.13 0.13 0.14 0.15 0.16 0.16 0.12 0.08 0.06 0.04 0.03 0.03 0.03
0.00 0.00 0.00 0.00 0.00 0.01 0.02 0.05 0.07 0.08 0.08 0.06 0.08 0.28 0.61 0.63 0.47 0.50 0.46 0.44 0.43 0.53 0.60 0.30 0.10 0.06 0.05 0.05 0.08 0.12 0.14 0.15 0.16 0.15 0.13 0.11 0.10 0.11 0.10 0.09 0.09 0.10 0.09 0.07 0.04 0.02 0.02 0.01 0.01
0.00 0.00 0.00 0.00 0.01 0.01 0.02 0.04 0.06 0.06 0.05 0.05 0.05 0.17 0.44 0.48 0.45 0.49 0.50 0.59 0.60 0.50 0.49 0.39 0.17 0.08 0.05 0.06 0.06 0.09 0.11 0.13 0.13 0.12 0.11 0.10 0.10 0.11 0.10 0.07 0.08 0.09 0.08 0.05 0.03 0.02 0.01 0.01 0.01
0.00 0.00 0.00 0.00 0.00 0.01 0.01 0.02 0.05 0.05 0.04 0.03 0.07 0.14 0.27 0.31 0.37 0.40 0.52 0.65 0.55 0.52 0.50 0.43 0.29 0.18 0.12 0.09 0.11 0.11 0.10 0.11 0.12 0.17 0.11 0.14 0.24 0.27 0.20 0.19 0.12 0.08 0.05 0.03 0.03 0.03 0.02 0.02 0.02
0.00 0.00 0.00 0.00 0.00 0.00 0.00 0.01 0.04 0.05 0.05 0.05 0.11 0.19 0.23 0.24 0.30 0.36 0.41 0.52 0.62 0.71 0.60 0.48 0.39 0.39 0.30 0.24 0.21 0.18 0.18 0.20 0.22 0.32 0.26 0.31 0.33 0.29 0.28 0.25 0.15 0.09 0.06 0.06 0.08 0.04 0.04 0.05 0.07
0.00 0.00 0.00 0.00 0.00 0.00 0.00 0.00 0.02 0.02 0.03 0.07 0.12 0.22 0.27 0.25 0.30 0.42 0.50 0.53 0.58 0.72 0.69 0.61 0.43 0.41 0.44 0.52 0.45 0.31 0.29 0.28 0.24 0.34 0.32 0.38 0.45 0.45 0.49 0.44 0.27 0.21 0.18 0.19 0.14 0.11 0.11 0.12 0.12
0.00 0.00 0.00 0.00 0.00 0.00 0.00 0.00 0.00 0.01 0.02 0.05 0.08 0.17 0.22 0.22 0.24 0.35 0.54 0.75 0.85 0.88 0.83 0.75 0.75 0.66 0.64 0.76 0.70 0.44 0.41 0.46 0.50 0.56 0.45 0.45 0.45 0.49 0.58 0.55 0.46 0.36 0.34 0.33 0.26 0.21 0.26 0.30 0.26
0.00 0.00 0.00 0.00 0.00 0.00 0.00 0.00 0.00 0.01 0.01 0.03 0.07 0.13 0.19 0.25 0.30 0.51 0.75 0.98 1.09 1.12 1.04 0.94 1.01 0.96 0.77 0.73 0.79 0.70 0.59 0.72 0.80 0.75 0.67 0.57 0.54 0.64 0.70 0.77 0.72 0.58 0.55 0.55 0.50 0.43 0.41 0.40 0.37
0.00 0.00 0.00 0.00 0.00 0.00 0.00 0.00 0.00 0.01 0.01 0.01 0.05 0.09 0.15 0.23 0.36 0.54 0.84 1.05 1.10 1.10 1.06 1.01 1.02 1.15 1.13 1.00 0.93 0.89 0.89 1.00 1.10 1.11 0.99 0.81 0.77 0.90 0.92 0.96 0.89 0.80 0.74 0.75 0.76 0.71 0.60 0.49 0.43
0.00 0.00 0.00 0.00 0.00 0.00 0.00 0.00 0.01 0.01 0.01 0.01 0.03 0.06 0.12 0.19 0.34 0.52 0.70 0.93 1.12 1.31 1.29 1.35 1.31 1.20 1.25 1.30 1.27 1.26 1.23 1.34 1.38 1.48 1.50 1.29 1.11 1.19 1.22 1.27 1.15 1.02 1.00 1.10 1.14 1.05 0.94 0.77 0.70
0.00 0.00 0.00 0.00 0.00 0.00 0.01 0.01 0.02 0.01 0.02 0.03 0.06 0.12 0.17 0.25 0.37 0.57 0.84 1.03 1.16 1.25 1.48 1.52 1.46 1.37 1.40 1.54 1.48 1.54 1.66 1.72 1.72 1.74 1.76 1.70 1.61 1.61 1.58 1.58 1.53 1.46 1.48 1.50 1.36 1.29 1.13 1.03 0.96
0.00 0.00 0.00 0.00 0.00 0.00 0.02 0.05 0.04 0.04 0.04 0.09 0.17 0.19 0.24 0.33 0.45 0.60 0.93 1.32 1.45 1.45 1.45 1.56 1.63 1.58 1.58 1.79 1.79 1.82 1.93 2.11 2.27 2.43 2.48 2.33 2.34 2.27 2.25 2.15 2.00 1.89 1.81 1.67 1.58 1.47 1.30 1.15 1.05
0.00 0.00 0.00 0.00 0.00 0.01 0.03 0.05 0.06 0.07 0.07 0.14 0.19 0.17 0.20 0.31 0.47 0.70 1.01 1.41 1.91 1.85 1.70 1.78 1.94 1.93 1.93 2.16 2.22 2.31 2.61 2.88 3.07 3.15 3.08 3.04 2.94 2.94 2.91 2.79 2.50 2.27 2.14 1.97 1.86 1.65 1.48 1.28 1.11
0.00 0.00 0.01 0.02 0.02 0.02 0.05 0.07 0.08 0.11 0.11 0.18 0.24 0.30 0.33 0.39 0.60 0.87 1.20 1.72 2.15 2.29 2.29 2.23 2.38 2.55 2.67 2.83 3.13 3.46 3.73 3.97 4.19 4.22 3.82 3.58 3.44 3.33 3.25 3.17 3.00 2.70 2.47 2.23 1.99 1.81 1.64 1.36 1.14
0.00 0.00 0.02 0.05 0.04 0.04 0.08 0.15 0.18 0.20 0.21 0.28 0.41 0.53 0.68 0.68 0.89 1.15 1.40 1.81 2.17 2.31 2.42 2.49 2.65 3.00 3.44 3.77 4.08 4.46 4.70 4.83 4.67 4.43 4.26 4.05 3.86 3.70 3.56 3.36 3.02 2.72 2.51 2.32 2.07 1.84 1.66 1.41 1.15
0.00 0.00 0.00 0.02 0.03 0.06 0.08 0.22 0.39 0.38 0.37 0.46 0.59 0.56 0.64 0.81 1.05 1.30 1.57 1.85 2.14 2.31 2.40 2.66 3.13 3.72 4.23 4.61 5.00 5.46 5.64 5.48 5.19 4.81 4.44 4.15 3.83 3.47 3.20 3.05 2.91 2.62 2.27 1.95 1.69 1.48 1.28 1.13 0.98
0.00 0.00 0.01 0.01 0.01 0.05 0.06 0.18 0.51 0.57 0.57 0.65 0.79 0.66 0.61 0.64 0.85 1.12 1.36 1.59 1.91 2.08 2.31 2.65 3.21 3.89 4.59 5.31 5.86 6.17 6.09 5.79 5.42 4.80 4.27 3.79 3.40 3.07 2.77 2.56 2.36 2.05 1.65 1.31 1.08 0.91 0.83 0.77 0.71
0.00 0.00 0.00 0.01 0.01 0.03 0.05 0.17 0.55 0.82 0.89 0.84 0.71 0.63 0.57 0.55 0.61 0.73 0.88 1.10 1.36 1.71 2.07 2.46 3.05 3.76 4.40 5.01 5.44 5.49 5.37 5.17 4.76 4.14 3.57 3.22 2.91 2.58 2.22 1.87 1.51 1.24 1.03 0.85 0.72 0.62 0.56 0.52 0.50
0.01 0.01 0.04 0.05 0.06 0.07 0.09 0.24 0.62 0.90 1.05 0.86 0.67 0.56 0.45 0.44 0.47 0.53 0.63 0.86 1.14 1.39 1.74 2.17 2.61 3.17 3.61 3.97 4.33 4.39 4.34 4.15 3.91 3.51 3.09 2.70 2.26 1.92 1.62 1.29 1.06 0.87 0.72 0.62 0.52 0.45 0.41 0.38 0.37
0.01 0.01 0.06 0.10 0.10 0.14 0.22 0.44 0.75 0.80 0.85 0.70 0.58 0.50 0.44 0.43 0.45 0.52 0.64 0.79 1.04 1.28 1.52 1.73 2.01 2.35 2.51 2.57 2.75 2.91 2.88 2.85 2.73 2.48 2.26 2.01 1.68 1.35 1.08 0.87 0.72 0.62 0.54 0.47 0.41 0.37 0.34 0.31 0.30
0.01 0.01 0.02 0.04 0.05 0.17 0.41 0.66 0.91 0.79 0.69 0.62 0.61 0.52 0.46 0.46 0.48 0.53 0.61 0.69 0.82 0.97 1.08 1.17 1.29 1.46 1.53 1.60 1.61 1.67 1.72 1.73 1.65 1.48 1.30 1.14 0.98 0.81 0.68 0.56 0.49 0.44 0.42 0.37 0.32 0.29 0.26 0.23 0.21
0.03 0.03 0.04 0.08 0.14 0.26 0.47 0.75 1.02 1.06 0.93 0.75 0.60 0.48 0.40 0.43 0.46 0.49 0.54 0.59 0.65 0.70 0.77 0.82 0.85 0.94 1.04 1.09 1.09 1.09 1.08 1.04 0.95 0.85 0.76 0.66 0.58 0.52 0.47 0.41 0.36 0.32 0.27 0.22 0.18 0.17 0.15 0.15 0.15
0.05 0.05 0.08 0.12 0.12 0.28 0.54 0.98 1.18 1.37 1.33 0.96 0.68 0.53 0.45 0.44 0.45 0.51 0.53 0.48 0.47 0.49 0.55 0.61 0.65 0.69 0.72 0.74 0.77 0.76 0.71 0.66 0.62 0.58 0.53 0.46 0.38 0.32 0.29 0.26 0.23 0.20 0.18 0.16 0.15 0.15 0.15 0.16 0.15
0.05 0.07 0.13 0.26 0.26 0.25 0.53 1.24 1.55 1.67 1.57 1.22 0.90 0.73 0.67 0.57 0.55 0.57 0.55 0.48 0.45 0.48 0.49 0.51 0.52 0.55 0.60 0.54 0.50 0.51 0.46 0.42 0.39 0.36 0.32 0.28 0.25 0.21 0.18 0.16 0.15 0.15 0.15 0.14 0.13 0.13 0.12 0.12 0.11

GEFSSGP_prec_meanprecacc_102.txt.gz
Total_Precipitation_Accumulation
0.00 0.00 0.00 0.00 0.00 0.00 0.01 0.02 0.04 0.12 0.18 0.15 0.18 0.21 0.23 0.28 0.34 0.67 0.40 0.14 0.06 0.02 0.01 0.01 0.01 0.03 0.05 0.05 0.06 0.08 0.10 0.10 0.10 0.09 0.09 0.08 0.08 0.08 0.08 0.08 0.11 0.14 0.16 0.15 0.13 0.12 0.11 0.08 0.05
0.00 0.00 0.00 0.00 0.00 0.00 0.01 0.02 0.05 0.09 0.13 0.13 0.15 0.19 0.19 0.18 0.16 0.11 0.14 0.09 0.06 0.03 0.01 0.00 0.01 0.03 0.04 0.04 0.05 0.08 0.10 0.10 0.09 0.08 0.08 0.08 0.08 0.08 0.09 0.11 0.15 0.20 0.24 0.25 0.20 0.16 0.13 0.10 0.05
0.00 0.00 0.00 0.00 0.00 0.00 0.02 0.04 0.06 0.07 0.09 0.14 0.18 0.28 0.26 0.14 0.11 0.08 0.10 0.07 0.06 0.03 0.01 0.01 0.01 0.02 0.03 0.03 0.04 0.06 0.08 0.08 0.08 0.08 0.08 0.08 0.09 0.10 0.12 0.15 0.20 0.24 0.26 0.24 0.21 0.19 0.17 0.11 0.05
0.00 0.00 0.00 0.00 0.00 0.00 0.02 0.06 0.08 0.07 0.07 0.10 0.12 0.27 0.25 0.13 0.08 0.09 0.09 0.08 0.06 0.04 0.01 0.01 0.01 0.02 0.03 0.03 0.03 0.05 0.07 0.08 0.10 0.13 0.12 0.12 0.12 0.12 0.17 0.24 0.28 0.26 0.26 0.25 0.26 0.25 0.20 0.12 0.06
0.00 0.00 0.00 0.00 0.00 0.00 0.01 0.03 0.06 0.06 0.05 0.04 0.08 0.23 0.28 0.19 0.17 0.12 0.10 0.10 0.09 0.07 0.04 0.02 0.02 0.03 0.04 0.03 0.04 0.07 0.09 0.12 0.17 0.21 0.20 0.17 0.15 0.16 0.20 0.28 0.30 0.28 0.32 0.31 0.28 0.22 0.15 0.08 0.06
0.00 0.00 0.00 0.00 0.00 0.00 0.01 0.02 0.03 0.04 0.05 0.05 0.10 0.30 0.43 0.37 0.34 0.24 0.23 0.18 0.14 0.10 0.11 0.08 0.06 0.05 0.06 0.06 0.07 0.10 0.14 0.17 0.21 0.22 0.20 0.18 0.16 0.16 0.21 0.23 0.23 0.26 0.27 0.21 0.14 0.10 0.07 0.06 0.07
0.00 0.00 0.00 0.00 0.00 0.00 0.01 0.03 0.04 0.04 0.06 0.06 0.12 0.29 0.47 0.54 0.47 0.39 0.37 0.30 0.23 0.24 0.32 0.25 0.12 0.08 0.07 0.11 0.13 0.13 0.12 0.14 0.19 0.20 0.17 0.14 0.13 0.13 0.14 0.15 0.16 0.16 0.12 0.09 0.07 0.05 0.04 0.04 0.03
0.00 0.00 0.00 0.00 0.00 0.01 0.02 0.05 0.07 0.08 0.08 0.06 0.08 0.28 0.61 0.64 0.48 0.51 0.48 0.47 0.46 0.56 0.61 0.31 0.12 0.08 0.07 0.07 0.10 0.14 0.15 0.16 0.17 0.16 0.13 0.11 0.11 0.11 0.11 0.10 0.10 0.11 0.10 0.08 0.05 0.03 0.03 0.02 0.02
0.00 0.00 0.00 0.00 0.01 0.01 0.02 0.04 0.06 0.06 0.05 0.05 0.06 0.17 0.44 0.49 0.47 0.51 0.53 0.64 0.67 0.59 0.57 0.43 0.22 0.13 0.10 0.09 0.08 0.11 0.12 0.14 0.14 0.13 0.12 0.11 0.11 0.12 0.11 0.08 0.08 0.10 0.10 0.06 0.04 0.03 0.02 0.02 0.02
0.00 0.00 0.00 0.00 0.00 0.01 0.01 0.02 0.05 0.05 0.04 0.04 0.07 0.14 0.27 0.32 0.38 0.43 0.55 0.69 0.60 0.58 0.57 0.51 0.40 0.28 0.20 0.13 0.14 0.14 0.12 0.13 0.14 0.19 0.15 0.18 0.27 0.29 0.22 0.20 0.13 0.10 0.07 0.05 0.05 0.04 0.03 0.03 0.03
0.00 0.00 0.00 0.00 0.00 0.00 0.00 0.01 0.04 0.05 0.05 0.05 0.11 0.19 0.24 0.26 0.32 0.40 0.46 0.57 0.67 0.77 0.66 0.54 0.48 0.54 0.44 0.34 0.27 0.24 0.22 0.24 0.26 0.35 0.29 0.34 0.36 0.31 0.29 0.26 0.16 0.11 0.08 0.07 0.09 0.06 0.05 0.05 0.08
0.00 0.00 0.00 0.00 0.00 0.00 0.00 0.00 0.02 0.03 0.03 0.07 0.13 0.23 0.28 0.27 0.33 0.46 0.54 0.57 0.62 0.78 0.77 0.69 0.54 0.56 0.59 0.65 0.57 0.42 0.39 0.37 0.32 0.40 0.37 0.42 0.51 0.50 0.52 0.47 0.30 0.24 0.21 0.20 0.16 0.12 0.12 0.12 0.13
0.00 0.00 0.00 0.00 0.00 0.00 0.00 0.00 0.00 0.01 0.03 0.05 0.08 0.17 0.23 0.24 0.26 0.37 0.56 0.78 0.89 0.95 0.94 0.86 0.88 0.81 0.76 0.88 0.83 0.58 0.55 0.60 0.64 0.69 0.56 0.55 0.54 0.57 0.64 0.59 0.51 0.42 0.41 0.37 0.30 0.23 0.28 0.31 0.27
0.00 0.00 0.00 0.00 0.00 0.00 0.00 0.00 0.00 0.01 0.01 0.03 0.07 0.14 0.20 0.26 0.32 0.53 0.78 1.01 1.12 1.19 1.11 1.04 1.11 1.09 0.92 0.90 0.97 0.87 0.76 0.87 0.96 0.91 0.83 0.71 0.67 0.75 0.80 0.85 0.80 0.67 0.63 0.63 0.58 0.50 0.46 0.43 0.40
0.00 0.00 0.00 0.00 0.00 0.00 0.00 0.00 0.01 0.01 0.01 0.02 0.06 0.10 0.16 0.25 0.38 0.56 0.86 1.08 1.13 1.14 1.11 1.09 1.12 1.25 1.24 1.15 1.11 1.08 1.10 1.20 1.28 1.26 1.14 0.95 0.90 1.02 1.03 1.10 1.03 0.93 0.87 0.87 0.87 0.81 0.70 0.56 0.49
0.00 0.00 0.00 0.00 0.00 0.00 0.00 0.01 0.01 0.01 0.01 0.01 0.04 0.07 0.13 0.21 0.36 0.54 0.72 0.95 1.16 1.35 1.35 1.46 1.45 1.34 1.41 1.48 1.46 1.45 1.43 1.56 1.62 1.71 1.70 1.46 1.28 1.34 1.37 1.44 1.34 1.22 1.19 1.25 1.27 1.15 1.04 0.89 0.83
0.00 0.00 0.00 0.00 0.00 0.00 0.01 0.02 0.02 0.02 0.02 0.03 0.07 0.13 0.18 0.26 0.38 0.59 0.86 1.05 1.21 1.30 1.56 1.65 1.62 1.57 1.61 1.75 1.73 1.82 1.90 1.96 1.96 1.99 2.03 1.94 1.81 1.79 1.77 1.80 1.79 1.72 1.73 1.71 1.54 1.47 1.32 1.22 1.16
0.00 0.00 0.00 0.00 0.00 0.00 0.02 0.06 0.05 0.04 0.04 0.10 0.18 0.20 0.25 0.34 0.46 0.62 0.94 1.35 1.49 1.50 1.52 1.68 1.80 1.81 1.85 2.07 2.09 2.11 2.20 2.35 2.51 2.68 2.74 2.59 2.57 2.48 2.48 2.41 2.32 2.23 2.16 2.01 1.90 1.77 1.56 1.40 1.28
0.00 0.00 0.00 0.01 0.00 0.01 0.04 0.06 0.07 0.08 0.08 0.15 0.20 0.18 0.20 0.32 0.48 0.71 1.04 1.45 1.96 1.92 1.80 1.93 2.14 2.17 2.22 2.46 2.54 2.61 2.91 3.15 3.32 3.41 3.35 3.32 3.22 3.24 3.23 3.08 2.82 2.66 2.58 2.41 2.27 2.04 1.82 1.57 1.37
0.00 0.00 0.01 0.03 0.02 0.02 0.06 0.08 0.10 0.12 0.13 0.19 0.25 0.31 0.34 0.40 0.62 0.90 1.23 1.76 2.21 2.37 2.39 2.39 2.59 2.80 2.95 3.13 3.45 3.78 4.07 4.29 4.45 4.49 4.07 3.86 3.75 3.68 3.63 3.57 3.41 3.13 2.93 2.69 2.38 2.20 2.02 1.67 1.39
0.00 0.00 0.02 0.05 0.04 0.04 0.08 0.16 0.19 0.22 0.22 0.29 0.42 0.55 0.71 0.70 0.92 1.17 1.43 1.85 2.21 2.37 2.50 2.60 2.82 3.22 3.66 4.01 4.37 4.77 4.99 5.09 4.89 4.64 4.51 4.36 4.23 4.12 3.98 3.79 3.48 3.16 2.91 2.76 2.50 2.22 2.04 1.76 1.45
0.00 0.00 0.00 0.02 0.04 0.06 0.09 0.22 0.40 0.39 0.39 0.48 0.61 0.59 0.67 0.83 1.08 1.33 1.61 1.90 2.18 2.35 2.45 2.73 3.23 3.86 4.40 4.82 5.25 5.72 5.87 5.71 5.40 5.00 4.66 4.43 4.16 3.83 3.57 3.41 3.27 2.99 2.58 2.26 2.05 1.84 1.62 1.46 1.31
0.01 0.00 0.01 0.01 0.01 0.05 0.07 0.18 0.52 0.58 0.58 0.67 0.80 0.68 0.64 0.67 0.88 1.18 1.43 1.66 1.96 2.12 2.35 2.71 3.28 3.99 4.71 5.47 6.06 6.41 6.33 6.01 5.62 4.99 4.44 3.97 3.61 3.31 3.03 2.83 2.61 2.33 1.92 1.54 1.34 1.21 1.14 1.07 1.00
0.00 0.00 0.01 0.01 0.01 0.03 0.05 0.17 0.55 0.83 0.89 0.84 0.72 0.65 0.59 0.59 0.66 0.79 0.94 1.15 1.39 1.74 2.10 2.51 3.10 3.82 4.50 5.15 5.64 5.72 5.61 5.41 4.97 4.32 3.73 3.38 3.08 2.77 2.42 2.08 1.72 1.44 1.24 1.04 0.92 0.83 0.79 0.78 0.76
0.01 0.01 0.04 0.05 0.06 0.07 0.09 0.24 0.62 0.90 1.05 0.87 0.68 0.58 0.48 0.49 0.52 0.57 0.66 0.89 1.17 1.42 1.77 2.20 2.65 3.22 3.68 4.05 4.45 4.55 4.51 4.35 4.09 3.66 3.24 2.86 2.40 2.07 1.79 1.47 1.26 1.06 0.92 0.82 0.71 0.62 0.57 0.55 0.57
0.01 0.01 0.06 0.10 0.10 0.14 0.22 0.44 0.75 0.80 0.85 0.71 0.59 0.52 0.47 0.47 0.50 0.56 0.66 0.81 1.06 1.30 1.54 1.75 2.03 2.38 2.55 2.61 2.81 2.99 2.98 2.99 2.90 2.64 2.41 2.15 1.81 1.49 1.23 1.00 0.84 0.73 0.66 0.62 0.59 0.53 0.50 0.46 0.45
0.02 0.02 0.03 0.05 0.05 0.17 0.41 0.67 0.91 0.79 0.69 0.63 0.63 0.54 0.49 0.49 0.51 0.55 0.62 0.69 0.83 0.99 1.10 1.19 1.32 1.49 1.56 1.64 1.66 1.72 1.78 1.80 1.74 1.63 1.45 1.27 1.11 0.92 0.77 0.65 0.57 0.52 0.48 0.44 0.40 0.39 0.38 0.37 0.35
0.03 0.04 0.05 0.08 0.14 0.26 0.47 0.75 1.02 1.06 0.93 0.76 0.63 0.50 0.43 0.44 0.47 0.50 0.55 0.60 0.65 0.71 0.78 0.83 0.87 0.97 1.07 1.13 1.14 1.14 1.13 1.09 1.00 0.93 0.87 0.76 0.66 0.59 0.53 0.45 0.39 0.35 0.31 0.26 0.22 0.22 0.22 0.23 0.24
0.05 0.06 0.09 0.12 0.13 0.28 0.54 0.98 1.18 1.37 1.33 0.96 0.69 0.54 0.46 0.45 0.46 0.51 0.53 0.48 0.47 0.50 0.56 0.62 0.66 0.70 0.75 0.78 0.81 0.81 0.77 0.72 0.67 0.63 0.59 0.52 0.42 0.35 0.31 0.27 0.24 0.22 0.19 0.18 0.17 0.17 0.18 0.19 0.18
0.06 0.08 0.13 0.26 0.27 0.26 0.53 1.24 1.55 1.68 1.58 1.23 0.91 0.74 0.68 0.58 0.55 0.58 0.55 0.48 0.45 0.49 0.50 0.52 0.54 0.57 0.62 0.58 0.56 0.58 0.54 0.48 0.45 0.42 0.37 0.33 0.30 0.24 0.19 0.17 0.16 0.16 0.15 0.15 0.14 0.14 0.14 0.15 0.14

GEFSSGP_prec_meanprecacc_108.txt.gz
Total_Precipitation_Accumulation
0.00 0.00 0.00 0.00 0.00 0.00 0.01 0.02 0.04 0.12 0.18 0.15 0.18 0.22 0.24 0.29 0.34 0.68 0.40 0.14 0.06 0.02 0.01 0.01 0.01 0.03 0.05 0.05 0.06 0.09 0.10 0.10 0.11 0.10 0.09 0.09 0.08 0.08 0.08 0.08 0.11 0.14 0.17 0.15 0.14 0.13 0.13 0.10 0.07
0.00 0.00 0.00 0.00 0.00 0.00 0.01 0.02 0.05 0.10 0.14 0.13 0.16 0.20 0.19 0.19 0.16 0.11 0.14 0.09 0.06 0.03 0.01 0.00 0.01 0.03 0.04 0.04 0.05 0.09 0.11 0.10 0.09 0.09 0.08 0.08 0.08 0.09 0.09 0.11 0.15 0.21 0.25 0.25 0.20 0.16 0.14 0.11 0.06
0.00 0.00 0.00 0.00 0.00 0.00 0.02 0.04 0.06 0.08 0.10 0.14 0.18 0.29 0.27 0.15 0.12 0.08 0.10 0.07 0.06 0.03 0.01 0.01 0.01 0.02 0.03 0.03 0.04 0.07 0.09 0.08 0.08 0.09 0.08 0.08 0.09 0.10 0.12 0.16 0.20 0.25 0.27 0.25 0.22 0.20 0.18 0.11 0.06
0.00 0.00 0.00 0.00 0.00 0.00 0.02 0.06 0.08 0.07 0.07 0.10 0.13 0.28 0.26 0.14 0.10 0.09 0.09 0.08 0.06 0.04 0.01 0.01 0.01 0.02 0.03 0.03 0.03 0.05 0.07 0.08 0.10 0.13 0.13 0.12 0.13 0.13 0.17 0.24 0.28 0.27 0.26 0.26 0.27 0.26 0.21 0.12 0.06
0.00 0.00 0.00 0.00 0.00 0.00 0.01 0.03 0.06 0.06 0.05 0.05 0.08 0.24 0.29 0.20 0.17 0.13 0.10 0.11 0.09 0.07 0.04 0.02 0.02 0.03 0.04 0.03 0.05 0.07 0.09 0.13 0.17 0.22 0.20 0.17 0.15 0.16 0.20 0.28 0.30 0.29 0.32 0.32 0.29 0.23 0.16 0.08 0.06
0.00 0.00 0.00 0.00 0.00 0.00 0.01 0.02 0.03 0.04 0.05 0.05 0.11 0.30 0.44 0.38 0.36 0.26 0.24 0.19 0.14 0.10 0.11 0.08 0.06 0.06 0.06 0.06 0.07 0.10 0.14 0.17 0.21 0.22 0.20 0.18 0.16 0.16 0.21 0.24 0.24 0.26 0.28 0.22 0.14 0.11 0.08 0.07 0.07
0.00 0.00 0.00 0.00 0.00 0.00 0.01 0.03 0.04 0.04 0.06 0.06 0.12 0.29 0.47 0.55 0.49 0.43 0.40 0.31 0.24 0.25 0.32 0.25 0.13 0.09 0.07 0.11 0.13 0.13 0.12 0.14 0.19 0.21 0.18 0.15 0.14 0.13 0.15 0.16 0.17 0.17 0.13 0.10 0.08 0.06 0.05 0.05 0.04
0.00 0.00 0.00 0.00 0.00 0.01 0.02 0.05 0.07 0.08 0.08 0.06 0.08 0.28 0.62 0.65 0.49 0.52 0.49 0.48 0.47 0.56 0.62 0.32 0.12 0.09 0.08 0.08 0.11 0.15 0.15 0.16 0.17 0.16 0.14 0.12 0.11 0.11 0.12 0.11 0.11 0.12 0.12 0.10 0.07 0.05 0.04 0.03 0.03
0.00 0.00 0.00 0.00 0.01 0.01 0.02 0.04 0.06 0.06 0.05 0.05 0.06 0.17 0.45 0.49 0.48 0.52 0.54 0.65 0.68 0.59 0.57 0.44 0.23 0.15 0.12 0.11 0.11 0.12 0.14 0.15 0.15 0.14 0.13 0.12 0.12 0.13 0.12 0.08 0.10 0.11 0.11 0.08 0.07 0.05 0.04 0.03 0.03
0.00 0.00 0.00 0.00 0.00 0.01 0.01 0.02 0.05 0.05 0.04 0.04 0.07 0.15 0.28 0.33 0.40 0.45 0.56 0.70 0.61 0.59 0.57 0.51 0.41 0.30 0.22 0.18 0.21 0.21 0.17 0.16 0.16 0.22 0.18 0.20 0.30 0.32 0.24 0.22 0.15 0.12 0.09 0.08 0.08 0.07 0.05 0.04 0.04
0.00 0.00 0.00 0.00 0.00 0.00 0.00 0.01 0.04 0.05 0.06 0.05 0.12 0.19 0.24 0.26 0.33 0.41 0.47 0.58 0.68 0.78 0.67 0.55 0.49 0.55 0.47 0.39 0.36 0.32 0.30 0.31 0.31 0.40 0.34 0.38 0.42 0.36 0.33 0.31 0.19 0.14 0.11 0.10 0.13 0.08 0.07 0.07 0.09
0.00 0.00 0.00 0.00 0.00 0.00 0.00 0.00 0.02 0.03 0.03 0.07 0.13 0.23 0.28 0.28 0.34 0.46 0.54 0.58 0.63 0.78 0.78 0.71 0.56 0.58 0.62 0.70 0.63 0.48 0.46 0.44 0.40 0.47 0.43 0.48 0.57 0.55 0.58 0.53 0.35 0.30 0.26 0.26 0.21 0.17 0.15 0.15 0.15
0.00 0.00 0.00 0.00 0.00 0.00 0.00 0.00 0.00 0.01 0.03 0.05 0.08 0.17 0.23 0.24 0.27 0.38 0.57 0.79 0.90 0.96 0.95 0.88 0.89 0.83 0.78 0.92 0.89 0.64 0.63 0.69 0.77 0.83 0.66 0.65 0.62 0.64 0.72 0.67 0.59 0.50 0.49 0.45 0.36 0.29 0.34 0.36 0.30
0.00 0.00 0.00 0.00 0.00 0.00 0.00 0.00 0.00 0.01 0.01 0.03 0.08 0.14 0.21 0.27 0.33 0.54 0.80 1.02 1.14 1.20 1.13 1.06 1.14 1.12 0.96 0.96 1.04 0.95 0.84 0.96 1.07 1.04 0.98 0.87 0.82 0.86 0.90 0.95 0.90 0.77 0.74 0.73 0.65 0.55 0.53 0.49 0.44
0.00 0.00 0.00 0.00 0.00 0.00 0.00 0.00 0.01 0.01 0.01 0.02 0.06 0.10 0.16 0.25 0.39 0.57 0.88 1.10 1.16 1.16 1.13 1.12 1.16 1.29 1.30 1.23 1.20 1.19 1.21 1.33 1.42 1.40 1.26 1.11 1.07 1.20 1.17 1.20 1.11 1.02 0.97 0.98 0.96 0.89 0.79 0.63 0.54
0.00 0.00 0.00 0.00 0.00 0.00 0.00 0.01 0.01 0.01 0.01 0.02 0.04 0.07 0.13 0.21 0.37 0.54 0.73 0.97 1.18 1.38 1.38 1.50 1.48 1.39 1.46 1.55 1.57 1.58 1.58 1.73 1.77 1.84 1.83 1.59 1.40 1.47 1.51 1.56 1.44 1.32 1.29 1.36 1.38 1.25 1.12 0.96 0.90
0.00 0.00 0.00 0.00 0.00 0.00 0.01 0.02 0.03 0.02 0.02 0.04 0.07 0.13 0.18 0.26 0.39 0.60 0.87 1.07 1.24 1.33 1.60 1.68 1.65 1.61 1.66 1.82 1.83 1.93 2.04 2.13 2.14 2.16 2.20 2.12 1.97 1.93 1.90 1.91 1.90 1.83 1.85 1.82 1.65 1.58 1.42 1.32 1.25
0.00 0.00 0.00 0.00 0.00 0.00 0.02 0.06 0.06 0.05 0.05 0.10 0.19 0.20 0.25 0.35 0.47 0.63 0.95 1.37 1.53 1.53 1.55 1.71 1.83 1.85 1.90 2.14 2.18 2.21 2.34 2.54 2.69 2.88 2.97 2.81 2.75 2.64 2.63 2.56 2.45 2.37 2.32 2.16 2.05 1.92 1.72 1.55 1.41
0.00 0.00 0.00 0.01 0.01 0.01 0.04 0.07 0.08 0.09 0.08 0.15 0.20 0.19 0.21 0.32 0.48 0.72 1.05 1.46 1.99 1.95 1.83 1.95 2.17 2.21 2.26 2.50 2.59 2.68 3.01 3.30 3.49 3.59 3.55 3.52 3.39 3.38 3.37 3.25 2.97 2.79 2.74 2.60 2.48 2.25 2.02 1.76 1.55
0.00 0.00 0.01 0.03 0.02 0.02 0.06 0.09 0.11 0.13 0.13 0.19 0.25 0.32 0.35 0.41 0.62 0.91 1.24 1.78 2.23 2.40 2.42 2.42 2.62 2.85 3.00 3.17 3.51 3.86 4.16 4.42 4.60 4.64 4.20 3.99 3.87 3.79 3.75 3.70 3.59 3.30 3.09 2.87 2.59 2.43 2.25 1.89 1.59
0.00 0.00 0.02 0.05 0.04 0.05 0.09 0.17 0.20 0.22 0.23 0.30 0.43 0.56 0.71 0.71 0.93 1.18 1.44 1.87 2.24 2.41 2.54 2.64 2.86 3.27 3.72 4.06 4.43 4.84 5.07 5.16 4.97 4.72 4.60 4.46 4.33 4.22 4.07 3.87 3.59 3.33 3.09 2.93 2.69 2.43 2.27 1.99 1.67
0.01 0.00 0.00 0.02 0.04 0.06 0.09 0.23 0.41 0.40 0.39 0.48 0.61 0.59 0.67 0.84 1.09 1.34 1.62 1.91 2.22 2.41 2.53 2.81 3.30 3.92 4.45 4.86 5.30 5.79 5.95 5.79 5.49 5.08 4.72 4.49 4.24 3.93 3.67 3.51 3.37 3.14 2.78 2.47 2.27 2.06 1.83 1.68 1.55
0.01 0.00 0.01 0.01 0.01 0.05 0.07 0.18 0.52 0.58 0.59 0.67 0.80 0.68 0.64 0.67 0.89 1.18 1.44 1.67 1.98 2.15 2.39 2.75 3.34 4.04 4.75 5.50 6.11 6.48 6.41 6.11 5.72 5.08 4.51 4.03 3.67 3.38 3.12 2.96 2.78 2.52 2.14 1.77 1.60 1.52 1.45 1.35 1.28
0.00 0.00 0.01 0.01 0.01 0.03 0.05 0.17 0.56 0.83 0.90 0.85 0.72 0.65 0.60 0.59 0.66 0.80 0.94 1.15 1.40 1.76 2.13 2.54 3.13 3.85 4.53 5.18 5.67 5.76 5.69 5.53 5.08 4.42 3.81 3.44 3.12 2.82 2.48 2.16 1.85 1.62 1.45 1.24 1.16 1.13 1.12 1.14 1.11
0.01 0.01 0.04 0.05 0.06 0.08 0.09 0.24 0.63 0.90 1.05 0.88 0.69 0.58 0.48 0.49 0.52 0.58 0.66 0.89 1.17 1.44 1.79 2.22 2.66 3.23 3.69 4.06 4.46 4.57 4.55 4.41 4.16 3.74 3.33 2.93 2.45 2.11 1.84 1.55 1.34 1.18 1.08 1.00 0.91 0.86 0.86 0.86 0.88
0.01 0.01 0.06 0.11 0.11 0.14 0.22 0.45 0.76 0.80 0.85 0.71 0.60 0.53 0.47 0.47 0.51 0.57 0.67 0.81 1.06 1.31 1.55 1.76 2.04 2.39 2.56 2.62 2.82 3.00 3.01 3.02 2.96 2.71 2.48 2.21 1.86 1.53 1.28 1.07 0.92 0.82 0.77 0.74 0.71 0.68 0.68 0.68 0.68
0.02 0.02 0.03 0.05 0.06 0.17 0.42 0.67 0.91 0.80 0.70 0.63 0.63 0.55 0.50 0.50 0.51 0.56 0.62 0.70 0.83 0.99 1.10 1.19 1.33 1.50 1.57 1.65 1.68 1.74 1.80 1.83 1.78 1.68 1.51 1.34 1.17 0.98 0.82 0.70 0.63 0.59 0.56 0.51 0.46 0.48 0.51 0.55 0.56
0.04 0.04 0.05 0.09 0.15 0.27 0.48 0.76 1.02 1.07 0.94 0.76 0.63 0.51 0.43 0.45 0.48 0.50 0.55 0.60 0.66 0.72 0.79 0.84 0.88 0.98 1.08 1.15 1.15 1.15 1.15 1.11 1.03 0.97 0.93 0.83 0.72 0.65 0.59 0.50 0.44 0.40 0.37 0.33 0.29 0.28 0.29 0.32 0.38
0.05 0.06 0.09 0.13 0.13 0.29 0.55 0.98 1.18 1.37 1.33 0.96 0.69 0.55 0.47 0.46 0.46 0.51 0.54 0.48 0.48 0.51 0.56 0.63 0.67 0.72 0.76 0.80 0.82 0.82 0.79 0.74 0.70 0.66 0.64 0.59 0.49 0.41 0.37 0.32 0.29 0.27 0.24 0.23 0.23 0.24 0.24 0.26 0.27
0.06 0.08 0.14 0.28 0.28 0.27 0.54 1.25 1.55 1.68 1.58 1.23 0.91 0.75 0.69 0.59 0.56 0.59 0.56 0.48 0.46 0.49 0.51 0.53 0.55 0.58 0.63 0.59 0.58 0.60 0.55 0.50 0.48 0.45 0.40 0.37 0.34 0.29 0.24 0.20 0.20 0.20 0.19 0.18 0.18 0.19 0.19 0.20 0.20

GEFSSGP_prec_meanprecacc_114.txt.gz
Total_Precipitation_Accumulation
0.00 0.00 0.00 0.00 0.00 0.00 0.01 0.02 0.04 0.12 0.18 0.16 0.19 0.24 0.26 0.31 0.37 0.75 0.44 0.15 0.07 0.02 0.01 0.01 0.01 0.04 0.05 0.05 0.06 0.09 0.10 0.10 0.11 0.10 0.09 0.09 0.08 0.08 0.08 0.08 0.11 0.14 0.17 0.16 0.15 0.14 0.14 0.11 0.08
0.00 0.00 0.00 0.00 0.00 0.00 0.01 0.02 0.05 0.10 0.14 0.13 0.16 0.22 0.21 0.21 0.18 0.13 0.16 0.10 0.07 0.03 0.01 0.00 0.01 0.03 0.04 0.05 0.05 0.09 0.11 0.10 0.09 0.09 0.08 0.08 0.08 0.09 0.09 0.11 0.15 0.21 0.26 0.26 0.21 0.17 0.15 0.13 0.07
0.00 0.00 0.00 0.00 0.00 0.00 0.02 0.04 0.06 0.08 0.10 0.14 0.18 0.29 0.28 0.17 0.13 0.09 0.12 0.08 0.07 0.03 0.01 0.01 0.01 0.02 0.03 0.03 0.04 0.07 0.09 0.09 0.08 0.09 0.09 0.09 0.09 0.10 0.13 0.16 0.20 0.25 0.28 0.27 0.23 0.21 0.19 0.12 0.07
0.00 0.00 0.00 0.00 0.00 0.00 0.02 0.06 0.08 0.07 0.07 0.10 0.13 0.28 0.27 0.16 0.12 0.11 0.11 0.09 0.07 0.04 0.01 0.01 0.02 0.02 0.03 0.03 0.04 0.06 0.08 0.09 0.11 0.13 0.13 0.13 0.13 0.13 0.17 0.24 0.28 0.28 0.27 0.27 0.28 0.27 0.22 0.13 0.07
0.00 0.00 0.00 0.00 0.00 0.00 0.01 0.03 0.06 0.06 0.05 0.05 0.08 0.25 0.36 0.26 0.20 0.14 0.11 0.12 0.10 0.07 0.04 0.02 0.02 0.03 0.04 0.04 0.05 0.07 0.10 0.14 0.18 0.22 0.21 0.17 0.16 0.17 0.21 0.28 0.31 0.30 0.33 0.33 0.30 0.24 0.17 0.09 0.07
0.00 0.00 0.00 0.00 0.00 0.00 0.01 0.02 0.03 0.04 0.05 0.06 0.12 0.34 0.60 0.54 0.43 0.27 0.24 0.20 0.17 0.10 0.12 0.08 0.06 0.06 0.06 0.06 0.07 0.10 0.15 0.18 0.22 0.23 0.21 0.18 0.17 0.17 0.22 0.25 0.25 0.28 0.29 0.23 0.15 0.12 0.08 0.08 0.08
0.00 0.00 0.00 0.00 0.00 0.00 0.01 0.03 0.04 0.04 0.06 0.07 0.15 0.33 0.57 0.70 0.59 0.45 0.44 0.35 0.29 0.25 0.32 0.25 0.13 0.09 0.07 0.11 0.13 0.14 0.13 0.15 0.20 0.22 0.19 0.16 0.15 0.15 0.16 0.16 0.18 0.19 0.15 0.11 0.09 0.06 0.06 0.05 0.05
0.00 0.00 0.00 0.00 0.01 0.01 0.02 0.05 0.07 0.08 0.10 0.11 0.19 0.41 0.74 0.78 0.58 0.54 0.51 0.50 0.52 0.57 0.62 0.32 0.13 0.09 0.08 0.08 0.11 0.15 0.15 0.16 0.18 0.17 0.15 0.13 0.11 0.12 0.12 0.11 0.12 0.13 0.13 0.11 0.08 0.05 0.04 0.03 0.03
0.00 0.00 0.00 0.00 0.01 0.01 0.02 0.04 0.06 0.06 0.07 0.16 0.21 0.31 0.57 0.60 0.54 0.54 0.56 0.70 0.74 0.63 0.58 0.44 0.24 0.15 0.14 0.13 0.12 0.13 0.14 0.16 0.15 0.15 0.14 0.13 0.13 0.14 0.13 0.09 0.11 0.12 0.12 0.09 0.07 0.06 0.04 0.03 0.03
0.00 0.00 0.00 0.00 0.00 0.01 0.01 0.02 0.05 0.06 0.06 0.09 0.13 0.20 0.40 0.40 0.46 0.49 0.60 0.78 0.66 0.62 0.60 0.53 0.43 0.31 0.23 0.20 0.24 0.23 0.19 0.19 0.18 0.23 0.19 0.22 0.34 0.38 0.28 0.28 0.21 0.15 0.11 0.09 0.10 0.08 0.06 0.05 0.05
0.00 0.00 0.00 0.00 0.00 0.00 0.00 0.01 0.04 0.06 0.10 0.14 0.16 0.23 0.31 0.35 0.43 0.49 0.54 0.68 0.77 0.84 0.71 0.61 0.58 0.62 0.51 0.42 0.39 0.37 0.35 0.38 0.36 0.47 0.41 0.46 0.54 0.48 0.44 0.48 0.32 0.21 0.15 0.14 0.18 0.11 0.08 0.08 0.12
0.00 0.00 0.00 0.00 0.00 0.00 0.00 0.00 0.02 0.05 0.16 0.18 0.20 0.30 0.34 0.33 0.40 0.53 0.67 0.82 0.90 0.95 0.87 0.77 0.65 0.68 0.70 0.80 0.75 0.57 0.53 0.54 0.48 0.58 0.56 0.65 0.74 0.71 0.73 0.72 0.54 0.47 0.40 0.38 0.33 0.28 0.22 0.20 0.18
0.00 0.00 0.00 0.00 0.00 0.00 0.00 0.00 0.01 0.04 0.06 0.11 0.15 0.26 0.32 0.29 0.33 0.50 0.82 1.20 1.31 1.26 1.10 0.94 0.93 0.87 0.82 0.98 0.98 0.71 0.69 0.77 0.87 0.96 0.79 0.80 0.79 0.82 0.90 0.86 0.79 0.72 0.72 0.67 0.57 0.47 0.50 0.49 0.40
0.00 0.00 0.00 0.00 0.00 0.00 0.00 0.00 0.01 0.02 0.02 0.07 0.11 0.18 0.25 0.32 0.42 0.68 1.02 1.41 1.62 1.55 1.32 1.14 1.18 1.16 1.01 1.01 1.11 1.06 0.93 1.05 1.16 1.16 1.10 1.02 1.00 1.09 1.15 1.18 1.13 0.99 0.99 0.98 0.87 0.76 0.75 0.68 0.61
0.00 0.00 0.00 0.00 0.00 0.00 0.00 0.00 0.01 0.01 0.01 0.03 0.07 0.13 0.19 0.33 0.49 0.73 1.10 1.31 1.47 1.46 1.31 1.25 1.23 1.35 1.36 1.30 1.29 1.30 1.31 1.41 1.53 1.54 1.41 1.27 1.28 1.48 1.48 1.50 1.41 1.31 1.31 1.31 1.21 1.11 1.02 0.85 0.74
0.00 0.00 0.00 0.00 0.00 0.00 0.00 0.01 0.03 0.01 0.01 0.03 0.07 0.12 0.17 0.27 0.46 0.67 0.92 1.13 1.31 1.55 1.53 1.57 1.53 1.43 1.51 1.62 1.65 1.67 1.66 1.84 1.90 1.99 1.99 1.78 1.64 1.75 1.82 1.88 1.79 1.66 1.57 1.66 1.66 1.51 1.36 1.18 1.10
0.00 0.00 0.00 0.00 0.00 0.00 0.01 0.03 0.07 0.04 0.03 0.05 0.13 0.19 0.21 0.33 0.50 0.71 0.99 1.17 1.30 1.41 1.67 1.74 1.69 1.65 1.72 1.88 1.89 2.02 2.14 2.23 2.23 2.26 2.32 2.27 2.20 2.26 2.24 2.23 2.23 2.17 2.17 2.12 1.90 1.84 1.70 1.59 1.48
0.00 0.00 0.00 0.01 0.00 0.00 0.02 0.07 0.09 0.09 0.06 0.11 0.21 0.23 0.30 0.40 0.52 0.69 1.00 1.40 1.56 1.56 1.59 1.76 1.87 1.89 1.94 2.18 2.23 2.27 2.40 2.59 2.76 2.94 3.05 2.90 2.87 2.81 2.89 2.84 2.73 2.66 2.59 2.42 2.32 2.20 2.01 1.83 1.67
0.00 0.00 0.00 0.01 0.01 0.01 0.04 0.07 0.10 0.11 0.09 0.16 0.22 0.21 0.22 0.33 0.49 0.73 1.06 1.48 2.01 1.97 1.85 1.98 2.21 2.24 2.29 2.55 2.65 2.74 3.06 3.34 3.54 3.65 3.62 3.60 3.48 3.49 3.47 3.37 3.11 2.96 2.93 2.80 2.69 2.49 2.29 2.04 1.82
0.00 0.00 0.01 0.03 0.02 0.02 0.06 0.10 0.12 0.14 0.14 0.20 0.29 0.34 0.36 0.41 0.63 0.91 1.25 1.78 2.24 2.41 2.44 2.45 2.66 2.89 3.04 3.22 3.56 3.91 4.21 4.45 4.64 4.69 4.27 4.06 3.95 3.88 3.84 3.82 3.72 3.46 3.27 3.06 2.80 2.66 2.48 2.12 1.85
0.00 0.00 0.02 0.05 0.04 0.05 0.09 0.19 0.23 0.23 0.26 0.32 0.44 0.57 0.71 0.71 0.93 1.19 1.45 1.87 2.25 2.42 2.55 2.65 2.88 3.30 3.75 4.09 4.48 4.89 5.11 5.21 5.02 4.76 4.64 4.50 4.38 4.26 4.12 3.96 3.69 3.47 3.30 3.16 2.94 2.67 2.49 2.20 1.93
0.01 0.01 0.01 0.02 0.04 0.07 0.10 0.25 0.45 0.43 0.44 0.51 0.62 0.60 0.67 0.84 1.09 1.34 1.62 1.91 2.22 2.42 2.53 2.81 3.31 3.94 4.48 4.89 5.35 5.84 5.99 5.83 5.53 5.12 4.76 4.53 4.27 3.96 3.71 3.56 3.43 3.24 2.93 2.68 2.54 2.35 2.08 1.89 1.74
0.01 0.01 0.01 0.01 0.01 0.05 0.08 0.21 0.60 0.67 0.66 0.71 0.82 0.70 0.65 0.68 0.89 1.18 1.44 1.67 1.98 2.15 2.39 2.76 3.35 4.05 4.77 5.53 6.14 6.52 6.46 6.16 5.77 5.14 4.56 4.07 3.71 3.41 3.16 3.01 2.83 2.57 2.22 1.89 1.77 1.78 1.76 1.64 1.51
0.00 0.00 0.01 0.01 0.01 0.04 0.06 0.19 0.62 0.94 1.02 0.98 0.78 0.68 0.61 0.59 0.66 0.80 0.94 1.15 1.40 1.76 2.13 2.55 3.14 3.86 4.54 5.20 5.70 5.80 5.72 5.57 5.12 4.46 3.86 3.49 3.17 2.86 2.51 2.20 1.91 1.69 1.51 1.31 1.26 1.28 1.33 1.40 1.39
0.01 0.02 0.07 0.10 0.13 0.11 0.10 0.26 0.68 1.00 1.15 1.00 0.76 0.62 0.50 0.49 0.53 0.58 0.67 0.89 1.17 1.45 1.79 2.23 2.67 3.24 3.70 4.07 4.47 4.58 4.58 4.45 4.20 3.79 3.39 2.99 2.51 2.17 1.88 1.58 1.39 1.25 1.16 1.10 1.03 0.99 1.01 1.09 1.16
0.01 0.02 0.10 0.19 0.17 0.21 0.27 0.51 0.87 0.91 0.91 0.76 0.64 0.57 0.49 0.48 0.51 0.57 0.67 0.81 1.06 1.31 1.55 1.77 2.05 2.40 2.56 2.63 2.83 3.01 3.02 3.05 2.98 2.74 2.51 2.25 1.91 1.59 1.33 1.11 0.95 0.85 0.82 0.81 0.81 0.82 0.84 0.87 0.92
0.02 0.02 0.04 0.07 0.08 0.22 0.48 0.74 1.03 0.86 0.73 0.66 0.65 0.57 0.51 0.51 0.51 0.56 0.62 0.70 0.83 0.99 1.11 1.20 1.33 1.50 1.58 1.66 1.68 1.75 1.82 1.84 1.80 1.70 1.53 1.35 1.19 1.00 0.86 0.73 0.66 0.62 0.60 0.56 0.53 0.56 0.61 0.68 0.72
0.04 0.04 0.06 0.10 0.20 0.36 0.56 0.86 1.18 1.17 0.98 0.78 0.64 0.52 0.44 0.45 0.48 0.50 0.55 0.60 0.66 0.72 0.79 0.84 0.88 0.99 1.09 1.15 1.16 1.16 1.16 1.12 1.04 0.98 0.94 0.85 0.75 0.68 0.61 0.52 0.47 0.43 0.41 0.37 0.34 0.35 0.37 0.41 0.48
0.06 0.06 0.09 0.14 0.16 0.34 0.64 1.11 1.30 1.50 1.41 0.99 0.70 0.55 0.47 0.46 0.47 0.51 0.54 0.48 0.48 0.51 0.57 0.63 0.68 0.72 0.77 0.81 0.84 0.84 0.80 0.75 0.70 0.67 0.65 0.60 0.51 0.44 0.39 0.34 0.31 0.30 0.27 0.26 0.27 0.30 0.32 0.34 0.36
0.06 0.08 0.14 0.31 0.32 0.30 0.62 1.37 1.61 1.78 1.67 1.27 0.94 0.76 0.69 0.59 0.56 0.59 0.56 0.49 0.46 0.49 0.51 0.54 0.56 0.59 0.64 0.60 0.60 0.64 0.58 0.52 0.49 0.46 0.41 0.38 0.36 0.32 0.28 0.24 0.22 0.23 0.24 0.22 0.22 0.24 0.26 0.28 0.29

GEFSSGP_prec_meanprecacc_120.txt.gz
Total_Precipitation_Accumulation
0.00 0.00 0.00 0.00 0.00 0.00 0.01 0.02 0.04 0.12 0.19 0.16 0.20 0.25 0.26 0.32 0.39 0.82 0.55 0.21 0.09 0.02 0.01 0.01 0.01 0.04 0.05 0.06 0.06 0.09 0.10 0.10 0.11 0.10 0.09 0.09 0.08 0.08 0.08 0.08 0.11 0.15 0.17 0.16 0.15 0.15 0.14 0.12 0.09
0.00 0.00 0.00 0.00 0.00 0.00 0.01 0.02 0.05 0.10 0.14 0.14 0.18 0.23 0.22 0.22 0.19 0.15 0.21 0.14 0.08 0.03 0.01 0.00 0.01 0.03 0.04 0.05 0.05 0.09 0.11 0.10 0.09 0.09 0.08 0.08 0.08 0.09 0.09 0.11 0.15 0.21 0.26 0.27 0.21 0.18 0.16 0.13 0.08
0.00 0.00 0.00 0.00 0.00 0.00 0.02 0.04 0.07 0.08 0.11 0.15 0.20 0.31 0.30 0.20 0.19 0.15 0.17 0.12 0.08 0.04 0.01 0.01 0.01 0.02 0.03 0.03 0.04 0.07 0.09 0.09 0.09 0.09 0.09 0.09 0.10 0.10 0.13 0.16 0.20 0.26 0.28 0.27 0.23 0.21 0.19 0.13 0.08
0.00 0.00 0.00 0.00 0.00 0.00 0.02 0.06 0.08 0.08 0.08 0.13 0.15 0.31 0.31 0.22 0.24 0.22 0.19 0.15 0.09 0.06 0.02 0.01 0.02 0.03 0.03 0.03 0.04 0.06 0.08 0.09 0.11 0.13 0.13 0.13 0.13 0.13 0.18 0.25 0.29 0.28 0.28 0.28 0.29 0.27 0.22 0.13 0.08
0.00 0.00 0.00 0.00 0.00 0.00 0.01 0.03 0.06 0.07 0.06 0.09 0.17 0.31 0.44 0.40 0.40 0.38 0.29 0.19 0.13 0.09 0.05 0.03 0.03 0.03 0.04 0.04 0.05 0.08 0.10 0.14 0.18 0.22 0.21 0.17 0.16 0.17 0.22 0.29 0.32 0.31 0.34 0.33 0.31 0.24 0.17 0.09 0.08
0.00 0.00 0.00 0.00 0.00 0.00 0.01 0.02 0.04 0.04 0.05 0.08 0.21 0.44 0.71 0.80 0.78 0.70 0.58 0.32 0.26 0.16 0.15 0.09 0.07 0.06 0.06 0.07 0.08 0.11 0.15 0.18 0.22 0.24 0.21 0.19 0.17 0.18 0.23 0.26 0.26 0.29 0.30 0.24 0.16 0.12 0.09 0.08 0.08
0.00 0.00 0.00 0.00 0.00 0.00 0.01 0.03 0.04 0.04 0.06 0.09 0.21 0.44 0.69 0.93 1.00 0.95 0.82 0.54 0.48 0.37 0.37 0.27 0.14 0.10 0.08 0.12 0.14 0.15 0.14 0.16 0.21 0.22 0.19 0.16 0.16 0.15 0.16 0.17 0.19 0.20 0.16 0.12 0.10 0.07 0.06 0.06 0.05
0.00 0.00 0.00 0.00 0.01 0.01 0.02 0.05 0.07 0.08 0.10 0.13 0.26 0.50 0.89 0.97 0.85 0.96 0.89 0.72 0.78 0.77 0.68 0.35 0.15 0.11 0.09 0.09 0.12 0.16 0.16 0.17 0.18 0.17 0.16 0.13 0.12 0.12 0.13 0.13 0.13 0.15 0.14 0.12 0.09 0.06 0.05 0.04 0.03
0.00 0.00 0.00 0.00 0.01 0.01 0.02 0.04 0.07 0.06 0.07 0.18 0.25 0.37 0.72 0.81 0.77 0.92 0.92 0.97 0.96 0.87 0.71 0.50 0.27 0.18 0.15 0.14 0.13 0.14 0.15 0.16 0.16 0.15 0.14 0.13 0.13 0.14 0.14 0.10 0.13 0.15 0.14 0.10 0.09 0.07 0.06 0.04 0.04
0.00 0.00 0.00 0.00 0.00 0.01 0.01 0.03 0.05 0.06 0.07 0.14 0.20 0.33 0.58 0.70 0.81 0.87 0.96 1.17 0.96 0.85 0.75 0.61 0.50 0.35 0.26 0.22 0.25 0.25 0.20 0.19 0.18 0.24 0.19 0.22 0.34 0.39 0.30 0.32 0.28 0.23 0.16 0.13 0.13 0.11 0.08 0.06 0.06
0.00 0.00 0.00 0.00 0.00 0.00 0.00 0.01 0.04 0.07 0.13 0.35 0.34 0.45 0.54 0.65 0.81 0.93 1.02 1.25 1.27 1.17 0.94 0.81 0.72 0.70 0.57 0.50 0.45 0.39 0.37 0.39 0.37 0.48 0.43 0.48 0.58 0.51 0.48 0.55 0.45 0.37 0.27 0.22 0.24 0.16 0.12 0.11 0.15
0.00 0.00 0.00 0.00 0.00 0.00 0.00 0.01 0.02 0.07 0.20 0.35 0.38 0.49 0.64 0.68 0.74 0.95 1.16 1.35 1.48 1.43 1.25 1.19 0.92 0.79 0.79 0.91 0.89 0.64 0.57 0.57 0.51 0.60 0.60 0.69 0.80 0.79 0.82 0.81 0.65 0.60 0.54 0.52 0.45 0.38 0.33 0.30 0.28
0.00 0.00 0.00 0.00 0.00 0.00 0.00 0.00 0.01 0.05 0.09 0.16 0.26 0.41 0.53 0.55 0.64 0.86 1.20 1.65 1.89 1.83 1.59 1.46 1.28 1.05 0.99 1.15 1.16 0.82 0.76 0.84 0.97 1.02 0.85 0.88 0.86 0.90 1.00 0.98 0.93 0.87 0.91 0.86 0.71 0.61 0.67 0.65 0.55
0.00 0.00 0.00 0.00 0.00 0.00 0.00 0.00 0.01 0.04 0.05 0.13 0.20 0.32 0.52 0.63 0.90 1.21 1.48 1.91 2.17 2.18 1.96 1.74 1.54 1.37 1.27 1.30 1.28 1.16 1.02 1.15 1.27 1.26 1.20 1.12 1.11 1.21 1.27 1.32 1.28 1.16 1.17 1.17 1.05 0.96 0.96 0.87 0.80
0.00 0.00 0.00 0.00 0.00 0.00 0.00 0.01 0.03 0.03 0.04 0.09 0.16 0.29 0.46 0.63 0.87 1.15 1.63 1.90 1.95 1.92 1.82 1.81 1.61 1.59 1.57 1.52 1.47 1.45 1.43 1.54 1.69 1.65 1.51 1.38 1.39 1.63 1.64 1.65 1.56 1.48 1.49 1.56 1.49 1.35 1.26 1.07 0.94
0.00 0.00 0.00 0.00 0.00 0.00 0.00 0.03 0.10 0.05 0.03 0.06 0.14 0.26 0.32 0.45 0.68 0.95 1.28 1.52 1.63 1.95 1.98 1.96 1.89 1.75 1.72 1.77 1.78 1.79 1.81 1.97 2.03 2.10 2.09 1.87 1.73 1.87 1.96 2.01 1.91 1.78 1.70 1.83 1.88 1.74 1.62 1.45 1.36
0.00 0.01 0.01 0.01 0.00 0.00 0.01 0.04 0.10 0.07 0.09 0.14 0.25 0.37 0.35 0.45 0.66 0.93 1.20 1.44 1.63 1.82 2.03 2.01 1.95 1.95 1.95 2.02 2.01 2.14 2.27 2.33 2.31 2.34 2.40 2.34 2.26 2.36 2.37 2.35 2.34 2.27 2.27 2.25 2.06 2.03 1.90 1.87 1.78
0.00 0.00 0.01 0.01 0.01 0.01 0.02 0.07 0.11 0.13 0.12 0.23 0.36 0.39 0.42 0.49 0.59 0.77 1.09 1.58 1.79 1.84 1.84 1.96 2.06 2.07 2.10 2.33 2.36 2.37 2.48 2.67 2.83 3.02 3.13 2.97 2.93 2.86 2.95 2.91 2.81 2.75 2.70 2.52 2.42 2.33 2.16 2.01 1.89
0.00 0.00 0.01 0.01 0.01 0.01 0.04 0.08 0.13 0.16 0.18 0.26 0.33 0.31 0.28 0.39 0.53 0.75 1.09 1.58 2.11 2.09 1.98 2.10 2.33 2.34 2.38 2.63 2.73 2.82 3.12 3.40 3.61 3.72 3.70 3.66 3.52 3.52 3.51 3.41 3.15 3.00 2.99 2.87 2.77 2.57 2.39 2.15 1.96
0.00 0.00 0.01 0.03 0.02 0.03 0.07 0.12 0.16 0.21 0.23 0.30 0.38 0.41 0.39 0.43 0.64 0.92 1.27 1.81 2.28 2.46 2.50 2.51 2.71 2.94 3.09 3.28 3.62 3.95 4.26 4.51 4.69 4.74 4.32 4.11 3.99 3.91 3.87 3.84 3.76 3.51 3.32 3.12 2.87 2.73 2.58 2.22 1.97
0.01 0.01 0.02 0.06 0.05 0.06 0.11 0.23 0.29 0.32 0.34 0.44 0.60 0.68 0.75 0.73 0.95 1.20 1.46 1.88 2.26 2.44 2.58 2.67 2.91 3.32 3.78 4.12 4.51 4.93 5.17 5.26 5.06 4.80 4.68 4.54 4.41 4.29 4.15 3.98 3.72 3.52 3.37 3.24 3.01 2.76 2.60 2.31 2.06
0.01 0.01 0.01 0.02 0.04 0.08 0.12 0.29 0.52 0.53 0.53 0.63 0.77 0.71 0.73 0.87 1.11 1.36 1.63 1.92 2.23 2.43 2.54 2.82 3.32 3.95 4.49 4.90 5.37 5.87 6.03 5.87 5.57 5.17 4.81 4.57 4.33 4.00 3.74 3.58 3.46 3.26 2.96 2.72 2.60 2.43 2.18 2.00 1.85
0.01 0.01 0.01 0.01 0.02 0.06 0.10 0.25 0.67 0.78 0.78 0.86 0.99 0.85 0.78 0.75 0.92 1.20 1.45 1.68 1.99 2.16 2.40 2.77 3.35 4.06 4.77 5.53 6.15 6.53 6.48 6.18 5.81 5.18 4.61 4.12 3.75 3.45 3.18 3.03 2.84 2.59 2.25 1.92 1.81 1.82 1.83 1.75 1.64
0.01 0.01 0.01 0.02 0.02 0.06 0.09 0.25 0.71 1.05 1.16 1.20 1.03 0.88 0.77 0.69 0.71 0.81 0.95 1.16 1.41 1.77 2.14 2.55 3.14 3.86 4.54 5.20 5.70 5.80 5.73 5.59 5.14 4.49 3.90 3.52 3.20 2.88 2.52 2.22 1.92 1.70 1.54 1.34 1.29 1.30 1.36 1.47 1.50
0.01 0.02 0.08 0.12 0.15 0.14 0.12 0.29 0.73 1.09 1.27 1.14 0.93 0.80 0.65 0.57 0.56 0.59 0.67 0.89 1.18 1.45 1.79 2.23 2.67 3.24 3.70 4.08 4.48 4.58 4.58 4.45 4.22 3.80 3.40 3.01 2.53 2.19 1.90 1.60 1.41 1.28 1.19 1.12 1.05 1.01 1.03 1.12 1.23
0.01 0.02 0.12 0.22 0.21 0.24 0.30 0.55 0.98 1.06 1.06 0.92 0.79 0.69 0.58 0.51 0.52 0.58 0.67 0.82 1.07 1.31 1.56 1.77 2.05 2.40 2.57 2.64 2.84 3.02 3.02 3.05 2.99 2.75 2.52 2.26 1.92 1.60 1.35 1.13 0.96 0.87 0.86 0.84 0.83 0.84 0.86 0.90 0.97
0.02 0.03 0.06 0.10 0.11 0.27 0.56 0.84 1.22 1.09 0.93 0.85 0.81 0.67 0.57 0.53 0.52 0.56 0.63 0.70 0.84 1.00 1.11 1.20 1.33 1.50 1.58 1.66 1.68 1.75 1.82 1.85 1.80 1.71 1.54 1.36 1.19 1.00 0.86 0.74 0.67 0.62 0.61 0.59 0.56 0.58 0.64 0.70 0.76
0.04 0.05 0.07 0.12 0.25 0.43 0.65 0.99 1.43 1.53 1.24 0.96 0.75 0.58 0.47 0.48 0.49 0.51 0.55 0.60 0.66 0.72 0.80 0.84 0.88 0.99 1.09 1.15 1.16 1.16 1.16 1.12 1.04 0.98 0.95 0.85 0.75 0.68 0.61 0.53 0.47 0.44 0.42 0.38 0.36 0.38 0.40 0.44 0.52
0.07 0.08 0.11 0.16 0.19 0.41 0.73 1.26 1.51 1.77 1.72 1.25 0.85 0.64 0.53 0.49 0.48 0.52 0.54 0.49 0.48 0.51 0.57 0.63 0.68 0.72 0.77 0.81 0.84 0.85 0.82 0.77 0.73 0.69 0.65 0.61 0.52 0.44 0.39 0.34 0.32 0.30 0.28 0.27 0.28 0.32 0.35 0.37 0.40
0.08 0.11 0.17 0.35 0.36 0.35 0.70 1.49 1.71 1.94 1.96 1.60 1.21 0.96 0.80 0.63 0.57 0.59 0.56 0.49 0.46 0.49 0.51 0.54 0.56 0.59 0.64 0.60 0.60 0.64 0.60 0.53 0.51 0.48 0.42 0.39 0.37 0.32 0.28 0.24 0.23 0.23 0.24 0.23 0.23 0.25 0.28 0.31 0.32

GEFSSGP_prec_meanprecacc_126.txt.gz
Total_Precipitation_Accumulation
0.00 0.00 0.00 0.00 0.00 0.00 0.01 0.02 0.04 0.12 0.19 0.17 0.21 0.27 0.29 0.34 0.42 0.85 0.58 0.22 0.10 0.03 0.01 0.02 0.02 0.04 0.05 0.06 0.06 0.09 0.10 0.11 0.11 0.10 0.09 0.09 0.08 0.08 0.08 0.08 0.11 0.15 0.18 0.17 0.16 0.15 0.15 0.13 0.10
0.00 0.00 0.00 0.00 0.00 0.00 0.01 0.02 0.05 0.10 0.15 0.15 0.18 0.24 0.23 0.23 0.22 0.18 0.24 0.17 0.10 0.05 0.02 0.01 0.02 0.03 0.04 0.05 0.05 0.09 0.11 0.10 0.09 0.09 0.08 0.08 0.08 0.09 0.09 0.11 0.16 0.22 0.27 0.27 0.22 0.19 0.17 0.14 0.10
0.00 0.00 0.00 0.00 0.00 0.00 0.02 0.04 0.07 0.09 0.11 0.16 0.21 0.33 0.32 0.22 0.22 0.17 0.20 0.15 0.12 0.07 0.04 0.02 0.02 0.03 0.03 0.03 0.04 0.07 0.09 0.09 0.09 0.09 0.09 0.09 0.10 0.10 0.13 0.16 0.20 0.26 0.29 0.28 0.24 0.22 0.20 0.14 0.09
0.00 0.00 0.00 0.00 0.00 0.00 0.02 0.06 0.09 0.09 0.09 0.14 0.16 0.33 0.36 0.25 0.27 0.25 0.21 0.19 0.14 0.10 0.06 0.03 0.03 0.04 0.03 0.03 0.04 0.06 0.08 0.09 0.11 0.13 0.13 0.13 0.13 0.14 0.18 0.25 0.29 0.28 0.28 0.28 0.29 0.28 0.23 0.15 0.09
0.00 0.00 0.00 0.00 0.00 0.00 0.01 0.04 0.07 0.07 0.07 0.09 0.17 0.33 0.47 0.43 0.43 0.42 0.35 0.30 0.24 0.16 0.10 0.08 0.07 0.06 0.05 0.04 0.05 0.08 0.10 0.14 0.19 0.23 0.21 0.18 0.17 0.18 0.22 0.30 0.32 0.31 0.35 0.34 0.32 0.25 0.18 0.11 0.10
0.00 0.00 0.00 0.00 0.00 0.00 0.01 0.02 0.04 0.06 0.06 0.09 0.21 0.45 0.74 0.84 0.84 0.77 0.68 0.44 0.33 0.21 0.22 0.16 0.12 0.10 0.09 0.09 0.09 0.12 0.16 0.19 0.22 0.24 0.22 0.19 0.18 0.19 0.23 0.26 0.26 0.29 0.31 0.25 0.17 0.13 0.10 0.09 0.10
0.00 0.00 0.00 0.00 0.00 0.00 0.01 0.04 0.05 0.05 0.07 0.09 0.21 0.45 0.72 0.98 1.07 1.04 0.92 0.67 0.55 0.42 0.44 0.34 0.19 0.15 0.12 0.15 0.16 0.16 0.16 0.17 0.22 0.23 0.20 0.17 0.16 0.16 0.17 0.18 0.19 0.20 0.16 0.13 0.10 0.08 0.07 0.07 0.07
0.00 0.00 0.00 0.00 0.01 0.01 0.02 0.05 0.08 0.08 0.11 0.13 0.27 0.51 0.91 1.02 0.91 1.02 0.96 0.81 0.86 0.84 0.76 0.42 0.20 0.17 0.14 0.13 0.15 0.18 0.19 0.19 0.19 0.18 0.16 0.13 0.12 0.13 0.14 0.13 0.14 0.15 0.15 0.13 0.10 0.07 0.06 0.05 0.05
0.00 0.00 0.00 0.00 0.01 0.01 0.02 0.04 0.07 0.06 0.08 0.18 0.25 0.38 0.74 0.85 0.83 1.02 1.04 1.07 1.08 0.98 0.79 0.56 0.32 0.22 0.19 0.18 0.15 0.16 0.17 0.18 0.17 0.16 0.15 0.13 0.13 0.15 0.15 0.11 0.14 0.16 0.16 0.12 0.11 0.09 0.07 0.06 0.05
0.00 0.00 0.00 0.00 0.00 0.01 0.01 0.03 0.05 0.07 0.07 0.15 0.21 0.34 0.61 0.76 0.94 1.06 1.15 1.36 1.15 1.02 0.86 0.70 0.59 0.43 0.32 0.26 0.28 0.27 0.22 0.21 0.19 0.24 0.20 0.22 0.35 0.39 0.31 0.33 0.30 0.25 0.20 0.16 0.16 0.14 0.11 0.09 0.07
0.00 0.00 0.00 0.00 0.00 0.00 0.00 0.02 0.04 0.07 0.14 0.36 0.35 0.47 0.58 0.73 0.92 1.11 1.30 1.53 1.50 1.34 1.05 0.90 0.81 0.78 0.63 0.53 0.49 0.42 0.39 0.41 0.39 0.49 0.44 0.50 0.59 0.52 0.49 0.56 0.46 0.39 0.31 0.25 0.27 0.20 0.14 0.14 0.16
0.00 0.00 0.00 0.00 0.00 0.00 0.00 0.01 0.02 0.07 0.21 0.35 0.39 0.51 0.68 0.75 0.84 1.06 1.30 1.50 1.64 1.58 1.36 1.27 0.98 0.85 0.85 0.96 0.93 0.66 0.59 0.58 0.53 0.63 0.63 0.72 0.83 0.81 0.83 0.83 0.67 0.63 0.57 0.54 0.47 0.40 0.36 0.33 0.30
0.00 0.00 0.00 0.00 0.00 0.00 0.00 0.00 0.02 0.06 0.09 0.17 0.28 0.44 0.58 0.62 0.76 0.95 1.32 1.79 2.04 2.01 1.74 1.55 1.34 1.11 1.05 1.20 1.20 0.86 0.79 0.87 1.01 1.06 0.89 0.91 0.89 0.92 1.02 0.99 0.95 0.90 0.94 0.89 0.75 0.64 0.71 0.70 0.59
0.00 0.00 0.00 0.00 0.00 0.00 0.00 0.00 0.01 0.05 0.06 0.15 0.22 0.35 0.56 0.71 1.01 1.29 1.57 2.02 2.28 2.32 2.10 1.84 1.64 1.46 1.37 1.38 1.34 1.22 1.08 1.21 1.33 1.31 1.24 1.16 1.15 1.26 1.30 1.35 1.31 1.19 1.20 1.20 1.09 1.02 1.01 0.92 0.85
0.00 0.00 0.00 0.00 0.00 0.00 0.00 0.01 0.03 0.04 0.05 0.11 0.19 0.33 0.52 0.71 1.00 1.30 1.75 2.01 2.06 2.04 1.94 1.92 1.73 1.72 1.71 1.65 1.57 1.55 1.55 1.65 1.77 1.73 1.59 1.44 1.44 1.69 1.69 1.70 1.61 1.52 1.52 1.59 1.52 1.40 1.31 1.12 0.99
0.00 0.00 0.00 0.00 0.00 0.00 0.00 0.03 0.11 0.06 0.05 0.08 0.17 0.30 0.37 0.53 0.80 1.09 1.40 1.63 1.73 2.06 2.12 2.11 2.05 1.94 1.93 1.97 1.92 1.91 1.92 2.08 2.14 2.20 2.18 1.96 1.83 1.97 2.06 2.08 1.97 1.85 1.76 1.88 1.93 1.80 1.67 1.50 1.41
0.00 0.01 0.01 0.01 0.01 0.00 0.01 0.05 0.11 0.09 0.11 0.16 0.28 0.40 0.39 0.50 0.74 1.00 1.29 1.56 1.77 1.96 2.21 2.19 2.14 2.19 2.17 2.25 2.20 2.31 2.43 2.47 2.46 2.49 2.56 2.51 2.41 2.47 2.46 2.42 2.40 2.33 2.33 2.32 2.14 2.09 1.96 1.93 1.84
0.00 0.00 0.01 0.01 0.01 0.01 0.03 0.08 0.13 0.15 0.14 0.26 0.39 0.43 0.48 0.55 0.63 0.80 1.13 1.66 1.93 1.97 2.01 2.19 2.25 2.32 2.31 2.52 2.59 2.65 2.72 2.83 3.01 3.24 3.33 3.14 3.07 2.98 3.04 2.98 2.88 2.81 2.76 2.59 2.48 2.38 2.21 2.06 1.94
0.00 0.00 0.01 0.01 0.01 0.01 0.04 0.09 0.14 0.18 0.20 0.30 0.37 0.36 0.34 0.45 0.59 0.80 1.13 1.60 2.15 2.15 2.09 2.26 2.49 2.58 2.59 2.83 2.95 3.09 3.38 3.56 3.74 3.88 3.83 3.77 3.63 3.63 3.60 3.48 3.24 3.08 3.05 2.92 2.83 2.62 2.42 2.19 2.01
0.00 0.00 0.01 0.03 0.02 0.03 0.07 0.14 0.18 0.23 0.26 0.34 0.41 0.45 0.42 0.47 0.71 0.99 1.32 1.85 2.32 2.51 2.57 2.60 2.82 3.07 3.24 3.42 3.75 4.09 4.41 4.63 4.77 4.83 4.40 4.18 4.06 3.97 3.93 3.90 3.81 3.57 3.37 3.16 2.91 2.77 2.61 2.25 2.02
0.01 0.01 0.02 0.06 0.05 0.06 0.12 0.25 0.33 0.36 0.37 0.47 0.62 0.71 0.80 0.83 1.04 1.26 1.52 1.93 2.31 2.49 2.63 2.73 2.97 3.39 3.86 4.21 4.61 5.02 5.25 5.34 5.14 4.87 4.76 4.61 4.46 4.33 4.19 4.02 3.76 3.56 3.41 3.27 3.05 2.80 2.64 2.35 2.11
0.01 0.01 0.01 0.02 0.04 0.09 0.12 0.31 0.57 0.57 0.55 0.66 0.80 0.76 0.80 0.95 1.18 1.42 1.69 1.96 2.27 2.46 2.58 2.87 3.37 4.00 4.54 4.97 5.44 5.94 6.10 5.95 5.66 5.25 4.87 4.63 4.37 4.04 3.77 3.61 3.48 3.29 2.99 2.75 2.63 2.49 2.24 2.05 1.92
0.01 0.01 0.01 0.01 0.02 0.07 0.10 0.26 0.70 0.82 0.82 0.89 1.04 0.92 0.86 0.82 0.99 1.27 1.51 1.73 2.02 2.18 2.43 2.81 3.41 4.11 4.82 5.58 6.20 6.59 6.53 6.23 5.86 5.23 4.65 4.16 3.79 3.49 3.21 3.05 2.85 2.60 2.26 1.93 1.83 1.86 1.87 1.79 1.69
0.01 0.01 0.01 0.02 0.03 0.06 0.10 0.25 0.72 1.08 1.20 1.23 1.07 0.93 0.83 0.78 0.81 0.89 1.02 1.23 1.47 1.80 2.17 2.58 3.19 3.91 4.59 5.24 5.74 5.84 5.76 5.61 5.16 4.51 3.91 3.54 3.21 2.89 2.53 2.22 1.93 1.70 1.54 1.35 1.30 1.31 1.37 1.49 1.53
0.01 0.02 0.08 0.12 0.16 0.14 0.12 0.29 0.74 1.11 1.29 1.17 0.97 0.86 0.72 0.64 0.62 0.65 0.71 0.92 1.20 1.47 1.82 2.25 2.70 3.27 3.73 4.10 4.50 4.60 4.59 4.46 4.22 3.81 3.41 3.02 2.54 2.19 1.90 1.61 1.42 1.28 1.20 1.13 1.06 1.02 1.04 1.13 1.24
0.01 0.02 0.12 0.22 0.22 0.24 0.31 0.56 0.98 1.07 1.08 0.95 0.83 0.74 0.62 0.57 0.57 0.62 0.70 0.84 1.08 1.32 1.56 1.77 2.06 2.40 2.57 2.64 2.84 3.02 3.03 3.05 2.99 2.75 2.52 2.26 1.92 1.60 1.35 1.13 0.97 0.88 0.86 0.85 0.84 0.85 0.87 0.92 0.99
0.02 0.03 0.06 0.10 0.11 0.27 0.56 0.85 1.23 1.11 0.97 0.89 0.87 0.73 0.63 0.59 0.57 0.59 0.64 0.71 0.84 1.00 1.11 1.20 1.34 1.51 1.58 1.66 1.69 1.76 1.83 1.85 1.81 1.71 1.54 1.36 1.19 1.00 0.86 0.74 0.67 0.62 0.61 0.60 0.57 0.59 0.65 0.72 0.78
0.04 0.05 0.07 0.12 0.25 0.43 0.65 1.00 1.44 1.54 1.26 1.00 0.81 0.65 0.54 0.53 0.53 0.54 0.57 0.61 0.67 0.73 0.80 0.85 0.89 0.99 1.09 1.16 1.16 1.17 1.16 1.13 1.05 0.99 0.95 0.85 0.75 0.68 0.61 0.53 0.47 0.44 0.42 0.39 0.37 0.39 0.41 0.45 0.53
0.07 0.09 0.12 0.16 0.20 0.41 0.73 1.26 1.51 1.78 1.74 1.28 0.91 0.75 0.64 0.57 0.53 0.56 0.58 0.51 0.50 0.52 0.57 0.64 0.68 0.72 0.77 0.81 0.84 0.85 0.82 0.77 0.74 0.70 0.66 0.61 0.52 0.44 0.39 0.34 0.32 0.30 0.28 0.27 0.29 0.33 0.38 0.40 0.42
0.09 0.11 0.18 0.35 0.37 0.36 0.70 1.50 1.72 1.96 1.99 1.65 1.29 1.09 0.99 0.76 0.65 0.63 0.59 0.51 0.47 0.50 0.51 0.54 0.56 0.60 0.65 0.61 0.60 0.65 0.60 0.54 0.51 0.48 0.43 0.39 0.37 0.32 0.28 0.24 0.23 0.24 0.25 0.23 0.23 0.26 0.32 0.37 0.37

GEFSSGP_prec_meanprecacc_132.txt.gz
Total_Precipitation_Accumulation
0.00 0.00 0.00 0.00 0.00 0.00 0.01 0.02 0.04 0.12 0.19 0.17 0.22 0.27 0.29 0.35 0.43 0.88 0.59 0.23 0.11 0.05 0.02 0.02 0.03 0.05 0.06 0.06 0.07 0.10 0.11 0.11 0.11 0.10 0.09 0.09 0.09 0.08 0.08 0.09 0.11 0.15 0.18 0.17 0.16 0.16 0.16 0.13 0.10
0.00 0.00 0.00 0.00 0.00 0.00 0.01 0.02 0.05 0.10 0.15 0.15 0.19 0.24 0.23 0.24 0.22 0.19 0.26 0.18 0.12 0.07 0.03 0.02 0.02 0.04 0.05 0.05 0.06 0.10 0.11 0.11 0.10 0.09 0.08 0.08 0.09 0.09 0.09 0.11 0.16 0.22 0.27 0.28 0.23 0.19 0.17 0.14 0.10
0.00 0.00 0.00 0.00 0.00 0.00 0.02 0.04 0.07 0.09 0.12 0.17 0.22 0.33 0.32 0.23 0.22 0.18 0.21 0.15 0.13 0.08 0.06 0.04 0.03 0.04 0.04 0.04 0.04 0.07 0.10 0.09 0.09 0.09 0.09 0.09 0.10 0.11 0.13 0.17 0.21 0.26 0.29 0.28 0.25 0.23 0.21 0.15 0.09
0.00 0.00 0.00 0.00 0.00 0.00 0.02 0.06 0.09 0.09 0.10 0.14 0.16 0.34 0.37 0.26 0.28 0.26 0.22 0.19 0.16 0.11 0.09 0.06 0.05 0.05 0.04 0.04 0.04 0.06 0.08 0.10 0.11 0.13 0.13 0.13 0.13 0.14 0.18 0.25 0.29 0.28 0.28 0.29 0.30 0.28 0.23 0.15 0.10
0.00 0.00 0.00 0.00 0.00 0.00 0.01 0.04 0.07 0.08 0.07 0.09 0.17 0.33 0.48 0.44 0.44 0.43 0.36 0.31 0.25 0.18 0.14 0.12 0.10 0.08 0.07 0.05 0.06 0.08 0.11 0.14 0.19 0.23 0.21 0.18 0.17 0.18 0.23 0.30 0.32 0.31 0.35 0.35 0.32 0.26 0.19 0.12 0.11
0.00 0.00 0.00 0.00 0.00 0.00 0.01 0.02 0.04 0.06 0.06 0.09 0.21 0.45 0.75 0.86 0.85 0.78 0.70 0.46 0.36 0.24 0.25 0.19 0.15 0.13 0.13 0.12 0.12 0.13 0.17 0.21 0.24 0.26 0.23 0.20 0.18 0.19 0.24 0.27 0.27 0.30 0.32 0.26 0.18 0.14 0.11 0.11 0.11
0.00 0.00 0.00 0.00 0.00 0.00 0.01 0.04 0.05 0.06 0.07 0.10 0.21 0.45 0.73 1.00 1.09 1.07 0.95 0.69 0.57 0.44 0.47 0.37 0.24 0.20 0.17 0.21 0.23 0.20 0.19 0.21 0.25 0.25 0.22 0.18 0.17 0.16 0.17 0.18 0.20 0.21 0.18 0.14 0.12 0.09 0.08 0.08 0.08
0.00 0.00 0.00 0.00 0.01 0.01 0.02 0.05 0.08 0.09 0.11 0.14 0.27 0.51 0.92 1.04 0.93 1.04 0.98 0.84 0.88 0.87 0.80 0.46 0.26 0.24 0.22 0.20 0.25 0.27 0.25 0.24 0.23 0.20 0.17 0.14 0.13 0.14 0.15 0.14 0.15 0.17 0.17 0.15 0.11 0.08 0.07 0.07 0.06
0.00 0.00 0.00 0.00 0.01 0.01 0.02 0.04 0.07 0.07 0.08 0.18 0.25 0.38 0.75 0.86 0.84 1.04 1.06 1.11 1.13 1.02 0.85 0.63 0.39 0.28 0.26 0.25 0.24 0.23 0.24 0.23 0.21 0.19 0.17 0.15 0.15 0.17 0.17 0.13 0.16 0.18 0.18 0.15 0.14 0.11 0.09 0.08 0.07
0.00 0.00 0.00 0.00 0.00 0.01 0.02 0.03 0.06 0.07 0.08 0.15 0.22 0.35 0.62 0.77 0.95 1.09 1.18 1.41 1.19 1.07 0.92 0.79 0.65 0.49 0.39 0.33 0.36 0.35 0.30 0.29 0.25 0.29 0.25 0.26 0.38 0.42 0.33 0.36 0.32 0.28 0.23 0.20 0.20 0.17 0.13 0.11 0.10
0.00 0.00 0.00 0.00 0.00 0.00 0.01 0.02 0.04 0.08 0.15 0.37 0.36 0.48 0.61 0.75 0.95 1.14 1.35 1.59 1.54 1.37 1.11 0.96 0.89 0.87 0.73 0.62 0.56 0.48 0.46 0.49 0.45 0.55 0.49 0.55 0.63 0.56 0.53 0.61 0.51 0.44 0.36 0.33 0.35 0.25 0.19 0.18 0.22
0.00 0.00 0.00 0.00 0.00 0.00 0.00 0.01 0.03 0.08 0.21 0.36 0.41 0.57 0.73 0.79 0.88 1.09 1.33 1.53 1.67 1.62 1.41 1.33 1.06 0.96 0.97 1.06 1.00 0.72 0.64 0.64 0.59 0.69 0.69 0.79 0.89 0.86 0.89 0.89 0.74 0.71 0.66 0.64 0.56 0.49 0.43 0.38 0.36
0.00 0.00 0.00 0.00 0.00 0.00 0.00 0.00 0.02 0.06 0.10 0.18 0.29 0.50 0.70 0.67 0.79 0.97 1.34 1.81 2.06 2.05 1.81 1.62 1.43 1.24 1.20 1.35 1.32 0.93 0.85 0.94 1.09 1.13 0.95 0.97 0.96 0.99 1.09 1.06 1.03 0.98 1.04 1.00 0.86 0.74 0.79 0.77 0.65
0.00 0.00 0.00 0.00 0.00 0.00 0.00 0.01 0.02 0.05 0.07 0.16 0.24 0.37 0.65 0.81 1.05 1.31 1.58 2.03 2.31 2.36 2.17 1.95 1.76 1.61 1.53 1.54 1.50 1.35 1.19 1.30 1.42 1.39 1.31 1.22 1.23 1.35 1.39 1.44 1.40 1.28 1.29 1.29 1.18 1.09 1.08 1.00 0.92
0.00 0.00 0.00 0.00 0.00 0.00 0.00 0.02 0.04 0.04 0.06 0.12 0.20 0.34 0.55 0.79 1.06 1.33 1.76 2.03 2.09 2.07 1.98 1.99 1.83 1.85 1.86 1.79 1.71 1.69 1.71 1.76 1.86 1.81 1.66 1.51 1.51 1.78 1.78 1.80 1.70 1.61 1.60 1.65 1.58 1.47 1.38 1.19 1.06
0.00 0.00 0.00 0.00 0.00 0.00 0.00 0.04 0.11 0.07 0.05 0.09 0.19 0.32 0.38 0.56 0.84 1.12 1.43 1.65 1.77 2.09 2.15 2.15 2.11 2.02 2.01 2.07 2.04 2.04 2.05 2.20 2.22 2.26 2.24 2.02 1.89 2.03 2.14 2.17 2.06 1.93 1.84 1.96 2.00 1.86 1.73 1.57 1.48
0.00 0.01 0.01 0.01 0.01 0.00 0.01 0.05 0.12 0.09 0.11 0.17 0.29 0.41 0.40 0.52 0.76 1.02 1.30 1.58 1.80 1.99 2.24 2.23 2.20 2.29 2.27 2.34 2.30 2.43 2.56 2.58 2.56 2.58 2.62 2.57 2.48 2.53 2.53 2.49 2.48 2.41 2.40 2.39 2.22 2.16 2.02 2.00 1.91
0.00 0.00 0.01 0.01 0.01 0.01 0.03 0.08 0.13 0.15 0.15 0.27 0.40 0.44 0.49 0.57 0.64 0.81 1.14 1.67 1.94 1.99 2.04 2.23 2.32 2.43 2.43 2.62 2.68 2.74 2.83 2.93 3.10 3.33 3.41 3.21 3.14 3.04 3.09 3.03 2.95 2.89 2.83 2.65 2.55 2.46 2.28 2.13 2.00
0.00 0.00 0.01 0.01 0.01 0.01 0.05 0.09 0.15 0.19 0.22 0.31 0.38 0.38 0.35 0.47 0.61 0.80 1.13 1.61 2.16 2.17 2.11 2.29 2.54 2.65 2.66 2.90 3.04 3.19 3.50 3.66 3.81 3.96 3.92 3.84 3.70 3.72 3.70 3.56 3.31 3.15 3.11 2.99 2.90 2.69 2.48 2.23 2.05
0.00 0.00 0.01 0.03 0.02 0.03 0.08 0.14 0.19 0.24 0.26 0.34 0.43 0.46 0.43 0.49 0.73 1.01 1.33 1.87 2.34 2.53 2.59 2.63 2.85 3.11 3.30 3.49 3.83 4.17 4.49 4.71 4.84 4.89 4.47 4.25 4.13 4.04 4.00 3.97 3.88 3.63 3.42 3.21 2.96 2.82 2.66 2.29 2.06
0.01 0.01 0.02 0.06 0.05 0.06 0.13 0.26 0.34 0.36 0.38 0.48 0.64 0.73 0.81 0.86 1.07 1.30 1.55 1.96 2.33 2.51 2.66 2.77 3.01 3.43 3.90 4.28 4.68 5.09 5.33 5.41 5.21 4.95 4.84 4.67 4.52 4.39 4.24 4.07 3.81 3.61 3.45 3.31 3.09 2.84 2.69 2.40 2.15
0.01 0.01 0.01 0.02 0.04 0.09 0.13 0.32 0.59 0.58 0.56 0.67 0.81 0.78 0.81 0.97 1.22 1.49 1.75 2.01 2.31 2.49 2.61 2.90 3.41 4.04 4.58 5.02 5.51 6.02 6.18 6.02 5.73 5.31 4.93 4.67 4.40 4.08 3.81 3.65 3.52 3.32 3.02 2.78 2.65 2.51 2.27 2.10 1.96
0.01 0.01 0.01 0.01 0.02 0.07 0.10 0.26 0.71 0.83 0.83 0.91 1.05 0.93 0.87 0.84 1.02 1.32 1.56 1.77 2.07 2.22 2.46 2.84 3.44 4.14 4.85 5.61 6.24 6.65 6.61 6.31 5.92 5.28 4.70 4.19 3.81 3.51 3.23 3.07 2.88 2.63 2.29 1.95 1.85 1.87 1.89 1.82 1.72
0.01 0.01 0.01 0.02 0.03 0.07 0.10 0.26 0.73 1.09 1.21 1.26 1.09 0.95 0.85 0.80 0.84 0.91 1.05 1.26 1.51 1.85 2.20 2.60 3.22 3.95 4.62 5.28 5.78 5.90 5.83 5.68 5.21 4.54 3.94 3.56 3.23 2.91 2.55 2.24 1.94 1.71 1.56 1.37 1.31 1.33 1.39 1.51 1.55
0.01 0.02 0.08 0.12 0.16 0.15 0.13 0.29 0.75 1.11 1.30 1.18 0.99 0.88 0.74 0.68 0.65 0.68 0.74 0.94 1.23 1.48 1.83 2.28 2.72 3.30 3.76 4.14 4.55 4.66 4.65 4.51 4.25 3.83 3.42 3.03 2.55 2.20 1.91 1.61 1.42 1.29 1.21 1.14 1.07 1.03 1.05 1.15 1.26
0.02 0.02 0.12 0.22 0.22 0.25 0.31 0.56 0.99 1.07 1.08 0.96 0.84 0.76 0.66 0.62 0.63 0.68 0.75 0.87 1.10 1.33 1.57 1.78 2.07 2.42 2.59 2.67 2.88 3.07 3.07 3.09 3.02 2.77 2.53 2.27 1.93 1.61 1.35 1.14 0.97 0.88 0.86 0.86 0.84 0.85 0.88 0.92 0.99
0.02 0.03 0.06 0.10 0.11 0.28 0.56 0.85 1.24 1.11 0.97 0.90 0.88 0.75 0.66 0.63 0.63 0.65 0.69 0.74 0.86 1.01 1.11 1.20 1.34 1.51 1.59 1.67 1.70 1.78 1.85 1.87 1.83 1.72 1.55 1.37 1.20 1.01 0.86 0.74 0.67 0.63 0.61 0.60 0.58 0.60 0.66 0.73 0.79
0.04 0.05 0.07 0.12 0.26 0.44 0.66 1.01 1.45 1.56 1.27 1.01 0.83 0.68 0.58 0.57 0.58 0.59 0.61 0.64 0.70 0.74 0.80 0.85 0.89 0.99 1.09 1.16 1.16 1.17 1.18 1.14 1.06 1.00 0.96 0.86 0.76 0.68 0.61 0.53 0.47 0.44 0.42 0.39 0.37 0.39 0.42 0.46 0.54
0.08 0.09 0.12 0.17 0.20 0.42 0.74 1.28 1.52 1.79 1.75 1.30 0.93 0.78 0.69 0.62 0.58 0.60 0.61 0.53 0.52 0.54 0.58 0.64 0.68 0.73 0.77 0.81 0.84 0.85 0.82 0.78 0.75 0.71 0.67 0.62 0.53 0.45 0.40 0.34 0.32 0.30 0.28 0.28 0.30 0.34 0.38 0.41 0.43
0.10 0.12 0.18 0.36 0.38 0.37 0.73 1.52 1.72 1.96 2.00 1.68 1.33 1.14 1.05 0.83 0.71 0.68 0.64 0.55 0.50 0.53 0.53 0.55 0.57 0.60 0.65 0.61 0.61 0.65 0.60 0.54 0.52 0.50 0.44 0.40 0.38 0.33 0.28 0.24 0.24 0.24 0.25 0.24 0.24 0.27 0.33 0.38 0.38

GEFSSGP_prec_meanprecacc_138.txt.gz
Total_Precipitation_Accumulation
0.00 0.00 0.00 0.00 0.00 0.00 0.01 0.02 0.04 0.12 0.19 0.17 0.22 0.27 0.30 0.38 0.47 0.97 0.61 0.23 0.12 0.05 0.03 0.02 0.03 0.05 0.07 0.07 0.09 0.11 0.12 0.11 0.11 0.10 0.10 0.09 0.09 0.09 0.09 0.09 0.12 0.16 0.19 0.18 0.16 0.16 0.16 0.13 0.10
0.00 0.00 0.00 0.00 0.00 0.00 0.01 0.02 0.05 0.12 0.16 0.15 0.19 0.24 0.24 0.25 0.23 0.20 0.26 0.19 0.12 0.08 0.05 0.03 0.03 0.04 0.05 0.06 0.07 0.11 0.12 0.11 0.10 0.09 0.09 0.08 0.09 0.09 0.10 0.12 0.17 0.24 0.28 0.29 0.23 0.19 0.17 0.15 0.10
0.00 0.00 0.00 0.00 0.00 0.00 0.02 0.04 0.07 0.09 0.12 0.18 0.22 0.34 0.33 0.23 0.22 0.19 0.21 0.16 0.14 0.09 0.07 0.04 0.04 0.04 0.04 0.05 0.06 0.10 0.12 0.11 0.09 0.10 0.10 0.09 0.10 0.11 0.14 0.18 0.22 0.27 0.30 0.29 0.25 0.23 0.21 0.15 0.10
0.00 0.00 0.00 0.00 0.00 0.00 0.02 0.06 0.09 0.09 0.10 0.15 0.17 0.34 0.37 0.26 0.28 0.27 0.23 0.20 0.16 0.12 0.10 0.07 0.06 0.07 0.06 0.05 0.06 0.09 0.11 0.13 0.13 0.15 0.14 0.14 0.14 0.14 0.19 0.26 0.30 0.29 0.29 0.29 0.30 0.29 0.24 0.16 0.10
0.00 0.00 0.00 0.00 0.00 0.00 0.01 0.04 0.07 0.08 0.07 0.10 0.18 0.34 0.48 0.45 0.44 0.44 0.37 0.32 0.26 0.19 0.15 0.13 0.11 0.10 0.10 0.08 0.08 0.11 0.15 0.18 0.22 0.25 0.23 0.19 0.18 0.19 0.24 0.31 0.33 0.32 0.36 0.35 0.33 0.26 0.20 0.13 0.11
0.00 0.00 0.00 0.00 0.00 0.00 0.01 0.03 0.05 0.07 0.07 0.11 0.23 0.47 0.76 0.87 0.85 0.78 0.71 0.47 0.37 0.25 0.26 0.21 0.16 0.15 0.15 0.14 0.14 0.17 0.22 0.26 0.30 0.30 0.25 0.22 0.20 0.21 0.25 0.28 0.28 0.31 0.32 0.27 0.19 0.14 0.11 0.11 0.12
0.00 0.00 0.00 0.00 0.00 0.01 0.01 0.04 0.06 0.08 0.10 0.14 0.27 0.49 0.74 1.01 1.10 1.08 0.96 0.71 0.59 0.46 0.49 0.39 0.26 0.23 0.21 0.24 0.26 0.24 0.23 0.25 0.29 0.30 0.25 0.20 0.19 0.18 0.19 0.20 0.21 0.22 0.18 0.15 0.12 0.10 0.09 0.08 0.08
0.00 0.00 0.00 0.00 0.01 0.01 0.02 0.05 0.08 0.12 0.15 0.18 0.35 0.58 0.95 1.05 0.94 1.05 1.00 0.86 0.91 0.90 0.83 0.50 0.29 0.27 0.28 0.28 0.33 0.33 0.29 0.28 0.28 0.25 0.23 0.19 0.17 0.18 0.18 0.17 0.17 0.18 0.17 0.15 0.12 0.09 0.08 0.07 0.07
0.00 0.00 0.00 0.00 0.01 0.01 0.02 0.04 0.08 0.07 0.10 0.22 0.34 0.49 0.77 0.87 0.85 1.05 1.07 1.15 1.18 1.05 0.88 0.68 0.44 0.33 0.33 0.34 0.32 0.33 0.33 0.32 0.31 0.28 0.25 0.22 0.23 0.26 0.26 0.21 0.21 0.20 0.19 0.15 0.14 0.12 0.10 0.08 0.08
0.00 0.00 0.00 0.00 0.00 0.01 0.02 0.03 0.06 0.07 0.08 0.19 0.28 0.39 0.64 0.78 0.96 1.10 1.20 1.43 1.24 1.13 0.98 0.85 0.72 0.57 0.52 0.44 0.47 0.46 0.43 0.42 0.37 0.43 0.36 0.38 0.53 0.59 0.52 0.54 0.39 0.31 0.25 0.22 0.22 0.18 0.14 0.13 0.13
0.00 0.00 0.00 0.00 0.00 0.00 0.01 0.02 0.05 0.08 0.17 0.45 0.48 0.53 0.62 0.76 0.96 1.16 1.38 1.64 1.59 1.42 1.17 1.06 1.01 1.00 0.93 0.90 0.81 0.69 0.68 0.70 0.62 0.69 0.61 0.70 0.80 0.75 0.74 0.84 0.67 0.54 0.43 0.42 0.45 0.31 0.25 0.23 0.27
0.00 0.00 0.00 0.00 0.00 0.00 0.01 0.03 0.05 0.09 0.25 0.49 0.55 0.62 0.75 0.80 0.89 1.11 1.38 1.60 1.75 1.67 1.49 1.49 1.23 1.10 1.15 1.35 1.32 1.00 0.91 0.86 0.79 0.92 0.87 0.99 1.11 1.08 1.12 1.12 0.95 0.87 0.80 0.78 0.70 0.63 0.54 0.44 0.41
0.00 0.00 0.00 0.00 0.00 0.00 0.01 0.06 0.07 0.08 0.12 0.27 0.38 0.52 0.72 0.69 0.81 0.98 1.37 1.86 2.13 2.11 1.94 1.84 1.61 1.40 1.39 1.66 1.65 1.22 1.10 1.18 1.34 1.42 1.23 1.23 1.21 1.21 1.30 1.26 1.21 1.15 1.20 1.14 0.98 0.84 0.87 0.83 0.70
0.00 0.00 0.00 0.00 0.00 0.00 0.01 0.03 0.04 0.07 0.10 0.19 0.29 0.40 0.66 0.83 1.07 1.33 1.60 2.06 2.36 2.42 2.26 2.14 1.94 1.83 1.76 1.80 1.77 1.74 1.53 1.56 1.71 1.74 1.60 1.45 1.47 1.60 1.62 1.63 1.57 1.44 1.46 1.42 1.29 1.19 1.18 1.08 1.01
0.00 0.00 0.00 0.00 0.00 0.01 0.01 0.03 0.06 0.06 0.11 0.17 0.24 0.36 0.55 0.79 1.07 1.35 1.78 2.05 2.13 2.12 2.05 2.10 1.99 2.02 2.04 1.97 1.90 1.97 2.04 2.08 2.17 2.11 1.93 1.75 1.74 2.02 1.99 1.97 1.84 1.73 1.71 1.76 1.67 1.55 1.48 1.29 1.16
0.00 0.00 0.00 0.00 0.00 0.00 0.01 0.07 0.16 0.12 0.12 0.12 0.20 0.32 0.39 0.56 0.85 1.14 1.45 1.68 1.80 2.15 2.22 2.24 2.23 2.17 2.17 2.24 2.24 2.23 2.26 2.51 2.60 2.59 2.52 2.26 2.13 2.25 2.32 2.33 2.20 2.04 1.94 2.05 2.10 1.97 1.83 1.67 1.58
0.00 0.01 0.01 0.01 0.01 0.01 0.01 0.07 0.15 0.15 0.15 0.18 0.30 0.42 0.41 0.52 0.76 1.03 1.33 1.60 1.83 2.03 2.30 2.30 2.27 2.37 2.38 2.46 2.42 2.55 2.69 2.75 2.77 2.80 2.84 2.75 2.63 2.68 2.69 2.62 2.59 2.51 2.50 2.48 2.30 2.27 2.11 2.09 2.00
0.01 0.01 0.01 0.01 0.01 0.02 0.03 0.09 0.16 0.18 0.16 0.28 0.42 0.47 0.51 0.57 0.64 0.82 1.15 1.68 1.97 2.02 2.08 2.27 2.36 2.49 2.54 2.75 2.81 2.89 2.97 3.07 3.24 3.46 3.55 3.33 3.25 3.16 3.22 3.15 3.04 2.97 2.91 2.73 2.64 2.57 2.38 2.22 2.10
0.01 0.01 0.01 0.02 0.02 0.02 0.05 0.10 0.16 0.21 0.23 0.32 0.40 0.41 0.38 0.49 0.63 0.82 1.15 1.63 2.19 2.21 2.15 2.33 2.58 2.70 2.82 3.10 3.21 3.36 3.65 3.81 3.94 4.07 4.01 3.94 3.79 3.81 3.78 3.63 3.37 3.21 3.18 3.06 2.97 2.77 2.58 2.34 2.15
0.00 0.00 0.01 0.04 0.04 0.04 0.08 0.15 0.21 0.25 0.27 0.35 0.43 0.48 0.49 0.57 0.80 1.05 1.35 1.88 2.36 2.56 2.63 2.66 2.89 3.18 3.43 3.65 3.98 4.31 4.62 4.83 4.94 4.98 4.55 4.32 4.20 4.13 4.06 4.03 3.94 3.69 3.50 3.28 3.03 2.90 2.74 2.39 2.16
0.01 0.01 0.02 0.06 0.05 0.06 0.13 0.29 0.38 0.38 0.38 0.49 0.66 0.75 0.85 0.92 1.14 1.32 1.56 1.98 2.36 2.55 2.69 2.81 3.04 3.49 3.99 4.36 4.76 5.19 5.44 5.50 5.28 5.01 4.90 4.73 4.57 4.45 4.28 4.10 3.85 3.65 3.50 3.35 3.13 2.90 2.75 2.48 2.24
0.01 0.01 0.01 0.02 0.04 0.09 0.14 0.35 0.64 0.61 0.59 0.71 0.85 0.81 0.87 1.07 1.30 1.52 1.76 2.02 2.34 2.52 2.64 2.94 3.45 4.07 4.61 5.05 5.56 6.09 6.26 6.09 5.78 5.35 4.98 4.71 4.44 4.10 3.83 3.67 3.55 3.36 3.06 2.82 2.69 2.56 2.33 2.15 2.03
0.01 0.01 0.01 0.02 0.02 0.07 0.11 0.29 0.77 0.89 0.88 0.98 1.13 0.99 0.92 0.94 1.08 1.35 1.59 1.79 2.09 2.24 2.48 2.87 3.47 4.17 4.87 5.65 6.30 6.71 6.66 6.35 5.96 5.32 4.74 4.23 3.84 3.53 3.26 3.11 2.91 2.67 2.33 1.99 1.89 1.93 1.94 1.87 1.78
0.01 0.01 0.01 0.02 0.03 0.08 0.11 0.28 0.80 1.16 1.29 1.36 1.21 1.01 0.88 0.87 0.88 0.93 1.07 1.29 1.53 1.87 2.22 2.63 3.24 3.97 4.65 5.30 5.81 5.95 5.89 5.74 5.28 4.61 4.03 3.65 3.32 2.97 2.57 2.26 1.96 1.74 1.59 1.40 1.34 1.35 1.42 1.56 1.60
0.01 0.02 0.10 0.15 0.19 0.18 0.14 0.33 0.81 1.16 1.34 1.25 1.05 0.93 0.79 0.73 0.72 0.71 0.76 0.96 1.25 1.50 1.86 2.30 2.74 3.32 3.78 4.17 4.57 4.69 4.70 4.56 4.32 3.90 3.50 3.11 2.64 2.27 1.94 1.63 1.44 1.31 1.23 1.16 1.09 1.05 1.07 1.17 1.29
0.02 0.02 0.15 0.28 0.27 0.30 0.34 0.61 1.05 1.13 1.15 1.06 0.91 0.81 0.70 0.65 0.66 0.71 0.79 0.91 1.14 1.36 1.60 1.80 2.09 2.45 2.61 2.68 2.90 3.09 3.10 3.12 3.06 2.83 2.60 2.35 2.01 1.67 1.39 1.16 0.99 0.89 0.88 0.87 0.86 0.87 0.90 0.94 1.01
0.02 0.03 0.07 0.12 0.14 0.32 0.60 0.90 1.32 1.16 1.01 0.97 0.96 0.79 0.68 0.65 0.65 0.69 0.74 0.79 0.89 1.03 1.13 1.22 1.35 1.53 1.60 1.68 1.72 1.81 1.88 1.90 1.85 1.75 1.59 1.42 1.25 1.05 0.90 0.76 0.68 0.64 0.62 0.61 0.59 0.61 0.67 0.75 0.81
0.05 0.06 0.08 0.14 0.29 0.49 0.72 1.10 1.64 1.70 1.33 1.06 0.89 0.71 0.59 0.59 0.61 0.63 0.65 0.67 0.72 0.75 0.82 0.87 0.91 1.01 1.10 1.17 1.17 1.19 1.21 1.18 1.09 1.02 0.98 0.89 0.79 0.70 0.63 0.54 0.48 0.45 0.43 0.40 0.39 0.41 0.43 0.48 0.57
0.09 0.10 0.13 0.18 0.22 0.47 0.83 1.44 1.71 1.95 1.83 1.35 1.00 0.84 0.73 0.65 0.61 0.64 0.65 0.57 0.55 0.56 0.60 0.65 0.70 0.74 0.79 0.82 0.85 0.87 0.84 0.80 0.77 0.73 0.69 0.64 0.54 0.46 0.41 0.35 0.33 0.31 0.30 0.30 0.32 0.36 0.41 0.43 0.45
0.10 0.13 0.19 0.38 0.40 0.41 0.81 1.65 1.81 2.07 2.09 1.73 1.39 1.20 1.11 0.87 0.75 0.73 0.69 0.59 0.54 0.55 0.54 0.56 0.58 0.61 0.66 0.62 0.62 0.67 0.62 0.56 0.54 0.52 0.45 0.41 0.40 0.35 0.29 0.25 0.25 0.25 0.26 0.25 0.26 0.29 0.34 0.40 0.40

GEFSSGP_prec_meanprecacc_144.txt.gz
Total_Precipitation_Accumulation
0.00 0.00 0.00 0.00 0.00 0.00 0.01 0.03 0.06 0.14 0.21 0.20 0.23 0.28 0.30 0.40 0.50 1.01 0.64 0.24 0.13 0.06 0.03 0.03 0.03 0.05 0.07 0.07 0.09 0.11 0.12 0.12 0.12 0.11 0.10 0.09 0.09 0.09 0.09 0.09 0.12 0.16 0.20 0.18 0.17 0.17 0.16 0.13 0.10
0.00 0.00 0.00 0.00 0.00 0.00 0.01 0.03 0.07 0.13 0.18 0.17 0.20 0.25 0.24 0.26 0.24 0.21 0.28 0.20 0.13 0.08 0.05 0.03 0.03 0.04 0.05 0.06 0.08 0.12 0.13 0.13 0.11 0.10 0.09 0.09 0.09 0.10 0.10 0.12 0.17 0.24 0.29 0.29 0.24 0.20 0.17 0.15 0.10
0.00 0.00 0.00 0.00 0.00 0.00 0.03 0.05 0.08 0.11 0.14 0.21 0.23 0.34 0.33 0.24 0.23 0.20 0.23 0.17 0.14 0.10 0.07 0.04 0.04 0.04 0.04 0.05 0.07 0.12 0.13 0.12 0.10 0.11 0.11 0.10 0.11 0.12 0.15 0.18 0.22 0.28 0.30 0.29 0.26 0.23 0.21 0.15 0.10
0.00 0.00 0.00 0.00 0.00 0.00 0.02 0.07 0.11 0.12 0.13 0.17 0.18 0.35 0.38 0.28 0.30 0.28 0.24 0.21 0.17 0.13 0.10 0.07 0.07 0.07 0.06 0.06 0.07 0.10 0.13 0.14 0.15 0.16 0.16 0.15 0.15 0.15 0.20 0.27 0.31 0.29 0.29 0.30 0.31 0.30 0.24 0.16 0.10
0.00 0.00 0.00 0.00 0.00 0.00 0.02 0.05 0.09 0.11 0.12 0.13 0.20 0.35 0.50 0.47 0.46 0.45 0.38 0.33 0.26 0.19 0.15 0.13 0.12 0.11 0.10 0.09 0.09 0.12 0.17 0.20 0.25 0.28 0.25 0.21 0.19 0.20 0.25 0.32 0.35 0.33 0.37 0.36 0.33 0.27 0.20 0.13 0.11
0.00 0.00 0.00 0.00 0.00 0.01 0.03 0.06 0.06 0.09 0.12 0.15 0.27 0.50 0.83 0.91 0.88 0.80 0.72 0.48 0.37 0.26 0.26 0.21 0.17 0.16 0.15 0.15 0.15 0.19 0.25 0.30 0.34 0.34 0.28 0.24 0.22 0.23 0.27 0.30 0.30 0.32 0.33 0.27 0.19 0.15 0.12 0.11 0.12
0.00 0.00 0.00 0.00 0.01 0.01 0.03 0.06 0.07 0.09 0.15 0.22 0.38 0.58 0.85 1.07 1.15 1.11 0.99 0.73 0.62 0.48 0.50 0.39 0.26 0.23 0.21 0.25 0.27 0.25 0.25 0.28 0.32 0.34 0.27 0.22 0.21 0.20 0.22 0.22 0.23 0.24 0.20 0.16 0.13 0.10 0.09 0.09 0.09
0.00 0.00 0.00 0.00 0.01 0.02 0.03 0.06 0.10 0.16 0.21 0.26 0.47 0.70 1.06 1.13 0.99 1.09 1.02 0.89 0.93 0.92 0.85 0.50 0.30 0.28 0.28 0.29 0.34 0.34 0.31 0.31 0.30 0.28 0.26 0.21 0.19 0.20 0.21 0.19 0.21 0.22 0.20 0.17 0.14 0.10 0.09 0.08 0.08
0.00 0.00 0.00 0.00 0.01 0.03 0.04 0.05 0.09 0.11 0.15 0.30 0.50 0.66 0.87 0.92 0.89 1.10 1.11 1.19 1.22 1.08 0.90 0.69 0.44 0.34 0.34 0.35 0.33 0.35 0.35 0.35 0.34 0.31 0.28 0.25 0.25 0.28 0.29 0.26 0.27 0.25 0.24 0.19 0.17 0.14 0.11 0.10 0.10
0.00 0.00 0.00 0.00 0.01 0.02 0.03 0.05 0.07 0.09 0.12 0.25 0.42 0.64 0.83 0.85 1.01 1.15 1.24 1.47 1.33 1.19 1.03 0.92 0.75 0.59 0.54 0.46 0.49 0.47 0.45 0.45 0.40 0.46 0.41 0.44 0.59 0.65 0.58 0.63 0.52 0.41 0.32 0.27 0.26 0.21 0.16 0.14 0.15
0.00 0.00 0.00 0.00 0.00 0.01 0.02 0.04 0.08 0.16 0.28 0.55 0.67 0.75 0.74 0.82 1.00 1.20 1.42 1.67 1.64 1.47 1.23 1.14 1.12 1.11 1.04 0.98 0.86 0.71 0.70 0.72 0.66 0.74 0.68 0.76 0.88 0.85 0.86 0.95 0.77 0.62 0.51 0.48 0.49 0.36 0.28 0.27 0.31
0.00 0.00 0.00 0.00 0.01 0.01 0.02 0.05 0.13 0.27 0.42 0.59 0.64 0.70 0.82 0.88 0.95 1.16 1.42 1.65 1.80 1.74 1.56 1.58 1.40 1.32 1.37 1.51 1.41 1.07 0.96 0.91 0.84 1.00 0.99 1.09 1.25 1.28 1.32 1.31 1.09 0.98 0.89 0.86 0.75 0.68 0.58 0.49 0.46
0.00 0.00 0.00 0.00 0.01 0.02 0.03 0.09 0.14 0.17 0.18 0.31 0.42 0.57 0.80 0.80 0.91 1.05 1.42 1.91 2.17 2.15 1.98 1.90 1.77 1.66 1.72 1.90 1.82 1.35 1.24 1.34 1.52 1.62 1.43 1.39 1.39 1.47 1.59 1.52 1.40 1.31 1.34 1.24 1.06 0.91 0.94 0.91 0.76
0.00 0.00 0.00 0.00 0.01 0.02 0.05 0.08 0.11 0.14 0.18 0.26 0.35 0.46 0.73 0.97 1.22 1.42 1.66 2.10 2.39 2.44 2.29 2.19 2.03 2.00 2.00 2.07 1.98 1.93 1.72 1.76 1.91 1.97 1.86 1.70 1.69 1.83 1.93 1.91 1.76 1.59 1.62 1.54 1.41 1.27 1.26 1.16 1.10
0.00 0.00 0.00 0.01 0.01 0.01 0.04 0.11 0.17 0.13 0.17 0.25 0.33 0.45 0.67 0.91 1.18 1.43 1.85 2.10 2.16 2.15 2.10 2.16 2.08 2.12 2.16 2.21 2.13 2.24 2.27 2.30 2.37 2.40 2.19 1.97 1.94 2.22 2.20 2.19 2.01 1.86 1.85 1.89 1.79 1.67 1.57 1.36 1.25
0.00 0.00 0.01 0.01 0.01 0.01 0.02 0.13 0.28 0.18 0.16 0.16 0.25 0.40 0.54 0.68 0.95 1.26 1.58 1.77 1.86 2.19 2.27 2.29 2.30 2.23 2.25 2.38 2.42 2.46 2.48 2.76 2.79 2.81 2.71 2.42 2.27 2.39 2.48 2.47 2.34 2.17 2.06 2.18 2.25 2.11 1.97 1.78 1.67
0.00 0.01 0.01 0.02 0.02 0.02 0.04 0.12 0.21 0.19 0.18 0.22 0.37 0.54 0.55 0.66 0.92 1.28 1.60 1.75 1.91 2.09 2.35 2.35 2.34 2.43 2.44 2.55 2.53 2.71 2.90 2.99 2.94 2.93 2.97 2.87 2.74 2.79 2.79 2.72 2.71 2.66 2.64 2.62 2.45 2.40 2.24 2.20 2.09
0.01 0.01 0.01 0.02 0.02 0.03 0.07 0.15 0.25 0.26 0.22 0.32 0.49 0.59 0.65 0.71 0.82 1.06 1.45 1.86 2.07 2.10 2.13 2.31 2.40 2.52 2.58 2.81 2.88 2.97 3.10 3.26 3.41 3.59 3.65 3.43 3.36 3.28 3.34 3.26 3.18 3.14 3.07 2.88 2.80 2.72 2.50 2.31 2.18
0.01 0.01 0.02 0.02 0.03 0.06 0.12 0.14 0.25 0.35 0.38 0.42 0.46 0.48 0.47 0.63 0.81 1.04 1.39 1.75 2.25 2.28 2.21 2.37 2.61 2.73 2.85 3.14 3.26 3.43 3.74 3.95 4.11 4.20 4.10 4.01 3.88 3.94 3.92 3.76 3.51 3.34 3.33 3.20 3.09 2.88 2.68 2.42 2.23
0.01 0.02 0.03 0.06 0.06 0.10 0.17 0.22 0.29 0.39 0.44 0.44 0.51 0.58 0.61 0.76 1.03 1.23 1.45 1.92 2.39 2.59 2.66 2.70 2.93 3.21 3.48 3.70 4.04 4.36 4.67 4.89 5.04 5.07 4.62 4.38 4.26 4.21 4.18 4.18 4.06 3.78 3.59 3.36 3.11 2.97 2.81 2.46 2.23
0.02 0.02 0.05 0.08 0.06 0.09 0.17 0.35 0.46 0.47 0.48 0.58 0.76 0.88 0.97 1.04 1.27 1.38 1.59 2.00 2.38 2.57 2.72 2.86 3.11 3.55 4.10 4.43 4.81 5.24 5.47 5.54 5.34 5.08 4.95 4.77 4.61 4.49 4.35 4.20 3.95 3.73 3.58 3.42 3.19 2.95 2.80 2.53 2.29
0.01 0.01 0.03 0.04 0.05 0.11 0.17 0.40 0.69 0.72 0.73 0.90 1.04 0.95 0.99 1.16 1.37 1.56 1.78 2.04 2.36 2.54 2.66 2.98 3.50 4.13 4.67 5.10 5.61 6.13 6.29 6.12 5.81 5.40 5.01 4.74 4.47 4.14 3.87 3.73 3.62 3.44 3.14 2.89 2.75 2.60 2.37 2.19 2.06
0.01 0.01 0.02 0.03 0.02 0.08 0.13 0.32 0.83 0.99 1.00 1.19 1.39 1.14 1.05 1.04 1.15 1.39 1.61 1.81 2.12 2.27 2.50 2.90 3.51 4.22 4.92 5.69 6.33 6.74 6.69 6.37 5.98 5.34 4.76 4.25 3.87 3.56 3.29 3.14 2.94 2.71 2.38 2.04 1.94 1.97 1.98 1.90 1.81
0.01 0.01 0.02 0.02 0.03 0.09 0.12 0.30 0.86 1.24 1.39 1.50 1.38 1.16 1.03 0.98 0.95 0.97 1.10 1.32 1.56 1.89 2.24 2.67 3.29 4.02 4.69 5.33 5.84 5.99 5.93 5.77 5.30 4.62 4.04 3.67 3.34 3.00 2.63 2.31 2.01 1.78 1.62 1.43 1.37 1.38 1.44 1.58 1.61
0.01 0.02 0.10 0.16 0.20 0.19 0.16 0.37 0.89 1.25 1.43 1.34 1.18 1.09 0.96 0.85 0.79 0.77 0.79 0.99 1.26 1.52 1.88 2.32 2.77 3.36 3.82 4.21 4.61 4.74 4.75 4.60 4.34 3.91 3.51 3.13 2.65 2.30 2.02 1.75 1.56 1.38 1.28 1.20 1.12 1.07 1.08 1.18 1.30
0.02 0.03 0.15 0.29 0.29 0.32 0.37 0.67 1.14 1.23 1.27 1.19 1.09 1.02 0.86 0.76 0.73 0.76 0.82 0.94 1.16 1.38 1.62 1.82 2.11 2.47 2.63 2.70 2.91 3.11 3.13 3.15 3.08 2.84 2.61 2.36 2.02 1.69 1.43 1.21 1.06 0.97 0.95 0.91 0.88 0.88 0.90 0.94 1.02
0.02 0.03 0.07 0.13 0.16 0.36 0.66 1.02 1.49 1.40 1.29 1.24 1.23 1.05 0.86 0.75 0.73 0.75 0.78 0.83 0.92 1.06 1.14 1.23 1.36 1.53 1.61 1.69 1.73 1.81 1.89 1.92 1.88 1.78 1.61 1.44 1.28 1.08 0.93 0.80 0.73 0.68 0.66 0.64 0.61 0.62 0.68 0.75 0.81
0.05 0.06 0.09 0.16 0.34 0.56 0.81 1.25 1.82 1.91 1.59 1.29 1.10 0.91 0.76 0.72 0.72 0.72 0.71 0.72 0.75 0.78 0.83 0.88 0.92 1.01 1.11 1.17 1.17 1.19 1.22 1.19 1.11 1.04 1.00 0.91 0.81 0.73 0.65 0.56 0.50 0.47 0.44 0.41 0.40 0.41 0.44 0.49 0.57
0.09 0.11 0.14 0.20 0.25 0.53 0.91 1.55 1.83 2.07 1.99 1.49 1.12 1.00 0.91 0.80 0.73 0.73 0.71 0.62 0.59 0.60 0.62 0.68 0.72 0.76 0.79 0.83 0.86 0.87 0.85 0.81 0.78 0.74 0.70 0.65 0.56 0.47 0.41 0.36 0.33 0.32 0.31 0.31 0.33 0.37 0.41 0.44 0.46
0.11 0.14 0.20 0.40 0.43 0.44 0.87 1.74 1.89 2.16 2.21 1.83 1.49 1.39 1.31 1.02 0.86 0.82 0.75 0.63 0.57 0.58 0.57 0.59 0.60 0.63 0.67 0.63 0.63 0.67 0.62 0.56 0.54 0.52 0.46 0.42 0.40 0.35 0.30 0.26 0.25 0.26 0.27 0.26 0.27 0.29 0.35 0.40 0.40

GEFSSGP_prec_meanprecacc_150.txt.gz
Total_Precipitation_Accumulation
0.00 0.00 0.00 0.00 0.00 0.00 0.01 0.03 0.07 0.17 0.24 0.22 0.26 0.30 0.32 0.40 0.50 1.01 0.65 0.25 0.13 0.07 0.04 0.03 0.03 0.05 0.07 0.08 0.10 0.11 0.12 0.12 0.12 0.11 0.10 0.09 0.09 0.09 0.09 0.10 0.13 0.17 0.20 0.19 0.17 0.17 0.17 0.14 0.11
0.00 0.00 0.00 0.00 0.00 0.00 0.01 0.04 0.08 0.15 0.19 0.18 0.21 0.27 0.25 0.26 0.24 0.21 0.30 0.20 0.14 0.09 0.06 0.03 0.03 0.04 0.06 0.07 0.08 0.12 0.14 0.13 0.12 0.10 0.10 0.09 0.09 0.10 0.11 0.13 0.18 0.25 0.30 0.30 0.25 0.21 0.18 0.15 0.11
0.00 0.00 0.00 0.00 0.00 0.00 0.04 0.07 0.10 0.14 0.16 0.21 0.24 0.34 0.34 0.25 0.24 0.21 0.25 0.18 0.15 0.11 0.08 0.05 0.04 0.05 0.04 0.05 0.08 0.12 0.14 0.13 0.14 0.15 0.13 0.10 0.11 0.12 0.15 0.19 0.23 0.28 0.31 0.30 0.26 0.24 0.22 0.16 0.11
0.00 0.00 0.00 0.00 0.00 0.00 0.03 0.09 0.13 0.16 0.16 0.18 0.19 0.35 0.39 0.28 0.31 0.30 0.26 0.23 0.18 0.14 0.10 0.07 0.07 0.08 0.06 0.06 0.07 0.11 0.14 0.15 0.16 0.18 0.17 0.15 0.15 0.16 0.20 0.28 0.31 0.30 0.30 0.30 0.31 0.30 0.24 0.17 0.12
0.00 0.00 0.00 0.00 0.00 0.00 0.03 0.07 0.11 0.14 0.14 0.15 0.21 0.36 0.52 0.48 0.47 0.47 0.41 0.34 0.28 0.21 0.16 0.13 0.12 0.12 0.11 0.10 0.10 0.13 0.18 0.21 0.26 0.29 0.26 0.21 0.20 0.21 0.26 0.33 0.35 0.34 0.37 0.36 0.34 0.27 0.20 0.13 0.12
0.00 0.00 0.00 0.00 0.00 0.01 0.04 0.08 0.09 0.12 0.13 0.16 0.28 0.51 0.85 0.93 0.90 0.82 0.75 0.50 0.38 0.26 0.27 0.22 0.18 0.17 0.17 0.16 0.16 0.20 0.27 0.31 0.34 0.34 0.28 0.24 0.23 0.24 0.28 0.30 0.31 0.33 0.34 0.28 0.20 0.16 0.12 0.12 0.13
0.00 0.00 0.00 0.00 0.01 0.02 0.05 0.09 0.11 0.13 0.17 0.23 0.40 0.60 0.87 1.10 1.17 1.13 1.01 0.76 0.63 0.49 0.51 0.41 0.28 0.25 0.24 0.27 0.30 0.27 0.27 0.29 0.33 0.36 0.29 0.23 0.22 0.22 0.23 0.23 0.25 0.25 0.20 0.16 0.14 0.11 0.10 0.10 0.10
0.00 0.00 0.00 0.00 0.01 0.03 0.06 0.09 0.13 0.19 0.24 0.29 0.49 0.72 1.08 1.16 1.03 1.17 1.14 0.99 0.97 0.93 0.87 0.53 0.32 0.30 0.30 0.30 0.35 0.35 0.32 0.33 0.32 0.30 0.29 0.23 0.21 0.21 0.22 0.21 0.22 0.23 0.21 0.18 0.15 0.11 0.11 0.10 0.09
0.00 0.00 0.00 0.00 0.01 0.03 0.05 0.07 0.11 0.13 0.17 0.31 0.52 0.67 0.89 0.96 0.95 1.19 1.24 1.31 1.27 1.09 0.91 0.72 0.49 0.37 0.36 0.36 0.34 0.36 0.36 0.37 0.37 0.34 0.32 0.27 0.27 0.29 0.30 0.28 0.29 0.27 0.25 0.21 0.20 0.16 0.14 0.12 0.13
0.00 0.00 0.00 0.00 0.01 0.03 0.04 0.07 0.09 0.10 0.12 0.28 0.46 0.66 0.85 0.90 1.07 1.22 1.32 1.57 1.42 1.26 1.08 0.98 0.82 0.67 0.59 0.48 0.50 0.48 0.46 0.46 0.41 0.48 0.43 0.47 0.61 0.67 0.60 0.65 0.54 0.43 0.34 0.29 0.29 0.25 0.20 0.17 0.16
0.00 0.00 0.00 0.00 0.01 0.02 0.03 0.06 0.09 0.17 0.29 0.57 0.70 0.76 0.75 0.84 1.04 1.28 1.53 1.81 1.74 1.52 1.26 1.18 1.17 1.18 1.09 1.03 0.88 0.73 0.72 0.74 0.67 0.76 0.70 0.79 0.91 0.88 0.89 0.98 0.79 0.65 0.54 0.51 0.54 0.41 0.31 0.29 0.33
0.00 0.00 0.00 0.01 0.01 0.02 0.03 0.06 0.14 0.28 0.42 0.60 0.65 0.71 0.83 0.91 1.02 1.26 1.55 1.75 1.88 1.79 1.60 1.62 1.43 1.36 1.42 1.56 1.45 1.10 1.01 0.97 0.89 1.04 1.02 1.13 1.29 1.32 1.37 1.37 1.14 1.03 0.95 0.92 0.80 0.72 0.62 0.53 0.50
0.00 0.00 0.00 0.01 0.02 0.03 0.05 0.12 0.16 0.18 0.18 0.31 0.43 0.58 0.81 0.82 0.94 1.12 1.49 1.96 2.21 2.19 2.02 1.93 1.80 1.70 1.75 1.94 1.86 1.41 1.32 1.42 1.59 1.69 1.51 1.47 1.46 1.54 1.67 1.60 1.48 1.40 1.43 1.32 1.13 0.97 0.99 0.97 0.82
0.00 0.01 0.01 0.02 0.02 0.04 0.07 0.10 0.13 0.15 0.19 0.27 0.35 0.47 0.74 0.99 1.25 1.45 1.71 2.15 2.45 2.50 2.34 2.23 2.07 2.04 2.03 2.10 2.03 1.99 1.80 1.83 1.98 2.05 1.95 1.80 1.78 1.93 2.04 2.02 1.86 1.69 1.72 1.63 1.48 1.34 1.34 1.24 1.17
0.01 0.01 0.02 0.03 0.02 0.03 0.05 0.13 0.20 0.15 0.18 0.27 0.34 0.47 0.69 0.94 1.21 1.48 1.91 2.18 2.26 2.23 2.16 2.22 2.14 2.18 2.22 2.26 2.17 2.28 2.33 2.37 2.46 2.48 2.28 2.06 2.03 2.31 2.30 2.30 2.12 1.97 1.97 2.00 1.91 1.77 1.68 1.46 1.33
0.01 0.01 0.02 0.03 0.03 0.03 0.04 0.15 0.29 0.20 0.17 0.18 0.27 0.42 0.56 0.70 0.99 1.32 1.68 1.91 1.97 2.28 2.37 2.39 2.38 2.31 2.31 2.42 2.46 2.51 2.54 2.82 2.87 2.88 2.78 2.50 2.34 2.47 2.57 2.54 2.41 2.25 2.13 2.27 2.36 2.23 2.09 1.88 1.77
0.01 0.01 0.02 0.04 0.04 0.03 0.05 0.13 0.23 0.22 0.21 0.26 0.41 0.58 0.58 0.69 0.97 1.36 1.71 1.91 2.05 2.22 2.50 2.49 2.45 2.53 2.51 2.60 2.57 2.75 2.95 3.04 2.99 2.99 3.03 2.95 2.82 2.87 2.87 2.79 2.76 2.71 2.69 2.68 2.53 2.51 2.35 2.32 2.19
0.01 0.01 0.02 0.04 0.04 0.04 0.08 0.16 0.26 0.29 0.32 0.47 0.57 0.63 0.68 0.75 0.87 1.13 1.54 1.98 2.20 2.23 2.25 2.45 2.51 2.61 2.64 2.86 2.91 2.99 3.14 3.30 3.46 3.66 3.73 3.52 3.44 3.34 3.40 3.32 3.24 3.19 3.12 2.95 2.88 2.82 2.61 2.44 2.31
0.01 0.02 0.02 0.03 0.05 0.08 0.13 0.16 0.27 0.39 0.49 0.52 0.50 0.51 0.52 0.71 0.88 1.11 1.45 1.81 2.33 2.39 2.33 2.46 2.67 2.79 2.89 3.18 3.29 3.45 3.77 3.99 4.17 4.27 4.19 4.11 3.95 4.00 3.98 3.82 3.56 3.40 3.39 3.29 3.20 3.00 2.82 2.57 2.36
0.02 0.03 0.04 0.07 0.08 0.12 0.19 0.24 0.32 0.42 0.49 0.49 0.54 0.63 0.68 0.85 1.11 1.30 1.51 1.98 2.44 2.65 2.72 2.76 2.98 3.26 3.52 3.74 4.08 4.41 4.71 4.94 5.10 5.14 4.70 4.46 4.32 4.26 4.23 4.23 4.12 3.86 3.67 3.45 3.21 3.08 2.94 2.59 2.36
0.02 0.03 0.06 0.09 0.08 0.11 0.20 0.38 0.49 0.51 0.52 0.62 0.81 0.94 1.04 1.12 1.35 1.45 1.65 2.04 2.41 2.61 2.76 2.89 3.15 3.58 4.12 4.46 4.87 5.31 5.51 5.57 5.38 5.13 5.00 4.83 4.68 4.57 4.42 4.26 4.01 3.79 3.63 3.50 3.27 3.04 2.91 2.63 2.39
0.01 0.01 0.04 0.05 0.06 0.12 0.19 0.42 0.72 0.76 0.78 0.97 1.11 1.02 1.07 1.24 1.45 1.63 1.83 2.08 2.40 2.58 2.70 3.02 3.54 4.15 4.70 5.14 5.69 6.20 6.33 6.15 5.86 5.44 5.04 4.77 4.50 4.20 3.94 3.78 3.67 3.47 3.17 2.95 2.82 2.67 2.46 2.29 2.14
0.01 0.01 0.02 0.03 0.03 0.09 0.14 0.33 0.84 1.02 1.04 1.24 1.46 1.21 1.13 1.13 1.24 1.46 1.67 1.86 2.16 2.31 2.54 2.93 3.54 4.25 4.96 5.75 6.40 6.79 6.72 6.40 6.01 5.38 4.80 4.28 3.90 3.59 3.33 3.18 2.98 2.74 2.40 2.07 1.97 2.02 2.04 1.97 1.87
0.01 0.01 0.02 0.03 0.04 0.09 0.12 0.31 0.87 1.26 1.41 1.55 1.45 1.24 1.11 1.07 1.05 1.07 1.17 1.38 1.60 1.92 2.27 2.70 3.32 4.06 4.73 5.37 5.88 6.04 5.96 5.79 5.32 4.64 4.06 3.69 3.35 3.01 2.64 2.33 2.03 1.81 1.65 1.46 1.39 1.41 1.48 1.63 1.67
0.01 0.03 0.11 0.16 0.20 0.19 0.16 0.38 0.90 1.26 1.45 1.37 1.25 1.20 1.05 0.97 0.93 0.88 0.88 1.07 1.34 1.56 1.91 2.36 2.81 3.39 3.85 4.24 4.65 4.79 4.80 4.64 4.37 3.93 3.52 3.14 2.66 2.31 2.03 1.76 1.58 1.42 1.32 1.24 1.15 1.11 1.12 1.21 1.33
0.02 0.03 0.15 0.29 0.29 0.33 0.38 0.68 1.15 1.24 1.29 1.22 1.13 1.08 0.97 0.92 0.90 0.90 0.95 1.06 1.25 1.45 1.67 1.87 2.15 2.51 2.66 2.72 2.94 3.15 3.19 3.19 3.11 2.86 2.62 2.36 2.03 1.70 1.44 1.22 1.08 1.00 0.99 0.96 0.94 0.93 0.94 0.97 1.04
0.02 0.03 0.07 0.13 0.16 0.36 0.66 1.03 1.49 1.41 1.31 1.27 1.26 1.09 0.95 0.87 0.85 0.88 0.91 0.94 1.00 1.12 1.20 1.28 1.40 1.56 1.63 1.70 1.74 1.83 1.91 1.94 1.90 1.79 1.62 1.45 1.29 1.09 0.94 0.81 0.74 0.69 0.68 0.69 0.68 0.68 0.72 0.78 0.83
0.05 0.07 0.09 0.16 0.34 0.56 0.81 1.25 1.83 1.93 1.60 1.31 1.12 0.93 0.79 0.77 0.79 0.81 0.81 0.82 0.84 0.84 0.88 0.92 0.96 1.05 1.14 1.20 1.19 1.21 1.23 1.20 1.12 1.05 1.01 0.93 0.83 0.75 0.67 0.58 0.52 0.48 0.45 0.44 0.44 0.46 0.48 0.52 0.59
0.09 0.11 0.15 0.20 0.25 0.53 0.91 1.56 1.83 2.07 2.01 1.51 1.15 1.03 0.93 0.84 0.78 0.80 0.80 0.71 0.68 0.68 0.70 0.75 0.78 0.80 0.83 0.87 0.89 0.90 0.86 0.82 0.79 0.75 0.71 0.66 0.59 0.51 0.44 0.37 0.34 0.33 0.31 0.31 0.35 0.40 0.44 0.46 0.47
0.11 0.14 0.21 0.40 0.43 0.44 0.87 1.74 1.89 2.17 2.22 1.85 1.51 1.41 1.34 1.05 0.90 0.87 0.80 0.69 0.63 0.63 0.62 0.63 0.65 0.67 0.71 0.66 0.66 0.69 0.64 0.57 0.55 0.53 0.47 0.43 0.41 0.37 0.32 0.28 0.26 0.27 0.28 0.27 0.28 0.30 0.36 0.42 0.41

GEFSSGP_prec_meanprecacc_156.txt.gz
Total_Precipitation_Accumulation
0.00 0.00 0.00 0.00 0.00 0.00 0.01 0.03 0.07 0.17 0.24 0.23 0.26 0.31 0.32 0.40 0.50 1.02 0.66 0.25 0.14 0.07 0.04 0.03 0.04 0.06 0.08 0.09 0.11 0.13 0.14 0.13 0.13 0.11 0.10 0.10 0.10 0.10 0.09 0.10 0.14 0.18 0.21 0.19 0.18 0.17 0.17 0.14 0.11
0.00 0.00 0.00 0.00 0.00 0.00 0.02 0.04 0.08 0.16 0.20 0.18 0.21 0.27 0.25 0.26 0.24 0.23 0.31 0.21 0.14 0.09 0.07 0.03 0.03 0.05 0.06 0.07 0.09 0.13 0.14 0.14 0.12 0.11 0.10 0.10 0.11 0.11 0.11 0.13 0.18 0.25 0.30 0.31 0.25 0.21 0.18 0.15 0.11
0.00 0.00 0.00 0.00 0.00 0.01 0.04 0.07 0.10 0.14 0.16 0.22 0.24 0.35 0.34 0.26 0.25 0.23 0.27 0.19 0.16 0.11 0.08 0.05 0.05 0.05 0.05 0.06 0.08 0.13 0.15 0.14 0.15 0.16 0.15 0.12 0.13 0.14 0.16 0.20 0.24 0.29 0.32 0.31 0.27 0.24 0.22 0.16 0.11
0.00 0.00 0.00 0.00 0.00 0.01 0.03 0.09 0.14 0.17 0.17 0.19 0.19 0.36 0.39 0.29 0.32 0.32 0.29 0.23 0.18 0.15 0.11 0.08 0.09 0.08 0.07 0.06 0.08 0.11 0.15 0.17 0.18 0.19 0.19 0.17 0.17 0.18 0.22 0.29 0.33 0.31 0.31 0.31 0.32 0.30 0.25 0.17 0.12
0.00 0.00 0.00 0.00 0.00 0.01 0.03 0.08 0.12 0.15 0.16 0.16 0.21 0.37 0.53 0.50 0.49 0.49 0.42 0.35 0.28 0.22 0.18 0.14 0.13 0.13 0.12 0.11 0.10 0.14 0.19 0.23 0.28 0.31 0.29 0.24 0.22 0.23 0.28 0.35 0.38 0.36 0.39 0.38 0.35 0.29 0.21 0.14 0.13
0.00 0.00 0.00 0.00 0.00 0.01 0.04 0.09 0.11 0.13 0.15 0.18 0.29 0.53 0.86 0.95 0.91 0.83 0.75 0.51 0.39 0.28 0.30 0.26 0.20 0.19 0.18 0.17 0.17 0.21 0.27 0.31 0.36 0.37 0.31 0.27 0.26 0.27 0.31 0.34 0.34 0.36 0.37 0.31 0.23 0.18 0.14 0.13 0.15
0.00 0.00 0.00 0.00 0.01 0.03 0.06 0.10 0.13 0.16 0.20 0.25 0.41 0.61 0.89 1.12 1.19 1.14 1.03 0.79 0.70 0.56 0.55 0.46 0.32 0.29 0.28 0.31 0.32 0.28 0.28 0.30 0.35 0.37 0.31 0.26 0.25 0.24 0.26 0.27 0.29 0.29 0.23 0.20 0.17 0.14 0.12 0.12 0.12
0.00 0.00 0.00 0.01 0.01 0.04 0.06 0.09 0.14 0.21 0.26 0.30 0.50 0.73 1.09 1.18 1.04 1.18 1.16 1.03 1.03 1.00 0.94 0.61 0.40 0.38 0.41 0.42 0.40 0.38 0.34 0.34 0.34 0.32 0.31 0.25 0.23 0.24 0.25 0.24 0.25 0.26 0.24 0.22 0.18 0.15 0.14 0.13 0.12
0.00 0.00 0.00 0.01 0.01 0.03 0.05 0.07 0.12 0.14 0.19 0.32 0.52 0.67 0.89 0.97 0.95 1.20 1.25 1.35 1.39 1.20 1.01 0.83 0.62 0.52 0.50 0.47 0.41 0.40 0.40 0.40 0.39 0.37 0.35 0.31 0.31 0.34 0.34 0.31 0.33 0.31 0.30 0.25 0.23 0.20 0.18 0.16 0.16
0.00 0.00 0.00 0.00 0.01 0.03 0.05 0.08 0.10 0.11 0.13 0.28 0.47 0.66 0.85 0.90 1.07 1.23 1.34 1.59 1.45 1.34 1.17 1.06 0.91 0.78 0.72 0.56 0.57 0.54 0.50 0.50 0.45 0.52 0.47 0.52 0.67 0.73 0.65 0.71 0.59 0.48 0.39 0.34 0.34 0.30 0.25 0.21 0.21
0.00 0.00 0.00 0.00 0.01 0.02 0.04 0.07 0.09 0.18 0.29 0.57 0.70 0.77 0.76 0.85 1.05 1.30 1.56 1.82 1.76 1.54 1.28 1.21 1.23 1.25 1.18 1.10 0.94 0.78 0.76 0.78 0.72 0.81 0.75 0.84 0.96 0.93 0.95 1.04 0.87 0.73 0.61 0.57 0.61 0.48 0.39 0.37 0.41
0.00 0.00 0.00 0.01 0.01 0.03 0.03 0.06 0.14 0.28 0.42 0.60 0.65 0.72 0.84 0.92 1.05 1.29 1.56 1.76 1.89 1.81 1.62 1.64 1.47 1.40 1.47 1.62 1.52 1.15 1.05 1.01 0.94 1.09 1.07 1.19 1.35 1.37 1.43 1.43 1.22 1.14 1.06 1.03 0.91 0.83 0.72 0.63 0.59
0.00 0.00 0.00 0.01 0.02 0.03 0.05 0.12 0.16 0.19 0.19 0.32 0.43 0.59 0.83 0.85 0.97 1.14 1.51 1.97 2.24 2.21 2.05 1.95 1.82 1.72 1.78 1.98 1.91 1.47 1.36 1.46 1.64 1.74 1.56 1.52 1.52 1.60 1.73 1.67 1.55 1.48 1.53 1.42 1.22 1.08 1.11 1.09 0.94
0.00 0.01 0.01 0.02 0.03 0.05 0.07 0.10 0.14 0.17 0.20 0.28 0.37 0.48 0.76 1.02 1.28 1.48 1.73 2.17 2.47 2.54 2.38 2.26 2.10 2.07 2.06 2.14 2.08 2.04 1.84 1.88 2.03 2.09 2.00 1.85 1.85 1.99 2.11 2.09 1.94 1.76 1.78 1.70 1.56 1.44 1.44 1.36 1.31
0.01 0.01 0.02 0.03 0.03 0.03 0.06 0.14 0.21 0.17 0.20 0.29 0.37 0.50 0.72 0.97 1.23 1.49 1.92 2.20 2.28 2.26 2.19 2.25 2.17 2.23 2.29 2.32 2.22 2.33 2.38 2.42 2.52 2.54 2.33 2.12 2.09 2.37 2.37 2.38 2.19 2.04 2.03 2.06 1.97 1.84 1.77 1.58 1.45
0.01 0.02 0.03 0.04 0.04 0.03 0.05 0.16 0.30 0.21 0.19 0.21 0.34 0.53 0.64 0.76 1.02 1.34 1.69 1.92 2.00 2.31 2.40 2.43 2.44 2.40 2.41 2.50 2.51 2.55 2.58 2.87 2.91 2.93 2.84 2.56 2.42 2.54 2.63 2.60 2.46 2.29 2.18 2.34 2.44 2.31 2.18 1.99 1.90
0.01 0.02 0.03 0.05 0.05 0.04 0.06 0.14 0.23 0.22 0.23 0.30 0.48 0.67 0.65 0.76 1.02 1.39 1.74 1.94 2.09 2.28 2.56 2.55 2.52 2.60 2.57 2.65 2.61 2.79 2.99 3.07 3.02 3.03 3.08 3.00 2.88 2.94 2.94 2.84 2.81 2.76 2.75 2.74 2.59 2.58 2.45 2.44 2.33
0.01 0.02 0.02 0.04 0.04 0.05 0.09 0.18 0.27 0.30 0.33 0.49 0.59 0.65 0.71 0.79 0.90 1.15 1.56 2.01 2.24 2.28 2.32 2.52 2.57 2.66 2.70 2.90 2.95 3.03 3.17 3.33 3.49 3.68 3.75 3.55 3.48 3.38 3.44 3.36 3.27 3.23 3.17 2.99 2.94 2.89 2.71 2.54 2.41
0.01 0.02 0.03 0.04 0.05 0.09 0.14 0.17 0.27 0.39 0.50 0.53 0.51 0.52 0.54 0.75 0.92 1.14 1.47 1.85 2.39 2.46 2.41 2.55 2.79 2.90 2.97 3.23 3.33 3.49 3.80 4.02 4.19 4.29 4.21 4.13 3.98 4.03 4.01 3.85 3.59 3.43 3.43 3.33 3.25 3.06 2.89 2.65 2.44
0.02 0.03 0.05 0.07 0.09 0.13 0.20 0.26 0.33 0.44 0.50 0.50 0.56 0.66 0.71 0.89 1.15 1.33 1.53 2.01 2.49 2.72 2.80 2.84 3.06 3.34 3.58 3.79 4.12 4.44 4.74 4.96 5.13 5.17 4.73 4.48 4.36 4.30 4.26 4.26 4.15 3.89 3.70 3.49 3.26 3.15 3.01 2.68 2.46
0.02 0.03 0.06 0.09 0.09 0.13 0.21 0.39 0.50 0.52 0.54 0.64 0.83 0.97 1.06 1.15 1.37 1.48 1.69 2.09 2.47 2.67 2.82 2.95 3.20 3.62 4.16 4.50 4.91 5.35 5.55 5.60 5.42 5.16 5.03 4.86 4.70 4.59 4.44 4.28 4.03 3.81 3.66 3.54 3.33 3.10 2.98 2.74 2.51
0.01 0.02 0.04 0.05 0.07 0.14 0.21 0.45 0.74 0.77 0.81 0.99 1.13 1.04 1.09 1.27 1.48 1.67 1.89 2.14 2.45 2.64 2.76 3.08 3.59 4.20 4.74 5.18 5.73 6.26 6.39 6.22 5.90 5.48 5.08 4.80 4.52 4.21 3.96 3.81 3.69 3.51 3.22 3.00 2.86 2.71 2.52 2.39 2.26
0.02 0.01 0.03 0.04 0.04 0.10 0.16 0.36 0.87 1.04 1.07 1.27 1.48 1.22 1.14 1.17 1.29 1.51 1.72 1.92 2.22 2.37 2.61 2.99 3.60 4.30 5.00 5.80 6.47 6.86 6.78 6.46 6.06 5.41 4.84 4.32 3.93 3.61 3.35 3.21 3.01 2.77 2.45 2.14 2.03 2.06 2.09 2.05 1.98
0.01 0.02 0.03 0.04 0.05 0.11 0.13 0.32 0.88 1.27 1.42 1.56 1.46 1.25 1.13 1.11 1.09 1.12 1.24 1.48 1.72 2.02 2.35 2.76 3.38 4.12 4.78 5.41 5.92 6.08 6.00 5.84 5.36 4.68 4.10 3.73 3.39 3.05 2.68 2.36 2.06 1.84 1.68 1.49 1.43 1.46 1.53 1.68 1.74
0.01 0.03 0.11 0.17 0.21 0.19 0.16 0.38 0.91 1.26 1.45 1.38 1.26 1.22 1.07 1.00 0.97 0.94 0.97 1.18 1.46 1.71 2.05 2.47 2.92 3.50 3.92 4.28 4.69 4.83 4.85 4.68 4.40 3.96 3.55 3.16 2.68 2.33 2.05 1.79 1.60 1.45 1.35 1.26 1.18 1.15 1.17 1.26 1.39
0.02 0.03 0.16 0.30 0.29 0.33 0.38 0.69 1.16 1.25 1.29 1.23 1.14 1.09 0.99 0.96 0.95 0.97 1.05 1.18 1.39 1.58 1.78 1.94 2.21 2.56 2.70 2.76 2.97 3.18 3.22 3.23 3.15 2.89 2.64 2.38 2.05 1.72 1.45 1.24 1.10 1.02 1.00 0.98 0.97 0.97 0.99 1.03 1.11
0.02 0.03 0.07 0.13 0.16 0.36 0.67 1.03 1.49 1.41 1.32 1.27 1.27 1.11 0.98 0.90 0.88 0.92 0.97 1.02 1.08 1.18 1.25 1.32 1.45 1.60 1.66 1.73 1.76 1.85 1.94 1.97 1.93 1.82 1.63 1.46 1.30 1.10 0.95 0.83 0.77 0.71 0.70 0.70 0.70 0.71 0.76 0.84 0.90
0.05 0.07 0.09 0.16 0.35 0.57 0.82 1.25 1.83 1.93 1.61 1.31 1.13 0.95 0.82 0.79 0.81 0.84 0.84 0.85 0.87 0.87 0.91 0.96 1.01 1.08 1.17 1.22 1.22 1.23 1.26 1.23 1.14 1.07 1.03 0.94 0.84 0.76 0.67 0.59 0.54 0.50 0.47 0.45 0.46 0.49 0.52 0.57 0.65
0.09 0.11 0.15 0.20 0.25 0.53 0.92 1.56 1.84 2.08 2.01 1.52 1.16 1.04 0.96 0.86 0.80 0.82 0.81 0.73 0.70 0.70 0.73 0.78 0.81 0.83 0.87 0.91 0.93 0.93 0.89 0.84 0.81 0.77 0.73 0.68 0.60 0.53 0.45 0.39 0.36 0.35 0.33 0.33 0.37 0.42 0.46 0.49 0.51
0.11 0.14 0.21 0.41 0.44 0.44 0.88 1.76 1.89 2.17 2.23 1.86 1.52 1.42 1.35 1.07 0.91 0.88 0.81 0.70 0.64 0.64 0.63 0.65 0.66 0.69 0.73 0.69 0.68 0.72 0.66 0.59 0.57 0.55 0.49 0.45 0.43 0.39 0.34 0.30 0.29 0.29 0.30 0.28 0.29 0.31 0.37 0.43 0.44

GEFSSGP_prec_meanprecacc_162.txt.gz
Total_Precipitation_Accumulation
0.00 0.00 0.00 0.00 0.00 0.01 0.03 0.05 0.08 0.18 0.25 0.23 0.26 0.31 0.32 0.41 0.54 1.09 0.68 0.26 0.14 0.07 0.05 0.04 0.04 0.06 0.09 0.10 0.13 0.14 0.15 0.14 0.13 0.11 0.11 0.11 0.11 0.11 0.10 0.11 0.15 0.19 0.21 0.20 0.18 0.18 0.18 0.15 0.12
0.00 0.00 0.00 0.00 0.00 0.02 0.04 0.05 0.09 0.17 0.20 0.19 0.22 0.27 0.26 0.26 0.25 0.24 0.32 0.21 0.15 0.09 0.07 0.04 0.04 0.05 0.06 0.08 0.10 0.14 0.15 0.15 0.13 0.12 0.11 0.11 0.12 0.13 0.13 0.15 0.20 0.26 0.30 0.31 0.26 0.21 0.19 0.16 0.11
0.00 0.00 0.00 0.00 0.00 0.04 0.08 0.08 0.11 0.15 0.17 0.22 0.25 0.35 0.35 0.27 0.26 0.24 0.27 0.19 0.16 0.11 0.09 0.05 0.05 0.05 0.05 0.06 0.09 0.14 0.16 0.15 0.15 0.17 0.16 0.14 0.14 0.15 0.18 0.22 0.25 0.30 0.33 0.31 0.27 0.25 0.22 0.16 0.11
0.00 0.00 0.00 0.00 0.01 0.03 0.08 0.11 0.14 0.17 0.17 0.19 0.20 0.36 0.40 0.30 0.33 0.32 0.30 0.23 0.19 0.16 0.11 0.08 0.09 0.09 0.07 0.07 0.08 0.12 0.16 0.18 0.19 0.20 0.20 0.18 0.18 0.18 0.24 0.31 0.34 0.33 0.32 0.32 0.32 0.31 0.25 0.18 0.13
0.00 0.00 0.00 0.00 0.01 0.03 0.09 0.13 0.14 0.17 0.17 0.16 0.22 0.39 0.54 0.51 0.50 0.50 0.43 0.35 0.29 0.23 0.18 0.14 0.13 0.13 0.12 0.11 0.11 0.15 0.19 0.23 0.29 0.32 0.29 0.25 0.24 0.25 0.30 0.36 0.39 0.37 0.40 0.39 0.36 0.30 0.22 0.15 0.14
0.00 0.00 0.00 0.01 0.02 0.04 0.07 0.14 0.13 0.15 0.16 0.19 0.31 0.60 0.90 0.96 0.93 0.83 0.75 0.51 0.40 0.29 0.31 0.27 0.20 0.19 0.19 0.18 0.18 0.22 0.28 0.32 0.37 0.38 0.32 0.28 0.27 0.28 0.32 0.35 0.36 0.38 0.38 0.33 0.25 0.19 0.15 0.15 0.16
0.00 0.00 0.00 0.01 0.02 0.04 0.08 0.12 0.14 0.17 0.21 0.27 0.44 0.67 0.92 1.14 1.20 1.15 1.03 0.79 0.71 0.57 0.58 0.48 0.34 0.31 0.30 0.32 0.33 0.30 0.29 0.31 0.35 0.38 0.32 0.27 0.26 0.25 0.27 0.29 0.30 0.30 0.25 0.21 0.19 0.16 0.14 0.14 0.13
0.00 0.00 0.00 0.01 0.03 0.04 0.09 0.13 0.15 0.22 0.27 0.32 0.54 0.77 1.12 1.19 1.06 1.19 1.17 1.04 1.04 1.02 0.96 0.63 0.43 0.43 0.48 0.47 0.43 0.41 0.36 0.36 0.35 0.33 0.32 0.27 0.25 0.25 0.27 0.25 0.27 0.28 0.26 0.23 0.20 0.17 0.16 0.16 0.14
0.00 0.00 0.00 0.01 0.04 0.05 0.07 0.09 0.12 0.15 0.21 0.34 0.54 0.70 0.91 0.97 0.97 1.22 1.26 1.36 1.41 1.22 1.03 0.86 0.66 0.60 0.60 0.56 0.47 0.46 0.45 0.44 0.43 0.40 0.37 0.34 0.35 0.39 0.39 0.35 0.37 0.34 0.32 0.27 0.25 0.23 0.21 0.19 0.18
0.00 0.00 0.01 0.02 0.03 0.06 0.07 0.08 0.10 0.11 0.14 0.30 0.51 0.70 0.87 0.91 1.09 1.25 1.37 1.63 1.48 1.36 1.18 1.09 0.99 0.86 0.78 0.64 0.65 0.62 0.58 0.57 0.52 0.60 0.54 0.58 0.74 0.81 0.73 0.80 0.66 0.52 0.43 0.38 0.39 0.36 0.30 0.27 0.27
0.00 0.01 0.02 0.03 0.03 0.05 0.08 0.08 0.10 0.18 0.31 0.61 0.79 0.82 0.78 0.86 1.07 1.34 1.61 1.89 1.81 1.57 1.31 1.25 1.26 1.29 1.24 1.18 1.05 0.89 0.88 0.89 0.82 0.91 0.84 0.93 1.05 1.01 1.03 1.14 0.96 0.81 0.67 0.64 0.70 0.55 0.47 0.45 0.51
0.00 0.03 0.06 0.06 0.07 0.10 0.10 0.09 0.15 0.29 0.44 0.62 0.71 0.76 0.86 0.93 1.08 1.33 1.61 1.81 1.94 1.86 1.66 1.68 1.50 1.44 1.52 1.69 1.60 1.23 1.14 1.12 1.03 1.18 1.15 1.28 1.44 1.46 1.51 1.52 1.31 1.23 1.16 1.14 1.04 0.95 0.82 0.72 0.68
0.00 0.03 0.07 0.06 0.08 0.12 0.12 0.14 0.16 0.19 0.19 0.33 0.45 0.63 0.85 0.86 0.98 1.16 1.55 2.04 2.29 2.26 2.09 1.99 1.86 1.76 1.82 2.03 1.98 1.55 1.46 1.56 1.72 1.82 1.65 1.61 1.61 1.68 1.82 1.75 1.65 1.57 1.62 1.54 1.36 1.20 1.22 1.19 1.03
0.01 0.02 0.04 0.05 0.08 0.10 0.13 0.12 0.15 0.18 0.22 0.29 0.38 0.52 0.80 1.05 1.30 1.50 1.77 2.22 2.52 2.58 2.41 2.29 2.13 2.10 2.10 2.18 2.15 2.12 1.92 1.97 2.12 2.18 2.08 1.94 1.95 2.10 2.22 2.19 2.04 1.86 1.88 1.80 1.67 1.55 1.55 1.47 1.42
0.01 0.01 0.03 0.05 0.09 0.08 0.08 0.15 0.23 0.20 0.23 0.32 0.40 0.54 0.77 1.01 1.28 1.54 1.97 2.24 2.31 2.28 2.22 2.28 2.20 2.26 2.34 2.38 2.29 2.40 2.45 2.51 2.61 2.62 2.42 2.21 2.20 2.49 2.49 2.50 2.32 2.15 2.12 2.15 2.05 1.93 1.88 1.67 1.56
0.01 0.02 0.05 0.07 0.08 0.08 0.06 0.20 0.34 0.25 0.22 0.24 0.38 0.59 0.71 0.84 1.10 1.41 1.75 1.98 2.04 2.35 2.44 2.47 2.47 2.46 2.48 2.57 2.59 2.63 2.66 2.96 3.00 3.01 2.93 2.65 2.50 2.63 2.73 2.73 2.59 2.41 2.28 2.44 2.54 2.42 2.29 2.11 2.03
0.01 0.03 0.06 0.09 0.08 0.06 0.07 0.18 0.28 0.26 0.26 0.33 0.51 0.76 0.75 0.85 1.13 1.49 1.81 2.02 2.17 2.35 2.62 2.60 2.58 2.68 2.64 2.71 2.67 2.86 3.08 3.17 3.11 3.11 3.15 3.05 2.93 3.00 3.01 2.94 2.92 2.87 2.86 2.84 2.68 2.69 2.55 2.55 2.46
0.02 0.04 0.06 0.09 0.08 0.06 0.10 0.22 0.31 0.31 0.36 0.53 0.63 0.73 0.83 0.88 0.99 1.26 1.66 2.09 2.32 2.35 2.39 2.58 2.63 2.74 2.77 2.97 3.02 3.11 3.27 3.43 3.56 3.75 3.82 3.60 3.53 3.43 3.51 3.44 3.35 3.31 3.26 3.09 3.04 2.98 2.80 2.65 2.52
0.04 0.05 0.05 0.08 0.09 0.11 0.15 0.21 0.33 0.41 0.52 0.56 0.56 0.57 0.60 0.80 0.97 1.19 1.55 1.92 2.45 2.52 2.48 2.62 2.85 2.98 3.07 3.32 3.41 3.58 3.90 4.10 4.27 4.36 4.27 4.18 4.02 4.08 4.07 3.92 3.67 3.51 3.51 3.41 3.32 3.14 2.98 2.75 2.55
0.03 0.08 0.09 0.09 0.11 0.15 0.22 0.29 0.39 0.47 0.52 0.52 0.59 0.71 0.75 0.91 1.16 1.34 1.55 2.04 2.53 2.77 2.86 2.90 3.12 3.41 3.67 3.89 4.24 4.57 4.85 5.05 5.22 5.27 4.83 4.56 4.42 4.36 4.32 4.33 4.24 3.98 3.79 3.58 3.35 3.23 3.10 2.77 2.57
0.03 0.05 0.09 0.11 0.12 0.14 0.23 0.43 0.56 0.57 0.57 0.67 0.86 1.03 1.10 1.17 1.39 1.50 1.70 2.11 2.49 2.70 2.86 2.99 3.25 3.68 4.23 4.59 5.00 5.43 5.63 5.68 5.52 5.27 5.14 4.94 4.77 4.64 4.49 4.34 4.10 3.89 3.75 3.62 3.41 3.18 3.06 2.82 2.62
0.02 0.03 0.05 0.06 0.08 0.15 0.22 0.49 0.78 0.83 0.86 1.02 1.17 1.11 1.13 1.31 1.52 1.70 1.90 2.16 2.48 2.68 2.80 3.13 3.65 4.27 4.82 5.28 5.83 6.35 6.48 6.32 6.00 5.56 5.16 4.87 4.57 4.25 3.99 3.84 3.73 3.56 3.29 3.08 2.92 2.77 2.59 2.46 2.35
0.04 0.02 0.03 0.04 0.04 0.11 0.17 0.38 0.92 1.09 1.14 1.33 1.56 1.29 1.18 1.20 1.33 1.55 1.74 1.95 2.26 2.42 2.66 3.05 3.66 4.37 5.07 5.89 6.57 6.97 6.88 6.55 6.15 5.49 4.91 4.39 3.99 3.66 3.39 3.26 3.05 2.82 2.51 2.20 2.09 2.13 2.16 2.11 2.05
0.04 0.03 0.03 0.04 0.05 0.12 0.15 0.35 0.94 1.32 1.47 1.63 1.53 1.31 1.18 1.14 1.11 1.16 1.26 1.50 1.76 2.08 2.41 2.82 3.45 4.19 4.86 5.49 6.00 6.16 6.09 5.92 5.46 4.77 4.18 3.81 3.47 3.13 2.74 2.41 2.11 1.89 1.73 1.53 1.48 1.51 1.60 1.75 1.82
0.05 0.05 0.13 0.20 0.25 0.23 0.21 0.41 0.95 1.31 1.50 1.44 1.33 1.30 1.13 1.06 1.01 0.98 1.01 1.22 1.50 1.75 2.11 2.53 2.99 3.58 4.01 4.36 4.76 4.90 4.92 4.76 4.50 4.08 3.67 3.27 2.77 2.41 2.12 1.85 1.67 1.50 1.40 1.30 1.23 1.21 1.23 1.33 1.46
0.05 0.04 0.18 0.34 0.34 0.37 0.41 0.73 1.20 1.27 1.31 1.25 1.17 1.14 1.07 1.06 1.03 1.03 1.09 1.20 1.41 1.61 1.82 2.00 2.28 2.63 2.78 2.85 3.05 3.26 3.31 3.31 3.25 3.03 2.77 2.49 2.14 1.79 1.52 1.30 1.16 1.07 1.05 1.02 1.04 1.04 1.06 1.09 1.17
0.04 0.04 0.08 0.15 0.18 0.40 0.70 1.06 1.54 1.44 1.34 1.30 1.30 1.14 1.04 0.97 0.93 0.97 1.01 1.04 1.10 1.20 1.28 1.36 1.50 1.66 1.73 1.80 1.84 1.93 2.02 2.05 2.00 1.89 1.71 1.53 1.37 1.16 1.00 0.86 0.81 0.76 0.74 0.75 0.75 0.77 0.82 0.90 0.95
0.06 0.07 0.10 0.17 0.37 0.61 0.87 1.33 1.93 2.00 1.66 1.36 1.16 0.98 0.85 0.83 0.87 0.93 0.91 0.89 0.89 0.89 0.94 0.99 1.05 1.14 1.22 1.27 1.27 1.28 1.32 1.29 1.20 1.14 1.09 1.00 0.90 0.82 0.73 0.63 0.58 0.53 0.50 0.49 0.51 0.54 0.56 0.61 0.69
0.10 0.11 0.15 0.21 0.27 0.57 0.98 1.66 1.95 2.18 2.06 1.57 1.19 1.06 0.97 0.88 0.83 0.87 0.86 0.76 0.72 0.72 0.75 0.80 0.83 0.85 0.89 0.94 0.96 0.97 0.94 0.89 0.86 0.83 0.79 0.73 0.65 0.57 0.49 0.43 0.39 0.38 0.36 0.37 0.42 0.46 0.49 0.51 0.54
0.11 0.14 0.21 0.42 0.46 0.47 0.93 1.82 1.93 2.22 2.27 1.90 1.54 1.43 1.36 1.09 0.94 0.91 0.85 0.73 0.67 0.66 0.64 0.66 0.67 0.70 0.75 0.73 0.72 0.74 0.68 0.62 0.61 0.60 0.53 0.48 0.46 0.42 0.36 0.33 0.31 0.31 0.32 0.31 0.32 0.35 0.39 0.44 0.46

GEFSSGP_prec_meanprecacc_168.txt.gz
Total_Precipitation_Accumulation
0.00 0.00 0.00 0.00 0.00 0.02 0.06 0.08 0.12 0.21 0.27 0.26 0.28 0.32 0.33 0.42 0.55 1.11 0.69 0.28 0.18 0.08 0.05 0.04 0.04 0.06 0.09 0.10 0.13 0.15 0.15 0.14 0.13 0.12 0.11 0.11 0.12 0.11 0.11 0.12 0.15 0.19 0.22 0.20 0.19 0.19 0.18 0.15 0.12
0.00 0.00 0.00 0.00 0.00 0.04 0.09 0.10 0.16 0.24 0.24 0.23 0.25 0.29 0.26 0.28 0.26 0.24 0.33 0.23 0.17 0.10 0.07 0.04 0.04 0.05 0.06 0.08 0.10 0.14 0.16 0.15 0.13 0.12 0.11 0.11 0.12 0.13 0.14 0.16 0.20 0.26 0.31 0.32 0.26 0.22 0.19 0.16 0.12
0.00 0.00 0.00 0.00 0.00 0.06 0.12 0.13 0.18 0.20 0.19 0.25 0.30 0.37 0.38 0.31 0.28 0.25 0.29 0.20 0.18 0.13 0.09 0.06 0.05 0.05 0.05 0.06 0.09 0.14 0.16 0.16 0.16 0.17 0.16 0.14 0.14 0.15 0.18 0.22 0.26 0.31 0.34 0.32 0.28 0.26 0.23 0.17 0.12
0.00 0.00 0.00 0.00 0.01 0.05 0.16 0.18 0.21 0.23 0.21 0.22 0.24 0.43 0.49 0.39 0.37 0.33 0.30 0.24 0.20 0.16 0.11 0.08 0.09 0.09 0.07 0.07 0.08 0.12 0.16 0.18 0.19 0.20 0.20 0.19 0.18 0.19 0.24 0.31 0.35 0.33 0.33 0.33 0.33 0.32 0.26 0.19 0.13
0.00 0.00 0.00 0.00 0.02 0.08 0.19 0.22 0.25 0.24 0.22 0.23 0.31 0.53 0.66 0.60 0.54 0.51 0.43 0.36 0.29 0.23 0.19 0.14 0.14 0.13 0.13 0.11 0.11 0.15 0.20 0.24 0.30 0.33 0.30 0.25 0.24 0.26 0.30 0.37 0.40 0.38 0.41 0.40 0.37 0.30 0.23 0.16 0.15
0.00 0.00 0.00 0.01 0.03 0.09 0.15 0.22 0.20 0.23 0.25 0.27 0.40 0.77 1.04 1.04 0.98 0.86 0.77 0.52 0.40 0.29 0.32 0.27 0.21 0.19 0.19 0.18 0.18 0.22 0.28 0.33 0.37 0.38 0.33 0.29 0.28 0.28 0.33 0.36 0.37 0.39 0.39 0.34 0.26 0.20 0.16 0.16 0.17
0.00 0.00 0.00 0.01 0.05 0.12 0.16 0.19 0.20 0.26 0.27 0.32 0.50 0.76 1.02 1.18 1.24 1.17 1.04 0.80 0.71 0.57 0.58 0.48 0.35 0.31 0.30 0.33 0.33 0.30 0.29 0.31 0.36 0.39 0.33 0.27 0.27 0.26 0.28 0.29 0.31 0.31 0.26 0.22 0.20 0.17 0.15 0.14 0.14
0.00 0.00 0.00 0.02 0.06 0.11 0.22 0.24 0.26 0.30 0.31 0.36 0.62 0.86 1.19 1.23 1.09 1.21 1.18 1.04 1.05 1.02 0.96 0.63 0.44 0.43 0.49 0.48 0.44 0.42 0.36 0.36 0.36 0.34 0.33 0.28 0.26 0.26 0.28 0.26 0.28 0.29 0.27 0.24 0.21 0.17 0.17 0.17 0.16
0.00 0.00 0.01 0.02 0.07 0.12 0.18 0.28 0.29 0.22 0.24 0.37 0.61 0.82 0.99 1.00 0.99 1.24 1.27 1.37 1.41 1.22 1.03 0.86 0.67 0.61 0.61 0.57 0.48 0.47 0.46 0.45 0.44 0.41 0.39 0.36 0.36 0.40 0.41 0.37 0.39 0.36 0.35 0.29 0.27 0.24 0.22 0.20 0.19
0.00 0.00 0.01 0.03 0.05 0.12 0.19 0.26 0.22 0.21 0.20 0.33 0.54 0.78 0.98 0.95 1.12 1.28 1.38 1.64 1.49 1.36 1.19 1.10 0.99 0.87 0.79 0.65 0.66 0.64 0.60 0.61 0.56 0.63 0.58 0.61 0.77 0.83 0.75 0.83 0.70 0.57 0.47 0.42 0.42 0.39 0.32 0.29 0.28
0.00 0.01 0.02 0.05 0.05 0.09 0.18 0.26 0.23 0.27 0.38 0.64 0.82 0.87 0.87 0.90 1.11 1.37 1.63 1.93 1.88 1.62 1.34 1.27 1.28 1.30 1.24 1.19 1.06 0.90 0.89 0.92 0.84 0.93 0.86 0.96 1.08 1.04 1.07 1.19 1.01 0.85 0.71 0.67 0.72 0.58 0.49 0.47 0.53
0.01 0.03 0.07 0.08 0.11 0.17 0.25 0.37 0.48 0.46 0.52 0.69 0.78 0.82 0.90 0.96 1.12 1.37 1.64 1.86 2.01 1.93 1.72 1.74 1.55 1.46 1.53 1.70 1.60 1.23 1.15 1.13 1.05 1.20 1.17 1.31 1.47 1.49 1.56 1.58 1.37 1.28 1.20 1.17 1.07 1.00 0.86 0.76 0.72
0.01 0.04 0.09 0.07 0.13 0.23 0.34 0.41 0.49 0.42 0.32 0.44 0.55 0.71 0.91 0.92 1.06 1.25 1.61 2.11 2.35 2.32 2.15 2.10 1.93 1.80 1.85 2.05 2.00 1.56 1.47 1.58 1.74 1.84 1.68 1.63 1.63 1.71 1.87 1.80 1.70 1.62 1.67 1.60 1.45 1.28 1.29 1.25 1.08
0.01 0.03 0.05 0.07 0.13 0.16 0.24 0.27 0.38 0.49 0.41 0.43 0.50 0.62 0.88 1.14 1.39 1.60 1.85 2.30 2.59 2.64 2.47 2.35 2.19 2.14 2.13 2.21 2.17 2.15 1.95 1.99 2.14 2.20 2.12 1.98 1.98 2.13 2.27 2.25 2.10 1.91 1.93 1.85 1.72 1.62 1.61 1.53 1.48
0.02 0.02 0.04 0.08 0.14 0.14 0.16 0.29 0.42 0.46 0.40 0.42 0.50 0.63 0.87 1.17 1.40 1.64 2.08 2.37 2.43 2.37 2.30 2.35 2.25 2.31 2.38 2.42 2.32 2.44 2.49 2.54 2.64 2.65 2.46 2.26 2.25 2.53 2.54 2.56 2.37 2.21 2.17 2.21 2.11 2.01 1.95 1.73 1.62
0.03 0.03 0.06 0.11 0.14 0.17 0.14 0.30 0.46 0.35 0.30 0.33 0.49 0.68 0.81 0.96 1.26 1.55 1.89 2.13 2.23 2.48 2.55 2.58 2.57 2.55 2.55 2.63 2.64 2.67 2.70 3.00 3.04 3.05 2.98 2.69 2.55 2.68 2.78 2.78 2.64 2.47 2.35 2.50 2.60 2.49 2.36 2.16 2.08
0.03 0.04 0.07 0.12 0.14 0.16 0.16 0.26 0.36 0.32 0.31 0.40 0.60 0.87 0.87 0.98 1.29 1.64 1.95 2.17 2.32 2.49 2.75 2.73 2.68 2.78 2.75 2.79 2.73 2.92 3.13 3.21 3.15 3.15 3.19 3.09 2.97 3.04 3.06 3.00 2.98 2.93 2.93 2.91 2.75 2.77 2.62 2.60 2.51
0.04 0.06 0.08 0.13 0.15 0.14 0.18 0.29 0.36 0.37 0.40 0.59 0.73 0.85 0.97 1.04 1.14 1.38 1.76 2.19 2.42 2.49 2.51 2.68 2.70 2.80 2.84 3.04 3.07 3.15 3.32 3.47 3.61 3.79 3.85 3.63 3.56 3.46 3.55 3.49 3.41 3.38 3.33 3.17 3.12 3.06 2.87 2.70 2.57
0.05 0.07 0.08 0.11 0.15 0.17 0.22 0.30 0.40 0.49 0.57 0.60 0.60 0.64 0.73 0.99 1.15 1.37 1.70 2.06 2.60 2.66 2.58 2.69 2.90 3.02 3.11 3.36 3.46 3.63 3.95 4.15 4.31 4.40 4.31 4.23 4.09 4.14 4.12 3.97 3.73 3.57 3.57 3.47 3.40 3.22 3.05 2.82 2.62
0.04 0.09 0.11 0.11 0.14 0.20 0.32 0.40 0.50 0.57 0.58 0.57 0.65 0.78 0.89 1.12 1.40 1.54 1.73 2.16 2.62 2.84 2.91 2.94 3.15 3.43 3.70 3.93 4.29 4.62 4.90 5.10 5.27 5.31 4.87 4.62 4.50 4.44 4.38 4.38 4.29 4.04 3.86 3.64 3.42 3.32 3.18 2.84 2.64
0.04 0.07 0.12 0.14 0.14 0.20 0.36 0.55 0.67 0.72 0.70 0.76 0.96 1.17 1.29 1.34 1.60 1.70 1.87 2.22 2.57 2.77 2.91 3.04 3.30 3.72 4.26 4.62 5.05 5.48 5.67 5.72 5.55 5.30 5.18 5.03 4.87 4.73 4.57 4.42 4.17 3.97 3.83 3.69 3.48 3.26 3.12 2.88 2.69
0.03 0.05 0.10 0.10 0.10 0.18 0.31 0.59 0.88 0.92 0.97 1.11 1.28 1.27 1.36 1.51 1.72 1.85 2.04 2.27 2.56 2.78 2.89 3.22 3.73 4.32 4.86 5.31 5.86 6.39 6.54 6.37 6.06 5.63 5.24 4.95 4.66 4.33 4.08 3.94 3.84 3.69 3.40 3.16 3.00 2.84 2.65 2.51 2.39
0.04 0.04 0.08 0.09 0.05 0.12 0.23 0.46 1.01 1.17 1.23 1.45 1.68 1.43 1.38 1.42 1.51 1.73 1.89 2.05 2.40 2.56 2.76 3.13 3.72 4.42 5.11 5.92 6.60 7.00 6.91 6.60 6.21 5.56 4.98 4.48 4.09 3.76 3.49 3.36 3.18 2.96 2.62 2.28 2.16 2.19 2.22 2.18 2.10
0.05 0.04 0.06 0.08 0.07 0.13 0.18 0.40 0.99 1.41 1.56 1.70 1.64 1.47 1.40 1.30 1.27 1.34 1.39 1.65 1.96 2.23 2.48 2.87 3.50 4.24 4.90 5.53 6.04 6.20 6.14 5.97 5.50 4.83 4.25 3.89 3.56 3.23 2.85 2.52 2.22 2.00 1.83 1.61 1.55 1.57 1.67 1.81 1.87
0.06 0.06 0.16 0.24 0.27 0.25 0.24 0.45 1.00 1.37 1.54 1.50 1.42 1.41 1.23 1.15 1.14 1.12 1.15 1.33 1.64 1.86 2.18 2.58 3.03 3.64 4.08 4.43 4.82 4.96 4.99 4.82 4.56 4.15 3.74 3.36 2.89 2.55 2.26 1.95 1.75 1.58 1.47 1.37 1.30 1.28 1.29 1.38 1.51
0.05 0.06 0.21 0.38 0.36 0.39 0.44 0.77 1.27 1.37 1.37 1.30 1.23 1.20 1.13 1.12 1.12 1.13 1.18 1.31 1.54 1.68 1.88 2.06 2.34 2.69 2.84 2.90 3.10 3.31 3.35 3.36 3.30 3.08 2.84 2.57 2.23 1.87 1.60 1.38 1.23 1.14 1.12 1.09 1.09 1.09 1.10 1.13 1.20
0.05 0.05 0.10 0.17 0.19 0.43 0.73 1.12 1.59 1.54 1.46 1.40 1.39 1.22 1.13 1.07 1.04 1.11 1.15 1.13 1.17 1.26 1.33 1.41 1.55 1.71 1.77 1.84 1.87 1.96 2.05 2.08 2.03 1.92 1.74 1.56 1.40 1.20 1.04 0.93 0.90 0.84 0.81 0.81 0.80 0.81 0.85 0.92 0.97
0.06 0.08 0.11 0.18 0.39 0.63 0.90 1.38 1.99 2.05 1.74 1.46 1.27 1.07 0.96 0.94 0.97 1.05 1.07 0.98 0.96 0.95 0.98 1.03 1.09 1.17 1.26 1.31 1.30 1.31 1.34 1.31 1.23 1.15 1.11 1.02 0.93 0.84 0.77 0.69 0.64 0.59 0.56 0.55 0.56 0.58 0.59 0.64 0.72
0.10 0.13 0.16 0.21 0.29 0.60 1.04 1.72 2.01 2.25 2.13 1.68 1.33 1.15 1.04 0.94 0.89 0.93 0.93 0.84 0.79 0.78 0.79 0.83 0.86 0.88 0.92 0.95 0.97 0.98 0.95 0.90 0.88 0.84 0.81 0.75 0.67 0.59 0.52 0.47 0.44 0.43 0.43 0.43 0.48 0.51 0.53 0.54 0.56
0.12 0.15 0.22 0.43 0.47 0.49 0.97 1.87 1.98 2.29 2.35 2.03 1.71 1.55 1.45 1.17 1.01 0.97 0.90 0.78 0.71 0.69 0.67 0.69 0.70 0.72 0.77 0.75 0.73 0.75 0.69 0.63 0.62 0.61 0.55 0.50 0.48 0.44 0.39 0.36 0.35 0.36 0.36 0.36 0.37 0.39 0.42 0.47 0.48

GEFSSGP_prec_meanprecacc_174.txt.gz
Total_Precipitation_Accumulation
0.00 0.00 0.00 0.00 0.00 0.02 0.07 0.10 0.13 0.23 0.29 0.28 0.29 0.34 0.35 0.43 0.56 1.12 0.70 0.28 0.18 0.09 0.05 0.04 0.05 0.07 0.09 0.10 0.13 0.15 0.15 0.14 0.14 0.12 0.11 0.11 0.12 0.12 0.11 0.13 0.16 0.20 0.22 0.21 0.20 0.20 0.19 0.16 0.14
0.00 0.00 0.00 0.00 0.00 0.05 0.11 0.12 0.19 0.26 0.26 0.25 0.27 0.30 0.27 0.29 0.27 0.25 0.34 0.23 0.18 0.10 0.08 0.04 0.04 0.05 0.07 0.08 0.10 0.14 0.16 0.15 0.13 0.12 0.12 0.12 0.12 0.13 0.14 0.16 0.21 0.27 0.31 0.32 0.27 0.23 0.20 0.18 0.13
0.00 0.00 0.00 0.00 0.00 0.07 0.14 0.17 0.22 0.23 0.21 0.26 0.32 0.39 0.39 0.33 0.30 0.26 0.30 0.20 0.18 0.13 0.09 0.06 0.06 0.06 0.05 0.06 0.09 0.14 0.16 0.16 0.16 0.17 0.16 0.14 0.14 0.15 0.19 0.23 0.26 0.31 0.34 0.33 0.29 0.26 0.24 0.18 0.14
0.00 0.00 0.00 0.00 0.01 0.05 0.17 0.21 0.25 0.26 0.23 0.23 0.25 0.44 0.49 0.40 0.39 0.35 0.31 0.24 0.20 0.17 0.11 0.09 0.09 0.09 0.07 0.07 0.08 0.12 0.16 0.18 0.19 0.21 0.20 0.19 0.19 0.19 0.25 0.32 0.35 0.34 0.34 0.34 0.34 0.32 0.27 0.20 0.15
0.00 0.00 0.00 0.00 0.02 0.08 0.20 0.25 0.28 0.27 0.24 0.24 0.31 0.54 0.67 0.60 0.55 0.53 0.44 0.36 0.29 0.23 0.19 0.14 0.14 0.13 0.13 0.12 0.11 0.15 0.20 0.24 0.30 0.33 0.30 0.26 0.25 0.26 0.31 0.38 0.40 0.39 0.41 0.40 0.38 0.31 0.24 0.18 0.16
0.01 0.00 0.00 0.01 0.04 0.10 0.16 0.23 0.22 0.26 0.28 0.28 0.41 0.78 1.06 1.06 1.00 0.87 0.78 0.52 0.41 0.30 0.32 0.27 0.21 0.20 0.20 0.19 0.18 0.22 0.28 0.33 0.37 0.38 0.33 0.30 0.28 0.29 0.33 0.37 0.37 0.40 0.41 0.35 0.27 0.21 0.17 0.17 0.19
0.00 0.00 0.00 0.01 0.06 0.12 0.17 0.20 0.22 0.29 0.29 0.33 0.51 0.76 1.02 1.19 1.27 1.20 1.06 0.81 0.71 0.58 0.58 0.48 0.35 0.31 0.30 0.33 0.34 0.30 0.30 0.32 0.37 0.40 0.33 0.28 0.28 0.27 0.29 0.30 0.32 0.32 0.27 0.23 0.21 0.18 0.16 0.15 0.16
0.00 0.00 0.00 0.02 0.07 0.12 0.23 0.26 0.29 0.34 0.33 0.38 0.64 0.87 1.19 1.23 1.10 1.26 1.23 1.06 1.05 1.02 0.96 0.63 0.44 0.44 0.49 0.49 0.45 0.42 0.38 0.38 0.37 0.35 0.34 0.29 0.27 0.27 0.29 0.27 0.29 0.30 0.29 0.26 0.22 0.18 0.18 0.18 0.17
0.00 0.00 0.01 0.02 0.08 0.12 0.20 0.30 0.32 0.26 0.28 0.40 0.63 0.83 1.00 1.00 1.00 1.27 1.33 1.38 1.42 1.22 1.03 0.86 0.67 0.61 0.62 0.58 0.49 0.48 0.47 0.46 0.45 0.43 0.40 0.37 0.38 0.42 0.42 0.38 0.40 0.38 0.37 0.32 0.30 0.27 0.24 0.23 0.22
0.00 0.00 0.01 0.03 0.05 0.12 0.21 0.30 0.27 0.29 0.28 0.38 0.57 0.80 0.99 0.96 1.14 1.30 1.40 1.66 1.50 1.37 1.19 1.10 1.00 0.88 0.80 0.66 0.67 0.65 0.61 0.62 0.57 0.65 0.59 0.62 0.79 0.84 0.77 0.85 0.72 0.59 0.51 0.45 0.46 0.44 0.36 0.31 0.31
0.00 0.01 0.03 0.05 0.06 0.10 0.20 0.30 0.30 0.38 0.51 0.72 0.86 0.89 0.89 0.92 1.15 1.39 1.65 1.94 1.89 1.64 1.35 1.28 1.29 1.31 1.25 1.19 1.06 0.91 0.90 0.92 0.85 0.94 0.87 0.97 1.09 1.05 1.08 1.21 1.04 0.89 0.75 0.70 0.75 0.62 0.52 0.50 0.56
0.01 0.03 0.07 0.08 0.12 0.17 0.26 0.39 0.56 0.60 0.70 0.85 0.90 0.88 0.96 1.01 1.18 1.42 1.67 1.88 2.05 1.97 1.75 1.76 1.57 1.48 1.55 1.72 1.62 1.25 1.16 1.14 1.05 1.20 1.18 1.31 1.47 1.50 1.58 1.60 1.41 1.33 1.25 1.21 1.10 1.03 0.90 0.80 0.76
0.01 0.04 0.09 0.08 0.14 0.23 0.35 0.42 0.53 0.50 0.41 0.55 0.67 0.82 1.01 0.98 1.15 1.35 1.66 2.13 2.39 2.35 2.18 2.16 2.00 1.85 1.90 2.10 2.05 1.59 1.49 1.59 1.75 1.85 1.69 1.64 1.64 1.72 1.88 1.82 1.73 1.65 1.70 1.63 1.48 1.31 1.33 1.29 1.12
0.01 0.03 0.05 0.08 0.13 0.17 0.25 0.28 0.40 0.54 0.50 0.55 0.61 0.74 0.96 1.20 1.48 1.71 1.94 2.35 2.63 2.71 2.56 2.46 2.31 2.25 2.21 2.29 2.23 2.19 1.99 2.03 2.18 2.23 2.15 2.01 2.00 2.15 2.29 2.27 2.12 1.93 1.95 1.88 1.75 1.66 1.67 1.59 1.53
0.02 0.02 0.05 0.08 0.15 0.16 0.17 0.31 0.45 0.54 0.58 0.60 0.59 0.70 0.95 1.25 1.50 1.74 2.17 2.45 2.53 2.52 2.48 2.53 2.40 2.44 2.49 2.52 2.40 2.50 2.54 2.60 2.70 2.70 2.50 2.30 2.28 2.56 2.57 2.59 2.40 2.23 2.20 2.24 2.15 2.05 2.00 1.79 1.68
0.04 0.04 0.07 0.12 0.16 0.20 0.16 0.33 0.48 0.39 0.42 0.51 0.62 0.76 0.89 1.05 1.38 1.68 2.01 2.27 2.41 2.71 2.76 2.74 2.69 2.66 2.68 2.76 2.76 2.78 2.78 3.07 3.10 3.11 3.04 2.75 2.60 2.72 2.82 2.81 2.69 2.52 2.39 2.55 2.66 2.55 2.42 2.23 2.14
0.04 0.05 0.08 0.14 0.16 0.18 0.18 0.28 0.39 0.35 0.35 0.50 0.75 0.96 0.94 1.05 1.41 1.78 2.09 2.34 2.49 2.65 2.90 2.85 2.80 2.92 2.90 2.98 2.92 3.09 3.28 3.31 3.24 3.23 3.28 3.18 3.04 3.10 3.13 3.07 3.07 3.01 2.99 2.98 2.81 2.85 2.70 2.68 2.59
0.05 0.07 0.09 0.14 0.17 0.17 0.20 0.30 0.38 0.39 0.44 0.63 0.79 0.91 1.01 1.10 1.23 1.52 1.94 2.38 2.58 2.64 2.65 2.78 2.78 2.90 2.94 3.16 3.20 3.27 3.44 3.58 3.71 3.88 3.96 3.74 3.66 3.56 3.66 3.60 3.51 3.49 3.43 3.25 3.19 3.13 2.96 2.79 2.67
0.05 0.07 0.08 0.11 0.15 0.18 0.24 0.31 0.43 0.52 0.62 0.65 0.65 0.69 0.77 1.05 1.26 1.55 1.88 2.21 2.71 2.76 2.67 2.78 2.99 3.13 3.23 3.46 3.55 3.72 4.02 4.23 4.39 4.48 4.39 4.32 4.18 4.24 4.23 4.07 3.82 3.68 3.69 3.58 3.51 3.32 3.14 2.92 2.72
0.05 0.09 0.11 0.11 0.14 0.21 0.33 0.42 0.52 0.61 0.66 0.64 0.71 0.85 0.95 1.23 1.55 1.75 1.94 2.29 2.71 2.93 3.01 3.05 3.28 3.58 3.82 4.04 4.41 4.73 4.97 5.16 5.34 5.37 4.92 4.68 4.57 4.51 4.46 4.46 4.37 4.14 3.95 3.76 3.55 3.45 3.29 2.94 2.75
0.04 0.07 0.12 0.14 0.15 0.20 0.37 0.57 0.70 0.77 0.82 0.88 1.05 1.27 1.37 1.44 1.75 1.86 1.99 2.32 2.66 2.87 3.02 3.17 3.41 3.84 4.39 4.74 5.15 5.56 5.74 5.78 5.62 5.36 5.22 5.07 4.92 4.79 4.64 4.49 4.26 4.07 3.94 3.81 3.61 3.39 3.24 2.99 2.80
0.03 0.05 0.11 0.10 0.10 0.18 0.33 0.62 0.93 0.97 1.05 1.23 1.40 1.36 1.44 1.60 1.80 1.94 2.11 2.34 2.65 2.86 2.97 3.32 3.85 4.46 4.98 5.41 5.94 6.45 6.59 6.42 6.11 5.67 5.27 5.00 4.71 4.40 4.16 4.04 3.94 3.78 3.50 3.27 3.12 2.98 2.78 2.63 2.50
0.04 0.04 0.09 0.09 0.06 0.13 0.24 0.49 1.09 1.24 1.30 1.53 1.77 1.51 1.44 1.48 1.56 1.79 1.95 2.12 2.48 2.65 2.83 3.21 3.82 4.52 5.20 6.00 6.67 7.07 6.97 6.66 6.26 5.60 5.03 4.55 4.16 3.82 3.56 3.44 3.27 3.05 2.71 2.37 2.25 2.29 2.33 2.28 2.20
0.05 0.04 0.06 0.08 0.07 0.14 0.19 0.41 1.03 1.44 1.57 1.73 1.70 1.54 1.44 1.35 1.32 1.39 1.45 1.71 2.05 2.32 2.57 2.96 3.58 4.34 5.01 5.64 6.14 6.30 6.23 6.05 5.56 4.89 4.31 3.94 3.60 3.28 2.92 2.59 2.30 2.08 1.90 1.68 1.62 1.65 1.74 1.90 1.97
0.06 0.06 0.16 0.25 0.28 0.26 0.24 0.45 1.01 1.38 1.55 1.51 1.46 1.46 1.27 1.19 1.19 1.18 1.21 1.40 1.72 1.94 2.32 2.72 3.15 3.77 4.21 4.55 4.94 5.07 5.08 4.90 4.62 4.20 3.79 3.39 2.92 2.59 2.29 1.99 1.82 1.65 1.55 1.46 1.39 1.35 1.36 1.45 1.58
0.06 0.06 0.21 0.38 0.37 0.40 0.44 0.78 1.28 1.37 1.39 1.32 1.26 1.23 1.16 1.17 1.17 1.18 1.25 1.39 1.63 1.76 1.97 2.17 2.47 2.81 2.94 2.99 3.20 3.42 3.46 3.44 3.36 3.11 2.85 2.58 2.24 1.88 1.61 1.40 1.25 1.17 1.16 1.14 1.16 1.15 1.16 1.19 1.25
0.05 0.05 0.10 0.17 0.20 0.43 0.74 1.12 1.59 1.54 1.48 1.43 1.41 1.24 1.15 1.11 1.09 1.16 1.22 1.22 1.26 1.33 1.39 1.48 1.62 1.76 1.82 1.90 1.94 2.05 2.13 2.15 2.10 1.96 1.75 1.57 1.41 1.21 1.05 0.94 0.91 0.86 0.84 0.85 0.85 0.86 0.90 0.97 1.02
0.06 0.08 0.11 0.18 0.39 0.64 0.91 1.38 1.99 2.06 1.74 1.47 1.29 1.08 0.98 0.98 1.02 1.10 1.13 1.07 1.04 1.01 1.03 1.09 1.14 1.22 1.30 1.35 1.33 1.35 1.38 1.36 1.29 1.19 1.13 1.03 0.94 0.86 0.79 0.71 0.66 0.61 0.58 0.59 0.61 0.62 0.63 0.69 0.77
0.10 0.13 0.17 0.21 0.29 0.61 1.04 1.73 2.02 2.26 2.13 1.69 1.34 1.16 1.05 0.97 0.94 0.98 0.97 0.92 0.86 0.84 0.86 0.90 0.92 0.94 0.96 0.98 0.99 1.00 0.96 0.91 0.89 0.86 0.82 0.77 0.69 0.60 0.54 0.49 0.45 0.45 0.45 0.47 0.53 0.58 0.59 0.59 0.61
0.12 0.15 0.22 0.44 0.47 0.50 0.98 1.88 1.98 2.30 2.36 2.04 1.71 1.56 1.45 1.18 1.04 1.00 0.93 0.84 0.77 0.75 0.74 0.77 0.75 0.76 0.80 0.77 0.74 0.76 0.70 0.63 0.63 0.61 0.55 0.50 0.49 0.45 0.40 0.37 0.36 0.38 0.39 0.39 0.41 0.44 0.48 0.53 0.54